﻿<?xml version="1.0" encoding="utf-8"?><gpx creator="Garmin Desktop App" version="1.1" xsi:schemaLocation="http://www.topografix.com/GPX/1/1 http://www.topografix.com/GPX/1/1/gpx.xsd http://www.garmin.com/xmlschemas/WaypointExtension/v1 http://www8.garmin.com/xmlschemas/WaypointExtensionv1.xsd http://www.garmin.com/xmlschemas/TrackPointExtension/v1 http://www.garmin.com/xmlschemas/TrackPointExtensionv1.xsd http://www.garmin.com/xmlschemas/GpxExtensions/v3 http://www8.garmin.com/xmlschemas/GpxExtensionsv3.xsd http://www.garmin.com/xmlschemas/ActivityExtension/v1 http://www8.garmin.com/xmlschemas/ActivityExtensionv1.xsd http://www.garmin.com/xmlschemas/AdventuresExtensions/v1 http://www8.garmin.com/xmlschemas/AdventuresExtensionv1.xsd" xmlns="http://www.topografix.com/GPX/1/1" xmlns:xsi="http://www.w3.org/2001/XMLSchema-instance" xmlns:wptx1="http://www.garmin.com/xmlschemas/WaypointExtension/v1" xmlns:gpxtrx="http://www.garmin.com/xmlschemas/GpxExtensions/v3" xmlns:gpxtpx="http://www.garmin.com/xmlschemas/TrackPointExtension/v1" xmlns:gpxx="http://www.garmin.com/xmlschemas/GpxExtensions/v3" xmlns:trp="http://www.garmin.com/xmlschemas/TripExtensions/v1" xmlns:adv="http://www.garmin.com/xmlschemas/AdventuresExtensions/v1">

  <metadata>
    <link href="http://www.garmin.com">
      <text>Garmin International</text>
    </link>
    <time>2012-07-23T16:52:30Z</time>
    <bounds maxlat="46.172202369198203" maxlon="7.316864775493741" minlat="46.079186210408807" minlon="7.21523143351078" />
  </metadata>

  <trk>
    <name>Tracé actuel: 23 JUIL 2012 09:02</name>
    <extensions>
      <gpxx:TrackExtension>
        <gpxx:DisplayColor>DarkGray</gpxx:DisplayColor>
      </gpxx:TrackExtension>
    </extensions>
    <trkseg>
      <trkpt lat="46.103988345712423" lon="7.22447038628161">
        <ele>1602.6600000000001</ele>
        <time>2012-07-23T07:02:03Z</time>
      </trkpt>
      <trkpt lat="46.103984406217933" lon="7.22446896135807">
        <ele>1602.1700000000001</ele>
        <time>2012-07-23T07:02:04Z</time>
      </trkpt>
      <trkpt lat="46.10394031740725" lon="7.224595611914992">
        <ele>1599.77</ele>
        <time>2012-07-23T07:02:12Z</time>
      </trkpt>
      <trkpt lat="46.1039222124964" lon="7.22460868768394">
        <ele>1599.77</ele>
        <time>2012-07-23T07:02:13Z</time>
      </trkpt>
      <trkpt lat="46.103901006281376" lon="7.224617153406143">
        <ele>1599.29</ele>
        <time>2012-07-23T07:02:14Z</time>
      </trkpt>
      <trkpt lat="46.103875860571861" lon="7.22462335601449">
        <ele>1599.29</ele>
        <time>2012-07-23T07:02:15Z</time>
      </trkpt>
      <trkpt lat="46.103845769539475" lon="7.224626792594791">
        <ele>1598.8099999999999</ele>
        <time>2012-07-23T07:02:16Z</time>
      </trkpt>
      <trkpt lat="46.103810900822282" lon="7.224629139527679">
        <ele>1598.8099999999999</ele>
        <time>2012-07-23T07:02:17Z</time>
      </trkpt>
      <trkpt lat="46.103776283562183" lon="7.224637269973755">
        <ele>1598.8099999999999</ele>
        <time>2012-07-23T07:02:18Z</time>
      </trkpt>
      <trkpt lat="46.103743510320783" lon="7.2246487531811">
        <ele>1598.3299999999999</ele>
        <time>2012-07-23T07:02:19Z</time>
      </trkpt>
      <trkpt lat="46.103647369891405" lon="7.2246712166816">
        <ele>1597.3699999999999</ele>
        <time>2012-07-23T07:02:22Z</time>
      </trkpt>
      <trkpt lat="46.103548966348171" lon="7.224717065691948">
        <ele>1597.3699999999999</ele>
        <time>2012-07-23T07:02:25Z</time>
      </trkpt>
      <trkpt lat="46.103506470099092" lon="7.224822090938687">
        <ele>1596.4100000000001</ele>
        <time>2012-07-23T07:02:27Z</time>
      </trkpt>
      <trkpt lat="46.103510241955519" lon="7.224889732897282">
        <ele>1595.9300000000001</ele>
        <time>2012-07-23T07:02:28Z</time>
      </trkpt>
      <trkpt lat="46.10352935269475" lon="7.224958129227161">
        <ele>1595.9300000000001</ele>
        <time>2012-07-23T07:02:29Z</time>
      </trkpt>
      <trkpt lat="46.103542596101761" lon="7.225027782842517">
        <ele>1595.9300000000001</ele>
        <time>2012-07-23T07:02:30Z</time>
      </trkpt>
      <trkpt lat="46.103544691577554" lon="7.225092155858874">
        <ele>1595.9300000000001</ele>
        <time>2012-07-23T07:02:31Z</time>
      </trkpt>
      <trkpt lat="46.103535052388906" lon="7.225145883858204">
        <ele>1596.8900000000001</ele>
        <time>2012-07-23T07:02:32Z</time>
      </trkpt>
      <trkpt lat="46.103520132601261" lon="7.225192571058869">
        <ele>1596.8900000000001</ele>
        <time>2012-07-23T07:02:33Z</time>
      </trkpt>
      <trkpt lat="46.103505548089743" lon="7.225238084793091">
        <ele>1597.3699999999999</ele>
        <time>2012-07-23T07:02:34Z</time>
      </trkpt>
      <trkpt lat="46.103494316339493" lon="7.22528200596571">
        <ele>1597.3699999999999</ele>
        <time>2012-07-23T07:02:35Z</time>
      </trkpt>
      <trkpt lat="46.10348735935986" lon="7.225326178595424">
        <ele>1597.8499999999999</ele>
        <time>2012-07-23T07:02:36Z</time>
      </trkpt>
      <trkpt lat="46.103481911122799" lon="7.225369513034821">
        <ele>1597.8499999999999</ele>
        <time>2012-07-23T07:02:37Z</time>
      </trkpt>
      <trkpt lat="46.103475540876389" lon="7.225411171093583">
        <ele>1597.8499999999999</ele>
        <time>2012-07-23T07:02:38Z</time>
      </trkpt>
      <trkpt lat="46.103498423472047" lon="7.226094380021095">
        <ele>1601.21</ele>
        <time>2012-07-23T07:02:55Z</time>
      </trkpt>
      <trkpt lat="46.10370235517621" lon="7.226682789623737">
        <ele>1606.5</ele>
        <time>2012-07-23T07:03:12Z</time>
      </trkpt>
      <trkpt lat="46.104064453393221" lon="7.22710557281971">
        <ele>1608.9000000000001</ele>
        <time>2012-07-23T07:03:29Z</time>
      </trkpt>
      <trkpt lat="46.104468293488026" lon="7.227405142039061">
        <ele>1612.75</ele>
        <time>2012-07-23T07:03:46Z</time>
      </trkpt>
      <trkpt lat="46.104908008128405" lon="7.227768413722515">
        <ele>1616.5899999999999</ele>
        <time>2012-07-23T07:04:06Z</time>
      </trkpt>
      <trkpt lat="46.105316122993827" lon="7.228102600201964">
        <ele>1621.4000000000001</ele>
        <time>2012-07-23T07:04:25Z</time>
      </trkpt>
      <trkpt lat="46.105684591457248" lon="7.22839068621397">
        <ele>1625.73</ele>
        <time>2012-07-23T07:04:43Z</time>
      </trkpt>
      <trkpt lat="46.106006037443876" lon="7.228658655658364">
        <ele>1629.0899999999999</ele>
        <time>2012-07-23T07:04:59Z</time>
      </trkpt>
      <trkpt lat="46.10625640489161" lon="7.229090910404921">
        <ele>1633.9000000000001</ele>
        <time>2012-07-23T07:05:15Z</time>
      </trkpt>
      <trkpt lat="46.106389425694942" lon="7.229623664170504">
        <ele>1639.1900000000001</ele>
        <time>2012-07-23T07:05:32Z</time>
      </trkpt>
      <trkpt lat="46.10654029995203" lon="7.230120291933417">
        <ele>1643.03</ele>
        <time>2012-07-23T07:05:48Z</time>
      </trkpt>
      <trkpt lat="46.10680659301579" lon="7.230672994628549">
        <ele>1646.4000000000001</ele>
        <time>2012-07-23T07:06:08Z</time>
      </trkpt>
      <trkpt lat="46.107122339308262" lon="7.231097286567092">
        <ele>1649.76</ele>
        <time>2012-07-23T07:06:26Z</time>
      </trkpt>
      <trkpt lat="46.107472702860832" lon="7.231542868539691">
        <ele>1654.0899999999999</ele>
        <time>2012-07-23T07:06:46Z</time>
      </trkpt>
      <trkpt lat="46.107724076136947" lon="7.231951570138335">
        <ele>1658.8900000000001</ele>
        <time>2012-07-23T07:07:03Z</time>
      </trkpt>
      <trkpt lat="46.107817366719246" lon="7.23252983763814">
        <ele>1664.1800000000001</ele>
        <time>2012-07-23T07:07:23Z</time>
      </trkpt>
      <trkpt lat="46.107706557959318" lon="7.232962092384696">
        <ele>1667.54</ele>
        <time>2012-07-23T07:07:39Z</time>
      </trkpt>
      <trkpt lat="46.107504470273852" lon="7.233362076804042">
        <ele>1671.3900000000001</ele>
        <time>2012-07-23T07:07:56Z</time>
      </trkpt>
      <trkpt lat="46.107338005676866" lon="7.233840515837073">
        <ele>1674.27</ele>
        <time>2012-07-23T07:08:13Z</time>
      </trkpt>
      <trkpt lat="46.107108760625124" lon="7.234213342890143">
        <ele>1677.1600000000001</ele>
        <time>2012-07-23T07:08:29Z</time>
      </trkpt>
      <trkpt lat="46.107082441449165" lon="7.23471743054688">
        <ele>1681.48</ele>
        <time>2012-07-23T07:08:46Z</time>
      </trkpt>
      <trkpt lat="46.107256198301911" lon="7.235245071351528">
        <ele>1686.77</ele>
        <time>2012-07-23T07:09:05Z</time>
      </trkpt>
      <trkpt lat="46.107376981526613" lon="7.235720660537481">
        <ele>1691.0999999999999</ele>
        <time>2012-07-23T07:09:22Z</time>
      </trkpt>
      <trkpt lat="46.107251588255167" lon="7.236165404319763">
        <ele>1693.02</ele>
        <time>2012-07-23T07:09:37Z</time>
      </trkpt>
      <trkpt lat="46.107051093131304" lon="7.236536471173167">
        <ele>1694.9400000000001</ele>
        <time>2012-07-23T07:09:52Z</time>
      </trkpt>
      <trkpt lat="46.106810783967376" lon="7.237007785588503">
        <ele>1699.27</ele>
        <time>2012-07-23T07:10:11Z</time>
      </trkpt>
      <trkpt lat="46.106536025181413" lon="7.23746107891202">
        <ele>1703.1099999999999</ele>
        <time>2012-07-23T07:10:30Z</time>
      </trkpt>
      <trkpt lat="46.10623536631465" lon="7.237824099138379">
        <ele>1710.3199999999999</ele>
        <time>2012-07-23T07:10:48Z</time>
      </trkpt>
      <trkpt lat="46.10597150400281" lon="7.238146550953388">
        <ele>1714.1700000000001</ele>
        <time>2012-07-23T07:11:04Z</time>
      </trkpt>
      <trkpt lat="46.105682328343391" lon="7.238526586443186">
        <ele>1718.49</ele>
        <time>2012-07-23T07:11:22Z</time>
      </trkpt>
      <trkpt lat="46.105459034442902" lon="7.238799836486578">
        <ele>1719.9400000000001</ele>
        <time>2012-07-23T07:11:36Z</time>
      </trkpt>
      <trkpt lat="46.105160135775805" lon="7.239132933318615">
        <ele>1725.7</ele>
        <time>2012-07-23T07:11:53Z</time>
      </trkpt>
      <trkpt lat="46.104871043935418" lon="7.239481788128614">
        <ele>1730.99</ele>
        <time>2012-07-23T07:12:10Z</time>
      </trkpt>
      <trkpt lat="46.104541216045618" lon="7.239696281030774">
        <ele>1734.8399999999999</ele>
        <time>2012-07-23T07:12:27Z</time>
      </trkpt>
      <trkpt lat="46.10428280197084" lon="7.239879341796041">
        <ele>1738.6800000000001</ele>
        <time>2012-07-23T07:12:41Z</time>
      </trkpt>
      <trkpt lat="46.103964205831289" lon="7.240124931558967">
        <ele>1742.53</ele>
        <time>2012-07-23T07:12:57Z</time>
      </trkpt>
      <trkpt lat="46.103616775944829" lon="7.240296760573983">
        <ele>1744.45</ele>
        <time>2012-07-23T07:13:13Z</time>
      </trkpt>
      <trkpt lat="46.103306310251355" lon="7.240436067804694">
        <ele>1748.78</ele>
        <time>2012-07-23T07:13:29Z</time>
      </trkpt>
      <trkpt lat="46.103037670254707" lon="7.240725830197334">
        <ele>1752.1400000000001</ele>
        <time>2012-07-23T07:13:45Z</time>
      </trkpt>
      <trkpt lat="46.102784117683768" lon="7.241023890674114">
        <ele>1753.5799999999999</ele>
        <time>2012-07-23T07:14:00Z</time>
      </trkpt>
      <trkpt lat="46.102528804913163" lon="7.241244921460748">
        <ele>1758.3900000000001</ele>
        <time>2012-07-23T07:14:14Z</time>
      </trkpt>
      <trkpt lat="46.102233259007335" lon="7.241503335535526">
        <ele>1760.79</ele>
        <time>2012-07-23T07:14:30Z</time>
      </trkpt>
      <trkpt lat="46.101947519928217" lon="7.2417620010674">
        <ele>1763.6800000000001</ele>
        <time>2012-07-23T07:14:46Z</time>
      </trkpt>
      <trkpt lat="46.101693548262119" lon="7.242013206705451">
        <ele>1764.1600000000001</ele>
        <time>2012-07-23T07:15:00Z</time>
      </trkpt>
      <trkpt lat="46.101693883538246" lon="7.242046734318137">
        <ele>1764.6400000000001</ele>
        <time>2012-07-23T07:15:01Z</time>
      </trkpt>
      <trkpt lat="46.101703522726893" lon="7.24207716062665">
        <ele>1764.6400000000001</ele>
        <time>2012-07-23T07:15:02Z</time>
      </trkpt>
      <trkpt lat="46.101718274876475" lon="7.242105575278401">
        <ele>1765.1199999999999</ele>
        <time>2012-07-23T07:15:03Z</time>
      </trkpt>
      <trkpt lat="46.101735038682818" lon="7.242129044607282">
        <ele>1765.1199999999999</ele>
        <time>2012-07-23T07:15:04Z</time>
      </trkpt>
      <trkpt lat="46.101756077259779" lon="7.242147652432323">
        <ele>1765.1199999999999</ele>
        <time>2012-07-23T07:15:05Z</time>
      </trkpt>
      <trkpt lat="46.101779295131564" lon="7.242158465087414">
        <ele>1765.1199999999999</ele>
        <time>2012-07-23T07:15:06Z</time>
      </trkpt>
      <trkpt lat="46.101803937926888" lon="7.242164332419634">
        <ele>1765.1199999999999</ele>
        <time>2012-07-23T07:15:07Z</time>
      </trkpt>
      <trkpt lat="46.101830508559942" lon="7.242167014628649">
        <ele>1765.1199999999999</ele>
        <time>2012-07-23T07:15:08Z</time>
      </trkpt>
      <trkpt lat="46.101856492459774" lon="7.242165170609951">
        <ele>1765.1199999999999</ele>
        <time>2012-07-23T07:15:09Z</time>
      </trkpt>
      <trkpt lat="46.102229151874781" lon="7.241998454555869">
        <ele>1767.52</ele>
        <time>2012-07-23T07:15:27Z</time>
      </trkpt>
      <trkpt lat="46.102522853761911" lon="7.24184456281364">
        <ele>1773.29</ele>
        <time>2012-07-23T07:15:44Z</time>
      </trkpt>
      <trkpt lat="46.102846562862396" lon="7.24163006991148">
        <ele>1778.0999999999999</ele>
        <time>2012-07-23T07:16:02Z</time>
      </trkpt>
      <trkpt lat="46.103123165667057" lon="7.241561505943537">
        <ele>1781.9400000000001</ele>
        <time>2012-07-23T07:16:18Z</time>
      </trkpt>
      <trkpt lat="46.10337839461863" lon="7.241480452939868">
        <ele>1787.23</ele>
        <time>2012-07-23T07:16:32Z</time>
      </trkpt>
      <trkpt lat="46.103647956624627" lon="7.241426724940538">
        <ele>1793.48</ele>
        <time>2012-07-23T07:16:47Z</time>
      </trkpt>
      <trkpt lat="46.10389731824398" lon="7.241386910900474">
        <ele>1800.21</ele>
        <time>2012-07-23T07:17:01Z</time>
      </trkpt>
      <trkpt lat="46.104165958240628" lon="7.241358077153564">
        <ele>1805.49</ele>
        <time>2012-07-23T07:17:16Z</time>
      </trkpt>
      <trkpt lat="46.1044333409518" lon="7.241314826533198">
        <ele>1808.8599999999999</ele>
        <time>2012-07-23T07:17:30Z</time>
      </trkpt>
      <trkpt lat="46.104772221297026" lon="7.241238048300147">
        <ele>1813.6600000000001</ele>
        <time>2012-07-23T07:17:47Z</time>
      </trkpt>
      <trkpt lat="46.105090817436576" lon="7.241183063015342">
        <ele>1812.7</ele>
        <time>2012-07-23T07:18:03Z</time>
      </trkpt>
      <trkpt lat="46.105382591485977" lon="7.241115169599652">
        <ele>1816.55</ele>
        <time>2012-07-23T07:18:19Z</time>
      </trkpt>
      <trkpt lat="46.105619128793478" lon="7.241047276183963">
        <ele>1820.8699999999999</ele>
        <time>2012-07-23T07:18:33Z</time>
      </trkpt>
      <trkpt lat="46.105880560353398" lon="7.240967061370611">
        <ele>1826.6400000000001</ele>
        <time>2012-07-23T07:18:49Z</time>
      </trkpt>
      <trkpt lat="46.10622220672667" lon="7.240936886519194">
        <ele>1835.77</ele>
        <time>2012-07-23T07:19:06Z</time>
      </trkpt>
      <trkpt lat="46.10654323361814" lon="7.241043839603663">
        <ele>1840.5799999999999</ele>
        <time>2012-07-23T07:19:23Z</time>
      </trkpt>
      <trkpt lat="46.106824781745672" lon="7.241168981418014">
        <ele>1840.0999999999999</ele>
        <time>2012-07-23T07:19:38Z</time>
      </trkpt>
      <trkpt lat="46.107084536924958" lon="7.241166885942221">
        <ele>1839.1400000000001</ele>
        <time>2012-07-23T07:19:51Z</time>
      </trkpt>
      <trkpt lat="46.107376897707582" lon="7.241034116595984">
        <ele>1836.26</ele>
        <time>2012-07-23T07:20:07Z</time>
      </trkpt>
      <trkpt lat="46.107678981497884" lon="7.240839824080467">
        <ele>1839.1400000000001</ele>
        <time>2012-07-23T07:20:24Z</time>
      </trkpt>
      <trkpt lat="46.107919542118907" lon="7.240667827427387">
        <ele>1842.5</ele>
        <time>2012-07-23T07:20:39Z</time>
      </trkpt>
      <trkpt lat="46.108198575675488" lon="7.240737648680806">
        <ele>1845.8699999999999</ele>
        <time>2012-07-23T07:20:54Z</time>
      </trkpt>
      <trkpt lat="46.108488589525223" lon="7.240650895982981">
        <ele>1846.8299999999999</ele>
        <time>2012-07-23T07:21:11Z</time>
      </trkpt>
      <trkpt lat="46.108708614483476" lon="7.240762459114194">
        <ele>1848.27</ele>
        <time>2012-07-23T07:21:25Z</time>
      </trkpt>
      <trkpt lat="46.108756056055427" lon="7.240797579288483">
        <ele>1849.23</ele>
        <time>2012-07-23T07:21:28Z</time>
      </trkpt>
      <trkpt lat="46.108774663880467" lon="7.240802440792322">
        <ele>1849.23</ele>
        <time>2012-07-23T07:21:29Z</time>
      </trkpt>
      <trkpt lat="46.108791260048747" lon="7.240810487419367">
        <ele>1849.71</ele>
        <time>2012-07-23T07:21:30Z</time>
      </trkpt>
      <trkpt lat="46.108806431293488" lon="7.24082138389349">
        <ele>1849.71</ele>
        <time>2012-07-23T07:21:31Z</time>
      </trkpt>
      <trkpt lat="46.108822524547577" lon="7.240830855444074">
        <ele>1850.1900000000001</ele>
        <time>2012-07-23T07:21:32Z</time>
      </trkpt>
      <trkpt lat="46.108838869258761" lon="7.24083848297596">
        <ele>1850.1900000000001</ele>
        <time>2012-07-23T07:21:33Z</time>
      </trkpt>
      <trkpt lat="46.108854208141565" lon="7.240847535431385">
        <ele>1850.1900000000001</ele>
        <time>2012-07-23T07:21:34Z</time>
      </trkpt>
      <trkpt lat="46.108871307224035" lon="7.240854995325208">
        <ele>1850.6800000000001</ele>
        <time>2012-07-23T07:21:35Z</time>
      </trkpt>
      <trkpt lat="46.108888909220695" lon="7.240862371399999">
        <ele>1850.6800000000001</ele>
        <time>2012-07-23T07:21:36Z</time>
      </trkpt>
      <trkpt lat="46.108906175941229" lon="7.240869579836726">
        <ele>1850.6800000000001</ele>
        <time>2012-07-23T07:21:37Z</time>
      </trkpt>
      <trkpt lat="46.108922772109509" lon="7.240875698626041">
        <ele>1851.1600000000001</ele>
        <time>2012-07-23T07:21:38Z</time>
      </trkpt>
      <trkpt lat="46.109067276120186" lon="7.240881063044071">
        <ele>1852.5999999999999</ele>
        <time>2012-07-23T07:21:46Z</time>
      </trkpt>
      <trkpt lat="46.109198117628694" lon="7.240617787465453">
        <ele>1855</ele>
        <time>2012-07-23T07:22:00Z</time>
      </trkpt>
      <trkpt lat="46.109389811754227" lon="7.240398097783327">
        <ele>1858.8499999999999</ele>
        <time>2012-07-23T07:22:15Z</time>
      </trkpt>
      <trkpt lat="46.109630120918155" lon="7.24033179692924">
        <ele>1862.21</ele>
        <time>2012-07-23T07:22:30Z</time>
      </trkpt>
      <trkpt lat="46.109810918569565" lon="7.240247474983335">
        <ele>1867.02</ele>
        <time>2012-07-23T07:22:43Z</time>
      </trkpt>
      <trkpt lat="46.110046114772558" lon="7.240148233249784">
        <ele>1872.3</ele>
        <time>2012-07-23T07:22:58Z</time>
      </trkpt>
      <trkpt lat="46.110405614599586" lon="7.240077741444111">
        <ele>1876.1500000000001</ele>
        <time>2012-07-23T07:23:17Z</time>
      </trkpt>
      <trkpt lat="46.110657323151827" lon="7.239919994026423">
        <ele>1880.48</ele>
        <time>2012-07-23T07:23:32Z</time>
      </trkpt>
      <trkpt lat="46.110958317294717" lon="7.239711452275515">
        <ele>1880</ele>
        <time>2012-07-23T07:23:50Z</time>
      </trkpt>
      <trkpt lat="46.111236847937107" lon="7.239515734836459">
        <ele>1883.8399999999999</ele>
        <time>2012-07-23T07:24:08Z</time>
      </trkpt>
      <trkpt lat="46.111511522904038" lon="7.239403249695897">
        <ele>1886.72</ele>
        <time>2012-07-23T07:24:24Z</time>
      </trkpt>
      <trkpt lat="46.111754346638918" lon="7.23933007568121">
        <ele>1889.6099999999999</ele>
        <time>2012-07-23T07:24:38Z</time>
      </trkpt>
      <trkpt lat="46.112031536176801" lon="7.239140141755343">
        <ele>1891.53</ele>
        <time>2012-07-23T07:24:55Z</time>
      </trkpt>
      <trkpt lat="46.112235886976123" lon="7.238906621932983">
        <ele>1893.9300000000001</ele>
        <time>2012-07-23T07:25:09Z</time>
      </trkpt>
      <trkpt lat="46.11248985864222" lon="7.238663546741009">
        <ele>1896.8199999999999</ele>
        <time>2012-07-23T07:25:26Z</time>
      </trkpt>
      <trkpt lat="46.112775513902307" lon="7.238399349153042">
        <ele>1901.1400000000001</ele>
        <time>2012-07-23T07:25:45Z</time>
      </trkpt>
      <trkpt lat="46.11309620551765" lon="7.238113693892956">
        <ele>1905.47</ele>
        <time>2012-07-23T07:26:06Z</time>
      </trkpt>
      <trkpt lat="46.113340705633163" lon="7.237968184053898">
        <ele>1908.3499999999999</ele>
        <time>2012-07-23T07:26:21Z</time>
      </trkpt>
      <trkpt lat="46.113597191870213" lon="7.237775987014175">
        <ele>1911.24</ele>
        <time>2012-07-23T07:26:37Z</time>
      </trkpt>
      <trkpt lat="46.113816713914275" lon="7.237441465258598">
        <ele>1914.5999999999999</ele>
        <time>2012-07-23T07:26:55Z</time>
      </trkpt>
      <trkpt lat="46.114025926217437" lon="7.237058915197849">
        <ele>1920.3699999999999</ele>
        <time>2012-07-23T07:27:14Z</time>
      </trkpt>
      <trkpt lat="46.114196749404073" lon="7.23676722496748">
        <ele>1922.29</ele>
        <time>2012-07-23T07:27:29Z</time>
      </trkpt>
      <trkpt lat="46.114389784634113" lon="7.236432116478682">
        <ele>1926.6199999999999</ele>
        <time>2012-07-23T07:27:46Z</time>
      </trkpt>
      <trkpt lat="46.114568822085857" lon="7.236138666048646">
        <ele>1930.46</ele>
        <time>2012-07-23T07:28:01Z</time>
      </trkpt>
      <trkpt lat="46.114724976941943" lon="7.235753936693072">
        <ele>1934.3099999999999</ele>
        <time>2012-07-23T07:28:18Z</time>
      </trkpt>
      <trkpt lat="46.114860596135259" lon="7.235372643917799">
        <ele>1937.6700000000001</ele>
        <time>2012-07-23T07:28:36Z</time>
      </trkpt>
      <trkpt lat="46.115106604993343" lon="7.235191678628326">
        <ele>1940.5599999999999</ele>
        <time>2012-07-23T07:28:52Z</time>
      </trkpt>
      <trkpt lat="46.115363594144583" lon="7.235169550403953">
        <ele>1943.9200000000001</ele>
        <time>2012-07-23T07:29:08Z</time>
      </trkpt>
      <trkpt lat="46.115595521405339" lon="7.235096963122487">
        <ele>1945.8499999999999</ele>
        <time>2012-07-23T07:29:23Z</time>
      </trkpt>
      <trkpt lat="46.115846391767263" lon="7.234870484098792">
        <ele>1948.73</ele>
        <time>2012-07-23T07:29:36Z</time>
      </trkpt>
      <trkpt lat="46.116070104762912" lon="7.234559515491128">
        <ele>1952.5699999999999</ele>
        <time>2012-07-23T07:29:50Z</time>
      </trkpt>
      <trkpt lat="46.116257691755891" lon="7.234246954321861">
        <ele>1957.3800000000001</ele>
        <time>2012-07-23T07:30:05Z</time>
      </trkpt>
      <trkpt lat="46.116396076977253" lon="7.233778405934572">
        <ele>1961.71</ele>
        <time>2012-07-23T07:30:25Z</time>
      </trkpt>
      <trkpt lat="46.116416696459055" lon="7.233410943299532">
        <ele>1963.1500000000001</ele>
        <time>2012-07-23T07:30:40Z</time>
      </trkpt>
      <trkpt lat="46.116398088634014" lon="7.23292663693428">
        <ele>1967.48</ele>
        <time>2012-07-23T07:30:59Z</time>
      </trkpt>
      <trkpt lat="46.116355340927839" lon="7.232504272833467">
        <ele>1972.28</ele>
        <time>2012-07-23T07:31:16Z</time>
      </trkpt>
      <trkpt lat="46.116378977894783" lon="7.232103031128645">
        <ele>1974.2</ele>
        <time>2012-07-23T07:31:32Z</time>
      </trkpt>
      <trkpt lat="46.116413427516818" lon="7.231775298714638">
        <ele>1976.1300000000001</ele>
        <time>2012-07-23T07:31:46Z</time>
      </trkpt>
      <trkpt lat="46.116442512720823" lon="7.231396604329348">
        <ele>1979.49</ele>
        <time>2012-07-23T07:32:02Z</time>
      </trkpt>
      <trkpt lat="46.116433627903461" lon="7.23088463768363">
        <ele>1983.8199999999999</ele>
        <time>2012-07-23T07:32:22Z</time>
      </trkpt>
      <trkpt lat="46.116358945146203" lon="7.230384238064289">
        <ele>1987.1800000000001</ele>
        <time>2012-07-23T07:32:42Z</time>
      </trkpt>
      <trkpt lat="46.116260290145874" lon="7.229999592527747">
        <ele>1990.55</ele>
        <time>2012-07-23T07:32:58Z</time>
      </trkpt>
      <trkpt lat="46.116172531619668" lon="7.229616958647966">
        <ele>1993.4300000000001</ele>
        <time>2012-07-23T07:33:14Z</time>
      </trkpt>
      <trkpt lat="46.116112601011992" lon="7.229217058047652">
        <ele>1997.28</ele>
        <time>2012-07-23T07:33:30Z</time>
      </trkpt>
      <trkpt lat="46.116046970710158" lon="7.228773655369878">
        <ele>1998.24</ele>
        <time>2012-07-23T07:33:47Z</time>
      </trkpt>
      <trkpt lat="46.115978490561247" lon="7.228344585746527">
        <ele>2001.1199999999999</ele>
        <time>2012-07-23T07:34:04Z</time>
      </trkpt>
      <trkpt lat="46.1159757245332" lon="7.228320362046361">
        <ele>2001.1199999999999</ele>
        <time>2012-07-23T07:34:05Z</time>
      </trkpt>
      <trkpt lat="46.115970695391297" lon="7.228295970708132">
        <ele>2001.1199999999999</ele>
        <time>2012-07-23T07:34:06Z</time>
      </trkpt>
      <trkpt lat="46.115898862481117" lon="7.227875869721174">
        <ele>2003.52</ele>
        <time>2012-07-23T07:34:23Z</time>
      </trkpt>
      <trkpt lat="46.115790819749236" lon="7.227546125650406">
        <ele>2005.9300000000001</ele>
        <time>2012-07-23T07:34:37Z</time>
      </trkpt>
      <trkpt lat="46.115669785067439" lon="7.227179668843746">
        <ele>2008.3299999999999</ele>
        <time>2012-07-23T07:34:53Z</time>
      </trkpt>
      <trkpt lat="46.115631815046072" lon="7.226986130699515">
        <ele>2008.8099999999999</ele>
        <time>2012-07-23T07:35:08Z</time>
      </trkpt>
      <trkpt lat="46.115615386515856" lon="7.226987723261118">
        <ele>2008.8099999999999</ele>
        <time>2012-07-23T07:35:34Z</time>
      </trkpt>
      <trkpt lat="46.115631312131882" lon="7.226986717432737">
        <ele>2011.22</ele>
        <time>2012-07-23T07:35:59Z</time>
      </trkpt>
      <trkpt lat="46.115627037361264" lon="7.226991998031735">
        <ele>2010.73</ele>
        <time>2012-07-23T07:36:05Z</time>
      </trkpt>
      <trkpt lat="46.115576578304172" lon="7.226752275601029">
        <ele>2011.22</ele>
        <time>2012-07-23T07:36:16Z</time>
      </trkpt>
      <trkpt lat="46.115473313257098" lon="7.226292109116912">
        <ele>2015.54</ele>
        <time>2012-07-23T07:36:34Z</time>
      </trkpt>
      <trkpt lat="46.115431822836399" lon="7.225808557122946">
        <ele>2019.3900000000001</ele>
        <time>2012-07-23T07:36:53Z</time>
      </trkpt>
      <trkpt lat="46.115468870848417" lon="7.225395748391748">
        <ele>2023.23</ele>
        <time>2012-07-23T07:37:09Z</time>
      </trkpt>
      <trkpt lat="46.115427045151591" lon="7.225055694580078">
        <ele>2026.5999999999999</ele>
        <time>2012-07-23T07:37:23Z</time>
      </trkpt>
      <trkpt lat="46.115358313545585" lon="7.224668869748712">
        <ele>2029.96</ele>
        <time>2012-07-23T07:37:39Z</time>
      </trkpt>
      <trkpt lat="46.115284133702517" lon="7.224219935014844">
        <ele>2032.8399999999999</ele>
        <time>2012-07-23T07:37:57Z</time>
      </trkpt>
      <trkpt lat="46.115129739046097" lon="7.223869487643242">
        <ele>2036.6900000000001</ele>
        <time>2012-07-23T07:38:13Z</time>
      </trkpt>
      <trkpt lat="46.114986995235085" lon="7.223512586206198">
        <ele>2039.0899999999999</ele>
        <time>2012-07-23T07:38:29Z</time>
      </trkpt>
      <trkpt lat="46.114814328029752" lon="7.223175214603543">
        <ele>2042.9400000000001</ele>
        <time>2012-07-23T07:38:45Z</time>
      </trkpt>
      <trkpt lat="46.114695640280843" lon="7.222801800817251">
        <ele>2045.8199999999999</ele>
        <time>2012-07-23T07:39:01Z</time>
      </trkpt>
      <trkpt lat="46.114705698564649" lon="7.222419083118439">
        <ele>2048.71</ele>
        <time>2012-07-23T07:39:15Z</time>
      </trkpt>
      <trkpt lat="46.114710979163647" lon="7.222202913835645">
        <ele>2050.1500000000001</ele>
        <time>2012-07-23T07:39:23Z</time>
      </trkpt>
      <trkpt lat="46.11477954313159" lon="7.222257144749165">
        <ele>2051.5900000000001</ele>
        <time>2012-07-23T07:39:29Z</time>
      </trkpt>
      <trkpt lat="46.114781387150288" lon="7.222288073971868">
        <ele>2052.0700000000002</ele>
        <time>2012-07-23T07:39:30Z</time>
      </trkpt>
      <trkpt lat="46.114847520366311" lon="7.222724603489041">
        <ele>2052.5500000000002</ele>
        <time>2012-07-23T07:39:45Z</time>
      </trkpt>
      <trkpt lat="46.1150346044451" lon="7.223006403073669">
        <ele>2054.4699999999998</ele>
        <time>2012-07-23T07:40:00Z</time>
      </trkpt>
      <trkpt lat="46.11529653891921" lon="7.223247131332755">
        <ele>2058.3200000000002</ele>
        <time>2012-07-23T07:40:17Z</time>
      </trkpt>
      <trkpt lat="46.115481024608016" lon="7.223479645326734">
        <ele>2062.1700000000001</ele>
        <time>2012-07-23T07:40:31Z</time>
      </trkpt>
      <trkpt lat="46.115771206095815" lon="7.223735712468624">
        <ele>2066.9699999999998</ele>
        <time>2012-07-23T07:40:50Z</time>
      </trkpt>
      <trkpt lat="46.115938005968928" lon="7.224135361611843">
        <ele>2070.8200000000002</ele>
        <time>2012-07-23T07:41:08Z</time>
      </trkpt>
      <trkpt lat="46.116095585748553" lon="7.224592175334692">
        <ele>2074.1799999999998</ele>
        <time>2012-07-23T07:41:28Z</time>
      </trkpt>
      <trkpt lat="46.116208573803306" lon="7.224900797009468">
        <ele>2077.5500000000002</ele>
        <time>2012-07-23T07:41:42Z</time>
      </trkpt>
      <trkpt lat="46.116329776123166" lon="7.225255100056529">
        <ele>2081.3899999999999</ele>
        <time>2012-07-23T07:41:57Z</time>
      </trkpt>
      <trkpt lat="46.116499928757548" lon="7.225699927657843">
        <ele>2084.7600000000002</ele>
        <time>2012-07-23T07:42:16Z</time>
      </trkpt>
      <trkpt lat="46.116786422207952" lon="7.225809311494231">
        <ele>2088.1199999999999</ele>
        <time>2012-07-23T07:42:33Z</time>
      </trkpt>
      <trkpt lat="46.117075849324465" lon="7.225939314812422">
        <ele>2092.4499999999998</ele>
        <time>2012-07-23T07:42:51Z</time>
      </trkpt>
      <trkpt lat="46.117321187630296" lon="7.226138887926936">
        <ele>2095.8099999999999</ele>
        <time>2012-07-23T07:43:08Z</time>
      </trkpt>
      <trkpt lat="46.117567531764507" lon="7.22628858871758">
        <ele>2098.21</ele>
        <time>2012-07-23T07:43:24Z</time>
      </trkpt>
      <trkpt lat="46.117830723524094" lon="7.226293785497546">
        <ele>2102.54</ele>
        <time>2012-07-23T07:43:41Z</time>
      </trkpt>
      <trkpt lat="46.118039935827255" lon="7.226264532655478">
        <ele>2105.4200000000001</ele>
        <time>2012-07-23T07:43:54Z</time>
      </trkpt>
      <trkpt lat="46.118312599137425" lon="7.226259671151638">
        <ele>2108.3099999999999</ele>
        <time>2012-07-23T07:44:10Z</time>
      </trkpt>
      <trkpt lat="46.118587860837579" lon="7.226281883195043">
        <ele>2111.6700000000001</ele>
        <time>2012-07-23T07:44:25Z</time>
      </trkpt>
      <trkpt lat="46.118774274364114" lon="7.226523449644446">
        <ele>2115.52</ele>
        <time>2012-07-23T07:44:39Z</time>
      </trkpt>
      <trkpt lat="46.118958843871951" lon="7.226823605597019">
        <ele>2118.8800000000001</ele>
        <time>2012-07-23T07:44:54Z</time>
      </trkpt>
      <trkpt lat="46.119211809709668" lon="7.227212358266115">
        <ele>2122.25</ele>
        <time>2012-07-23T07:45:14Z</time>
      </trkpt>
      <trkpt lat="46.11945329234004" lon="7.227515783160925">
        <ele>2126.0900000000001</ele>
        <time>2012-07-23T07:45:32Z</time>
      </trkpt>
      <trkpt lat="46.11968538723886" lon="7.227853825315833">
        <ele>2130.9000000000001</ele>
        <time>2012-07-23T07:45:51Z</time>
      </trkpt>
      <trkpt lat="46.119877332821488" lon="7.22817761823535">
        <ele>2134.7399999999998</ele>
        <time>2012-07-23T07:46:09Z</time>
      </trkpt>
      <trkpt lat="46.120085539296269" lon="7.228437624871731">
        <ele>2138.1100000000001</ele>
        <time>2012-07-23T07:46:26Z</time>
      </trkpt>
      <trkpt lat="46.120090568438172" lon="7.228269735351205">
        <ele>2139.5500000000002</ele>
        <time>2012-07-23T07:46:34Z</time>
      </trkpt>
      <trkpt lat="46.120076738297939" lon="7.228246182203293">
        <ele>2139.5500000000002</ele>
        <time>2012-07-23T07:46:35Z</time>
      </trkpt>
      <trkpt lat="46.119946483522654" lon="7.227889113128185">
        <ele>2140.5100000000002</ele>
        <time>2012-07-23T07:46:47Z</time>
      </trkpt>
      <trkpt lat="46.119881691411138" lon="7.227629357948899">
        <ele>2141.9499999999998</ele>
        <time>2012-07-23T07:46:57Z</time>
      </trkpt>
      <trkpt lat="46.119777671992779" lon="7.22701714374125">
        <ele>2143.8800000000001</ele>
        <time>2012-07-23T07:47:10Z</time>
      </trkpt>
      <trkpt lat="46.119620092213154" lon="7.226419262588024">
        <ele>2145.3200000000002</ele>
        <time>2012-07-23T07:47:23Z</time>
      </trkpt>
      <trkpt lat="46.119503080844879" lon="7.225922718644142">
        <ele>2147.2399999999998</ele>
        <time>2012-07-23T07:47:36Z</time>
      </trkpt>
      <trkpt lat="46.11945329234004" lon="7.225405387580395">
        <ele>2148.1999999999998</ele>
        <time>2012-07-23T07:47:48Z</time>
      </trkpt>
      <trkpt lat="46.119024809449911" lon="7.225076230242848">
        <ele>2150.6100000000001</ele>
        <time>2012-07-23T07:48:02Z</time>
      </trkpt>
      <trkpt lat="46.118480488657951" lon="7.224696865305305">
        <ele>2153.4899999999998</ele>
        <time>2012-07-23T07:48:20Z</time>
      </trkpt>
      <trkpt lat="46.118135657161474" lon="7.224396206438541">
        <ele>2155.4099999999999</ele>
        <time>2012-07-23T07:48:33Z</time>
      </trkpt>
      <trkpt lat="46.117734918370843" lon="7.224070150405169">
        <ele>2157.8200000000002</ele>
        <time>2012-07-23T07:48:50Z</time>
      </trkpt>
      <trkpt lat="46.117433337494731" lon="7.223655916750431">
        <ele>2162.1399999999999</ele>
        <time>2012-07-23T07:49:06Z</time>
      </trkpt>
      <trkpt lat="46.11743132583797" lon="7.223165323957801">
        <ele>2164.0599999999999</ele>
        <time>2012-07-23T07:49:20Z</time>
      </trkpt>
      <trkpt lat="46.117432080209255" lon="7.222562916576862">
        <ele>2166.9499999999998</ele>
        <time>2012-07-23T07:49:37Z</time>
      </trkpt>
      <trkpt lat="46.11758672632277" lon="7.222225964069367">
        <ele>2170.79</ele>
        <time>2012-07-23T07:49:49Z</time>
      </trkpt>
      <trkpt lat="46.117846732959151" lon="7.221926394850016">
        <ele>2175.5999999999999</ele>
        <time>2012-07-23T07:50:05Z</time>
      </trkpt>
      <trkpt lat="46.117950417101383" lon="7.221798822283745">
        <ele>2177.04</ele>
        <time>2012-07-23T07:50:12Z</time>
      </trkpt>
      <trkpt lat="46.118018561974168" lon="7.221887670457363">
        <ele>2178.48</ele>
        <time>2012-07-23T07:50:18Z</time>
      </trkpt>
      <trkpt lat="46.117970952764153" lon="7.222261587157846">
        <ele>2180.4099999999999</ele>
        <time>2012-07-23T07:50:35Z</time>
      </trkpt>
      <trkpt lat="46.117895934730768" lon="7.222602479159832">
        <ele>2181.8499999999999</ele>
        <time>2012-07-23T07:50:50Z</time>
      </trkpt>
      <trkpt lat="46.118017053231597" lon="7.222885033115745">
        <ele>2184.25</ele>
        <time>2012-07-23T07:51:04Z</time>
      </trkpt>
      <trkpt lat="46.118286950513721" lon="7.222981844097376">
        <ele>2188.5799999999999</ele>
        <time>2012-07-23T07:51:21Z</time>
      </trkpt>
      <trkpt lat="46.118588950484991" lon="7.223055688664317">
        <ele>2192.4200000000001</ele>
        <time>2012-07-23T07:51:36Z</time>
      </trkpt>
      <trkpt lat="46.118998071178794" lon="7.223185189068317">
        <ele>2195.3099999999999</ele>
        <time>2012-07-23T07:51:55Z</time>
      </trkpt>
      <trkpt lat="46.119326390326023" lon="7.223195750266314">
        <ele>2199.6300000000001</ele>
        <time>2012-07-23T07:52:10Z</time>
      </trkpt>
      <trkpt lat="46.119620008394122" lon="7.223168928176165">
        <ele>2201.0799999999999</ele>
        <time>2012-07-23T07:52:24Z</time>
      </trkpt>
      <trkpt lat="46.119761327281594" lon="7.223150990903378">
        <ele>2202.52</ele>
        <time>2012-07-23T07:52:31Z</time>
      </trkpt>
      <trkpt lat="46.119728218764067" lon="7.222981425002217">
        <ele>2203.96</ele>
        <time>2012-07-23T07:52:39Z</time>
      </trkpt>
      <trkpt lat="46.119500230997801" lon="7.222775062546134">
        <ele>2207.3200000000002</ele>
        <time>2012-07-23T07:52:53Z</time>
      </trkpt>
      <trkpt lat="46.119366455823183" lon="7.222637096419931">
        <ele>2208.77</ele>
        <time>2012-07-23T07:53:00Z</time>
      </trkpt>
      <trkpt lat="46.119179287925363" lon="7.222356721758843">
        <ele>2212.6100000000001</ele>
        <time>2012-07-23T07:53:12Z</time>
      </trkpt>
      <trkpt lat="46.119164116680622" lon="7.221924047917128">
        <ele>2214.5300000000002</ele>
        <time>2012-07-23T07:53:29Z</time>
      </trkpt>
      <trkpt lat="46.119212061166763" lon="7.221559686586261">
        <ele>2218.8600000000001</ele>
        <time>2012-07-23T07:53:48Z</time>
      </trkpt>
      <trkpt lat="46.119332173839211" lon="7.221288112923503">
        <ele>2223.6700000000001</ele>
        <time>2012-07-23T07:54:04Z</time>
      </trkpt>
      <trkpt lat="46.119462763890624" lon="7.221011342480779">
        <ele>2227.5100000000002</ele>
        <time>2012-07-23T07:54:20Z</time>
      </trkpt>
      <trkpt lat="46.119606345891953" lon="7.22066936083138">
        <ele>2231.3600000000001</ele>
        <time>2012-07-23T07:54:39Z</time>
      </trkpt>
      <trkpt lat="46.119664432480931" lon="7.220304496586323">
        <ele>2235.6799999999998</ele>
        <time>2012-07-23T07:54:57Z</time>
      </trkpt>
      <trkpt lat="46.119688907638192" lon="7.220232747495174">
        <ele>2236.1599999999999</ele>
        <time>2012-07-23T07:55:01Z</time>
      </trkpt>
      <trkpt lat="46.119804913178086" lon="7.220066618174315">
        <ele>2239.5300000000002</ele>
        <time>2012-07-23T07:55:13Z</time>
      </trkpt>
      <trkpt lat="46.119858976453543" lon="7.219727151095867">
        <ele>2241.9299999999998</ele>
        <time>2012-07-23T07:55:29Z</time>
      </trkpt>
      <trkpt lat="46.119904154911637" lon="7.219319706782699">
        <ele>2245.3000000000002</ele>
        <time>2012-07-23T07:55:48Z</time>
      </trkpt>
      <trkpt lat="46.119974395260215" lon="7.218903545290232">
        <ele>2248.1799999999998</ele>
        <time>2012-07-23T07:56:07Z</time>
      </trkpt>
      <trkpt lat="46.120060896500945" lon="7.218572208657861">
        <ele>2251.54</ele>
        <time>2012-07-23T07:56:23Z</time>
      </trkpt>
      <trkpt lat="46.12016960978508" lon="7.218207092955709">
        <ele>2254.9099999999999</ele>
        <time>2012-07-23T07:56:41Z</time>
      </trkpt>
      <trkpt lat="46.120284106582403" lon="7.217866536229849">
        <ele>2257.79</ele>
        <time>2012-07-23T07:56:58Z</time>
      </trkpt>
      <trkpt lat="46.120386533439159" lon="7.217599907889962">
        <ele>2261.1599999999999</ele>
        <time>2012-07-23T07:57:12Z</time>
      </trkpt>
      <trkpt lat="46.120591638609767" lon="7.217279635369778">
        <ele>2265.96</ele>
        <time>2012-07-23T07:57:31Z</time>
      </trkpt>
      <trkpt lat="46.120779644697905" lon="7.216976881027222">
        <ele>2270.29</ele>
        <time>2012-07-23T07:57:49Z</time>
      </trkpt>
      <trkpt lat="46.120936805382371" lon="7.216649819165468">
        <ele>2274.1399999999999</ele>
        <time>2012-07-23T07:58:06Z</time>
      </trkpt>
      <trkpt lat="46.120945774018764" lon="7.216270621865988">
        <ele>2277.02</ele>
        <time>2012-07-23T07:58:22Z</time>
      </trkpt>
      <trkpt lat="46.120988437905908" lon="7.215967699885368">
        <ele>2279.9000000000001</ele>
        <time>2012-07-23T07:58:36Z</time>
      </trkpt>
      <trkpt lat="46.120903613045812" lon="7.215713812038302">
        <ele>2281.8299999999999</ele>
        <time>2012-07-23T07:58:48Z</time>
      </trkpt>
      <trkpt lat="46.120853405445814" lon="7.215485237538815">
        <ele>2284.23</ele>
        <time>2012-07-23T07:58:58Z</time>
      </trkpt>
      <trkpt lat="46.120794229209423" lon="7.215308966115117">
        <ele>2286.1500000000001</ele>
        <time>2012-07-23T07:59:07Z</time>
      </trkpt>
      <trkpt lat="46.120834546163678" lon="7.21523143351078">
        <ele>2287.5900000000001</ele>
        <time>2012-07-23T07:59:12Z</time>
      </trkpt>
      <trkpt lat="46.120997322723269" lon="7.215375769883394">
        <ele>2291.4400000000001</ele>
        <time>2012-07-23T07:59:25Z</time>
      </trkpt>
      <trkpt lat="46.121213492006063" lon="7.215576181188226">
        <ele>2294.8000000000002</ele>
        <time>2012-07-23T07:59:42Z</time>
      </trkpt>
      <trkpt lat="46.121401581913233" lon="7.215897962450981">
        <ele>2299.6100000000001</ele>
        <time>2012-07-23T08:00:01Z</time>
      </trkpt>
      <trkpt lat="46.121500823646784" lon="7.216278836131096">
        <ele>2303.46</ele>
        <time>2012-07-23T08:00:19Z</time>
      </trkpt>
      <trkpt lat="46.121572237461805" lon="7.216598773375154">
        <ele>2307.3000000000002</ele>
        <time>2012-07-23T08:00:34Z</time>
      </trkpt>
      <trkpt lat="46.121685728430748" lon="7.216933211311698">
        <ele>2310.6700000000001</ele>
        <time>2012-07-23T08:00:51Z</time>
      </trkpt>
      <trkpt lat="46.121702995151281" lon="7.21696162596345">
        <ele>2311.1500000000001</ele>
        <time>2012-07-23T08:00:53Z</time>
      </trkpt>
      <trkpt lat="46.121759908273816" lon="7.216951567679644">
        <ele>2311.6300000000001</ele>
        <time>2012-07-23T08:00:57Z</time>
      </trkpt>
      <trkpt lat="46.121775163337588" lon="7.216806896030903">
        <ele>2312.5900000000001</ele>
        <time>2012-07-23T08:01:04Z</time>
      </trkpt>
      <trkpt lat="46.121759824454784" lon="7.21674470230937">
        <ele>2313.0700000000002</ele>
        <time>2012-07-23T08:01:07Z</time>
      </trkpt>
      <trkpt lat="46.121743815019727" lon="7.216634061187506">
        <ele>2313.5500000000002</ele>
        <time>2012-07-23T08:01:12Z</time>
      </trkpt>
      <trkpt lat="46.121736606582999" lon="7.216495256870985">
        <ele>2314.0300000000002</ele>
        <time>2012-07-23T08:01:18Z</time>
      </trkpt>
      <trkpt lat="46.121756220236421" lon="7.216279674321413">
        <ele>2315.9499999999998</ele>
        <time>2012-07-23T08:01:28Z</time>
      </trkpt>
      <trkpt lat="46.121768793091178" lon="7.216192418709397">
        <ele>2316.9099999999999</ele>
        <time>2012-07-23T08:01:32Z</time>
      </trkpt>
      <trkpt lat="46.121786311268806" lon="7.21603911370039">
        <ele>2318.3600000000001</ele>
        <time>2012-07-23T08:01:39Z</time>
      </trkpt>
      <trkpt lat="46.121785053983331" lon="7.215950097888708">
        <ele>2319.3200000000002</ele>
        <time>2012-07-23T08:01:43Z</time>
      </trkpt>
      <trkpt lat="46.121785137802362" lon="7.215526727959514">
        <ele>2323.6399999999999</ele>
        <time>2012-07-23T08:02:02Z</time>
      </trkpt>
      <trkpt lat="46.121789161115885" lon="7.215462019667029">
        <ele>2324.1199999999999</ele>
        <time>2012-07-23T08:02:05Z</time>
      </trkpt>
      <trkpt lat="46.121869292110205" lon="7.215501666069031">
        <ele>2326.0500000000002</ele>
        <time>2012-07-23T08:02:13Z</time>
      </trkpt>
      <trkpt lat="46.121886810287833" lon="7.215883377939463">
        <ele>2328.4499999999998</ele>
        <time>2012-07-23T08:02:27Z</time>
      </trkpt>
      <trkpt lat="46.121950512751937" lon="7.216445468366146">
        <ele>2328.4499999999998</ele>
        <time>2012-07-23T08:02:41Z</time>
      </trkpt>
      <trkpt lat="46.122092250734568" lon="7.217000098899007">
        <ele>2331.3299999999999</ele>
        <time>2012-07-23T08:02:56Z</time>
      </trkpt>
      <trkpt lat="46.122185457497835" lon="7.217494128271937">
        <ele>2334.2199999999998</ele>
        <time>2012-07-23T08:03:12Z</time>
      </trkpt>
      <trkpt lat="46.12223943695426" lon="7.217964353039861">
        <ele>2339.02</ele>
        <time>2012-07-23T08:03:28Z</time>
      </trkpt>
      <trkpt lat="46.122290231287479" lon="7.218323266133666">
        <ele>2343.8299999999999</ele>
        <time>2012-07-23T08:03:44Z</time>
      </trkpt>
      <trkpt lat="46.122353849932551" lon="7.218610681593418">
        <ele>2346.7199999999998</ele>
        <time>2012-07-23T08:03:58Z</time>
      </trkpt>
      <trkpt lat="46.122440937906504" lon="7.218880914151669">
        <ele>2348.1599999999999</ele>
        <time>2012-07-23T08:04:12Z</time>
      </trkpt>
      <trkpt lat="46.122433729469776" lon="7.218898767605424">
        <ele>2347.1999999999998</ele>
        <time>2012-07-23T08:04:13Z</time>
      </trkpt>
      <trkpt lat="46.122428951784968" lon="7.218924500048161">
        <ele>2346.7199999999998</ele>
        <time>2012-07-23T08:04:16Z</time>
      </trkpt>
      <trkpt lat="46.122428113594651" lon="7.21894059330225">
        <ele>2346.7199999999998</ele>
        <time>2012-07-23T08:04:17Z</time>
      </trkpt>
      <trkpt lat="46.122378325089812" lon="7.219109907746315">
        <ele>2345.75</ele>
        <time>2012-07-23T08:04:27Z</time>
      </trkpt>
      <trkpt lat="46.122373044490814" lon="7.219175286591053">
        <ele>2344.79</ele>
        <time>2012-07-23T08:04:31Z</time>
      </trkpt>
      <trkpt lat="46.122392825782299" lon="7.219200516119599">
        <ele>2344.79</ele>
        <time>2012-07-23T08:04:32Z</time>
      </trkpt>
      <trkpt lat="46.12248133867979" lon="7.219217782840133">
        <ele>2347.6799999999998</ele>
        <time>2012-07-23T08:04:38Z</time>
      </trkpt>
      <trkpt lat="46.122513776645064" lon="7.219199258834124">
        <ele>2350.0799999999999</ele>
        <time>2012-07-23T08:04:52Z</time>
      </trkpt>
      <trkpt lat="46.122517380863428" lon="7.219164976850152">
        <ele>2349.1199999999999</ele>
        <time>2012-07-23T08:05:18Z</time>
      </trkpt>
      <trkpt lat="46.122527858242393" lon="7.21916975453496">
        <ele>2349.1199999999999</ele>
        <time>2012-07-23T08:05:42Z</time>
      </trkpt>
      <trkpt lat="46.122508831322193" lon="7.219222811982036">
        <ele>2350.0799999999999</ele>
        <time>2012-07-23T08:06:07Z</time>
      </trkpt>
      <trkpt lat="46.12251746468246" lon="7.219238821417093">
        <ele>2351.04</ele>
        <time>2012-07-23T08:06:09Z</time>
      </trkpt>
      <trkpt lat="46.122614108026028" lon="7.219331106171012">
        <ele>2354.8899999999999</ele>
        <time>2012-07-23T08:06:15Z</time>
      </trkpt>
      <trkpt lat="46.122873947024345" lon="7.21971801482141">
        <ele>2348.6399999999999</ele>
        <time>2012-07-23T08:06:30Z</time>
      </trkpt>
      <trkpt lat="46.122921472415328" lon="7.21999553963542">
        <ele>2340.9499999999998</ele>
        <time>2012-07-23T08:06:42Z</time>
      </trkpt>
      <trkpt lat="46.122981067746878" lon="7.220075251534581">
        <ele>2338.54</ele>
        <time>2012-07-23T08:06:44Z</time>
      </trkpt>
      <trkpt lat="46.12307745963335" lon="7.2202452365309">
        <ele>2334.6999999999998</ele>
        <time>2012-07-23T08:06:47Z</time>
      </trkpt>
      <trkpt lat="46.123258173465729" lon="7.220550253987312">
        <ele>2328.4499999999998</ele>
        <time>2012-07-23T08:06:53Z</time>
      </trkpt>
      <trkpt lat="46.123318439349532" lon="7.2207011282444">
        <ele>2327.0100000000002</ele>
        <time>2012-07-23T08:06:55Z</time>
      </trkpt>
      <trkpt lat="46.12338281236589" lon="7.220839764922857">
        <ele>2325.5700000000002</ele>
        <time>2012-07-23T08:06:57Z</time>
      </trkpt>
      <trkpt lat="46.123490603640676" lon="7.221019137650728">
        <ele>2322.1999999999998</ele>
        <time>2012-07-23T08:07:01Z</time>
      </trkpt>
      <trkpt lat="46.123519269749522" lon="7.221187027171254">
        <ele>2319.3200000000002</ele>
        <time>2012-07-23T08:07:04Z</time>
      </trkpt>
      <trkpt lat="46.123538464307785" lon="7.221343936398625">
        <ele>2315.9499999999998</ele>
        <time>2012-07-23T08:07:06Z</time>
      </trkpt>
      <trkpt lat="46.123531004413962" lon="7.22163587808609">
        <ele>2311.6300000000001</ele>
        <time>2012-07-23T08:07:10Z</time>
      </trkpt>
      <trkpt lat="46.12352455034852" lon="7.221701089292765">
        <ele>2310.1900000000001</ele>
        <time>2012-07-23T08:07:11Z</time>
      </trkpt>
      <trkpt lat="46.123520443215966" lon="7.22176973707974">
        <ele>2308.7399999999998</ele>
        <time>2012-07-23T08:07:12Z</time>
      </trkpt>
      <trkpt lat="46.123509965837002" lon="7.221842156723142">
        <ele>2307.3000000000002</ele>
        <time>2012-07-23T08:07:13Z</time>
      </trkpt>
      <trkpt lat="46.123497895896435" lon="7.221916085109115">
        <ele>2305.8600000000001</ele>
        <time>2012-07-23T08:07:14Z</time>
      </trkpt>
      <trkpt lat="46.12348741851747" lon="7.221989845857024">
        <ele>2304.4200000000001</ele>
        <time>2012-07-23T08:07:15Z</time>
      </trkpt>
      <trkpt lat="46.123451963067055" lon="7.222319673746824">
        <ele>2298.6500000000001</ele>
        <time>2012-07-23T08:07:19Z</time>
      </trkpt>
      <trkpt lat="46.123446598649025" lon="7.222397290170193">
        <ele>2297.21</ele>
        <time>2012-07-23T08:07:20Z</time>
      </trkpt>
      <trkpt lat="46.123438468202949" lon="7.222471470013261">
        <ele>2296.25</ele>
        <time>2012-07-23T08:07:21Z</time>
      </trkpt>
      <trkpt lat="46.123422374948859" lon="7.22255009226501">
        <ele>2295.2800000000002</ele>
        <time>2012-07-23T08:07:22Z</time>
      </trkpt>
      <trkpt lat="46.123395469039679" lon="7.222634078934789">
        <ele>2294.3200000000002</ele>
        <time>2012-07-23T08:07:23Z</time>
      </trkpt>
      <trkpt lat="46.123356912285089" lon="7.222720580175519">
        <ele>2293.8400000000001</ele>
        <time>2012-07-23T08:07:24Z</time>
      </trkpt>
      <trkpt lat="46.123306453227997" lon="7.222802974283695">
        <ele>2292.8800000000001</ele>
        <time>2012-07-23T08:07:25Z</time>
      </trkpt>
      <trkpt lat="46.123245600610971" lon="7.222882434725761">
        <ele>2292.4000000000001</ele>
        <time>2012-07-23T08:07:26Z</time>
      </trkpt>
      <trkpt lat="46.123178713023663" lon="7.222962565720081">
        <ele>2291.4400000000001</ele>
        <time>2012-07-23T08:07:27Z</time>
      </trkpt>
      <trkpt lat="46.123045105487108" lon="7.223145039752126">
        <ele>2290</ele>
        <time>2012-07-23T08:07:29Z</time>
      </trkpt>
      <trkpt lat="46.122986599802971" lon="7.223251154646277">
        <ele>2289.04</ele>
        <time>2012-07-23T08:07:30Z</time>
      </trkpt>
      <trkpt lat="46.122938822954893" lon="7.223356850445271">
        <ele>2288.0799999999999</ele>
        <time>2012-07-23T08:07:31Z</time>
      </trkpt>
      <trkpt lat="46.122893393039703" lon="7.223459612578154">
        <ele>2287.5900000000001</ele>
        <time>2012-07-23T08:07:32Z</time>
      </trkpt>
      <trkpt lat="46.122844945639372" lon="7.223561368882656">
        <ele>2286.6300000000001</ele>
        <time>2012-07-23T08:07:33Z</time>
      </trkpt>
      <trkpt lat="46.122668087482452" lon="7.224005777388811">
        <ele>2282.79</ele>
        <time>2012-07-23T08:07:38Z</time>
      </trkpt>
      <trkpt lat="46.122654927894473" lon="7.224097810685635">
        <ele>2282.3099999999999</ele>
        <time>2012-07-23T08:07:39Z</time>
      </trkpt>
      <trkpt lat="46.122648641467094" lon="7.224193196743727">
        <ele>2281.3499999999999</ele>
        <time>2012-07-23T08:07:40Z</time>
      </trkpt>
      <trkpt lat="46.122652580961585" lon="7.224295791238546">
        <ele>2280.3800000000001</ele>
        <time>2012-07-23T08:07:41Z</time>
      </trkpt>
      <trkpt lat="46.122659957036376" lon="7.224406516179442">
        <ele>2279.4200000000001</ele>
        <time>2012-07-23T08:07:42Z</time>
      </trkpt>
      <trkpt lat="46.122807394713163" lon="7.225214364007115">
        <ele>2271.25</ele>
        <time>2012-07-23T08:07:49Z</time>
      </trkpt>
      <trkpt lat="46.1228849273175" lon="7.225727504119277">
        <ele>2266.9299999999998</ele>
        <time>2012-07-23T08:07:54Z</time>
      </trkpt>
      <trkpt lat="46.122883167117834" lon="7.225826662033796">
        <ele>2265.48</ele>
        <time>2012-07-23T08:07:55Z</time>
      </trkpt>
      <trkpt lat="46.122872186824679" lon="7.225920036435127">
        <ele>2264.52</ele>
        <time>2012-07-23T08:07:56Z</time>
      </trkpt>
      <trkpt lat="46.122851232066751" lon="7.226012740284205">
        <ele>2263.0799999999999</ele>
        <time>2012-07-23T08:07:57Z</time>
      </trkpt>
      <trkpt lat="46.122816447168589" lon="7.226111646741629">
        <ele>2261.6399999999999</ele>
        <time>2012-07-23T08:07:58Z</time>
      </trkpt>
      <trkpt lat="46.122771352529526" lon="7.226224467158318">
        <ele>2259.7199999999998</ele>
        <time>2012-07-23T08:07:59Z</time>
      </trkpt>
      <trkpt lat="46.122690634801984" lon="7.226463099941611">
        <ele>2256.8299999999999</ele>
        <time>2012-07-23T08:08:01Z</time>
      </trkpt>
      <trkpt lat="46.122668841853738" lon="7.226570891216397">
        <ele>2256.3499999999999</ele>
        <time>2012-07-23T08:08:02Z</time>
      </trkpt>
      <trkpt lat="46.122657191008329" lon="7.226663259789348">
        <ele>2255.8699999999999</ele>
        <time>2012-07-23T08:08:03Z</time>
      </trkpt>
      <trkpt lat="46.122655095532537" lon="7.226746240630746">
        <ele>2254.9099999999999</ele>
        <time>2012-07-23T08:08:04Z</time>
      </trkpt>
      <trkpt lat="46.122655933722854" lon="7.226832238957286">
        <ele>2254.4299999999998</ele>
        <time>2012-07-23T08:08:05Z</time>
      </trkpt>
      <trkpt lat="46.122583681717515" lon="7.227376392111182">
        <ele>2245.7800000000002</ele>
        <time>2012-07-23T08:08:11Z</time>
      </trkpt>
      <trkpt lat="46.122416295111179" lon="7.227872265502811">
        <ele>2235.6799999999998</ele>
        <time>2012-07-23T08:08:20Z</time>
      </trkpt>
      <trkpt lat="46.122348736971617" lon="7.228111065924168">
        <ele>2233.2800000000002</ele>
        <time>2012-07-23T08:08:24Z</time>
      </trkpt>
      <trkpt lat="46.122306911274791" lon="7.228304939344525">
        <ele>2231.8400000000001</ele>
        <time>2012-07-23T08:08:26Z</time>
      </trkpt>
      <trkpt lat="46.122163245454431" lon="7.228886391967535">
        <ele>2229.9200000000001</ele>
        <time>2012-07-23T08:08:32Z</time>
      </trkpt>
      <trkpt lat="46.122131058946252" lon="7.229152601212263">
        <ele>2229.9200000000001</ele>
        <time>2012-07-23T08:08:38Z</time>
      </trkpt>
      <trkpt lat="46.122164586558938" lon="7.229366758838296">
        <ele>2227.9899999999998</ele>
        <time>2012-07-23T08:08:49Z</time>
      </trkpt>
      <trkpt lat="46.122140111401677" lon="7.229570103809238">
        <ele>2225.1100000000001</ele>
        <time>2012-07-23T08:08:52Z</time>
      </trkpt>
      <trkpt lat="46.122135920450091" lon="7.229648809880018">
        <ele>2224.6300000000001</ele>
        <time>2012-07-23T08:08:53Z</time>
      </trkpt>
      <trkpt lat="46.122126951813698" lon="7.229725755751133">
        <ele>2223.6700000000001</ele>
        <time>2012-07-23T08:08:54Z</time>
      </trkpt>
      <trkpt lat="46.122113792225718" lon="7.229799013584852">
        <ele>2223.1900000000001</ele>
        <time>2012-07-23T08:08:55Z</time>
      </trkpt>
      <trkpt lat="46.122096693143249" lon="7.229871433228254">
        <ele>2221.7399999999998</ele>
        <time>2012-07-23T08:08:56Z</time>
      </trkpt>
      <trkpt lat="46.121928216889501" lon="7.230675173923373">
        <ele>2209.25</ele>
        <time>2012-07-23T08:09:05Z</time>
      </trkpt>
      <trkpt lat="46.121922936290503" lon="7.230758741497994">
        <ele>2207.8099999999999</ele>
        <time>2012-07-23T08:09:06Z</time>
      </trkpt>
      <trkpt lat="46.121923606842756" lon="7.230834346264601">
        <ele>2206.8400000000001</ele>
        <time>2012-07-23T08:09:07Z</time>
      </trkpt>
      <trkpt lat="46.121922433376312" lon="7.230975413694978">
        <ele>2203.96</ele>
        <time>2012-07-23T08:09:09Z</time>
      </trkpt>
      <trkpt lat="46.121914219111204" lon="7.23104439675808">
        <ele>2203</ele>
        <time>2012-07-23T08:09:10Z</time>
      </trkpt>
      <trkpt lat="46.121859569102526" lon="7.231330554932356">
        <ele>2196.27</ele>
        <time>2012-07-23T08:09:14Z</time>
      </trkpt>
      <trkpt lat="46.121838530525565" lon="7.231398280709982">
        <ele>2195.3099999999999</ele>
        <time>2012-07-23T08:09:15Z</time>
      </trkpt>
      <trkpt lat="46.121814977377653" lon="7.231461061164737">
        <ele>2194.3499999999999</ele>
        <time>2012-07-23T08:09:16Z</time>
      </trkpt>
      <trkpt lat="46.121705928817391" lon="7.231964729726315">
        <ele>2184.73</ele>
        <time>2012-07-23T08:09:26Z</time>
      </trkpt>
      <trkpt lat="46.121762506663799" lon="7.232231944799423">
        <ele>2180.4099999999999</ele>
        <time>2012-07-23T08:09:32Z</time>
      </trkpt>
      <trkpt lat="46.121785724535584" lon="7.232256168499589">
        <ele>2179.4499999999998</ele>
        <time>2012-07-23T08:09:33Z</time>
      </trkpt>
      <trkpt lat="46.121820090338588" lon="7.232275614514947">
        <ele>2178.48</ele>
        <time>2012-07-23T08:09:34Z</time>
      </trkpt>
      <trkpt lat="46.121861999854445" lon="7.23227720707655">
        <ele>2178</ele>
        <time>2012-07-23T08:09:35Z</time>
      </trkpt>
      <trkpt lat="46.121907597407699" lon="7.232258766889572">
        <ele>2177.52</ele>
        <time>2012-07-23T08:09:36Z</time>
      </trkpt>
      <trkpt lat="46.121958056464791" lon="7.232244098559022">
        <ele>2177.04</ele>
        <time>2012-07-23T08:09:37Z</time>
      </trkpt>
      <trkpt lat="46.122014215216041" lon="7.232244769111276">
        <ele>2176.5599999999999</ele>
        <time>2012-07-23T08:09:38Z</time>
      </trkpt>
      <trkpt lat="46.122074481099844" lon="7.232262622565031">
        <ele>2176.0799999999999</ele>
        <time>2012-07-23T08:09:39Z</time>
      </trkpt>
      <trkpt lat="46.12213633954525" lon="7.232291623950005">
        <ele>2175.5999999999999</ele>
        <time>2012-07-23T08:09:40Z</time>
      </trkpt>
      <trkpt lat="46.122200293466449" lon="7.232319535687566">
        <ele>2175.5999999999999</ele>
        <time>2012-07-23T08:09:41Z</time>
      </trkpt>
      <trkpt lat="46.122267097234726" lon="7.23233831115067">
        <ele>2175.1199999999999</ele>
        <time>2012-07-23T08:09:42Z</time>
      </trkpt>
      <trkpt lat="46.122337086126208" lon="7.23234903998673">
        <ele>2174.6399999999999</ele>
        <time>2012-07-23T08:09:43Z</time>
      </trkpt>
      <trkpt lat="46.122746123000979" lon="7.23239304497838">
        <ele>2171.27</ele>
        <time>2012-07-23T08:09:48Z</time>
      </trkpt>
      <trkpt lat="46.122834552079439" lon="7.232383824884892">
        <ele>2170.79</ele>
        <time>2012-07-23T08:09:49Z</time>
      </trkpt>
      <trkpt lat="46.123362947255373" lon="7.232319787144661">
        <ele>2167.9099999999999</ele>
        <time>2012-07-23T08:09:55Z</time>
      </trkpt>
      <trkpt lat="46.123435953631997" lon="7.232296904549003">
        <ele>2167.4299999999998</ele>
        <time>2012-07-23T08:09:56Z</time>
      </trkpt>
      <trkpt lat="46.123507535085082" lon="7.232265220955014">
        <ele>2166.4699999999998</ele>
        <time>2012-07-23T08:09:57Z</time>
      </trkpt>
      <trkpt lat="46.123660672456026" lon="7.232189113274217">
        <ele>2165.5100000000002</ele>
        <time>2012-07-23T08:09:59Z</time>
      </trkpt>
      <trkpt lat="46.123743653297424" lon="7.232166901230812">
        <ele>2164.5500000000002</ele>
        <time>2012-07-23T08:10:00Z</time>
      </trkpt>
      <trkpt lat="46.123830070719123" lon="7.232161704450846">
        <ele>2164.0599999999999</ele>
        <time>2012-07-23T08:10:01Z</time>
      </trkpt>
      <trkpt lat="46.123917074874043" lon="7.232169080525637">
        <ele>2163.5799999999999</ele>
        <time>2012-07-23T08:10:02Z</time>
      </trkpt>
      <trkpt lat="46.124001648277044" lon="7.232186682522297">
        <ele>2163.0999999999999</ele>
        <time>2012-07-23T08:10:03Z</time>
      </trkpt>
      <trkpt lat="46.124080941081047" lon="7.232204033061862">
        <ele>2162.6199999999999</ele>
        <time>2012-07-23T08:10:04Z</time>
      </trkpt>
      <trkpt lat="46.124155120924115" lon="7.232205625623465">
        <ele>2162.1399999999999</ele>
        <time>2012-07-23T08:10:05Z</time>
      </trkpt>
      <trkpt lat="46.124227624386549" lon="7.232189029455185">
        <ele>2161.6599999999999</ele>
        <time>2012-07-23T08:10:06Z</time>
      </trkpt>
      <trkpt lat="46.124297529459" lon="7.232152484357357">
        <ele>2161.1799999999998</ele>
        <time>2012-07-23T08:10:07Z</time>
      </trkpt>
      <trkpt lat="46.124364668503404" lon="7.23209691233933">
        <ele>2160.6999999999998</ele>
        <time>2012-07-23T08:10:08Z</time>
      </trkpt>
      <trkpt lat="46.124429209157825" lon="7.232027426362038">
        <ele>2159.7399999999998</ele>
        <time>2012-07-23T08:10:09Z</time>
      </trkpt>
      <trkpt lat="46.124495090916753" lon="7.231957102194428">
        <ele>2159.2600000000002</ele>
        <time>2012-07-23T08:10:10Z</time>
      </trkpt>
      <trkpt lat="46.124571366235614" lon="7.231899686157703">
        <ele>2158.3000000000002</ele>
        <time>2012-07-23T08:10:11Z</time>
      </trkpt>
      <trkpt lat="46.124655604362488" lon="7.231860039755702">
        <ele>2157.8200000000002</ele>
        <time>2012-07-23T08:10:12Z</time>
      </trkpt>
      <trkpt lat="46.124743027612567" lon="7.231828439980745">
        <ele>2157.3400000000001</ele>
        <time>2012-07-23T08:10:13Z</time>
      </trkpt>
      <trkpt lat="46.124826008453965" lon="7.231793822720647">
        <ele>2156.8600000000001</ele>
        <time>2012-07-23T08:10:14Z</time>
      </trkpt>
      <trkpt lat="46.124896667897701" lon="7.231745040044189">
        <ele>2156.3699999999999</ele>
        <time>2012-07-23T08:10:15Z</time>
      </trkpt>
      <trkpt lat="46.124948048964143" lon="7.231683684512973">
        <ele>2155.4099999999999</ele>
        <time>2012-07-23T08:10:16Z</time>
      </trkpt>
      <trkpt lat="46.124987695366144" lon="7.231627274304628">
        <ele>2154.9299999999998</ele>
        <time>2012-07-23T08:10:17Z</time>
      </trkpt>
      <trkpt lat="46.125026922672987" lon="7.231598943471909">
        <ele>2154.4499999999998</ele>
        <time>2012-07-23T08:10:18Z</time>
      </trkpt>
      <trkpt lat="46.125062461942434" lon="7.23160338588059">
        <ele>2154.4499999999998</ele>
        <time>2012-07-23T08:10:19Z</time>
      </trkpt>
      <trkpt lat="46.125085679814219" lon="7.231636662036181">
        <ele>2153.9699999999998</ele>
        <time>2012-07-23T08:10:20Z</time>
      </trkpt>
      <trkpt lat="46.125091211870313" lon="7.231688965111971">
        <ele>2153.9699999999998</ele>
        <time>2012-07-23T08:10:21Z</time>
      </trkpt>
      <trkpt lat="46.125079980120063" lon="7.231749733909965">
        <ele>2153.4899999999998</ele>
        <time>2012-07-23T08:10:22Z</time>
      </trkpt>
      <trkpt lat="46.125055588781834" lon="7.231809496879578">
        <ele>2153.4899999999998</ele>
        <time>2012-07-23T08:10:23Z</time>
      </trkpt>
      <trkpt lat="46.125025413930416" lon="7.23187018185854">
        <ele>2153.0100000000002</ele>
        <time>2012-07-23T08:10:24Z</time>
      </trkpt>
      <trkpt lat="46.124995993450284" lon="7.231938494369388">
        <ele>2153.0100000000002</ele>
        <time>2012-07-23T08:10:25Z</time>
      </trkpt>
      <trkpt lat="46.124959867447615" lon="7.23201091401279">
        <ele>2152.5300000000002</ele>
        <time>2012-07-23T08:10:26Z</time>
      </trkpt>
      <trkpt lat="46.124867415055633" lon="7.232156842947006">
        <ele>2151.0900000000001</ele>
        <time>2012-07-23T08:10:28Z</time>
      </trkpt>
      <trkpt lat="46.124808574095368" lon="7.232225071638823">
        <ele>2150.6100000000001</ele>
        <time>2012-07-23T08:10:29Z</time>
      </trkpt>
      <trkpt lat="46.124609587714076" lon="7.232452053576708">
        <ele>2147.7199999999998</ele>
        <time>2012-07-23T08:10:32Z</time>
      </trkpt>
      <trkpt lat="46.124555608257651" lon="7.232551882043481">
        <ele>2147.2399999999998</ele>
        <time>2012-07-23T08:10:33Z</time>
      </trkpt>
      <trkpt lat="46.124515291303396" lon="7.232654727995396">
        <ele>2146.2800000000002</ele>
        <time>2012-07-23T08:10:34Z</time>
      </trkpt>
      <trkpt lat="46.124490397050977" lon="7.232761345803738">
        <ele>2145.8000000000002</ele>
        <time>2012-07-23T08:10:35Z</time>
      </trkpt>
      <trkpt lat="46.124484026804566" lon="7.232872406020761">
        <ele>2144.8400000000001</ele>
        <time>2012-07-23T08:10:36Z</time>
      </trkpt>
      <trkpt lat="46.124487966299057" lon="7.232976593077183">
        <ele>2144.3600000000001</ele>
        <time>2012-07-23T08:10:37Z</time>
      </trkpt>
      <trkpt lat="46.12448712810874" lon="7.23306929692626">
        <ele>2143.8800000000001</ele>
        <time>2012-07-23T08:10:38Z</time>
      </trkpt>
      <trkpt lat="46.124469861388206" lon="7.233159318566322">
        <ele>2143.4000000000001</ele>
        <time>2012-07-23T08:10:39Z</time>
      </trkpt>
      <trkpt lat="46.124439435079694" lon="7.233249507844448">
        <ele>2142.9200000000001</ele>
        <time>2012-07-23T08:10:40Z</time>
      </trkpt>
      <trkpt lat="46.124318735674024" lon="7.233523009344935">
        <ele>2140.5100000000002</ele>
        <time>2012-07-23T08:10:43Z</time>
      </trkpt>
      <trkpt lat="46.124271880835295" lon="7.233595848083496">
        <ele>2140.0300000000002</ele>
        <time>2012-07-23T08:10:44Z</time>
      </trkpt>
      <trkpt lat="46.124222511425614" lon="7.233653180301189">
        <ele>2139.5500000000002</ele>
        <time>2012-07-23T08:10:45Z</time>
      </trkpt>
      <trkpt lat="46.124184876680374" lon="7.233707411214709">
        <ele>2139.0700000000002</ele>
        <time>2012-07-23T08:10:46Z</time>
      </trkpt>
      <trkpt lat="46.124174734577537" lon="7.233766168355942">
        <ele>2138.5900000000001</ele>
        <time>2012-07-23T08:10:47Z</time>
      </trkpt>
      <trkpt lat="46.124195940792561" lon="7.233813358470798">
        <ele>2138.1100000000001</ele>
        <time>2012-07-23T08:10:48Z</time>
      </trkpt>
      <trkpt lat="46.124236593022943" lon="7.233834229409695">
        <ele>2137.6300000000001</ele>
        <time>2012-07-23T08:10:49Z</time>
      </trkpt>
      <trkpt lat="46.12428336404264" lon="7.233822830021381">
        <ele>2136.6700000000001</ele>
        <time>2012-07-23T08:10:50Z</time>
      </trkpt>
      <trkpt lat="46.124331476166844" lon="7.233787458389998">
        <ele>2136.1900000000001</ele>
        <time>2012-07-23T08:10:51Z</time>
      </trkpt>
      <trkpt lat="46.124379001557827" lon="7.233739849179983">
        <ele>2135.71</ele>
        <time>2012-07-23T08:10:52Z</time>
      </trkpt>
      <trkpt lat="46.12471335567534" lon="7.233408009633422">
        <ele>2132.8200000000002</ele>
        <time>2012-07-23T08:10:58Z</time>
      </trkpt>
      <trkpt lat="46.124850232154131" lon="7.233301643282175">
        <ele>2131.8600000000001</ele>
        <time>2012-07-23T08:11:00Z</time>
      </trkpt>
      <trkpt lat="46.124913431704044" lon="7.233233246952295">
        <ele>2131.3800000000001</ele>
        <time>2012-07-23T08:11:01Z</time>
      </trkpt>
      <trkpt lat="46.125045698136091" lon="7.233099974691868">
        <ele>2129.9400000000001</ele>
        <time>2012-07-23T08:11:03Z</time>
      </trkpt>
      <trkpt lat="46.125122224912047" lon="7.233066195622087">
        <ele>2129.46</ele>
        <time>2012-07-23T08:11:04Z</time>
      </trkpt>
      <trkpt lat="46.125202858820558" lon="7.233059154823422">
        <ele>2128.98</ele>
        <time>2012-07-23T08:11:05Z</time>
      </trkpt>
      <trkpt lat="46.125528579577804" lon="7.23302386701107">
        <ele>2126.0900000000001</ele>
        <time>2012-07-23T08:11:09Z</time>
      </trkpt>
      <trkpt lat="46.125604687258601" lon="7.232981454581022">
        <ele>2125.6100000000001</ele>
        <time>2012-07-23T08:11:10Z</time>
      </trkpt>
      <trkpt lat="46.125676520168781" lon="7.232922865077853">
        <ele>2124.6500000000001</ele>
        <time>2012-07-23T08:11:11Z</time>
      </trkpt>
      <trkpt lat="46.12582303583622" lon="7.232779199257493">
        <ele>2123.21</ele>
        <time>2012-07-23T08:11:13Z</time>
      </trkpt>
      <trkpt lat="46.125904843211174" lon="7.232718514278531">
        <ele>2122.73</ele>
        <time>2012-07-23T08:11:14Z</time>
      </trkpt>
      <trkpt lat="46.126171303912997" lon="7.23256110213697">
        <ele>2120.3200000000002</ele>
        <time>2012-07-23T08:11:17Z</time>
      </trkpt>
      <trkpt lat="46.126270210370421" lon="7.232540147379041">
        <ele>2119.3600000000001</ele>
        <time>2012-07-23T08:11:18Z</time>
      </trkpt>
      <trkpt lat="46.126363249495625" lon="7.232539812102914">
        <ele>2118.4000000000001</ele>
        <time>2012-07-23T08:11:19Z</time>
      </trkpt>
      <trkpt lat="46.12645142711699" lon="7.232554480433464">
        <ele>2117.4400000000001</ele>
        <time>2012-07-23T08:11:20Z</time>
      </trkpt>
      <trkpt lat="46.126537844538689" lon="7.232563113793731">
        <ele>2116.96</ele>
        <time>2012-07-23T08:11:21Z</time>
      </trkpt>
      <trkpt lat="46.126624764874578" lon="7.232553055509925">
        <ele>2116.48</ele>
        <time>2012-07-23T08:11:22Z</time>
      </trkpt>
      <trkpt lat="46.126707745715976" lon="7.232528831809759">
        <ele>2115.52</ele>
        <time>2012-07-23T08:11:23Z</time>
      </trkpt>
      <trkpt lat="46.126783266663551" lon="7.232499998062849">
        <ele>2115.04</ele>
        <time>2012-07-23T08:11:24Z</time>
      </trkpt>
      <trkpt lat="46.126855099573731" lon="7.232463620603085">
        <ele>2114.5599999999999</ele>
        <time>2012-07-23T08:11:25Z</time>
      </trkpt>
      <trkpt lat="46.126923998817801" lon="7.232413496822119">
        <ele>2114.0799999999999</ele>
        <time>2012-07-23T08:11:26Z</time>
      </trkpt>
      <trkpt lat="46.126994490623474" lon="7.23235884681344">
        <ele>2113.1199999999999</ele>
        <time>2012-07-23T08:11:27Z</time>
      </trkpt>
      <trkpt lat="46.127070849761367" lon="7.232308220118284">
        <ele>2112.6300000000001</ele>
        <time>2012-07-23T08:11:28Z</time>
      </trkpt>
      <trkpt lat="46.12714528106153" lon="7.232249127700925">
        <ele>2112.1500000000001</ele>
        <time>2012-07-23T08:11:29Z</time>
      </trkpt>
      <trkpt lat="46.127211498096585" lon="7.232170756906271">
        <ele>2111.6700000000001</ele>
        <time>2012-07-23T08:11:30Z</time>
      </trkpt>
      <trkpt lat="46.12727721221745" lon="7.232080567628145">
        <ele>2110.71</ele>
        <time>2012-07-23T08:11:31Z</time>
      </trkpt>
      <trkpt lat="46.127351392060518" lon="7.23199725151062">
        <ele>2109.75</ele>
        <time>2012-07-23T08:11:32Z</time>
      </trkpt>
      <trkpt lat="46.127436468377709" lon="7.231926759704948">
        <ele>2108.79</ele>
        <time>2012-07-23T08:11:33Z</time>
      </trkpt>
      <trkpt lat="46.127605196088552" lon="7.231789631769061">
        <ele>2107.3499999999999</ele>
        <time>2012-07-23T08:11:35Z</time>
      </trkpt>
      <trkpt lat="46.127742240205407" lon="7.231657616794109">
        <ele>2105.4200000000001</ele>
        <time>2012-07-23T08:11:37Z</time>
      </trkpt>
      <trkpt lat="46.127816420048475" lon="7.23162786103785">
        <ele>2104.9400000000001</ele>
        <time>2012-07-23T08:11:38Z</time>
      </trkpt>
      <trkpt lat="46.127888588234782" lon="7.231604978442192">
        <ele>2104.46</ele>
        <time>2012-07-23T08:11:39Z</time>
      </trkpt>
      <trkpt lat="46.127957319840789" lon="7.231562901288271">
        <ele>2103.5</ele>
        <time>2012-07-23T08:11:40Z</time>
      </trkpt>
      <trkpt lat="46.128020770847797" lon="7.231500372290611">
        <ele>2103.02</ele>
        <time>2012-07-23T08:11:41Z</time>
      </trkpt>
      <trkpt lat="46.128081539645791" lon="7.231438849121332">
        <ele>2102.54</ele>
        <time>2012-07-23T08:11:42Z</time>
      </trkpt>
      <trkpt lat="46.128147253766656" lon="7.231400208547711">
        <ele>2101.5799999999999</ele>
        <time>2012-07-23T08:11:43Z</time>
      </trkpt>
      <trkpt lat="46.128213386982679" lon="7.231391659006476">
        <ele>2101.0999999999999</ele>
        <time>2012-07-23T08:11:44Z</time>
      </trkpt>
      <trkpt lat="46.128281028941274" lon="7.231392245739698">
        <ele>2101.0999999999999</ele>
        <time>2012-07-23T08:11:45Z</time>
      </trkpt>
      <trkpt lat="46.128350263461471" lon="7.231373386457562">
        <ele>2100.6199999999999</ele>
        <time>2012-07-23T08:11:46Z</time>
      </trkpt>
      <trkpt lat="46.128419833257794" lon="7.231334242969751">
        <ele>2100.1399999999999</ele>
        <time>2012-07-23T08:11:47Z</time>
      </trkpt>
      <trkpt lat="46.128490157425404" lon="7.231283532455564">
        <ele>2099.6599999999999</ele>
        <time>2012-07-23T08:11:48Z</time>
      </trkpt>
      <trkpt lat="46.128556961193681" lon="7.231220165267587">
        <ele>2099.1799999999998</ele>
        <time>2012-07-23T08:11:49Z</time>
      </trkpt>
      <trkpt lat="46.128621837124228" lon="7.231142884120345">
        <ele>2098.21</ele>
        <time>2012-07-23T08:11:50Z</time>
      </trkpt>
      <trkpt lat="46.128683779388666" lon="7.231055879965425">
        <ele>2097.73</ele>
        <time>2012-07-23T08:11:51Z</time>
      </trkpt>
      <trkpt lat="46.128743039444089" lon="7.230962924659252">
        <ele>2096.77</ele>
        <time>2012-07-23T08:11:52Z</time>
      </trkpt>
      <trkpt lat="46.128921741619706" lon="7.23067500628531">
        <ele>2093.8899999999999</ele>
        <time>2012-07-23T08:11:55Z</time>
      </trkpt>
      <trkpt lat="46.128997262567282" lon="7.230589343234897">
        <ele>2092.9299999999998</ele>
        <time>2012-07-23T08:11:56Z</time>
      </trkpt>
      <trkpt lat="46.129076303914189" lon="7.230505775660276">
        <ele>2091.9699999999998</ele>
        <time>2012-07-23T08:11:57Z</time>
      </trkpt>
      <trkpt lat="46.129151154309511" lon="7.230412065982819">
        <ele>2091.4899999999998</ele>
        <time>2012-07-23T08:11:58Z</time>
      </trkpt>
      <trkpt lat="46.129224915057421" lon="7.230311315506697">
        <ele>2090.52</ele>
        <time>2012-07-23T08:11:59Z</time>
      </trkpt>
      <trkpt lat="46.129531776532531" lon="7.229994395747781">
        <ele>2086.6799999999998</ele>
        <time>2012-07-23T08:12:03Z</time>
      </trkpt>
      <trkpt lat="46.129605202004313" lon="7.229948127642274">
        <ele>2085.7199999999998</ele>
        <time>2012-07-23T08:12:04Z</time>
      </trkpt>
      <trkpt lat="46.129666976630688" lon="7.229905799031258">
        <ele>2085.2399999999998</ele>
        <time>2012-07-23T08:12:05Z</time>
      </trkpt>
      <trkpt lat="46.129719447344542" lon="7.229850143194199">
        <ele>2084.2800000000002</ele>
        <time>2012-07-23T08:12:06Z</time>
      </trkpt>
      <trkpt lat="46.129768816754222" lon="7.229782082140446">
        <ele>2083.79</ele>
        <time>2012-07-23T08:12:07Z</time>
      </trkpt>
      <trkpt lat="46.129817683249712" lon="7.229700442403555">
        <ele>2082.8299999999999</ele>
        <time>2012-07-23T08:12:08Z</time>
      </trkpt>
      <trkpt lat="46.129865627735853" lon="7.229609917849302">
        <ele>2081.8699999999999</ele>
        <time>2012-07-23T08:12:09Z</time>
      </trkpt>
      <trkpt lat="46.13038731738925" lon="7.228731997311115">
        <ele>2074.6599999999999</ele>
        <time>2012-07-23T08:12:19Z</time>
      </trkpt>
      <trkpt lat="46.130423694849014" lon="7.228711964562535">
        <ele>2073.6999999999998</ele>
        <time>2012-07-23T08:12:20Z</time>
      </trkpt>
      <trkpt lat="46.130460407584906" lon="7.228725962340832">
        <ele>2073.2199999999998</ele>
        <time>2012-07-23T08:12:21Z</time>
      </trkpt>
      <trkpt lat="46.13048848696053" lon="7.228771224617958">
        <ele>2073.2199999999998</ele>
        <time>2012-07-23T08:12:22Z</time>
      </trkpt>
      <trkpt lat="46.130494102835655" lon="7.228834256529808">
        <ele>2072.7399999999998</ele>
        <time>2012-07-23T08:12:23Z</time>
      </trkpt>
      <trkpt lat="46.130480356514454" lon="7.228898210451007">
        <ele>2072.7399999999998</ele>
        <time>2012-07-23T08:12:24Z</time>
      </trkpt>
      <trkpt lat="46.130457473918796" lon="7.228965433314443">
        <ele>2072.2600000000002</ele>
        <time>2012-07-23T08:12:25Z</time>
      </trkpt>
      <trkpt lat="46.130430568009615" lon="7.229038942605257">
        <ele>2071.7800000000002</ele>
        <time>2012-07-23T08:12:26Z</time>
      </trkpt>
      <trkpt lat="46.130403913557529" lon="7.229122510179877">
        <ele>2071.7800000000002</ele>
        <time>2012-07-23T08:12:27Z</time>
      </trkpt>
      <trkpt lat="46.130381701514125" lon="7.229211693629623">
        <ele>2071.3000000000002</ele>
        <time>2012-07-23T08:12:28Z</time>
      </trkpt>
      <trkpt lat="46.130344485864043" lon="7.22940263338387">
        <ele>2069.8600000000001</ele>
        <time>2012-07-23T08:12:30Z</time>
      </trkpt>
      <trkpt lat="46.130335098132491" lon="7.229511514306068">
        <ele>2069.3800000000001</ele>
        <time>2012-07-23T08:12:31Z</time>
      </trkpt>
      <trkpt lat="46.130324620753527" lon="7.229836564511061">
        <ele>2067.4499999999998</ele>
        <time>2012-07-23T08:12:34Z</time>
      </trkpt>
      <trkpt lat="46.130307102575898" lon="7.22994108684361">
        <ele>2066.4899999999998</ele>
        <time>2012-07-23T08:12:35Z</time>
      </trkpt>
      <trkpt lat="46.130278520286083" lon="7.230045609176159">
        <ele>2066.0100000000002</ele>
        <time>2012-07-23T08:12:36Z</time>
      </trkpt>
      <trkpt lat="46.130240298807621" lon="7.230152143165469">
        <ele>2065.0500000000002</ele>
        <time>2012-07-23T08:12:37Z</time>
      </trkpt>
      <trkpt lat="46.130196545273066" lon="7.230260437354446">
        <ele>2064.5700000000002</ele>
        <time>2012-07-23T08:12:38Z</time>
      </trkpt>
      <trkpt lat="46.130062518641353" lon="7.230605017393827">
        <ele>2061.6799999999998</ele>
        <time>2012-07-23T08:12:41Z</time>
      </trkpt>
      <trkpt lat="46.130040725693107" lon="7.23072630353272">
        <ele>2060.7199999999998</ele>
        <time>2012-07-23T08:12:42Z</time>
      </trkpt>
      <trkpt lat="46.130033098161221" lon="7.230843817815185">
        <ele>2059.7600000000002</ele>
        <time>2012-07-23T08:12:43Z</time>
      </trkpt>
      <trkpt lat="46.130022201687098" lon="7.231036769226193">
        <ele>2058.3200000000002</ele>
        <time>2012-07-23T08:12:45Z</time>
      </trkpt>
      <trkpt lat="46.130005856975913" lon="7.231105249375105">
        <ele>2057.8400000000001</ele>
        <time>2012-07-23T08:12:46Z</time>
      </trkpt>
      <trkpt lat="46.129978448152542" lon="7.231161827221513">
        <ele>2057.3600000000001</ele>
        <time>2012-07-23T08:12:47Z</time>
      </trkpt>
      <trkpt lat="46.129938131198287" lon="7.231210526078939">
        <ele>2056.8800000000001</ele>
        <time>2012-07-23T08:12:48Z</time>
      </trkpt>
      <trkpt lat="46.129883816465735" lon="7.231254363432527">
        <ele>2056.4000000000001</ele>
        <time>2012-07-23T08:12:49Z</time>
      </trkpt>
      <trkpt lat="46.129821790382266" lon="7.231301972642541">
        <ele>2055.9200000000001</ele>
        <time>2012-07-23T08:12:50Z</time>
      </trkpt>
      <trkpt lat="46.129761440679431" lon="7.231368273496628">
        <ele>2055.4400000000001</ele>
        <time>2012-07-23T08:12:51Z</time>
      </trkpt>
      <trkpt lat="46.129709472879767" lon="7.231459468603134">
        <ele>2054.4699999999998</ele>
        <time>2012-07-23T08:12:52Z</time>
      </trkpt>
      <trkpt lat="46.129670832306147" lon="7.231570361182094">
        <ele>2053.9899999999998</ele>
        <time>2012-07-23T08:12:53Z</time>
      </trkpt>
      <trkpt lat="46.129639903083444" lon="7.231692401692271">
        <ele>2053.0300000000002</ele>
        <time>2012-07-23T08:12:54Z</time>
      </trkpt>
      <trkpt lat="46.129498416557908" lon="7.23222004249692">
        <ele>2049.1900000000001</ele>
        <time>2012-07-23T08:12:58Z</time>
      </trkpt>
      <trkpt lat="46.129397079348564" lon="7.232664618641138">
        <ele>2045.8199999999999</ele>
        <time>2012-07-23T08:13:01Z</time>
      </trkpt>
      <trkpt lat="46.129326168447733" lon="7.232973407953978">
        <ele>2043.4200000000001</ele>
        <time>2012-07-23T08:13:03Z</time>
      </trkpt>
      <trkpt lat="46.129244780167937" lon="7.233286052942276">
        <ele>2041.5</ele>
        <time>2012-07-23T08:13:05Z</time>
      </trkpt>
      <trkpt lat="46.129049565643072" lon="7.234058445319533">
        <ele>2036.21</ele>
        <time>2012-07-23T08:13:11Z</time>
      </trkpt>
      <trkpt lat="46.128891231492162" lon="7.234439570456743">
        <ele>2033.3299999999999</ele>
        <time>2012-07-23T08:13:14Z</time>
      </trkpt>
      <trkpt lat="46.12853592261672" lon="7.235483033582568">
        <ele>2025.6400000000001</ele>
        <time>2012-07-23T08:13:23Z</time>
      </trkpt>
      <trkpt lat="46.128490660339594" lon="7.235532822087407">
        <ele>2025.1500000000001</ele>
        <time>2012-07-23T08:13:24Z</time>
      </trkpt>
      <trkpt lat="46.128438105806708" lon="7.235568696632981">
        <ele>2024.6700000000001</ele>
        <time>2012-07-23T08:13:25Z</time>
      </trkpt>
      <trkpt lat="46.128395441919565" lon="7.235610354691744">
        <ele>2024.1900000000001</ele>
        <time>2012-07-23T08:13:26Z</time>
      </trkpt>
      <trkpt lat="46.128379935398698" lon="7.235668525099754">
        <ele>2023.71</ele>
        <time>2012-07-23T08:13:27Z</time>
      </trkpt>
      <trkpt lat="46.128392424434423" lon="7.235722923651338">
        <ele>2023.23</ele>
        <time>2012-07-23T08:13:28Z</time>
      </trkpt>
      <trkpt lat="46.128425784409046" lon="7.235760139301419">
        <ele>2022.75</ele>
        <time>2012-07-23T08:13:29Z</time>
      </trkpt>
      <trkpt lat="46.12846945412457" lon="7.235775562003255">
        <ele>2021.79</ele>
        <time>2012-07-23T08:13:30Z</time>
      </trkpt>
      <trkpt lat="46.12851832062006" lon="7.235764414072037">
        <ele>2021.3099999999999</ele>
        <time>2012-07-23T08:13:31Z</time>
      </trkpt>
      <trkpt lat="46.128566768020391" lon="7.235730970278382">
        <ele>2021.3099999999999</ele>
        <time>2012-07-23T08:13:32Z</time>
      </trkpt>
      <trkpt lat="46.128613958135247" lon="7.235684115439653">
        <ele>2020.8299999999999</ele>
        <time>2012-07-23T08:13:33Z</time>
      </trkpt>
      <trkpt lat="46.128662824630737" lon="7.235629297792912">
        <ele>2020.3499999999999</ele>
        <time>2012-07-23T08:13:34Z</time>
      </trkpt>
      <trkpt lat="46.128767346963286" lon="7.235502814874053">
        <ele>2019.3900000000001</ele>
        <time>2012-07-23T08:13:36Z</time>
      </trkpt>
      <trkpt lat="46.129059121012688" lon="7.235079947859049">
        <ele>2016.02</ele>
        <time>2012-07-23T08:13:41Z</time>
      </trkpt>
      <trkpt lat="46.129135228693485" lon="7.235010880976915">
        <ele>2015.54</ele>
        <time>2012-07-23T08:13:42Z</time>
      </trkpt>
      <trkpt lat="46.129218460991979" lon="7.234960589557886">
        <ele>2015.0599999999999</ele>
        <time>2012-07-23T08:13:43Z</time>
      </trkpt>
      <trkpt lat="46.12930697388947" lon="7.234924715012312">
        <ele>2014.0999999999999</ele>
        <time>2012-07-23T08:13:44Z</time>
      </trkpt>
      <trkpt lat="46.129398168995976" lon="7.234889678657055">
        <ele>2013.6199999999999</ele>
        <time>2012-07-23T08:13:45Z</time>
      </trkpt>
      <trkpt lat="46.129489364102483" lon="7.234845757484436">
        <ele>2012.6600000000001</ele>
        <time>2012-07-23T08:13:46Z</time>
      </trkpt>
      <trkpt lat="46.129580307751894" lon="7.234786413609982">
        <ele>2011.7</ele>
        <time>2012-07-23T08:13:47Z</time>
      </trkpt>
      <trkpt lat="46.130200903862715" lon="7.234332533553243">
        <ele>2005.45</ele>
        <time>2012-07-23T08:13:54Z</time>
      </trkpt>
      <trkpt lat="46.130262175574899" lon="7.234262377023697">
        <ele>2004.49</ele>
        <time>2012-07-23T08:13:55Z</time>
      </trkpt>
      <trkpt lat="46.130311209708452" lon="7.234178222715855">
        <ele>2004.01</ele>
        <time>2012-07-23T08:13:56Z</time>
      </trkpt>
      <trkpt lat="46.130354795604944" lon="7.234081160277128">
        <ele>2003.04</ele>
        <time>2012-07-23T08:13:57Z</time>
      </trkpt>
      <trkpt lat="46.130398130044341" lon="7.233976973220706">
        <ele>2002.5599999999999</ele>
        <time>2012-07-23T08:13:58Z</time>
      </trkpt>
      <trkpt lat="46.13049435429275" lon="7.233767844736576">
        <ele>2000.6400000000001</ele>
        <time>2012-07-23T08:14:00Z</time>
      </trkpt>
      <trkpt lat="46.130547495558858" lon="7.233681427314878">
        <ele>1999.6800000000001</ele>
        <time>2012-07-23T08:14:01Z</time>
      </trkpt>
      <trkpt lat="46.13060331903398" lon="7.233610767871141">
        <ele>1999.2</ele>
        <time>2012-07-23T08:14:02Z</time>
      </trkpt>
      <trkpt lat="46.130664004012942" lon="7.233555195853114">
        <ele>1998.24</ele>
        <time>2012-07-23T08:14:03Z</time>
      </trkpt>
      <trkpt lat="46.130730556324124" lon="7.233514795079827">
        <ele>1997.76</ele>
        <time>2012-07-23T08:14:04Z</time>
      </trkpt>
      <trkpt lat="46.130804233253002" lon="7.23349149338901">
        <ele>1997.28</ele>
        <time>2012-07-23T08:14:05Z</time>
      </trkpt>
      <trkpt lat="46.130882855504751" lon="7.233475735411048">
        <ele>1996.8</ele>
        <time>2012-07-23T08:14:06Z</time>
      </trkpt>
      <trkpt lat="46.130962315946817" lon="7.233450841158629">
        <ele>1996.3199999999999</ele>
        <time>2012-07-23T08:14:07Z</time>
      </trkpt>
      <trkpt lat="46.131039848551154" lon="7.233408764004707">
        <ele>1995.3499999999999</ele>
        <time>2012-07-23T08:14:08Z</time>
      </trkpt>
      <trkpt lat="46.131114279851317" lon="7.23334975540638">
        <ele>1994.8699999999999</ele>
        <time>2012-07-23T08:14:09Z</time>
      </trkpt>
      <trkpt lat="46.131183933466673" lon="7.233276162296534">
        <ele>1993.9100000000001</ele>
        <time>2012-07-23T08:14:10Z</time>
      </trkpt>
      <trkpt lat="46.131247719749808" lon="7.233198964968324">
        <ele>1992.95</ele>
        <time>2012-07-23T08:14:11Z</time>
      </trkpt>
      <trkpt lat="46.13136506639421" lon="7.233084132894874">
        <ele>1991.03</ele>
        <time>2012-07-23T08:14:13Z</time>
      </trkpt>
      <trkpt lat="46.131433211266994" lon="7.233067452907562">
        <ele>1990.0699999999999</ele>
        <time>2012-07-23T08:14:14Z</time>
      </trkpt>
      <trkpt lat="46.131568243727088" lon="7.23306393250823">
        <ele>1989.5899999999999</ele>
        <time>2012-07-23T08:14:16Z</time>
      </trkpt>
      <trkpt lat="46.131625240668654" lon="7.233036523684859">
        <ele>1989.0999999999999</ele>
        <time>2012-07-23T08:14:17Z</time>
      </trkpt>
      <trkpt lat="46.131673604249954" lon="7.232986567541957">
        <ele>1988.6199999999999</ele>
        <time>2012-07-23T08:14:18Z</time>
      </trkpt>
      <trkpt lat="46.131713585928082" lon="7.232915321364999">
        <ele>1988.1400000000001</ele>
        <time>2012-07-23T08:14:19Z</time>
      </trkpt>
      <trkpt lat="46.13174426369369" lon="7.23282840102911">
        <ele>1987.6600000000001</ele>
        <time>2012-07-23T08:14:20Z</time>
      </trkpt>
      <trkpt lat="46.131774103268981" lon="7.232732344418764">
        <ele>1986.7</ele>
        <time>2012-07-23T08:14:21Z</time>
      </trkpt>
      <trkpt lat="46.131819197908044" lon="7.232639556750655">
        <ele>1985.74</ele>
        <time>2012-07-23T08:14:22Z</time>
      </trkpt>
      <trkpt lat="46.131880721077323" lon="7.232557581737638">
        <ele>1985.26</ele>
        <time>2012-07-23T08:14:23Z</time>
      </trkpt>
      <trkpt lat="46.131954733282328" lon="7.232491951435804">
        <ele>1984.3</ele>
        <time>2012-07-23T08:14:24Z</time>
      </trkpt>
      <trkpt lat="46.132031427696347" lon="7.232439648360014">
        <ele>1983.3399999999999</ele>
        <time>2012-07-23T08:14:25Z</time>
      </trkpt>
      <trkpt lat="46.13210191950202" lon="7.232394218444824">
        <ele>1982.8599999999999</ele>
        <time>2012-07-23T08:14:26Z</time>
      </trkpt>
      <trkpt lat="46.132165119051933" lon="7.232338562607765">
        <ele>1982.3800000000001</ele>
        <time>2012-07-23T08:14:27Z</time>
      </trkpt>
      <trkpt lat="46.132222032174468" lon="7.232262371107936">
        <ele>1981.4100000000001</ele>
        <time>2012-07-23T08:14:28Z</time>
      </trkpt>
      <trkpt lat="46.132273245602846" lon="7.232170253992081">
        <ele>1980.9300000000001</ele>
        <time>2012-07-23T08:14:29Z</time>
      </trkpt>
      <trkpt lat="46.132386233657598" lon="7.231975123286247">
        <ele>1979.01</ele>
        <time>2012-07-23T08:14:31Z</time>
      </trkpt>
      <trkpt lat="46.132457982748747" lon="7.231887197121978">
        <ele>1978.05</ele>
        <time>2012-07-23T08:14:32Z</time>
      </trkpt>
      <trkpt lat="46.132538616657257" lon="7.231811759993434">
        <ele>1977.0899999999999</ele>
        <time>2012-07-23T08:14:33Z</time>
      </trkpt>
      <trkpt lat="46.132899960502982" lon="7.231433652341366">
        <ele>1972.28</ele>
        <time>2012-07-23T08:14:38Z</time>
      </trkpt>
      <trkpt lat="46.132942792028189" lon="7.231358718127012">
        <ele>1971.3199999999999</ele>
        <time>2012-07-23T08:14:39Z</time>
      </trkpt>
      <trkpt lat="46.133011858910322" lon="7.23121932707727">
        <ele>1969.8800000000001</ele>
        <time>2012-07-23T08:14:41Z</time>
      </trkpt>
      <trkpt lat="46.133050415664911" lon="7.231173813343048">
        <ele>1969.4000000000001</ele>
        <time>2012-07-23T08:14:42Z</time>
      </trkpt>
      <trkpt lat="46.133091822266579" lon="7.231153780594468">
        <ele>1968.9200000000001</ele>
        <time>2012-07-23T08:14:43Z</time>
      </trkpt>
      <trkpt lat="46.133131133392453" lon="7.231163335964084">
        <ele>1968.4400000000001</ele>
        <time>2012-07-23T08:14:44Z</time>
      </trkpt>
      <trkpt lat="46.133157452568412" lon="7.231204407289624">
        <ele>1967.96</ele>
        <time>2012-07-23T08:14:45Z</time>
      </trkpt>
      <trkpt lat="46.133162984624505" lon="7.231266433373094">
        <ele>1967.48</ele>
        <time>2012-07-23T08:14:46Z</time>
      </trkpt>
      <trkpt lat="46.133148316293955" lon="7.231336338445544">
        <ele>1966.99</ele>
        <time>2012-07-23T08:14:47Z</time>
      </trkpt>
      <trkpt lat="46.13311780616641" lon="7.231399705633521">
        <ele>1966.51</ele>
        <time>2012-07-23T08:14:48Z</time>
      </trkpt>
      <trkpt lat="46.133080087602139" lon="7.231463575735688">
        <ele>1966.51</ele>
        <time>2012-07-23T08:14:49Z</time>
      </trkpt>
      <trkpt lat="46.132959220558405" lon="7.231699107214809">
        <ele>1965.0699999999999</ele>
        <time>2012-07-23T08:14:52Z</time>
      </trkpt>
      <trkpt lat="46.132926028221846" lon="7.231799438595772">
        <ele>1964.5899999999999</ele>
        <time>2012-07-23T08:14:53Z</time>
      </trkpt>
      <trkpt lat="46.132900798693299" lon="7.231906559318304">
        <ele>1964.1099999999999</ele>
        <time>2012-07-23T08:14:54Z</time>
      </trkpt>
      <trkpt lat="46.132868025451899" lon="7.2321399115026">
        <ele>1962.1900000000001</ele>
        <time>2012-07-23T08:14:56Z</time>
      </trkpt>
      <trkpt lat="46.132868696004152" lon="7.232267316430807">
        <ele>1961.71</ele>
        <time>2012-07-23T08:14:57Z</time>
      </trkpt>
      <trkpt lat="46.132880765944719" lon="7.232394302263856">
        <ele>1961.23</ele>
        <time>2012-07-23T08:14:58Z</time>
      </trkpt>
      <trkpt lat="46.132899122312665" lon="7.232509385794401">
        <ele>1960.27</ele>
        <time>2012-07-23T08:14:59Z</time>
      </trkpt>
      <trkpt lat="46.132918568328023" lon="7.232606364414096">
        <ele>1959.3</ele>
        <time>2012-07-23T08:15:00Z</time>
      </trkpt>
      <trkpt lat="46.132928458973765" lon="7.232691943645477">
        <ele>1958.8199999999999</ele>
        <time>2012-07-23T08:15:01Z</time>
      </trkpt>
      <trkpt lat="46.132920915260911" lon="7.232768973335624">
        <ele>1958.3399999999999</ele>
        <time>2012-07-23T08:15:02Z</time>
      </trkpt>
      <trkpt lat="46.132891410961747" lon="7.232838962227106">
        <ele>1957.3800000000001</ele>
        <time>2012-07-23T08:15:03Z</time>
      </trkpt>
      <trkpt lat="46.132845394313335" lon="7.232906939461827">
        <ele>1956.9000000000001</ele>
        <time>2012-07-23T08:15:04Z</time>
      </trkpt>
      <trkpt lat="46.132793761789799" lon="7.232981454581022">
        <ele>1955.9400000000001</ele>
        <time>2012-07-23T08:15:05Z</time>
      </trkpt>
      <trkpt lat="46.132745817303658" lon="7.23307223059237">
        <ele>1954.98</ele>
        <time>2012-07-23T08:15:06Z</time>
      </trkpt>
      <trkpt lat="46.132708685472608" lon="7.233183709904552">
        <ele>1954.02</ele>
        <time>2012-07-23T08:15:07Z</time>
      </trkpt>
      <trkpt lat="46.132689407095313" lon="7.233310360461474">
        <ele>1953.0599999999999</ele>
        <time>2012-07-23T08:15:08Z</time>
      </trkpt>
      <trkpt lat="46.132681779563427" lon="7.23344111815095">
        <ele>1952.0899999999999</ele>
        <time>2012-07-23T08:15:09Z</time>
      </trkpt>
      <trkpt lat="46.132578263059258" lon="7.234112173318863">
        <ele>1948.25</ele>
        <time>2012-07-23T08:15:14Z</time>
      </trkpt>
      <trkpt lat="46.132469549775124" lon="7.23452196456492">
        <ele>1945.3599999999999</ele>
        <time>2012-07-23T08:15:17Z</time>
      </trkpt>
      <trkpt lat="46.132387826219201" lon="7.235082294791937">
        <ele>1942</ele>
        <time>2012-07-23T08:15:21Z</time>
      </trkpt>
      <trkpt lat="46.132388077676296" lon="7.235217411071062">
        <ele>1941.04</ele>
        <time>2012-07-23T08:15:22Z</time>
      </trkpt>
      <trkpt lat="46.132400650531054" lon="7.23534531891346">
        <ele>1940.0799999999999</ele>
        <time>2012-07-23T08:15:23Z</time>
      </trkpt>
      <trkpt lat="46.132421186193824" lon="7.235459731891751">
        <ele>1939.1199999999999</ele>
        <time>2012-07-23T08:15:24Z</time>
      </trkpt>
      <trkpt lat="46.13244297914207" lon="7.235562661662698">
        <ele>1938.6400000000001</ele>
        <time>2012-07-23T08:15:25Z</time>
      </trkpt>
      <trkpt lat="46.132484637200832" lon="7.235815627500415">
        <ele>1936.71</ele>
        <time>2012-07-23T08:15:28Z</time>
      </trkpt>
      <trkpt lat="46.132481787353754" lon="7.235890729352832">
        <ele>1936.23</ele>
        <time>2012-07-23T08:15:29Z</time>
      </trkpt>
      <trkpt lat="46.132466532289982" lon="7.235962226986885">
        <ele>1935.75</ele>
        <time>2012-07-23T08:15:30Z</time>
      </trkpt>
      <trkpt lat="46.132440380752087" lon="7.236035233363509">
        <ele>1935.27</ele>
        <time>2012-07-23T08:15:31Z</time>
      </trkpt>
      <trkpt lat="46.132401991635561" lon="7.236106898635626">
        <ele>1934.3099999999999</ele>
        <time>2012-07-23T08:15:32Z</time>
      </trkpt>
      <trkpt lat="46.132355472072959" lon="7.236182503402233">
        <ele>1933.8299999999999</ele>
        <time>2012-07-23T08:15:33Z</time>
      </trkpt>
      <trkpt lat="46.132257739081979" lon="7.236353997141123">
        <ele>1932.3900000000001</ele>
        <time>2012-07-23T08:15:35Z</time>
      </trkpt>
      <trkpt lat="46.132196383550763" lon="7.236432954668999">
        <ele>1931.9100000000001</ele>
        <time>2012-07-23T08:15:36Z</time>
      </trkpt>
      <trkpt lat="46.132126310840249" lon="7.236505374312401">
        <ele>1931.4300000000001</ele>
        <time>2012-07-23T08:15:37Z</time>
      </trkpt>
      <trkpt lat="46.131833447143435" lon="7.236845092847943">
        <ele>1927.5799999999999</ele>
        <time>2012-07-23T08:15:41Z</time>
      </trkpt>
      <trkpt lat="46.13177452236414" lon="7.236951626837254">
        <ele>1926.6199999999999</ele>
        <time>2012-07-23T08:15:42Z</time>
      </trkpt>
      <trkpt lat="46.131724650040269" lon="7.23705941811204">
        <ele>1925.6600000000001</ele>
        <time>2012-07-23T08:15:43Z</time>
      </trkpt>
      <trkpt lat="46.131636723875999" lon="7.237242897972465">
        <ele>1924.22</ele>
        <time>2012-07-23T08:15:45Z</time>
      </trkpt>
      <trkpt lat="46.131583247333765" lon="7.237320262938738">
        <ele>1923.74</ele>
        <time>2012-07-23T08:15:46Z</time>
      </trkpt>
      <trkpt lat="46.131516275927424" lon="7.23738924600184">
        <ele>1923.25</ele>
        <time>2012-07-23T08:15:47Z</time>
      </trkpt>
      <trkpt lat="46.131438072770834" lon="7.237448254600167">
        <ele>1922.29</ele>
        <time>2012-07-23T08:15:48Z</time>
      </trkpt>
      <trkpt lat="46.131352409720421" lon="7.237509358674288">
        <ele>1921.8099999999999</ele>
        <time>2012-07-23T08:15:49Z</time>
      </trkpt>
      <trkpt lat="46.131268087774515" lon="7.237589405849576">
        <ele>1920.8499999999999</ele>
        <time>2012-07-23T08:15:50Z</time>
      </trkpt>
      <trkpt lat="46.131188794970512" lon="7.237690323963761">
        <ele>1919.8900000000001</ele>
        <time>2012-07-23T08:15:51Z</time>
      </trkpt>
      <trkpt lat="46.131112016737461" lon="7.237796438857913">
        <ele>1918.9300000000001</ele>
        <time>2012-07-23T08:15:52Z</time>
      </trkpt>
      <trkpt lat="46.131035154685378" lon="7.237892244011164">
        <ele>1917.97</ele>
        <time>2012-07-23T08:15:53Z</time>
      </trkpt>
      <trkpt lat="46.130959466099739" lon="7.237969608977437">
        <ele>1917.01</ele>
        <time>2012-07-23T08:15:54Z</time>
      </trkpt>
      <trkpt lat="46.130758551880717" lon="7.238173121586442">
        <ele>1914.1199999999999</ele>
        <time>2012-07-23T08:15:57Z</time>
      </trkpt>
      <trkpt lat="46.130700381472707" lon="7.238269178196788">
        <ele>1913.1600000000001</ele>
        <time>2012-07-23T08:15:58Z</time>
      </trkpt>
      <trkpt lat="46.130648497492075" lon="7.238377556204796">
        <ele>1912.6800000000001</ele>
        <time>2012-07-23T08:15:59Z</time>
      </trkpt>
      <trkpt lat="46.130606168881059" lon="7.238490795716643">
        <ele>1911.72</ele>
        <time>2012-07-23T08:16:00Z</time>
      </trkpt>
      <trkpt lat="46.130575658753514" lon="7.238599173724651">
        <ele>1910.76</ele>
        <time>2012-07-23T08:16:01Z</time>
      </trkpt>
      <trkpt lat="46.130554787814617" lon="7.238700091838837">
        <ele>1909.8</ele>
        <time>2012-07-23T08:16:02Z</time>
      </trkpt>
      <trkpt lat="46.130535425618291" lon="7.238798327744007">
        <ele>1909.3199999999999</ele>
        <time>2012-07-23T08:16:03Z</time>
      </trkpt>
      <trkpt lat="46.130509274080396" lon="7.238898491486907">
        <ele>1908.3499999999999</ele>
        <time>2012-07-23T08:16:04Z</time>
      </trkpt>
      <trkpt lat="46.130478344857693" lon="7.238997984677553">
        <ele>1907.3900000000001</ele>
        <time>2012-07-23T08:16:05Z</time>
      </trkpt>
      <trkpt lat="46.130441296845675" lon="7.239097729325295">
        <ele>1906.4300000000001</ele>
        <time>2012-07-23T08:16:06Z</time>
      </trkpt>
      <trkpt lat="46.130395783111453" lon="7.239198312163353">
        <ele>1905.95</ele>
        <time>2012-07-23T08:16:07Z</time>
      </trkpt>
      <trkpt lat="46.130342306569219" lon="7.239297050982714">
        <ele>1904.99</ele>
        <time>2012-07-23T08:16:08Z</time>
      </trkpt>
      <trkpt lat="46.130012394860387" lon="7.239930722862482">
        <ele>1899.7</ele>
        <time>2012-07-23T08:16:14Z</time>
      </trkpt>
      <trkpt lat="46.129970820620656" lon="7.240001047030091">
        <ele>1898.74</ele>
        <time>2012-07-23T08:16:15Z</time>
      </trkpt>
      <trkpt lat="46.129929162561893" lon="7.240057876333594">
        <ele>1898.26</ele>
        <time>2012-07-23T08:16:16Z</time>
      </trkpt>
      <trkpt lat="46.129855569452047" lon="7.240159884095192">
        <ele>1897.3</ele>
        <time>2012-07-23T08:16:18Z</time>
      </trkpt>
      <trkpt lat="46.129842158406973" lon="7.240220317617059">
        <ele>1896.3399999999999</ele>
        <time>2012-07-23T08:16:19Z</time>
      </trkpt>
      <trkpt lat="46.129848528653383" lon="7.240282092243433">
        <ele>1896.3399999999999</ele>
        <time>2012-07-23T08:16:20Z</time>
      </trkpt>
      <trkpt lat="46.129874512553215" lon="7.240334814414382">
        <ele>1895.8599999999999</ele>
        <time>2012-07-23T08:16:21Z</time>
      </trkpt>
      <trkpt lat="46.129913656041026" lon="7.240366414189339">
        <ele>1895.3800000000001</ele>
        <time>2012-07-23T08:16:22Z</time>
      </trkpt>
      <trkpt lat="46.129961349070072" lon="7.240374712273479">
        <ele>1894.9000000000001</ele>
        <time>2012-07-23T08:16:23Z</time>
      </trkpt>
      <trkpt lat="46.130010047927499" lon="7.240355685353279">
        <ele>1894.9000000000001</ele>
        <time>2012-07-23T08:16:24Z</time>
      </trkpt>
      <trkpt lat="46.130053885281086" lon="7.240312770009041">
        <ele>1894.4200000000001</ele>
        <time>2012-07-23T08:16:25Z</time>
      </trkpt>
      <trkpt lat="46.130090178921819" lon="7.240248983725905">
        <ele>1893.9300000000001</ele>
        <time>2012-07-23T08:16:26Z</time>
      </trkpt>
      <trkpt lat="46.130126807838678" lon="7.240175809711218">
        <ele>1893.45</ele>
        <time>2012-07-23T08:16:27Z</time>
      </trkpt>
      <trkpt lat="46.130173914134502" lon="7.240102970972657">
        <ele>1892.49</ele>
        <time>2012-07-23T08:16:28Z</time>
      </trkpt>
      <trkpt lat="46.13023342564702" lon="7.240041699260473">
        <ele>1892.01</ele>
        <time>2012-07-23T08:16:29Z</time>
      </trkpt>
      <trkpt lat="46.130301067605615" lon="7.239999286830425">
        <ele>1891.53</ele>
        <time>2012-07-23T08:16:30Z</time>
      </trkpt>
      <trkpt lat="46.130372146144509" lon="7.23996726796031">
        <ele>1890.5699999999999</ele>
        <time>2012-07-23T08:16:31Z</time>
      </trkpt>
      <trkpt lat="46.130442637950182" lon="7.239926783367991">
        <ele>1890.0899999999999</ele>
        <time>2012-07-23T08:16:32Z</time>
      </trkpt>
      <trkpt lat="46.130511285737157" lon="7.239870373159647">
        <ele>1889.6099999999999</ele>
        <time>2012-07-23T08:16:33Z</time>
      </trkpt>
      <trkpt lat="46.130906827747822" lon="7.239586981013417">
        <ele>1886.72</ele>
        <time>2012-07-23T08:16:38Z</time>
      </trkpt>
      <trkpt lat="46.130996681749821" lon="7.23956317640841">
        <ele>1886.24</ele>
        <time>2012-07-23T08:16:39Z</time>
      </trkpt>
      <trkpt lat="46.131077399477363" lon="7.239555548876524">
        <ele>1885.76</ele>
        <time>2012-07-23T08:16:40Z</time>
      </trkpt>
      <trkpt lat="46.131151663139462" lon="7.239542808383703">
        <ele>1885.28</ele>
        <time>2012-07-23T08:16:41Z</time>
      </trkpt>
      <trkpt lat="46.131219975650311" lon="7.239508694037795">
        <ele>1884.8</ele>
        <time>2012-07-23T08:16:42Z</time>
      </trkpt>
      <trkpt lat="46.131282420828938" lon="7.239453373476863">
        <ele>1883.8399999999999</ele>
        <time>2012-07-23T08:16:43Z</time>
      </trkpt>
      <trkpt lat="46.131339333951473" lon="7.239380367100239">
        <ele>1883.3599999999999</ele>
        <time>2012-07-23T08:16:44Z</time>
      </trkpt>
      <trkpt lat="46.131400186568499" lon="7.239300739020109">
        <ele>1882.8800000000001</ele>
        <time>2012-07-23T08:16:45Z</time>
      </trkpt>
      <trkpt lat="46.131472857668996" lon="7.239232677966356">
        <ele>1881.9200000000001</ele>
        <time>2012-07-23T08:16:46Z</time>
      </trkpt>
      <trkpt lat="46.131556089967489" lon="7.239185655489564">
        <ele>1881.4400000000001</ele>
        <time>2012-07-23T08:16:47Z</time>
      </trkpt>
      <trkpt lat="46.131646698340774" lon="7.239159252494574">
        <ele>1880.96</ele>
        <time>2012-07-23T08:16:48Z</time>
      </trkpt>
      <trkpt lat="46.131744431331754" lon="7.239146679639816">
        <ele>1880</ele>
        <time>2012-07-23T08:16:49Z</time>
      </trkpt>
      <trkpt lat="46.131932688876987" lon="7.239116756245494">
        <ele>1879.03</ele>
        <time>2012-07-23T08:16:51Z</time>
      </trkpt>
      <trkpt lat="46.132018435746431" lon="7.239083480089903">
        <ele>1878.55</ele>
        <time>2012-07-23T08:16:52Z</time>
      </trkpt>
      <trkpt lat="46.132101835682988" lon="7.239034613594413">
        <ele>1877.5899999999999</ele>
        <time>2012-07-23T08:16:53Z</time>
      </trkpt>
      <trkpt lat="46.132511794567108" lon="7.238784497603774">
        <ele>1873.75</ele>
        <time>2012-07-23T08:16:58Z</time>
      </trkpt>
      <trkpt lat="46.132595781236887" lon="7.23876329138875">
        <ele>1873.27</ele>
        <time>2012-07-23T08:16:59Z</time>
      </trkpt>
      <trkpt lat="46.132680354639888" lon="7.238755412399769">
        <ele>1872.3</ele>
        <time>2012-07-23T08:17:00Z</time>
      </trkpt>
      <trkpt lat="46.132764676585793" lon="7.238747701048851">
        <ele>1871.8199999999999</ele>
        <time>2012-07-23T08:17:01Z</time>
      </trkpt>
      <trkpt lat="46.132854530587792" lon="7.238734373822808">
        <ele>1870.8599999999999</ele>
        <time>2012-07-23T08:17:02Z</time>
      </trkpt>
      <trkpt lat="46.133628515526652" lon="7.238678550347686">
        <ele>1867.5</ele>
        <time>2012-07-23T08:17:10Z</time>
      </trkpt>
      <trkpt lat="46.133712083101273" lon="7.238691709935665">
        <ele>1867.02</ele>
        <time>2012-07-23T08:17:11Z</time>
      </trkpt>
      <trkpt lat="46.133789448067546" lon="7.238701935857534">
        <ele>1866.54</ele>
        <time>2012-07-23T08:17:12Z</time>
      </trkpt>
      <trkpt lat="46.133863124996424" lon="7.238700510933995">
        <ele>1866.0599999999999</ele>
        <time>2012-07-23T08:17:13Z</time>
      </trkpt>
      <trkpt lat="46.13393772393465" lon="7.238688860088587">
        <ele>1865.5799999999999</ele>
        <time>2012-07-23T08:17:14Z</time>
      </trkpt>
      <trkpt lat="46.134009640663862" lon="7.238670336082578">
        <ele>1865.0899999999999</ele>
        <time>2012-07-23T08:17:15Z</time>
      </trkpt>
      <trkpt lat="46.13415121100843" lon="7.238626917824149">
        <ele>1864.6099999999999</ele>
        <time>2012-07-23T08:17:17Z</time>
      </trkpt>
      <trkpt lat="46.134221702814102" lon="7.238582745194435">
        <ele>1863.6500000000001</ele>
        <time>2012-07-23T08:17:18Z</time>
      </trkpt>
      <trkpt lat="46.134293116629124" lon="7.238517533987761">
        <ele>1862.21</ele>
        <time>2012-07-23T08:17:19Z</time>
      </trkpt>
      <trkpt lat="46.134357824921608" lon="7.238439498469234">
        <ele>1861.25</ele>
        <time>2012-07-23T08:17:20Z</time>
      </trkpt>
      <trkpt lat="46.134416414424777" lon="7.238347046077251">
        <ele>1860.29</ele>
        <time>2012-07-23T08:17:21Z</time>
      </trkpt>
      <trkpt lat="46.134468885138631" lon="7.2382443677634">
        <ele>1859.8099999999999</ele>
        <time>2012-07-23T08:17:22Z</time>
      </trkpt>
      <trkpt lat="46.134517164900899" lon="7.238133726641536">
        <ele>1858.8499999999999</ele>
        <time>2012-07-23T08:17:23Z</time>
      </trkpt>
      <trkpt lat="46.134615400806069" lon="7.237941948696971">
        <ele>1857.4000000000001</ele>
        <time>2012-07-23T08:17:25Z</time>
      </trkpt>
      <trkpt lat="46.134669715538621" lon="7.237875815480948">
        <ele>1856.4400000000001</ele>
        <time>2012-07-23T08:17:26Z</time>
      </trkpt>
      <trkpt lat="46.134728891775012" lon="7.237831726670265">
        <ele>1855.48</ele>
        <time>2012-07-23T08:17:27Z</time>
      </trkpt>
      <trkpt lat="46.134799215942621" lon="7.237811526283622">
        <ele>1855</ele>
        <time>2012-07-23T08:17:28Z</time>
      </trkpt>
      <trkpt lat="46.134869959205389" lon="7.237803395837545">
        <ele>1854.52</ele>
        <time>2012-07-23T08:17:29Z</time>
      </trkpt>
      <trkpt lat="46.134931817650795" lon="7.23778554238379">
        <ele>1854.04</ele>
        <time>2012-07-23T08:17:30Z</time>
      </trkpt>
      <trkpt lat="46.134980684146285" lon="7.237749332562089">
        <ele>1853.0799999999999</ele>
        <time>2012-07-23T08:17:31Z</time>
      </trkpt>
      <trkpt lat="46.135016977787018" lon="7.237695185467601">
        <ele>1851.6400000000001</ele>
        <time>2012-07-23T08:17:32Z</time>
      </trkpt>
      <trkpt lat="46.135039106011391" lon="7.237627543509007">
        <ele>1850.6800000000001</ele>
        <time>2012-07-23T08:17:33Z</time>
      </trkpt>
      <trkpt lat="46.135044805705547" lon="7.237545987591147">
        <ele>1850.1900000000001</ele>
        <time>2012-07-23T08:17:34Z</time>
      </trkpt>
      <trkpt lat="46.135040447115898" lon="7.237454876303673">
        <ele>1849.23</ele>
        <time>2012-07-23T08:17:35Z</time>
      </trkpt>
      <trkpt lat="46.135039189830422" lon="7.237355634570122">
        <ele>1848.75</ele>
        <time>2012-07-23T08:17:36Z</time>
      </trkpt>
      <trkpt lat="46.135044302791357" lon="7.237249687314034">
        <ele>1847.79</ele>
        <time>2012-07-23T08:17:37Z</time>
      </trkpt>
      <trkpt lat="46.13504933193326" lon="7.237138459458947">
        <ele>1846.8299999999999</ele>
        <time>2012-07-23T08:17:38Z</time>
      </trkpt>
      <trkpt lat="46.135049499571323" lon="7.237020861357451">
        <ele>1845.8699999999999</ele>
        <time>2012-07-23T08:17:39Z</time>
      </trkpt>
      <trkpt lat="46.135048074647784" lon="7.236897647380829">
        <ele>1844.9100000000001</ele>
        <time>2012-07-23T08:17:40Z</time>
      </trkpt>
      <trkpt lat="46.135059474036098" lon="7.236649710685015">
        <ele>1842.98</ele>
        <time>2012-07-23T08:17:42Z</time>
      </trkpt>
      <trkpt lat="46.135089565068483" lon="7.236450305208564">
        <ele>1841.0599999999999</ele>
        <time>2012-07-23T08:17:44Z</time>
      </trkpt>
      <trkpt lat="46.135111525654793" lon="7.236374951899052">
        <ele>1840.0999999999999</ele>
        <time>2012-07-23T08:17:45Z</time>
      </trkpt>
      <trkpt lat="46.135141281411052" lon="7.236314937472343">
        <ele>1839.1400000000001</ele>
        <time>2012-07-23T08:17:46Z</time>
      </trkpt>
      <trkpt lat="46.135188639163971" lon="7.236270764842629">
        <ele>1838.6600000000001</ele>
        <time>2012-07-23T08:17:47Z</time>
      </trkpt>
      <trkpt lat="46.13524672575295" lon="7.236241009086371">
        <ele>1838.1800000000001</ele>
        <time>2012-07-23T08:17:48Z</time>
      </trkpt>
      <trkpt lat="46.135308416560292" lon="7.236225167289376">
        <ele>1837.22</ele>
        <time>2012-07-23T08:17:49Z</time>
      </trkpt>
      <trkpt lat="46.135365832597017" lon="7.236206056550145">
        <ele>1836.74</ele>
        <time>2012-07-23T08:17:50Z</time>
      </trkpt>
      <trkpt lat="46.135418303310871" lon="7.236174205318093">
        <ele>1836.26</ele>
        <time>2012-07-23T08:17:51Z</time>
      </trkpt>
      <trkpt lat="46.135543696582317" lon="7.236114023253322">
        <ele>1834.3299999999999</ele>
        <time>2012-07-23T08:17:54Z</time>
      </trkpt>
      <trkpt lat="46.13556775264442" lon="7.236145790666342">
        <ele>1833.3699999999999</ele>
        <time>2012-07-23T08:17:55Z</time>
      </trkpt>
      <trkpt lat="46.135575212538242" lon="7.236193148419261">
        <ele>1831.9300000000001</ele>
        <time>2012-07-23T08:17:56Z</time>
      </trkpt>
      <trkpt lat="46.135564902797341" lon="7.236250564455986">
        <ele>1830.97</ele>
        <time>2012-07-23T08:17:57Z</time>
      </trkpt>
      <trkpt lat="46.135539757087827" lon="7.236312758177519">
        <ele>1830.01</ele>
        <time>2012-07-23T08:17:58Z</time>
      </trkpt>
      <trkpt lat="46.135504050180316" lon="7.236379813402891">
        <ele>1829.05</ele>
        <time>2012-07-23T08:17:59Z</time>
      </trkpt>
      <trkpt lat="46.135468510910869" lon="7.236458770930767">
        <ele>1828.0799999999999</ele>
        <time>2012-07-23T08:18:00Z</time>
      </trkpt>
      <trkpt lat="46.135440431535244" lon="7.23655273206532">
        <ele>1827.1199999999999</ele>
        <time>2012-07-23T08:18:01Z</time>
      </trkpt>
      <trkpt lat="46.135425344109535" lon="7.236655997112393">
        <ele>1826.6400000000001</ele>
        <time>2012-07-23T08:18:02Z</time>
      </trkpt>
      <trkpt lat="46.135419812053442" lon="7.236763201653957">
        <ele>1825.6800000000001</ele>
        <time>2012-07-23T08:18:03Z</time>
      </trkpt>
      <trkpt lat="46.135419812053442" lon="7.236875770613551">
        <ele>1824.72</ele>
        <time>2012-07-23T08:18:04Z</time>
      </trkpt>
      <trkpt lat="46.135424338281155" lon="7.23699445836246">
        <ele>1824.24</ele>
        <time>2012-07-23T08:18:05Z</time>
      </trkpt>
      <trkpt lat="46.135407323017716" lon="7.238222407177091">
        <ele>1814.6300000000001</ele>
        <time>2012-07-23T08:18:14Z</time>
      </trkpt>
      <trkpt lat="46.135386452078819" lon="7.238453412428498">
        <ele>1812.7</ele>
        <time>2012-07-23T08:18:16Z</time>
      </trkpt>
      <trkpt lat="46.13536398857832" lon="7.238567741587758">
        <ele>1811.74</ele>
        <time>2012-07-23T08:18:17Z</time>
      </trkpt>
      <trkpt lat="46.135332975536585" lon="7.238684585317969">
        <ele>1810.3</ele>
        <time>2012-07-23T08:18:18Z</time>
      </trkpt>
      <trkpt lat="46.13522082567215" lon="7.239042408764362">
        <ele>1807.4200000000001</ele>
        <time>2012-07-23T08:18:21Z</time>
      </trkpt>
      <trkpt lat="46.135173300281167" lon="7.239148356020451">
        <ele>1806.45</ele>
        <time>2012-07-23T08:18:22Z</time>
      </trkpt>
      <trkpt lat="46.135082105174661" lon="7.23935941234231">
        <ele>1804.05</ele>
        <time>2012-07-23T08:18:24Z</time>
      </trkpt>
      <trkpt lat="46.13504933193326" lon="7.239477513357997">
        <ele>1803.0899999999999</ele>
        <time>2012-07-23T08:18:25Z</time>
      </trkpt>
      <trkpt lat="46.13502929918468" lon="7.23959980532527">
        <ele>1802.1300000000001</ele>
        <time>2012-07-23T08:18:26Z</time>
      </trkpt>
      <trkpt lat="46.135012451559305" lon="7.239719750359654">
        <ele>1801.1700000000001</ele>
        <time>2012-07-23T08:18:27Z</time>
      </trkpt>
      <trkpt lat="46.134987054392695" lon="7.239829301834106">
        <ele>1800.6900000000001</ele>
        <time>2012-07-23T08:18:28Z</time>
      </trkpt>
      <trkpt lat="46.134953862056136" lon="7.239923514425755">
        <ele>1799.73</ele>
        <time>2012-07-23T08:18:29Z</time>
      </trkpt>
      <trkpt lat="46.134914131835103" lon="7.240001717582345">
        <ele>1799.24</ele>
        <time>2012-07-23T08:18:30Z</time>
      </trkpt>
      <trkpt lat="46.134872976690531" lon="7.240065168589354">
        <ele>1798.28</ele>
        <time>2012-07-23T08:18:31Z</time>
      </trkpt>
      <trkpt lat="46.134800389409065" lon="7.240174384787679">
        <ele>1797.3199999999999</ele>
        <time>2012-07-23T08:18:33Z</time>
      </trkpt>
      <trkpt lat="46.134774489328265" lon="7.240236327052116">
        <ele>1796.8399999999999</ele>
        <time>2012-07-23T08:18:34Z</time>
      </trkpt>
      <trkpt lat="46.134755462408066" lon="7.240298688411713">
        <ele>1795.8800000000001</ele>
        <time>2012-07-23T08:18:35Z</time>
      </trkpt>
      <trkpt lat="46.134739872068167" lon="7.240353003144264">
        <ele>1795.8800000000001</ele>
        <time>2012-07-23T08:18:36Z</time>
      </trkpt>
      <trkpt lat="46.134722521528602" lon="7.240401031449437">
        <ele>1795.4000000000001</ele>
        <time>2012-07-23T08:18:37Z</time>
      </trkpt>
      <trkpt lat="46.134700896218419" lon="7.240447215735912">
        <ele>1794.9200000000001</ele>
        <time>2012-07-23T08:18:38Z</time>
      </trkpt>
      <trkpt lat="46.134675582870841" lon="7.240496836602688">
        <ele>1794.9200000000001</ele>
        <time>2012-07-23T08:18:39Z</time>
      </trkpt>
      <trkpt lat="46.134419096633792" lon="7.24116780795157">
        <ele>1792.52</ele>
        <time>2012-07-23T08:18:47Z</time>
      </trkpt>
      <trkpt lat="46.134388167411089" lon="7.24124944768846">
        <ele>1792.03</ele>
        <time>2012-07-23T08:18:48Z</time>
      </trkpt>
      <trkpt lat="46.134351035580039" lon="7.241314491257072">
        <ele>1791.55</ele>
        <time>2012-07-23T08:18:49Z</time>
      </trkpt>
      <trkpt lat="46.13430367782712" lon="7.241363106295466">
        <ele>1791.0699999999999</ele>
        <time>2012-07-23T08:18:50Z</time>
      </trkpt>
      <trkpt lat="46.1342460103333" lon="7.241397220641375">
        <ele>1790.1099999999999</ele>
        <time>2012-07-23T08:18:51Z</time>
      </trkpt>
      <trkpt lat="46.134180212393403" lon="7.241418426856399">
        <ele>1789.6300000000001</ele>
        <time>2012-07-23T08:18:52Z</time>
      </trkpt>
      <trkpt lat="46.134104272350669" lon="7.241431754082441">
        <ele>1788.6700000000001</ele>
        <time>2012-07-23T08:18:53Z</time>
      </trkpt>
      <trkpt lat="46.134025398641825" lon="7.241453547030687">
        <ele>1788.1900000000001</ele>
        <time>2012-07-23T08:18:54Z</time>
      </trkpt>
      <trkpt lat="46.13394794985652" lon="7.24149570800364">
        <ele>1787.23</ele>
        <time>2012-07-23T08:18:55Z</time>
      </trkpt>
      <trkpt lat="46.133870836347342" lon="7.241545496508479">
        <ele>1786.75</ele>
        <time>2012-07-23T08:18:56Z</time>
      </trkpt>
      <trkpt lat="46.133791040629148" lon="7.241584807634354">
        <ele>1786.27</ele>
        <time>2012-07-23T08:18:57Z</time>
      </trkpt>
      <trkpt lat="46.133708646520972" lon="7.241615988314152">
        <ele>1785.79</ele>
        <time>2012-07-23T08:18:58Z</time>
      </trkpt>
      <trkpt lat="46.13281044177711" lon="7.242099288851023">
        <ele>1779.0599999999999</ele>
        <time>2012-07-23T08:19:08Z</time>
      </trkpt>
      <trkpt lat="46.132738441228867" lon="7.24217489361763">
        <ele>1778.0999999999999</ele>
        <time>2012-07-23T08:19:09Z</time>
      </trkpt>
      <trkpt lat="46.132679516449571" lon="7.242265585809946">
        <ele>1777.6099999999999</ele>
        <time>2012-07-23T08:19:10Z</time>
      </trkpt>
      <trkpt lat="46.13252998329699" lon="7.242511678487063">
        <ele>1775.21</ele>
        <time>2012-07-23T08:19:13Z</time>
      </trkpt>
      <trkpt lat="46.132475081831217" lon="7.242570016533136">
        <ele>1774.25</ele>
        <time>2012-07-23T08:19:14Z</time>
      </trkpt>
      <trkpt lat="46.132412720471621" lon="7.242621313780546">
        <ele>1773.29</ele>
        <time>2012-07-23T08:19:15Z</time>
      </trkpt>
      <trkpt lat="46.132342563942075" lon="7.242666576057673">
        <ele>1772.3299999999999</ele>
        <time>2012-07-23T08:19:16Z</time>
      </trkpt>
      <trkpt lat="46.132267210632563" lon="7.242707395926118">
        <ele>1771.3699999999999</ele>
        <time>2012-07-23T08:19:17Z</time>
      </trkpt>
      <trkpt lat="46.131995469331741" lon="7.242855420336127">
        <ele>1767.52</ele>
        <time>2012-07-23T08:19:21Z</time>
      </trkpt>
      <trkpt lat="46.131952470168471" lon="7.242916021496058">
        <ele>1767.04</ele>
        <time>2012-07-23T08:19:22Z</time>
      </trkpt>
      <trkpt lat="46.131930258125067" lon="7.242988860234618">
        <ele>1766.0799999999999</ele>
        <time>2012-07-23T08:19:23Z</time>
      </trkpt>
      <trkpt lat="46.131929755210876" lon="7.243066895753145">
        <ele>1765.5999999999999</ele>
        <time>2012-07-23T08:19:24Z</time>
      </trkpt>
      <trkpt lat="46.131948530673981" lon="7.243144847452641">
        <ele>1765.1199999999999</ele>
        <time>2012-07-23T08:19:25Z</time>
      </trkpt>
      <trkpt lat="46.131980298087001" lon="7.243221625685692">
        <ele>1764.6400000000001</ele>
        <time>2012-07-23T08:19:26Z</time>
      </trkpt>
      <trkpt lat="46.132014496251941" lon="7.243303097784519">
        <ele>1764.1600000000001</ele>
        <time>2012-07-23T08:19:27Z</time>
      </trkpt>
      <trkpt lat="46.132048694416881" lon="7.243392029777169">
        <ele>1763.2</ele>
        <time>2012-07-23T08:19:28Z</time>
      </trkpt>
      <trkpt lat="46.132202502340078" lon="7.24390022456646">
        <ele>1759.8299999999999</ele>
        <time>2012-07-23T08:19:33Z</time>
      </trkpt>
      <trkpt lat="46.132290093228221" lon="7.244779402390122">
        <ele>1753.5799999999999</ele>
        <time>2012-07-23T08:19:40Z</time>
      </trkpt>
      <trkpt lat="46.13228615373373" lon="7.24490437656641">
        <ele>1752.6199999999999</ele>
        <time>2012-07-23T08:19:41Z</time>
      </trkpt>
      <trkpt lat="46.132267545908689" lon="7.245129849761725">
        <ele>1750.7</ele>
        <time>2012-07-23T08:19:43Z</time>
      </trkpt>
      <trkpt lat="46.132248183712363" lon="7.245235545560718">
        <ele>1749.74</ele>
        <time>2012-07-23T08:19:44Z</time>
      </trkpt>
      <trkpt lat="46.132218092679977" lon="7.245345348492265">
        <ele>1748.29</ele>
        <time>2012-07-23T08:19:45Z</time>
      </trkpt>
      <trkpt lat="46.132052382454276" lon="7.245830912142992">
        <ele>1743.49</ele>
        <time>2012-07-23T08:19:49Z</time>
      </trkpt>
      <trkpt lat="46.132005024701357" lon="7.245940044522286">
        <ele>1742.05</ele>
        <time>2012-07-23T08:19:50Z</time>
      </trkpt>
      <trkpt lat="46.131957918405533" lon="7.246049428358674">
        <ele>1741.0799999999999</ele>
        <time>2012-07-23T08:19:51Z</time>
      </trkpt>
      <trkpt lat="46.131904860958457" lon="7.246157051995397">
        <ele>1739.6400000000001</ele>
        <time>2012-07-23T08:19:52Z</time>
      </trkpt>
      <trkpt lat="46.131845097988844" lon="7.246261322870851">
        <ele>1738.6800000000001</ele>
        <time>2012-07-23T08:19:53Z</time>
      </trkpt>
      <trkpt lat="46.131780305877328" lon="7.246365509927273">
        <ele>1737.72</ele>
        <time>2012-07-23T08:19:54Z</time>
      </trkpt>
      <trkpt lat="46.131506133824587" lon="7.246852749958634">
        <ele>1731.95</ele>
        <time>2012-07-23T08:19:59Z</time>
      </trkpt>
      <trkpt lat="46.131486101076007" lon="7.246936652809382">
        <ele>1731.47</ele>
        <time>2012-07-23T08:20:00Z</time>
      </trkpt>
      <trkpt lat="46.131484424695373" lon="7.247019382193685">
        <ele>1730.51</ele>
        <time>2012-07-23T08:20:01Z</time>
      </trkpt>
      <trkpt lat="46.131501775234938" lon="7.247105045244098">
        <ele>1730.51</ele>
        <time>2012-07-23T08:20:02Z</time>
      </trkpt>
      <trkpt lat="46.131528178229928" lon="7.247193222865462">
        <ele>1730.03</ele>
        <time>2012-07-23T08:20:03Z</time>
      </trkpt>
      <trkpt lat="46.131620211526752" lon="7.247434705495834">
        <ele>1729.0699999999999</ele>
        <time>2012-07-23T08:20:06Z</time>
      </trkpt>
      <trkpt lat="46.131662540137768" lon="7.247483404353261">
        <ele>1728.5899999999999</ele>
        <time>2012-07-23T08:20:07Z</time>
      </trkpt>
      <trkpt lat="46.131707634776831" lon="7.247505867853761">
        <ele>1728.5899999999999</ele>
        <time>2012-07-23T08:20:08Z</time>
      </trkpt>
      <trkpt lat="46.131752729415894" lon="7.247497318312526">
        <ele>1728.1099999999999</ele>
        <time>2012-07-23T08:20:09Z</time>
      </trkpt>
      <trkpt lat="46.131790783256292" lon="7.247456246986985">
        <ele>1727.6300000000001</ele>
        <time>2012-07-23T08:20:10Z</time>
      </trkpt>
      <trkpt lat="46.131819617003202" lon="7.24739002995193">
        <ele>1727.6300000000001</ele>
        <time>2012-07-23T08:20:11Z</time>
      </trkpt>
      <trkpt lat="46.131845600903034" lon="7.247310820966959">
        <ele>1727.1500000000001</ele>
        <time>2012-07-23T08:20:12Z</time>
      </trkpt>
      <trkpt lat="46.131870578974485" lon="7.24722046405077">
        <ele>1726.1800000000001</ele>
        <time>2012-07-23T08:20:13Z</time>
      </trkpt>
      <trkpt lat="46.131894215941429" lon="7.247117701917887">
        <ele>1725.22</ele>
        <time>2012-07-23T08:20:14Z</time>
      </trkpt>
      <trkpt lat="46.131926570087671" lon="7.247011587023735">
        <ele>1724.26</ele>
        <time>2012-07-23T08:20:15Z</time>
      </trkpt>
      <trkpt lat="46.132059255614877" lon="7.246704054996371">
        <ele>1721.8599999999999</ele>
        <time>2012-07-23T08:20:18Z</time>
      </trkpt>
      <trkpt lat="46.132117677479982" lon="7.246612776070833">
        <ele>1721.3800000000001</ele>
        <time>2012-07-23T08:20:19Z</time>
      </trkpt>
      <trkpt lat="46.13224751316011" lon="7.246451759710908">
        <ele>1719.9400000000001</ele>
        <time>2012-07-23T08:20:21Z</time>
      </trkpt>
      <trkpt lat="46.132310125976801" lon="7.246381435543299">
        <ele>1719.46</ele>
        <time>2012-07-23T08:20:22Z</time>
      </trkpt>
      <trkpt lat="46.132531072944403" lon="7.24609075114131">
        <ele>1718.49</ele>
        <time>2012-07-23T08:20:26Z</time>
      </trkpt>
      <trkpt lat="46.13257591612637" lon="7.246006932109594">
        <ele>1718.49</ele>
        <time>2012-07-23T08:20:27Z</time>
      </trkpt>
      <trkpt lat="46.132610030472279" lon="7.245911043137312">
        <ele>1718.01</ele>
        <time>2012-07-23T08:20:28Z</time>
      </trkpt>
      <trkpt lat="46.132634505629539" lon="7.24580492824316">
        <ele>1717.53</ele>
        <time>2012-07-23T08:20:29Z</time>
      </trkpt>
      <trkpt lat="46.132656717672944" lon="7.245692862197757">
        <ele>1717.05</ele>
        <time>2012-07-23T08:20:30Z</time>
      </trkpt>
      <trkpt lat="46.132712792605162" lon="7.245213836431503">
        <ele>1715.1300000000001</ele>
        <time>2012-07-23T08:20:34Z</time>
      </trkpt>
      <trkpt lat="46.132709607481956" lon="7.244980484247208">
        <ele>1714.6500000000001</ele>
        <time>2012-07-23T08:20:36Z</time>
      </trkpt>
      <trkpt lat="46.132717486470938" lon="7.244869088754058">
        <ele>1714.6500000000001</ele>
        <time>2012-07-23T08:20:37Z</time>
      </trkpt>
      <trkpt lat="46.132759312167764" lon="7.244585612788796">
        <ele>1713.6900000000001</ele>
        <time>2012-07-23T08:20:40Z</time>
      </trkpt>
      <trkpt lat="46.132790241390467" lon="7.244524676352739">
        <ele>1713.21</ele>
        <time>2012-07-23T08:20:41Z</time>
      </trkpt>
      <trkpt lat="46.132835084572434" lon="7.244488801807165">
        <ele>1713.21</ele>
        <time>2012-07-23T08:20:42Z</time>
      </trkpt>
      <trkpt lat="46.132889734581113" lon="7.244480587542057">
        <ele>1713.21</ele>
        <time>2012-07-23T08:20:43Z</time>
      </trkpt>
      <trkpt lat="46.132948826998472" lon="7.244474468752742">
        <ele>1713.6900000000001</ele>
        <time>2012-07-23T08:20:44Z</time>
      </trkpt>
      <trkpt lat="46.133008589968085" lon="7.244454184547067">
        <ele>1713.6900000000001</ele>
        <time>2012-07-23T08:20:45Z</time>
      </trkpt>
      <trkpt lat="46.133067682385445" lon="7.244418812915683">
        <ele>1713.6900000000001</ele>
        <time>2012-07-23T08:20:46Z</time>
      </trkpt>
      <trkpt lat="46.133125433698297" lon="7.244373466819525">
        <ele>1713.6900000000001</ele>
        <time>2012-07-23T08:20:47Z</time>
      </trkpt>
      <trkpt lat="46.133179999887943" lon="7.244321750476956">
        <ele>1713.21</ele>
        <time>2012-07-23T08:20:48Z</time>
      </trkpt>
      <trkpt lat="46.13323163241148" lon="7.244267351925373">
        <ele>1713.21</ele>
        <time>2012-07-23T08:20:49Z</time>
      </trkpt>
      <trkpt lat="46.13328100182116" lon="7.244213121011853">
        <ele>1713.21</ele>
        <time>2012-07-23T08:20:50Z</time>
      </trkpt>
      <trkpt lat="46.133560873568058" lon="7.243921011686325">
        <ele>1712.73</ele>
        <time>2012-07-23T08:20:55Z</time>
      </trkpt>
      <trkpt lat="46.133629772812128" lon="7.243869211524725">
        <ele>1712.73</ele>
        <time>2012-07-23T08:20:56Z</time>
      </trkpt>
      <trkpt lat="46.133708981797099" lon="7.243837276473641">
        <ele>1712.73</ele>
        <time>2012-07-23T08:20:57Z</time>
      </trkpt>
      <trkpt lat="46.133794896304607" lon="7.243833504617214">
        <ele>1712.73</ele>
        <time>2012-07-23T08:20:58Z</time>
      </trkpt>
      <trkpt lat="46.133879804983735" lon="7.24384892731905">
        <ele>1712.25</ele>
        <time>2012-07-23T08:20:59Z</time>
      </trkpt>
      <trkpt lat="46.133964965119958" lon="7.243879102170467">
        <ele>1711.76</ele>
        <time>2012-07-23T08:21:00Z</time>
      </trkpt>
      <trkpt lat="46.134048448875546" lon="7.243930650874972">
        <ele>1711.28</ele>
        <time>2012-07-23T08:21:01Z</time>
      </trkpt>
      <trkpt lat="46.134121287614107" lon="7.243994688615203">
        <ele>1710.8</ele>
        <time>2012-07-23T08:21:02Z</time>
      </trkpt>
      <trkpt lat="46.13418641500175" lon="7.244054703041911">
        <ele>1710.3199999999999</ele>
        <time>2012-07-23T08:21:03Z</time>
      </trkpt>
      <trkpt lat="46.134253302589059" lon="7.244096864014864">
        <ele>1709.8399999999999</ele>
        <time>2012-07-23T08:21:04Z</time>
      </trkpt>
      <trkpt lat="46.134326895698905" lon="7.244111280888319">
        <ele>1709.3599999999999</ele>
        <time>2012-07-23T08:21:05Z</time>
      </trkpt>
      <trkpt lat="46.13440384157002" lon="7.244101641699672">
        <ele>1708.8800000000001</ele>
        <time>2012-07-23T08:21:06Z</time>
      </trkpt>
      <trkpt lat="46.134483721107244" lon="7.244076495990157">
        <ele>1708.4000000000001</ele>
        <time>2012-07-23T08:21:07Z</time>
      </trkpt>
      <trkpt lat="46.13456804305315" lon="7.244042297825217">
        <ele>1707.4400000000001</ele>
        <time>2012-07-23T08:21:08Z</time>
      </trkpt>
      <trkpt lat="46.134836263954639" lon="7.243935596197844">
        <ele>1705.04</ele>
        <time>2012-07-23T08:21:11Z</time>
      </trkpt>
      <trkpt lat="46.134927375242114" lon="7.243924951180816">
        <ele>1704.0699999999999</ele>
        <time>2012-07-23T08:21:12Z</time>
      </trkpt>
      <trkpt lat="46.135114878416061" lon="7.243919000029564">
        <ele>1702.6300000000001</ele>
        <time>2012-07-23T08:21:14Z</time>
      </trkpt>
      <trkpt lat="46.135208252817392" lon="7.24388656206429">
        <ele>1701.6700000000001</ele>
        <time>2012-07-23T08:21:15Z</time>
      </trkpt>
      <trkpt lat="46.135495249181986" lon="7.243769131600857">
        <ele>1699.27</ele>
        <time>2012-07-23T08:21:18Z</time>
      </trkpt>
      <trkpt lat="46.135595580562949" lon="7.243748428300023">
        <ele>1698.3099999999999</ele>
        <time>2012-07-23T08:21:19Z</time>
      </trkpt>
      <trkpt lat="46.13569431938231" lon="7.24372236058116">
        <ele>1697.3399999999999</ele>
        <time>2012-07-23T08:21:20Z</time>
      </trkpt>
      <trkpt lat="46.135791046544909" lon="7.243678271770477">
        <ele>1696.8599999999999</ele>
        <time>2012-07-23T08:21:21Z</time>
      </trkpt>
      <trkpt lat="46.135885342955589" lon="7.243616078048945">
        <ele>1695.4200000000001</ele>
        <time>2012-07-23T08:21:22Z</time>
      </trkpt>
      <trkpt lat="46.135976035147905" lon="7.243541479110718">
        <ele>1694.46</ele>
        <time>2012-07-23T08:21:23Z</time>
      </trkpt>
      <trkpt lat="46.136063877493143" lon="7.243458162993193">
        <ele>1693.5</ele>
        <time>2012-07-23T08:21:24Z</time>
      </trkpt>
      <trkpt lat="46.136144595220685" lon="7.243369398638606">
        <ele>1692.54</ele>
        <time>2012-07-23T08:21:25Z</time>
      </trkpt>
      <trkpt lat="46.136216092854738" lon="7.243277197703719">
        <ele>1692.0599999999999</ele>
        <time>2012-07-23T08:21:26Z</time>
      </trkpt>
      <trkpt lat="46.136278957128525" lon="7.243176950141788">
        <ele>1691.0999999999999</ele>
        <time>2012-07-23T08:21:27Z</time>
      </trkpt>
      <trkpt lat="46.136340983211994" lon="7.243075696751475">
        <ele>1690.1400000000001</ele>
        <time>2012-07-23T08:21:28Z</time>
      </trkpt>
      <trkpt lat="46.136410385370255" lon="7.242980813607574">
        <ele>1689.6500000000001</ele>
        <time>2012-07-23T08:21:29Z</time>
      </trkpt>
      <trkpt lat="46.136487415060401" lon="7.242895402014256">
        <ele>1688.6900000000001</ele>
        <time>2012-07-23T08:21:30Z</time>
      </trkpt>
      <trkpt lat="46.136570731177926" lon="7.242822144180536">
        <ele>1687.73</ele>
        <time>2012-07-23T08:21:31Z</time>
      </trkpt>
      <trkpt lat="46.136656478047371" lon="7.24275391548872">
        <ele>1687.25</ele>
        <time>2012-07-23T08:21:32Z</time>
      </trkpt>
      <trkpt lat="46.136736609041691" lon="7.242672443389893">
        <ele>1686.29</ele>
        <time>2012-07-23T08:21:33Z</time>
      </trkpt>
      <trkpt lat="46.136810202151537" lon="7.242571525275707">
        <ele>1685.3299999999999</ele>
        <time>2012-07-23T08:21:34Z</time>
      </trkpt>
      <trkpt lat="46.136880274862051" lon="7.242458537220955">
        <ele>1684.3699999999999</ele>
        <time>2012-07-23T08:21:35Z</time>
      </trkpt>
      <trkpt lat="46.137718632817268" lon="7.241391856223345">
        <ele>1674.27</ele>
        <time>2012-07-23T08:21:45Z</time>
      </trkpt>
      <trkpt lat="46.137785688042641" lon="7.241284735500813">
        <ele>1673.3099999999999</ele>
        <time>2012-07-23T08:21:46Z</time>
      </trkpt>
      <trkpt lat="46.137834554538131" lon="7.241158504039049">
        <ele>1672.8299999999999</ele>
        <time>2012-07-23T08:21:47Z</time>
      </trkpt>
      <trkpt lat="46.137868585065007" lon="7.241020621731877">
        <ele>1671.8699999999999</ele>
        <time>2012-07-23T08:21:48Z</time>
      </trkpt>
      <trkpt lat="46.137897670269012" lon="7.24087662063539">
        <ele>1670.9100000000001</ele>
        <time>2012-07-23T08:21:49Z</time>
      </trkpt>
      <trkpt lat="46.137933628633618" lon="7.240733709186316">
        <ele>1669.95</ele>
        <time>2012-07-23T08:21:50Z</time>
      </trkpt>
      <trkpt lat="46.137984674423933" lon="7.24059859290719">
        <ele>1669.47</ele>
        <time>2012-07-23T08:21:51Z</time>
      </trkpt>
      <trkpt lat="46.138046951964498" lon="7.240471104159951">
        <ele>1668.51</ele>
        <time>2012-07-23T08:21:52Z</time>
      </trkpt>
      <trkpt lat="46.13811643794179" lon="7.240348309278488">
        <ele>1667.54</ele>
        <time>2012-07-23T08:21:53Z</time>
      </trkpt>
      <trkpt lat="46.138189025223255" lon="7.240227777510881">
        <ele>1666.5799999999999</ele>
        <time>2012-07-23T08:21:54Z</time>
      </trkpt>
      <trkpt lat="46.138458335772157" lon="7.239707177504897">
        <ele>1662.74</ele>
        <time>2012-07-23T08:21:58Z</time>
      </trkpt>
      <trkpt lat="46.138504100963473" lon="7.239558063447475">
        <ele>1661.78</ele>
        <time>2012-07-23T08:21:59Z</time>
      </trkpt>
      <trkpt lat="46.138536455109715" lon="7.239400651305914">
        <ele>1661.3</ele>
        <time>2012-07-23T08:22:00Z</time>
      </trkpt>
      <trkpt lat="46.138559421524405" lon="7.239238293841481">
        <ele>1660.3299999999999</ele>
        <time>2012-07-23T08:22:01Z</time>
      </trkpt>
      <trkpt lat="46.138583393767476" lon="7.239074008539319">
        <ele>1659.3699999999999</ele>
        <time>2012-07-23T08:22:02Z</time>
      </trkpt>
      <trkpt lat="46.138618178665638" lon="7.238911483436823">
        <ele>1658.4100000000001</ele>
        <time>2012-07-23T08:22:03Z</time>
      </trkpt>
      <trkpt lat="46.13866712898016" lon="7.238756585866213">
        <ele>1657.45</ele>
        <time>2012-07-23T08:22:04Z</time>
      </trkpt>
      <trkpt lat="46.138726724311709" lon="7.23860839381814">
        <ele>1656.49</ele>
        <time>2012-07-23T08:22:05Z</time>
      </trkpt>
      <trkpt lat="46.139210360124707" lon="7.237611953169107">
        <ele>1650.72</ele>
        <time>2012-07-23T08:22:12Z</time>
      </trkpt>
      <trkpt lat="46.139265932142735" lon="7.237454792484641">
        <ele>1649.76</ele>
        <time>2012-07-23T08:22:13Z</time>
      </trkpt>
      <trkpt lat="46.139308344572783" lon="7.237290423363447">
        <ele>1648.3199999999999</ele>
        <time>2012-07-23T08:22:14Z</time>
      </trkpt>
      <trkpt lat="46.139459302648902" lon="7.236682567745447">
        <ele>1644.95</ele>
        <time>2012-07-23T08:22:18Z</time>
      </trkpt>
      <trkpt lat="46.139517975971103" lon="7.236561616882682">
        <ele>1644.47</ele>
        <time>2012-07-23T08:22:19Z</time>
      </trkpt>
      <trkpt lat="46.139589557424188" lon="7.236455837264657">
        <ele>1643.99</ele>
        <time>2012-07-23T08:22:20Z</time>
      </trkpt>
      <trkpt lat="46.139667173847556" lon="7.236363720148802">
        <ele>1643.51</ele>
        <time>2012-07-23T08:22:21Z</time>
      </trkpt>
      <trkpt lat="46.139750154688954" lon="7.236285097897053">
        <ele>1643.03</ele>
        <time>2012-07-23T08:22:22Z</time>
      </trkpt>
      <trkpt lat="46.140042012557387" lon="7.236016625538468">
        <ele>1640.6300000000001</ele>
        <time>2012-07-23T08:22:26Z</time>
      </trkpt>
      <trkpt lat="46.140091717243195" lon="7.235998436808586">
        <ele>1640.1500000000001</ele>
        <time>2012-07-23T08:22:27Z</time>
      </trkpt>
      <trkpt lat="46.140136057510972" lon="7.236012602224946">
        <ele>1639.6700000000001</ele>
        <time>2012-07-23T08:22:28Z</time>
      </trkpt>
      <trkpt lat="46.140168076381087" lon="7.236060798168182">
        <ele>1639.1900000000001</ele>
        <time>2012-07-23T08:22:29Z</time>
      </trkpt>
      <trkpt lat="46.140177547931671" lon="7.236129948869348">
        <ele>1638.7</ele>
        <time>2012-07-23T08:22:30Z</time>
      </trkpt>
      <trkpt lat="46.140160113573074" lon="7.236204966902733">
        <ele>1638.22</ele>
        <time>2012-07-23T08:22:31Z</time>
      </trkpt>
      <trkpt lat="46.140119545161724" lon="7.236273782327771">
        <ele>1637.26</ele>
        <time>2012-07-23T08:22:32Z</time>
      </trkpt>
      <trkpt lat="46.140069337561727" lon="7.236339328810573">
        <ele>1637.26</ele>
        <time>2012-07-23T08:22:33Z</time>
      </trkpt>
      <trkpt lat="46.139794662594795" lon="7.236742582172155">
        <ele>1633.9000000000001</ele>
        <time>2012-07-23T08:22:38Z</time>
      </trkpt>
      <trkpt lat="46.139745460823178" lon="7.23685322329402">
        <ele>1633.4200000000001</ele>
        <time>2012-07-23T08:22:39Z</time>
      </trkpt>
      <trkpt lat="46.139703635126352" lon="7.23697442561388">
        <ele>1632.46</ele>
        <time>2012-07-23T08:22:40Z</time>
      </trkpt>
      <trkpt lat="46.139670610427856" lon="7.237105518579483">
        <ele>1631.49</ele>
        <time>2012-07-23T08:22:41Z</time>
      </trkpt>
      <trkpt lat="46.139650410041213" lon="7.237247340381146">
        <ele>1631.01</ele>
        <time>2012-07-23T08:22:42Z</time>
      </trkpt>
      <trkpt lat="46.139639094471931" lon="7.237395280972123">
        <ele>1630.05</ele>
        <time>2012-07-23T08:22:43Z</time>
      </trkpt>
      <trkpt lat="46.139675136655569" lon="7.238477719947696">
        <ele>1623.3199999999999</ele>
        <time>2012-07-23T08:22:51Z</time>
      </trkpt>
      <trkpt lat="46.139712687581778" lon="7.238850295543671">
        <ele>1620.9200000000001</ele>
        <time>2012-07-23T08:22:54Z</time>
      </trkpt>
      <trkpt lat="46.139699360355735" lon="7.238963032141328">
        <ele>1619.96</ele>
        <time>2012-07-23T08:22:55Z</time>
      </trkpt>
      <trkpt lat="46.139669269323349" lon="7.239073421806097">
        <ele>1619</ele>
        <time>2012-07-23T08:22:56Z</time>
      </trkpt>
      <trkpt lat="46.139566171914339" lon="7.239409200847149">
        <ele>1617.0699999999999</ele>
        <time>2012-07-23T08:22:59Z</time>
      </trkpt>
      <trkpt lat="46.139551922678947" lon="7.239525122568011">
        <ele>1616.5899999999999</ele>
        <time>2012-07-23T08:23:00Z</time>
      </trkpt>
      <trkpt lat="46.139548318460584" lon="7.239646073430777">
        <ele>1615.6300000000001</ele>
        <time>2012-07-23T08:23:01Z</time>
      </trkpt>
      <trkpt lat="46.139553682878613" lon="7.239763755351305">
        <ele>1615.1500000000001</ele>
        <time>2012-07-23T08:23:02Z</time>
      </trkpt>
      <trkpt lat="46.139559214934707" lon="7.239877581596375">
        <ele>1614.6700000000001</ele>
        <time>2012-07-23T08:23:03Z</time>
      </trkpt>
      <trkpt lat="46.139553766697645" lon="7.240119064226747">
        <ele>1613.23</ele>
        <time>2012-07-23T08:23:05Z</time>
      </trkpt>
      <trkpt lat="46.139538511633873" lon="7.240237751975656">
        <ele>1612.27</ele>
        <time>2012-07-23T08:23:06Z</time>
      </trkpt>
      <trkpt lat="46.139517892152071" lon="7.240353506058455">
        <ele>1611.79</ele>
        <time>2012-07-23T08:23:07Z</time>
      </trkpt>
      <trkpt lat="46.139490818604827" lon="7.240471942350268">
        <ele>1610.8299999999999</ele>
        <time>2012-07-23T08:23:08Z</time>
      </trkpt>
      <trkpt lat="46.139456368982792" lon="7.24059272557497">
        <ele>1609.8599999999999</ele>
        <time>2012-07-23T08:23:09Z</time>
      </trkpt>
      <trkpt lat="46.139416806399822" lon="7.240715771913528">
        <ele>1608.9000000000001</ele>
        <time>2012-07-23T08:23:10Z</time>
      </trkpt>
      <trkpt lat="46.13918018527329" lon="7.241288674995303">
        <ele>1605.0599999999999</ele>
        <time>2012-07-23T08:23:15Z</time>
      </trkpt>
      <trkpt lat="46.13916652277112" lon="7.241372661665082">
        <ele>1604.5799999999999</ele>
        <time>2012-07-23T08:23:16Z</time>
      </trkpt>
      <trkpt lat="46.139179849997163" lon="7.241436950862408">
        <ele>1604.0999999999999</ele>
        <time>2012-07-23T08:23:17Z</time>
      </trkpt>
      <trkpt lat="46.139211030676961" lon="7.241474920883775">
        <ele>1603.6199999999999</ele>
        <time>2012-07-23T08:23:18Z</time>
      </trkpt>
      <trkpt lat="46.139248246327043" lon="7.241480452939868">
        <ele>1603.1400000000001</ele>
        <time>2012-07-23T08:23:19Z</time>
      </trkpt>
      <trkpt lat="46.139290574938059" lon="7.2414615098387">
        <ele>1603.1400000000001</ele>
        <time>2012-07-23T08:23:20Z</time>
      </trkpt>
      <trkpt lat="46.139330724254251" lon="7.241421947255731">
        <ele>1602.6600000000001</ele>
        <time>2012-07-23T08:23:21Z</time>
      </trkpt>
      <trkpt lat="46.139368610456586" lon="7.241364028304815">
        <ele>1602.1700000000001</ele>
        <time>2012-07-23T08:23:22Z</time>
      </trkpt>
      <trkpt lat="46.13940691575408" lon="7.241293704137206">
        <ele>1601.6900000000001</ele>
        <time>2012-07-23T08:23:23Z</time>
      </trkpt>
      <trkpt lat="46.139591317623854" lon="7.240959098562598">
        <ele>1599.29</ele>
        <time>2012-07-23T08:23:27Z</time>
      </trkpt>
      <trkpt lat="46.139650912955403" lon="7.240877961739898">
        <ele>1598.8099999999999</ele>
        <time>2012-07-23T08:23:28Z</time>
      </trkpt>
      <trkpt lat="46.139718890190125" lon="7.240804955363274">
        <ele>1597.8499999999999</ele>
        <time>2012-07-23T08:23:29Z</time>
      </trkpt>
      <trkpt lat="46.140134716406465" lon="7.24043145775795">
        <ele>1594</ele>
        <time>2012-07-23T08:23:34Z</time>
      </trkpt>
      <trkpt lat="46.140217613428831" lon="7.240326851606369">
        <ele>1593.04</ele>
        <time>2012-07-23T08:23:35Z</time>
      </trkpt>
      <trkpt lat="46.140288440510631" lon="7.240198776125908">
        <ele>1592.0799999999999</ele>
        <time>2012-07-23T08:23:36Z</time>
      </trkpt>
      <trkpt lat="46.140346946194768" lon="7.240055194124579">
        <ele>1590.6400000000001</ele>
        <time>2012-07-23T08:23:37Z</time>
      </trkpt>
      <trkpt lat="46.140394974499941" lon="7.239902308210731">
        <ele>1589.6800000000001</ele>
        <time>2012-07-23T08:23:38Z</time>
      </trkpt>
      <trkpt lat="46.140428921207786" lon="7.239739447832108">
        <ele>1588.24</ele>
        <time>2012-07-23T08:23:39Z</time>
      </trkpt>
      <trkpt lat="46.14045163616538" lon="7.239571809768677">
        <ele>1587.27</ele>
        <time>2012-07-23T08:23:40Z</time>
      </trkpt>
      <trkpt lat="46.140597648918629" lon="7.238915925845504">
        <ele>1582.47</ele>
        <time>2012-07-23T08:23:44Z</time>
      </trkpt>
      <trkpt lat="46.140659507364035" lon="7.238787012174726">
        <ele>1581.51</ele>
        <time>2012-07-23T08:23:45Z</time>
      </trkpt>
      <trkpt lat="46.140730669721961" lon="7.238672599196434">
        <ele>1580.54</ele>
        <time>2012-07-23T08:23:46Z</time>
      </trkpt>
      <trkpt lat="46.140808202326298" lon="7.238578805699945">
        <ele>1579.5799999999999</ele>
        <time>2012-07-23T08:23:47Z</time>
      </trkpt>
      <trkpt lat="46.140899229794741" lon="7.238506888970733">
        <ele>1578.6199999999999</ele>
        <time>2012-07-23T08:23:48Z</time>
      </trkpt>
      <trkpt lat="46.140998806804419" lon="7.238450646400452">
        <ele>1577.6600000000001</ele>
        <time>2012-07-23T08:23:49Z</time>
      </trkpt>
      <trkpt lat="46.141099305823445" lon="7.238400438800454">
        <ele>1577.1800000000001</ele>
        <time>2012-07-23T08:23:50Z</time>
      </trkpt>
      <trkpt lat="46.141297454014421" lon="7.238269429653883">
        <ele>1575.26</ele>
        <time>2012-07-23T08:23:52Z</time>
      </trkpt>
      <trkpt lat="46.141390660777688" lon="7.238177480176091">
        <ele>1574.78</ele>
        <time>2012-07-23T08:23:53Z</time>
      </trkpt>
      <trkpt lat="46.141475234180689" lon="7.238066922873259">
        <ele>1573.3299999999999</ele>
        <time>2012-07-23T08:23:54Z</time>
      </trkpt>
      <trkpt lat="46.141550671309233" lon="7.237938763573766">
        <ele>1572.3699999999999</ele>
        <time>2012-07-23T08:23:55Z</time>
      </trkpt>
      <trkpt lat="46.141617894172668" lon="7.237797109410167">
        <ele>1571.4100000000001</ele>
        <time>2012-07-23T08:23:56Z</time>
      </trkpt>
      <trkpt lat="46.141674052923918" lon="7.237642630934715">
        <ele>1570.45</ele>
        <time>2012-07-23T08:23:57Z</time>
      </trkpt>
      <trkpt lat="46.141716800630093" lon="7.237479435279965">
        <ele>1569.01</ele>
        <time>2012-07-23T08:23:58Z</time>
      </trkpt>
      <trkpt lat="46.141745802015066" lon="7.237318586558104">
        <ele>1568.05</ele>
        <time>2012-07-23T08:23:59Z</time>
      </trkpt>
      <trkpt lat="46.141762230545282" lon="7.237157821655273">
        <ele>1566.6099999999999</ele>
        <time>2012-07-23T08:24:00Z</time>
      </trkpt>
      <trkpt lat="46.141776395961642" lon="7.236993536353111">
        <ele>1565.6400000000001</ele>
        <time>2012-07-23T08:24:01Z</time>
      </trkpt>
      <trkpt lat="46.141837164759636" lon="7.236525909975171">
        <ele>1562.28</ele>
        <time>2012-07-23T08:24:04Z</time>
      </trkpt>
      <trkpt lat="46.141873458400369" lon="7.236388111487031">
        <ele>1561.3199999999999</ele>
        <time>2012-07-23T08:24:05Z</time>
      </trkpt>
      <trkpt lat="46.141913272440434" lon="7.236274788156152">
        <ele>1560.3599999999999</ele>
        <time>2012-07-23T08:24:06Z</time>
      </trkpt>
      <trkpt lat="46.141958367079496" lon="7.236185017973185">
        <ele>1559.4000000000001</ele>
        <time>2012-07-23T08:24:07Z</time>
      </trkpt>
      <trkpt lat="46.142012262716889" lon="7.236107485368848">
        <ele>1558.9200000000001</ele>
        <time>2012-07-23T08:24:08Z</time>
      </trkpt>
      <trkpt lat="46.142071606591344" lon="7.236036574468017">
        <ele>1557.95</ele>
        <time>2012-07-23T08:24:09Z</time>
      </trkpt>
      <trkpt lat="46.142136482521892" lon="7.235968932509422">
        <ele>1556.99</ele>
        <time>2012-07-23T08:24:10Z</time>
      </trkpt>
      <trkpt lat="46.142206303775311" lon="7.235906152054668">
        <ele>1556.51</ele>
        <time>2012-07-23T08:24:11Z</time>
      </trkpt>
      <trkpt lat="46.142347790300846" lon="7.235775226727128">
        <ele>1555.0699999999999</ele>
        <time>2012-07-23T08:24:13Z</time>
      </trkpt>
      <trkpt lat="46.14241685718298" lon="7.235689647495747">
        <ele>1554.1099999999999</ele>
        <time>2012-07-23T08:24:14Z</time>
      </trkpt>
      <trkpt lat="46.142483912408352" lon="7.235594177618623">
        <ele>1553.1500000000001</ele>
        <time>2012-07-23T08:24:15Z</time>
      </trkpt>
      <trkpt lat="46.142545687034726" lon="7.235493427142501">
        <ele>1552.1900000000001</ele>
        <time>2012-07-23T08:24:16Z</time>
      </trkpt>
      <trkpt lat="46.142601845785975" lon="7.235390078276396">
        <ele>1551.22</ele>
        <time>2012-07-23T08:24:17Z</time>
      </trkpt>
      <trkpt lat="46.1426523886621" lon="7.235286477953196">
        <ele>1550.26</ele>
        <time>2012-07-23T08:24:18Z</time>
      </trkpt>
      <trkpt lat="46.143245324492455" lon="7.234344519674778">
        <ele>1542.0899999999999</ele>
        <time>2012-07-23T08:24:29Z</time>
      </trkpt>
      <trkpt lat="46.143702054396272" lon="7.2339410148561">
        <ele>1536.3199999999999</ele>
        <time>2012-07-23T08:24:37Z</time>
      </trkpt>
      <trkpt lat="46.144297923892736" lon="7.233603056520224">
        <ele>1531.04</ele>
        <time>2012-07-23T08:24:47Z</time>
      </trkpt>
      <trkpt lat="46.144349221140146" lon="7.233590818941593">
        <ele>1530.5599999999999</ele>
        <time>2012-07-23T08:24:48Z</time>
      </trkpt>
      <trkpt lat="46.14447545260191" lon="7.233547233045101">
        <ele>1530.0799999999999</ele>
        <time>2012-07-23T08:24:51Z</time>
      </trkpt>
      <trkpt lat="46.14504081197083" lon="7.233145656064153">
        <ele>1529.1099999999999</ele>
        <time>2012-07-23T08:25:06Z</time>
      </trkpt>
      <trkpt lat="46.145125217735767" lon="7.233074409887195">
        <ele>1529.1099999999999</ele>
        <time>2012-07-23T08:25:08Z</time>
      </trkpt>
      <trkpt lat="46.145176431164145" lon="7.233047755435109">
        <ele>1529.1099999999999</ele>
        <time>2012-07-23T08:25:09Z</time>
      </trkpt>
      <trkpt lat="46.145234182476997" lon="7.233027638867497">
        <ele>1529.5899999999999</ele>
        <time>2012-07-23T08:25:10Z</time>
      </trkpt>
      <trkpt lat="46.145289922133088" lon="7.232996709644795">
        <ele>1529.1099999999999</ele>
        <time>2012-07-23T08:25:11Z</time>
      </trkpt>
      <trkpt lat="46.145343650132418" lon="7.232954045757651">
        <ele>1529.1099999999999</ele>
        <time>2012-07-23T08:25:12Z</time>
      </trkpt>
      <trkpt lat="46.145397294312716" lon="7.232906352728605">
        <ele>1529.1099999999999</ele>
        <time>2012-07-23T08:25:13Z</time>
      </trkpt>
      <trkpt lat="46.145772049203515" lon="7.232597311958671">
        <ele>1525.75</ele>
        <time>2012-07-23T08:25:20Z</time>
      </trkpt>
      <trkpt lat="46.145814545452595" lon="7.232601838186383">
        <ele>1525.27</ele>
        <time>2012-07-23T08:25:21Z</time>
      </trkpt>
      <trkpt lat="46.145840864628553" lon="7.23263637162745">
        <ele>1524.79</ele>
        <time>2012-07-23T08:25:22Z</time>
      </trkpt>
      <trkpt lat="46.145845893770456" lon="7.232695966959">
        <ele>1524.3099999999999</ele>
        <time>2012-07-23T08:25:23Z</time>
      </trkpt>
      <trkpt lat="46.145826950669289" lon="7.23275899887085">
        <ele>1523.8299999999999</ele>
        <time>2012-07-23T08:25:24Z</time>
      </trkpt>
      <trkpt lat="46.145794345065951" lon="7.232818761840463">
        <ele>1523.3499999999999</ele>
        <time>2012-07-23T08:25:25Z</time>
      </trkpt>
      <trkpt lat="46.145756710320711" lon="7.232878440991044">
        <ele>1522.8699999999999</ele>
        <time>2012-07-23T08:25:26Z</time>
      </trkpt>
      <trkpt lat="46.145241726189852" lon="7.233748231083155">
        <ele>1519.5</ele>
        <time>2012-07-23T08:25:36Z</time>
      </trkpt>
      <trkpt lat="46.144584249705076" lon="7.234856989234686">
        <ele>1514.6900000000001</ele>
        <time>2012-07-23T08:25:48Z</time>
      </trkpt>
      <trkpt lat="46.144411247223616" lon="7.235171226784587">
        <ele>1513.25</ele>
        <time>2012-07-23T08:25:54Z</time>
      </trkpt>
      <trkpt lat="46.144082006067038" lon="7.2360201459378">
        <ele>1510.8499999999999</ele>
        <time>2012-07-23T08:26:03Z</time>
      </trkpt>
      <trkpt lat="46.144041521474719" lon="7.236121483147144">
        <ele>1510.3699999999999</ele>
        <time>2012-07-23T08:26:04Z</time>
      </trkpt>
      <trkpt lat="46.143999276682734" lon="7.236220976337791">
        <ele>1510.3699999999999</ele>
        <time>2012-07-23T08:26:05Z</time>
      </trkpt>
      <trkpt lat="46.143674310296774" lon="7.236875519156456">
        <ele>1509.8900000000001</ele>
        <time>2012-07-23T08:26:12Z</time>
      </trkpt>
      <trkpt lat="46.143628628924489" lon="7.23697392269969">
        <ele>1509.4100000000001</ele>
        <time>2012-07-23T08:26:13Z</time>
      </trkpt>
      <trkpt lat="46.143594933673739" lon="7.237084396183491">
        <ele>1508.9300000000001</ele>
        <time>2012-07-23T08:26:14Z</time>
      </trkpt>
      <trkpt lat="46.143579259514809" lon="7.23720551468432">
        <ele>1508.9300000000001</ele>
        <time>2012-07-23T08:26:15Z</time>
      </trkpt>
      <trkpt lat="46.143576912581921" lon="7.237331746146083">
        <ele>1508.45</ele>
        <time>2012-07-23T08:26:16Z</time>
      </trkpt>
      <trkpt lat="46.143582444638014" lon="7.237458061426878">
        <ele>1507.97</ele>
        <time>2012-07-23T08:26:17Z</time>
      </trkpt>
      <trkpt lat="46.143650924786925" lon="7.238451652228832">
        <ele>1503.6400000000001</ele>
        <time>2012-07-23T08:26:27Z</time>
      </trkpt>
      <trkpt lat="46.143659558147192" lon="7.238848200067878">
        <ele>1502.6800000000001</ele>
        <time>2012-07-23T08:26:33Z</time>
      </trkpt>
      <trkpt lat="46.143655618652701" lon="7.238926738500595">
        <ele>1502.2</ele>
        <time>2012-07-23T08:26:34Z</time>
      </trkpt>
      <trkpt lat="46.143564423546195" lon="7.239456307142973">
        <ele>1499.3099999999999</ele>
        <time>2012-07-23T08:26:40Z</time>
      </trkpt>
      <trkpt lat="46.143531817942858" lon="7.23954364657402">
        <ele>1498.8299999999999</ele>
        <time>2012-07-23T08:26:41Z</time>
      </trkpt>
      <trkpt lat="46.143419919535518" lon="7.239777334034443">
        <ele>1497.3900000000001</ele>
        <time>2012-07-23T08:26:44Z</time>
      </trkpt>
      <trkpt lat="46.143375998362899" lon="7.239858638495207">
        <ele>1496.9100000000001</ele>
        <time>2012-07-23T08:26:45Z</time>
      </trkpt>
      <trkpt lat="46.143329730257392" lon="7.23994136787951">
        <ele>1496.4300000000001</ele>
        <time>2012-07-23T08:26:46Z</time>
      </trkpt>
      <trkpt lat="46.143274074420333" lon="7.240013284608722">
        <ele>1495.95</ele>
        <time>2012-07-23T08:26:47Z</time>
      </trkpt>
      <trkpt lat="46.143203163519502" lon="7.240068688988686">
        <ele>1495.47</ele>
        <time>2012-07-23T08:26:48Z</time>
      </trkpt>
      <trkpt lat="46.143122529610991" lon="7.240113196894527">
        <ele>1494.99</ele>
        <time>2012-07-23T08:26:49Z</time>
      </trkpt>
      <trkpt lat="46.143036112189293" lon="7.240161141380668">
        <ele>1494.99</ele>
        <time>2012-07-23T08:26:50Z</time>
      </trkpt>
      <trkpt lat="46.142859254032373" lon="7.240292821079493">
        <ele>1494.03</ele>
        <time>2012-07-23T08:26:52Z</time>
      </trkpt>
      <trkpt lat="46.142777027562261" lon="7.240385776385665">
        <ele>1493.55</ele>
        <time>2012-07-23T08:26:53Z</time>
      </trkpt>
      <trkpt lat="46.142705194652081" lon="7.2404979262501">
        <ele>1493.0599999999999</ele>
        <time>2012-07-23T08:26:54Z</time>
      </trkpt>
      <trkpt lat="46.142650041729212" lon="7.240630025044084">
        <ele>1492.5799999999999</ele>
        <time>2012-07-23T08:26:55Z</time>
      </trkpt>
      <trkpt lat="46.142614502459764" lon="7.240774193778634">
        <ele>1492.0999999999999</ele>
        <time>2012-07-23T08:26:56Z</time>
      </trkpt>
      <trkpt lat="46.142596649006009" lon="7.240926073864102">
        <ele>1491.1400000000001</ele>
        <time>2012-07-23T08:26:57Z</time>
      </trkpt>
      <trkpt lat="46.142590949311852" lon="7.241082480177283">
        <ele>1490.6600000000001</ele>
        <time>2012-07-23T08:26:58Z</time>
      </trkpt>
      <trkpt lat="46.142593966796994" lon="7.241238383576274">
        <ele>1490.1800000000001</ele>
        <time>2012-07-23T08:26:59Z</time>
      </trkpt>
      <trkpt lat="46.142600253224373" lon="7.24139797501266">
        <ele>1489.22</ele>
        <time>2012-07-23T08:27:00Z</time>
      </trkpt>
      <trkpt lat="46.142659764736891" lon="7.243422120809555">
        <ele>1479.1300000000001</ele>
        <time>2012-07-23T08:27:13Z</time>
      </trkpt>
      <trkpt lat="46.14264459349215" lon="7.243546843528748">
        <ele>1478.1600000000001</ele>
        <time>2012-07-23T08:27:14Z</time>
      </trkpt>
      <trkpt lat="46.142617268487811" lon="7.243650779128075">
        <ele>1477.6800000000001</ele>
        <time>2012-07-23T08:27:15Z</time>
      </trkpt>
      <trkpt lat="46.142573934048414" lon="7.24373510107398">
        <ele>1477.6800000000001</ele>
        <time>2012-07-23T08:27:16Z</time>
      </trkpt>
      <trkpt lat="46.14252682775259" lon="7.243800982832909">
        <ele>1477.6800000000001</ele>
        <time>2012-07-23T08:27:17Z</time>
      </trkpt>
      <trkpt lat="46.142481565475464" lon="7.243855046108365">
        <ele>1477.6800000000001</ele>
        <time>2012-07-23T08:27:18Z</time>
      </trkpt>
      <trkpt lat="46.142354663461447" lon="7.243979098275304">
        <ele>1479.6099999999999</ele>
        <time>2012-07-23T08:27:21Z</time>
      </trkpt>
      <trkpt lat="46.141917295753956" lon="7.244332646951079">
        <ele>1483.9300000000001</ele>
        <time>2012-07-23T08:27:35Z</time>
      </trkpt>
      <trkpt lat="46.141546731814742" lon="7.245024824514985">
        <ele>1484.8900000000001</ele>
        <time>2012-07-23T08:27:49Z</time>
      </trkpt>
      <trkpt lat="46.141135096549988" lon="7.245988827198744">
        <ele>1484.8900000000001</ele>
        <time>2012-07-23T08:28:04Z</time>
      </trkpt>
      <trkpt lat="46.140764700248837" lon="7.246575392782688">
        <ele>1487.78</ele>
        <time>2012-07-23T08:28:18Z</time>
      </trkpt>
      <trkpt lat="46.140299420803785" lon="7.246685782447457">
        <ele>1491.6199999999999</ele>
        <time>2012-07-23T08:28:32Z</time>
      </trkpt>
      <trkpt lat="46.13982223905623" lon="7.246936904266477">
        <ele>1494.51</ele>
        <time>2012-07-23T08:28:47Z</time>
      </trkpt>
      <trkpt lat="46.139602549374104" lon="7.247537551447749">
        <ele>1496.9100000000001</ele>
        <time>2012-07-23T08:29:01Z</time>
      </trkpt>
      <trkpt lat="46.139267105609179" lon="7.2479890845716">
        <ele>1498.8299999999999</ele>
        <time>2012-07-23T08:29:14Z</time>
      </trkpt>
      <trkpt lat="46.13923299126327" lon="7.248018337413669">
        <ele>1498.8299999999999</ele>
        <time>2012-07-23T08:29:15Z</time>
      </trkpt>
      <trkpt lat="46.139196194708347" lon="7.248043064028025">
        <ele>1499.3099999999999</ele>
        <time>2012-07-23T08:29:16Z</time>
      </trkpt>
      <trkpt lat="46.139157805591822" lon="7.248060163110495">
        <ele>1499.3099999999999</ele>
        <time>2012-07-23T08:29:17Z</time>
      </trkpt>
      <trkpt lat="46.138983210548759" lon="7.248120177537203">
        <ele>1498.8299999999999</ele>
        <time>2012-07-23T08:29:21Z</time>
      </trkpt>
      <trkpt lat="46.138938283547759" lon="7.24815035238862">
        <ele>1498.8299999999999</ele>
        <time>2012-07-23T08:29:22Z</time>
      </trkpt>
      <trkpt lat="46.138471411541104" lon="7.248474732041359">
        <ele>1498.3499999999999</ele>
        <time>2012-07-23T08:29:32Z</time>
      </trkpt>
      <trkpt lat="46.138417515903711" lon="7.248490741476417">
        <ele>1498.8299999999999</ele>
        <time>2012-07-23T08:29:33Z</time>
      </trkpt>
      <trkpt lat="46.13836077041924" lon="7.24849870428443">
        <ele>1498.8299999999999</ele>
        <time>2012-07-23T08:29:34Z</time>
      </trkpt>
      <trkpt lat="46.13830310292542" lon="7.248499123379588">
        <ele>1498.8299999999999</ele>
        <time>2012-07-23T08:29:35Z</time>
      </trkpt>
      <trkpt lat="46.138247279450297" lon="7.248494513332844">
        <ele>1498.8299999999999</ele>
        <time>2012-07-23T08:29:36Z</time>
      </trkpt>
      <trkpt lat="46.138190450146794" lon="7.248490322381258">
        <ele>1498.8299999999999</ele>
        <time>2012-07-23T08:29:37Z</time>
      </trkpt>
      <trkpt lat="46.138132615014911" lon="7.248503649607301">
        <ele>1498.8299999999999</ele>
        <time>2012-07-23T08:29:38Z</time>
      </trkpt>
      <trkpt lat="46.13807737827301" lon="7.248540697619319">
        <ele>1498.8299999999999</ele>
        <time>2012-07-23T08:29:39Z</time>
      </trkpt>
      <trkpt lat="46.13802901469171" lon="7.248599622398615">
        <ele>1498.3499999999999</ele>
        <time>2012-07-23T08:29:40Z</time>
      </trkpt>
      <trkpt lat="46.137992469593883" lon="7.248673131689429">
        <ele>1497.8699999999999</ele>
        <time>2012-07-23T08:29:41Z</time>
      </trkpt>
      <trkpt lat="46.137963803485036" lon="7.248749658465385">
        <ele>1497.8699999999999</ele>
        <time>2012-07-23T08:29:42Z</time>
      </trkpt>
      <trkpt lat="46.137624755501747" lon="7.249348293989897">
        <ele>1495.95</ele>
        <time>2012-07-23T08:29:51Z</time>
      </trkpt>
      <trkpt lat="46.137203397229314" lon="7.24964358843863">
        <ele>1494.51</ele>
        <time>2012-07-23T08:29:58Z</time>
      </trkpt>
      <trkpt lat="46.137140868231654" lon="7.249674433842301">
        <ele>1494.03</ele>
        <time>2012-07-23T08:29:59Z</time>
      </trkpt>
      <trkpt lat="46.137080518528819" lon="7.249704524874687">
        <ele>1493.55</ele>
        <time>2012-07-23T08:30:00Z</time>
      </trkpt>
      <trkpt lat="46.136856218799949" lon="7.249845005571842">
        <ele>1491.1400000000001</ele>
        <time>2012-07-23T08:30:04Z</time>
      </trkpt>
      <trkpt lat="46.136799221858382" lon="7.249867217615247">
        <ele>1490.6600000000001</ele>
        <time>2012-07-23T08:30:05Z</time>
      </trkpt>
      <trkpt lat="46.136505352333188" lon="7.249961346387863">
        <ele>1487.3</ele>
        <time>2012-07-23T08:30:10Z</time>
      </trkpt>
      <trkpt lat="46.13646344281733" lon="7.249995125457645">
        <ele>1486.8199999999999</ele>
        <time>2012-07-23T08:30:11Z</time>
      </trkpt>
      <trkpt lat="46.136439805850387" lon="7.250022785738111">
        <ele>1486.3399999999999</ele>
        <time>2012-07-23T08:30:12Z</time>
      </trkpt>
      <trkpt lat="46.136415749788284" lon="7.250095456838608">
        <ele>1484.8900000000001</ele>
        <time>2012-07-23T08:30:17Z</time>
      </trkpt>
      <trkpt lat="46.136412732303143" lon="7.250119764357805">
        <ele>1484.4100000000001</ele>
        <time>2012-07-23T08:30:18Z</time>
      </trkpt>
      <trkpt lat="46.136424383148551" lon="7.25025387480855">
        <ele>1484.4100000000001</ele>
        <time>2012-07-23T08:30:21Z</time>
      </trkpt>
      <trkpt lat="46.136450618505478" lon="7.250299891456962">
        <ele>1484.4100000000001</ele>
        <time>2012-07-23T08:30:22Z</time>
      </trkpt>
      <trkpt lat="46.136485487222672" lon="7.25033501163125">
        <ele>1484.4100000000001</ele>
        <time>2012-07-23T08:30:23Z</time>
      </trkpt>
      <trkpt lat="46.136527061462402" lon="7.250359486788511">
        <ele>1484.4100000000001</ele>
        <time>2012-07-23T08:30:24Z</time>
      </trkpt>
      <trkpt lat="46.136576514691114" lon="7.250374406576157">
        <ele>1484.8900000000001</ele>
        <time>2012-07-23T08:30:25Z</time>
      </trkpt>
      <trkpt lat="46.136630745604634" lon="7.250383878126741">
        <ele>1484.8900000000001</ele>
        <time>2012-07-23T08:30:26Z</time>
      </trkpt>
      <trkpt lat="46.136689586564898" lon="7.250393601134419">
        <ele>1485.3699999999999</ele>
        <time>2012-07-23T08:30:27Z</time>
      </trkpt>
      <trkpt lat="46.13675219938159" lon="7.250402150675654">
        <ele>1485.3699999999999</ele>
        <time>2012-07-23T08:30:28Z</time>
      </trkpt>
      <trkpt lat="46.13681573420763" lon="7.250404665246606">
        <ele>1484.8900000000001</ele>
        <time>2012-07-23T08:30:29Z</time>
      </trkpt>
      <trkpt lat="46.137012122198939" lon="7.250418579205871">
        <ele>1484.4100000000001</ele>
        <time>2012-07-23T08:30:32Z</time>
      </trkpt>
      <trkpt lat="46.137081356719136" lon="7.250428721308708">
        <ele>1484.4100000000001</ele>
        <time>2012-07-23T08:30:33Z</time>
      </trkpt>
      <trkpt lat="46.137347565963864" lon="7.250474151223898">
        <ele>1482.97</ele>
        <time>2012-07-23T08:30:37Z</time>
      </trkpt>
      <trkpt lat="46.137417303398252" lon="7.250500973314047">
        <ele>1482.49</ele>
        <time>2012-07-23T08:30:38Z</time>
      </trkpt>
      <trkpt lat="46.137484945356846" lon="7.250541457906365">
        <ele>1481.53</ele>
        <time>2012-07-23T08:30:39Z</time>
      </trkpt>
      <trkpt lat="46.137552335858345" lon="7.250592419877648">
        <ele>1481.05</ele>
        <time>2012-07-23T08:30:40Z</time>
      </trkpt>
      <trkpt lat="46.137617714703083" lon="7.250650590285659">
        <ele>1480.0899999999999</ele>
        <time>2012-07-23T08:30:41Z</time>
      </trkpt>
      <trkpt lat="46.137683428823948" lon="7.250723177567124">
        <ele>1479.6099999999999</ele>
        <time>2012-07-23T08:30:42Z</time>
      </trkpt>
      <trkpt lat="46.138097243383527" lon="7.25110505707562">
        <ele>1474.8</ele>
        <time>2012-07-23T08:30:48Z</time>
      </trkpt>
      <trkpt lat="46.138232862576842" lon="7.251158701255918">
        <ele>1472.8800000000001</ele>
        <time>2012-07-23T08:30:50Z</time>
      </trkpt>
      <trkpt lat="46.138340570032597" lon="7.251192647963762">
        <ele>1470.95</ele>
        <time>2012-07-23T08:30:52Z</time>
      </trkpt>
      <trkpt lat="46.138393543660641" lon="7.251215111464262">
        <ele>1469.99</ele>
        <time>2012-07-23T08:30:53Z</time>
      </trkpt>
      <trkpt lat="46.138445762917399" lon="7.251233635470271">
        <ele>1469.03</ele>
        <time>2012-07-23T08:30:54Z</time>
      </trkpt>
      <trkpt lat="46.138500245288014" lon="7.251246040686965">
        <ele>1468.0699999999999</ele>
        <time>2012-07-23T08:30:55Z</time>
      </trkpt>
      <trkpt lat="46.138559337705374" lon="7.251260709017515">
        <ele>1467.1099999999999</ele>
        <time>2012-07-23T08:30:56Z</time>
      </trkpt>
      <trkpt lat="46.138625303283334" lon="7.251284932717681">
        <ele>1466.1500000000001</ele>
        <time>2012-07-23T08:30:57Z</time>
      </trkpt>
      <trkpt lat="46.138694202527404" lon="7.251323573291302">
        <ele>1465.1900000000001</ele>
        <time>2012-07-23T08:30:58Z</time>
      </trkpt>
      <trkpt lat="46.138766454532743" lon="7.251368332654238">
        <ele>1464.23</ele>
        <time>2012-07-23T08:30:59Z</time>
      </trkpt>
      <trkpt lat="46.138843819499016" lon="7.251403452828527">
        <ele>1463.26</ele>
        <time>2012-07-23T08:31:00Z</time>
      </trkpt>
      <trkpt lat="46.138927470892668" lon="7.251419546082616">
        <ele>1462.3</ele>
        <time>2012-07-23T08:31:01Z</time>
      </trkpt>
      <trkpt lat="46.139015145599842" lon="7.251417450606823">
        <ele>1461.8199999999999</ele>
        <time>2012-07-23T08:31:02Z</time>
      </trkpt>
      <trkpt lat="46.139095611870289" lon="7.251409068703651">
        <ele>1461.3399999999999</ele>
        <time>2012-07-23T08:31:03Z</time>
      </trkpt>
      <trkpt lat="46.139254700392485" lon="7.251406889408827">
        <ele>1460.3800000000001</ele>
        <time>2012-07-23T08:31:05Z</time>
      </trkpt>
      <trkpt lat="46.13984378054738" lon="7.251534964889288">
        <ele>1455.5699999999999</ele>
        <time>2012-07-23T08:31:12Z</time>
      </trkpt>
      <trkpt lat="46.139919552952051" lon="7.251573773100972">
        <ele>1455.0899999999999</ele>
        <time>2012-07-23T08:31:13Z</time>
      </trkpt>
      <trkpt lat="46.14020730368793" lon="7.251743422821164">
        <ele>1451.73</ele>
        <time>2012-07-23T08:31:17Z</time>
      </trkpt>
      <trkpt lat="46.140285842120647" lon="7.251748451963067">
        <ele>1450.77</ele>
        <time>2012-07-23T08:31:18Z</time>
      </trkpt>
      <trkpt lat="46.140369074419141" lon="7.251736633479595">
        <ele>1450.29</ele>
        <time>2012-07-23T08:31:19Z</time>
      </trkpt>
      <trkpt lat="46.140457922592759" lon="7.251728419214487">
        <ele>1449.8099999999999</ele>
        <time>2012-07-23T08:31:20Z</time>
      </trkpt>
      <trkpt lat="46.140550374984741" lon="7.251726323738694">
        <ele>1449.3199999999999</ele>
        <time>2012-07-23T08:31:21Z</time>
      </trkpt>
      <trkpt lat="46.140643330290914" lon="7.251705871894956">
        <ele>1448.8399999999999</ele>
        <time>2012-07-23T08:31:22Z</time>
      </trkpt>
      <trkpt lat="46.140730334445834" lon="7.251677792519331">
        <ele>1447.8800000000001</ele>
        <time>2012-07-23T08:31:23Z</time>
      </trkpt>
      <trkpt lat="46.140885818749666" lon="7.251650132238865">
        <ele>1446.9200000000001</ele>
        <time>2012-07-23T08:31:25Z</time>
      </trkpt>
      <trkpt lat="46.141122691333294" lon="7.251660609617829">
        <ele>1444.52</ele>
        <time>2012-07-23T08:31:28Z</time>
      </trkpt>
      <trkpt lat="46.141252191737294" lon="7.251697992905974">
        <ele>1442.5999999999999</ele>
        <time>2012-07-23T08:31:30Z</time>
      </trkpt>
      <trkpt lat="46.141312289983034" lon="7.251730347052217">
        <ele>1442.1099999999999</ele>
        <time>2012-07-23T08:31:31Z</time>
      </trkpt>
      <trkpt lat="46.141369370743632" lon="7.251773262396455">
        <ele>1441.1500000000001</ele>
        <time>2012-07-23T08:31:32Z</time>
      </trkpt>
      <trkpt lat="46.141558717936277" lon="7.251919191330671">
        <ele>1439.71</ele>
        <time>2012-07-23T08:31:35Z</time>
      </trkpt>
      <trkpt lat="46.141632227227092" lon="7.251952635124326">
        <ele>1439.23</ele>
        <time>2012-07-23T08:31:36Z</time>
      </trkpt>
      <trkpt lat="46.141711268573999" lon="7.251970740035176">
        <ele>1438.75</ele>
        <time>2012-07-23T08:31:37Z</time>
      </trkpt>
      <trkpt lat="46.141791818663478" lon="7.251977445557714">
        <ele>1438.27</ele>
        <time>2012-07-23T08:31:38Z</time>
      </trkpt>
      <trkpt lat="46.141874212771654" lon="7.251972416415811">
        <ele>1437.79</ele>
        <time>2012-07-23T08:31:39Z</time>
      </trkpt>
      <trkpt lat="46.141959624364972" lon="7.251956993713975">
        <ele>1437.3099999999999</ele>
        <time>2012-07-23T08:31:40Z</time>
      </trkpt>
      <trkpt lat="46.142036989331245" lon="7.251927992329001">
        <ele>1436.8299999999999</ele>
        <time>2012-07-23T08:31:41Z</time>
      </trkpt>
      <trkpt lat="46.142103457823396" lon="7.251879880204797">
        <ele>1436.3499999999999</ele>
        <time>2012-07-23T08:31:42Z</time>
      </trkpt>
      <trkpt lat="46.142165148630738" lon="7.251827493309975">
        <ele>1436.3499999999999</ele>
        <time>2012-07-23T08:31:43Z</time>
      </trkpt>
      <trkpt lat="46.142355585470796" lon="7.251703022047877">
        <ele>1435.3900000000001</ele>
        <time>2012-07-23T08:31:46Z</time>
      </trkpt>
      <trkpt lat="46.142427502200007" lon="7.251681899651885">
        <ele>1434.9100000000001</ele>
        <time>2012-07-23T08:31:47Z</time>
      </trkpt>
      <trkpt lat="46.142499838024378" lon="7.25167234428227">
        <ele>1433.9400000000001</ele>
        <time>2012-07-23T08:31:48Z</time>
      </trkpt>
      <trkpt lat="46.142565216869116" lon="7.251663459464908">
        <ele>1433.46</ele>
        <time>2012-07-23T08:31:49Z</time>
      </trkpt>
      <trkpt lat="46.14262355491519" lon="7.251650802791119">
        <ele>1432.98</ele>
        <time>2012-07-23T08:31:50Z</time>
      </trkpt>
      <trkpt lat="46.14267929457128" lon="7.251648372039199">
        <ele>1432.5</ele>
        <time>2012-07-23T08:31:51Z</time>
      </trkpt>
      <trkpt lat="46.142734615132213" lon="7.251662453636527">
        <ele>1432.02</ele>
        <time>2012-07-23T08:31:52Z</time>
      </trkpt>
      <trkpt lat="46.14278968423605" lon="7.251697154715657">
        <ele>1431.0599999999999</ele>
        <time>2012-07-23T08:31:53Z</time>
      </trkpt>
      <trkpt lat="46.142846094444394" lon="7.251748032867909">
        <ele>1430.5799999999999</ele>
        <time>2012-07-23T08:31:54Z</time>
      </trkpt>
      <trkpt lat="46.142966374754906" lon="7.251839227974415">
        <ele>1429.6199999999999</ele>
        <time>2012-07-23T08:31:56Z</time>
      </trkpt>
      <trkpt lat="46.143031753599644" lon="7.251861523836851">
        <ele>1429.1400000000001</ele>
        <time>2012-07-23T08:31:57Z</time>
      </trkpt>
      <trkpt lat="46.143093444406986" lon="7.251858338713646">
        <ele>1429.1400000000001</ele>
        <time>2012-07-23T08:31:58Z</time>
      </trkpt>
      <trkpt lat="46.143154380843043" lon="7.251831600442529">
        <ele>1428.6600000000001</ele>
        <time>2012-07-23T08:31:59Z</time>
      </trkpt>
      <trkpt lat="46.143213137984276" lon="7.251788266003132">
        <ele>1428.6600000000001</ele>
        <time>2012-07-23T08:32:00Z</time>
      </trkpt>
      <trkpt lat="46.143266279250383" lon="7.251741662621498">
        <ele>1428.1800000000001</ele>
        <time>2012-07-23T08:32:01Z</time>
      </trkpt>
      <trkpt lat="46.143359402194619" lon="7.251682821661234">
        <ele>1427.7</ele>
        <time>2012-07-23T08:32:03Z</time>
      </trkpt>
      <trkpt lat="46.143406927585602" lon="7.251677373424172">
        <ele>1427.7</ele>
        <time>2012-07-23T08:32:04Z</time>
      </trkpt>
      <trkpt lat="46.143461158499122" lon="7.251687096431851">
        <ele>1427.7</ele>
        <time>2012-07-23T08:32:05Z</time>
      </trkpt>
      <trkpt lat="46.143522346392274" lon="7.251711739227176">
        <ele>1427.21</ele>
        <time>2012-07-23T08:32:06Z</time>
      </trkpt>
      <trkpt lat="46.143594682216644" lon="7.251745350658894">
        <ele>1426.73</ele>
        <time>2012-07-23T08:32:07Z</time>
      </trkpt>
      <trkpt lat="46.143813449889421" lon="7.251829840242863">
        <ele>1424.8099999999999</ele>
        <time>2012-07-23T08:32:10Z</time>
      </trkpt>
      <trkpt lat="46.144256852567196" lon="7.251956909894943">
        <ele>1422.4100000000001</ele>
        <time>2012-07-23T08:32:16Z</time>
      </trkpt>
      <trkpt lat="46.144392136484385" lon="7.252030586823821">
        <ele>1421.45</ele>
        <time>2012-07-23T08:32:18Z</time>
      </trkpt>
      <trkpt lat="46.144535131752491" lon="7.252086661756039">
        <ele>1420</ele>
        <time>2012-07-23T08:32:20Z</time>
      </trkpt>
      <trkpt lat="46.144606210291386" lon="7.25212823599577">
        <ele>1419.04</ele>
        <time>2012-07-23T08:32:21Z</time>
      </trkpt>
      <trkpt lat="46.144758928567171" lon="7.252250192686915">
        <ele>1417.5999999999999</ele>
        <time>2012-07-23T08:32:23Z</time>
      </trkpt>
      <trkpt lat="46.144829504191875" lon="7.25233786739409">
        <ele>1417.1199999999999</ele>
        <time>2012-07-23T08:32:24Z</time>
      </trkpt>
      <trkpt lat="46.145087582990527" lon="7.252691332250834">
        <ele>1416.1600000000001</ele>
        <time>2012-07-23T08:32:28Z</time>
      </trkpt>
      <trkpt lat="46.145162852481008" lon="7.252754364162684">
        <ele>1415.6800000000001</ele>
        <time>2012-07-23T08:32:29Z</time>
      </trkpt>
      <trkpt lat="46.145245749503374" lon="7.252797950059176">
        <ele>1415.6800000000001</ele>
        <time>2012-07-23T08:32:30Z</time>
      </trkpt>
      <trkpt lat="46.145328311249614" lon="7.252836087718606">
        <ele>1415.2</ele>
        <time>2012-07-23T08:32:31Z</time>
      </trkpt>
      <trkpt lat="46.145408861339092" lon="7.252873387187719">
        <ele>1415.2</ele>
        <time>2012-07-23T08:32:32Z</time>
      </trkpt>
      <trkpt lat="46.145491255447268" lon="7.252894593402743">
        <ele>1414.72</ele>
        <time>2012-07-23T08:32:33Z</time>
      </trkpt>
      <trkpt lat="46.145567614585161" lon="7.252885038033128">
        <ele>1414.72</ele>
        <time>2012-07-23T08:32:34Z</time>
      </trkpt>
      <trkpt lat="46.145630059763789" lon="7.252846229821444">
        <ele>1415.2</ele>
        <time>2012-07-23T08:32:35Z</time>
      </trkpt>
      <trkpt lat="46.145684625953436" lon="7.252791244536638">
        <ele>1414.72</ele>
        <time>2012-07-23T08:32:36Z</time>
      </trkpt>
      <trkpt lat="46.145738186314702" lon="7.252733409404755">
        <ele>1414.72</ele>
        <time>2012-07-23T08:32:37Z</time>
      </trkpt>
      <trkpt lat="46.145791411399841" lon="7.252692338079214">
        <ele>1414.72</ele>
        <time>2012-07-23T08:32:38Z</time>
      </trkpt>
      <trkpt lat="46.145844468846917" lon="7.252680771052837">
        <ele>1414.24</ele>
        <time>2012-07-23T08:32:39Z</time>
      </trkpt>
      <trkpt lat="46.145895514637232" lon="7.252696612849832">
        <ele>1414.24</ele>
        <time>2012-07-23T08:32:40Z</time>
      </trkpt>
      <trkpt lat="46.14594480022788" lon="7.252728883177042">
        <ele>1414.24</ele>
        <time>2012-07-23T08:32:41Z</time>
      </trkpt>
      <trkpt lat="46.146004311740398" lon="7.252759141847491">
        <ele>1413.76</ele>
        <time>2012-07-23T08:32:42Z</time>
      </trkpt>
      <trkpt lat="46.146076647564769" lon="7.252771463245153">
        <ele>1413.28</ele>
        <time>2012-07-23T08:32:43Z</time>
      </trkpt>
      <trkpt lat="46.14615392871201" lon="7.25277179852128">
        <ele>1412.79</ele>
        <time>2012-07-23T08:32:44Z</time>
      </trkpt>
      <trkpt lat="46.146225677803159" lon="7.25275713019073">
        <ele>1411.8299999999999</ele>
        <time>2012-07-23T08:32:45Z</time>
      </trkpt>
      <trkpt lat="46.146291811019182" lon="7.252735001966357">
        <ele>1411.3499999999999</ele>
        <time>2012-07-23T08:32:46Z</time>
      </trkpt>
      <trkpt lat="46.146481828764081" lon="7.252649255096912">
        <ele>1408.47</ele>
        <time>2012-07-23T08:32:50Z</time>
      </trkpt>
      <trkpt lat="46.146524744108319" lon="7.25261002779007">
        <ele>1408.47</ele>
        <time>2012-07-23T08:32:51Z</time>
      </trkpt>
      <trkpt lat="46.146569335833192" lon="7.252571722492576">
        <ele>1407.99</ele>
        <time>2012-07-23T08:32:52Z</time>
      </trkpt>
      <trkpt lat="46.146620800718665" lon="7.252543475478888">
        <ele>1407.51</ele>
        <time>2012-07-23T08:32:53Z</time>
      </trkpt>
      <trkpt lat="46.146679222583771" lon="7.252528136596084">
        <ele>1407.03</ele>
        <time>2012-07-23T08:32:54Z</time>
      </trkpt>
      <trkpt lat="46.146743847057223" lon="7.252526041120291">
        <ele>1406.55</ele>
        <time>2012-07-23T08:32:55Z</time>
      </trkpt>
      <trkpt lat="46.146811069920659" lon="7.252538865432143">
        <ele>1405.5799999999999</ele>
        <time>2012-07-23T08:32:56Z</time>
      </trkpt>
      <trkpt lat="46.146874269470572" lon="7.252566358074546">
        <ele>1404.6199999999999</ele>
        <time>2012-07-23T08:32:57Z</time>
      </trkpt>
      <trkpt lat="46.146927159279585" lon="7.252609776332974">
        <ele>1404.1400000000001</ele>
        <time>2012-07-23T08:32:58Z</time>
      </trkpt>
      <trkpt lat="46.146976612508297" lon="7.252659732475877">
        <ele>1403.1800000000001</ele>
        <time>2012-07-23T08:32:59Z</time>
      </trkpt>
      <trkpt lat="46.147020785138011" lon="7.252715639770031">
        <ele>1402.22</ele>
        <time>2012-07-23T08:33:00Z</time>
      </trkpt>
      <trkpt lat="46.147053809836507" lon="7.252788143232465">
        <ele>1401.74</ele>
        <time>2012-07-23T08:33:01Z</time>
      </trkpt>
      <trkpt lat="46.147073172032833" lon="7.252876153215766">
        <ele>1400.78</ele>
        <time>2012-07-23T08:33:02Z</time>
      </trkpt>
      <trkpt lat="46.147075099870563" lon="7.252973802387714">
        <ele>1399.3399999999999</ele>
        <time>2012-07-23T08:33:03Z</time>
      </trkpt>
      <trkpt lat="46.147065544500947" lon="7.253076732158661">
        <ele>1398.3699999999999</ele>
        <time>2012-07-23T08:33:04Z</time>
      </trkpt>
      <trkpt lat="46.147049367427826" lon="7.253182176500559">
        <ele>1397.4100000000001</ele>
        <time>2012-07-23T08:33:05Z</time>
      </trkpt>
      <trkpt lat="46.147032100707293" lon="7.253282256424427">
        <ele>1396.9300000000001</ele>
        <time>2012-07-23T08:33:06Z</time>
      </trkpt>
      <trkpt lat="46.147023299708962" lon="7.253382839262486">
        <ele>1395.49</ele>
        <time>2012-07-23T08:33:07Z</time>
      </trkpt>
      <trkpt lat="46.147022629156709" lon="7.25349155254662">
        <ele>1394.53</ele>
        <time>2012-07-23T08:33:08Z</time>
      </trkpt>
      <trkpt lat="46.147029167041183" lon="7.253601858392358">
        <ele>1393.0899999999999</ele>
        <time>2012-07-23T08:33:09Z</time>
      </trkpt>
      <trkpt lat="46.14704224281013" lon="7.253707470372319">
        <ele>1392.1300000000001</ele>
        <time>2012-07-23T08:33:10Z</time>
      </trkpt>
      <trkpt lat="46.147058168426156" lon="7.253809729591012">
        <ele>1390.6800000000001</ele>
        <time>2012-07-23T08:33:11Z</time>
      </trkpt>
      <trkpt lat="46.147177778184414" lon="7.254632329568267">
        <ele>1379.1500000000001</ele>
        <time>2012-07-23T08:33:19Z</time>
      </trkpt>
      <trkpt lat="46.147201415151358" lon="7.254721680656076">
        <ele>1377.71</ele>
        <time>2012-07-23T08:33:20Z</time>
      </trkpt>
      <trkpt lat="46.147308703511953" lon="7.255069278180599">
        <ele>1372.4200000000001</ele>
        <time>2012-07-23T08:33:24Z</time>
      </trkpt>
      <trkpt lat="46.147313229739666" lon="7.255152761936188">
        <ele>1371.46</ele>
        <time>2012-07-23T08:33:25Z</time>
      </trkpt>
      <trkpt lat="46.147302417084575" lon="7.255240520462394">
        <ele>1370.02</ele>
        <time>2012-07-23T08:33:26Z</time>
      </trkpt>
      <trkpt lat="46.147229494526982" lon="7.255762964487076">
        <ele>1360.8800000000001</ele>
        <time>2012-07-23T08:33:31Z</time>
      </trkpt>
      <trkpt lat="46.147237122058868" lon="7.25585944019258">
        <ele>1359.4400000000001</ele>
        <time>2012-07-23T08:33:32Z</time>
      </trkpt>
      <trkpt lat="46.147267883643508" lon="7.256028838455677">
        <ele>1357.04</ele>
        <time>2012-07-23T08:33:34Z</time>
      </trkpt>
      <trkpt lat="46.147292945533991" lon="7.2561105620116">
        <ele>1355.5999999999999</ele>
        <time>2012-07-23T08:33:35Z</time>
      </trkpt>
      <trkpt lat="46.147435437887907" lon="7.256700731813908">
        <ele>1347.9100000000001</ele>
        <time>2012-07-23T08:33:41Z</time>
      </trkpt>
      <trkpt lat="46.147440299391747" lon="7.256780443713069">
        <ele>1346.46</ele>
        <time>2012-07-23T08:33:42Z</time>
      </trkpt>
      <trkpt lat="46.147435940802097" lon="7.256860323250294">
        <ele>1344.54</ele>
        <time>2012-07-23T08:33:43Z</time>
      </trkpt>
      <trkpt lat="46.147421943023801" lon="7.256945064291358">
        <ele>1343.0999999999999</ele>
        <time>2012-07-23T08:33:44Z</time>
      </trkpt>
      <trkpt lat="46.147402077913284" lon="7.257029470056295">
        <ele>1341.1800000000001</ele>
        <time>2012-07-23T08:33:45Z</time>
      </trkpt>
      <trkpt lat="46.147374166175723" lon="7.257114378735423">
        <ele>1339.25</ele>
        <time>2012-07-23T08:33:46Z</time>
      </trkpt>
      <trkpt lat="46.147348936647177" lon="7.257200460880995">
        <ele>1337.8099999999999</ele>
        <time>2012-07-23T08:33:47Z</time>
      </trkpt>
      <trkpt lat="46.147342063486576" lon="7.257284699007869">
        <ele>1335.8900000000001</ele>
        <time>2012-07-23T08:33:48Z</time>
      </trkpt>
      <trkpt lat="46.147354384884238" lon="7.257372541353107">
        <ele>1334.45</ele>
        <time>2012-07-23T08:33:49Z</time>
      </trkpt>
      <trkpt lat="46.147383637726307" lon="7.257469352334738">
        <ele>1333.01</ele>
        <time>2012-07-23T08:33:50Z</time>
      </trkpt>
      <trkpt lat="46.147414986044168" lon="7.25757110863924">
        <ele>1332.04</ele>
        <time>2012-07-23T08:33:51Z</time>
      </trkpt>
      <trkpt lat="46.147431498393416" lon="7.257672362029553">
        <ele>1330.5999999999999</ele>
        <time>2012-07-23T08:33:52Z</time>
      </trkpt>
      <trkpt lat="46.147441221401095" lon="7.257780740037561">
        <ele>1329.1600000000001</ele>
        <time>2012-07-23T08:33:53Z</time>
      </trkpt>
      <trkpt lat="46.147480364888906" lon="7.258079890161753">
        <ele>1325.3099999999999</ele>
        <time>2012-07-23T08:33:56Z</time>
      </trkpt>
      <trkpt lat="46.147505426779389" lon="7.258160943165422">
        <ele>1324.3499999999999</ele>
        <time>2012-07-23T08:33:57Z</time>
      </trkpt>
      <trkpt lat="46.147534260526299" lon="7.258247109130025">
        <ele>1323.3900000000001</ele>
        <time>2012-07-23T08:33:58Z</time>
      </trkpt>
      <trkpt lat="46.147563429549336" lon="7.258348194882274">
        <ele>1322.4300000000001</ele>
        <time>2012-07-23T08:33:59Z</time>
      </trkpt>
      <trkpt lat="46.147597711533308" lon="7.258449532091618">
        <ele>1321.95</ele>
        <time>2012-07-23T08:34:00Z</time>
      </trkpt>
      <trkpt lat="46.147636184468865" lon="7.258539889007807">
        <ele>1321.47</ele>
        <time>2012-07-23T08:34:01Z</time>
      </trkpt>
      <trkpt lat="46.147676333785057" lon="7.258622199296951">
        <ele>1320.99</ele>
        <time>2012-07-23T08:34:02Z</time>
      </trkpt>
      <trkpt lat="46.147790746763349" lon="7.258884469047189">
        <ele>1318.5899999999999</ele>
        <time>2012-07-23T08:34:05Z</time>
      </trkpt>
      <trkpt lat="46.147949667647481" lon="7.259444547817111">
        <ele>1313.3</ele>
        <time>2012-07-23T08:34:12Z</time>
      </trkpt>
      <trkpt lat="46.147959055379033" lon="7.259521493688226">
        <ele>1312.8199999999999</ele>
        <time>2012-07-23T08:34:13Z</time>
      </trkpt>
      <trkpt lat="46.147961737588048" lon="7.259605312719941">
        <ele>1311.8599999999999</ele>
        <time>2012-07-23T08:34:14Z</time>
      </trkpt>
      <trkpt lat="46.147960061207414" lon="7.25978753529489">
        <ele>1310.4100000000001</ele>
        <time>2012-07-23T08:34:16Z</time>
      </trkpt>
      <trkpt lat="46.147958384826779" lon="7.259877221658826">
        <ele>1309.45</ele>
        <time>2012-07-23T08:34:17Z</time>
      </trkpt>
      <trkpt lat="46.147999204695225" lon="7.260330514982343">
        <ele>1304.1700000000001</ele>
        <time>2012-07-23T08:34:23Z</time>
      </trkpt>
      <trkpt lat="46.148001300171018" lon="7.260406455025077">
        <ele>1302.72</ele>
        <time>2012-07-23T08:34:24Z</time>
      </trkpt>
      <trkpt lat="46.147996857762337" lon="7.260488513857126">
        <ele>1302.24</ele>
        <time>2012-07-23T08:34:25Z</time>
      </trkpt>
      <trkpt lat="46.147986045107245" lon="7.2605693154037">
        <ele>1301.28</ele>
        <time>2012-07-23T08:34:26Z</time>
      </trkpt>
      <trkpt lat="46.147969868034124" lon="7.260645339265466">
        <ele>1300.3199999999999</ele>
        <time>2012-07-23T08:34:27Z</time>
      </trkpt>
      <trkpt lat="46.147949248552322" lon="7.260719183832407">
        <ele>1299.3599999999999</ele>
        <time>2012-07-23T08:34:28Z</time>
      </trkpt>
      <trkpt lat="46.147922677919269" lon="7.260793782770634">
        <ele>1298.8800000000001</ele>
        <time>2012-07-23T08:34:29Z</time>
      </trkpt>
      <trkpt lat="46.147886216640472" lon="7.260867124423385">
        <ele>1298.4000000000001</ele>
        <time>2012-07-23T08:34:30Z</time>
      </trkpt>
      <trkpt lat="46.147844642400742" lon="7.260936442762613">
        <ele>1298.4000000000001</ele>
        <time>2012-07-23T08:34:31Z</time>
      </trkpt>
      <trkpt lat="46.147657139226794" lon="7.261225115507841">
        <ele>1296.96</ele>
        <time>2012-07-23T08:34:35Z</time>
      </trkpt>
      <trkpt lat="46.147613469511271" lon="7.261307593435049">
        <ele>1296.96</ele>
        <time>2012-07-23T08:34:36Z</time>
      </trkpt>
      <trkpt lat="46.147575080394745" lon="7.261399207636714">
        <ele>1296.48</ele>
        <time>2012-07-23T08:34:37Z</time>
      </trkpt>
      <trkpt lat="46.147544234991074" lon="7.261490738019347">
        <ele>1295.51</ele>
        <time>2012-07-23T08:34:38Z</time>
      </trkpt>
      <trkpt lat="46.147517915815115" lon="7.261573802679777">
        <ele>1295.03</ele>
        <time>2012-07-23T08:34:39Z</time>
      </trkpt>
      <trkpt lat="46.147421691566706" lon="7.261880747973919">
        <ele>1290.71</ele>
        <time>2012-07-23T08:34:43Z</time>
      </trkpt>
      <trkpt lat="46.1473891697824" lon="7.26195216178894">
        <ele>1289.75</ele>
        <time>2012-07-23T08:34:44Z</time>
      </trkpt>
      <trkpt lat="46.14735396578908" lon="7.262013014405966">
        <ele>1289.27</ele>
        <time>2012-07-23T08:34:45Z</time>
      </trkpt>
      <trkpt lat="46.147318342700601" lon="7.262065568938851">
        <ele>1288.3</ele>
        <time>2012-07-23T08:34:46Z</time>
      </trkpt>
      <trkpt lat="46.147281965240836" lon="7.262112004682422">
        <ele>1287.3399999999999</ele>
        <time>2012-07-23T08:34:47Z</time>
      </trkpt>
      <trkpt lat="46.147242318838835" lon="7.262159697711468">
        <ele>1286.8599999999999</ele>
        <time>2012-07-23T08:34:48Z</time>
      </trkpt>
      <trkpt lat="46.147086415439844" lon="7.262309482321143">
        <ele>1284.46</ele>
        <time>2012-07-23T08:34:51Z</time>
      </trkpt>
      <trkpt lat="46.147021288052201" lon="7.262355498969555">
        <ele>1283.5</ele>
        <time>2012-07-23T08:34:52Z</time>
      </trkpt>
      <trkpt lat="46.146952221170068" lon="7.262388858944178">
        <ele>1282.54</ele>
        <time>2012-07-23T08:34:53Z</time>
      </trkpt>
      <trkpt lat="46.14688441157341" lon="7.262407215312123">
        <ele>1281.5699999999999</ele>
        <time>2012-07-23T08:34:54Z</time>
      </trkpt>
      <trkpt lat="46.146825570613146" lon="7.262414926663041">
        <ele>1281.0899999999999</ele>
        <time>2012-07-23T08:34:55Z</time>
      </trkpt>
      <trkpt lat="46.14664108492434" lon="7.262510396540165">
        <ele>1281.5699999999999</ele>
        <time>2012-07-23T08:35:03Z</time>
      </trkpt>
      <trkpt lat="46.146464394405484" lon="7.262679794803262">
        <ele>1288.3</ele>
        <time>2012-07-23T08:35:17Z</time>
      </trkpt>
      <trkpt lat="46.146285608410835" lon="7.262863526120782">
        <ele>1302.72</ele>
        <time>2012-07-23T08:35:32Z</time>
      </trkpt>
      <trkpt lat="46.146164573729038" lon="7.262978106737137">
        <ele>1313.78</ele>
        <time>2012-07-23T08:35:46Z</time>
      </trkpt>
      <trkpt lat="46.146111348643899" lon="7.263073492795229">
        <ele>1317.6199999999999</ele>
        <time>2012-07-23T08:36:00Z</time>
      </trkpt>
      <trkpt lat="46.145902136340737" lon="7.263433830812573">
        <ele>1320.99</ele>
        <time>2012-07-23T08:36:18Z</time>
      </trkpt>
      <trkpt lat="46.145803313702345" lon="7.263669613748789">
        <ele>1324.8299999999999</ele>
        <time>2012-07-23T08:36:32Z</time>
      </trkpt>
      <trkpt lat="46.145813623443246" lon="7.263673972338438">
        <ele>1325.3099999999999</ele>
        <time>2012-07-23T08:36:48Z</time>
      </trkpt>
      <trkpt lat="46.145832818001509" lon="7.263690903782845">
        <ele>1328.6800000000001</ele>
        <time>2012-07-23T08:37:12Z</time>
      </trkpt>
      <trkpt lat="46.145853856578469" lon="7.263703141361475">
        <ele>1331.0799999999999</ele>
        <time>2012-07-23T08:37:35Z</time>
      </trkpt>
      <trkpt lat="46.145869195461273" lon="7.26369216106832">
        <ele>1328.6800000000001</ele>
        <time>2012-07-23T08:37:55Z</time>
      </trkpt>
      <trkpt lat="46.145840948447585" lon="7.263712780550122">
        <ele>1329.1600000000001</ele>
        <time>2012-07-23T08:38:01Z</time>
      </trkpt>
      <trkpt lat="46.145617654547095" lon="7.263782350346446">
        <ele>1333.97</ele>
        <time>2012-07-23T08:38:14Z</time>
      </trkpt>
      <trkpt lat="46.145373154431581" lon="7.263972200453281">
        <ele>1338.29</ele>
        <time>2012-07-23T08:38:28Z</time>
      </trkpt>
      <trkpt lat="46.145140640437603" lon="7.264338070526719">
        <ele>1336.8499999999999</ele>
        <time>2012-07-23T08:38:45Z</time>
      </trkpt>
      <trkpt lat="46.144993035122752" lon="7.26473730057478">
        <ele>1342.6199999999999</ele>
        <time>2012-07-23T08:39:01Z</time>
      </trkpt>
      <trkpt lat="46.144993873313069" lon="7.265166621655226">
        <ele>1346.46</ele>
        <time>2012-07-23T08:39:18Z</time>
      </trkpt>
      <trkpt lat="46.144986916333437" lon="7.265393603593111">
        <ele>1347.9100000000001</ele>
        <time>2012-07-23T08:39:27Z</time>
      </trkpt>
      <trkpt lat="46.145091354846954" lon="7.265528300777078">
        <ele>1348.8699999999999</ele>
        <time>2012-07-23T08:39:33Z</time>
      </trkpt>
      <trkpt lat="46.145451357588172" lon="7.265819488093257">
        <ele>1350.79</ele>
        <time>2012-07-23T08:39:47Z</time>
      </trkpt>
      <trkpt lat="46.145571051165462" lon="7.265770202502608">
        <ele>1350.79</ele>
        <time>2012-07-23T08:39:50Z</time>
      </trkpt>
      <trkpt lat="46.145725781098008" lon="7.265429059043527">
        <ele>1350.3099999999999</ele>
        <time>2012-07-23T08:39:55Z</time>
      </trkpt>
      <trkpt lat="46.145752519369125" lon="7.26523719727993">
        <ele>1349.3499999999999</ele>
        <time>2012-07-23T08:39:57Z</time>
      </trkpt>
      <trkpt lat="46.145867854356766" lon="7.264859843999147">
        <ele>1344.0599999999999</ele>
        <time>2012-07-23T08:40:03Z</time>
      </trkpt>
      <trkpt lat="46.14590959623456" lon="7.264826148748398">
        <ele>1343.5799999999999</ele>
        <time>2012-07-23T08:40:04Z</time>
      </trkpt>
      <trkpt lat="46.14601319655776" lon="7.264760937541723">
        <ele>1344.54</ele>
        <time>2012-07-23T08:40:07Z</time>
      </trkpt>
      <trkpt lat="46.146028535440564" lon="7.264734618365765">
        <ele>1345.02</ele>
        <time>2012-07-23T08:40:08Z</time>
      </trkpt>
      <trkpt lat="46.146042617037892" lon="7.264706203714013">
        <ele>1345.5</ele>
        <time>2012-07-23T08:40:09Z</time>
      </trkpt>
      <trkpt lat="46.146057369187474" lon="7.264679381623864">
        <ele>1345.98</ele>
        <time>2012-07-23T08:40:10Z</time>
      </trkpt>
      <trkpt lat="46.146072875708342" lon="7.264655828475952">
        <ele>1346.46</ele>
        <time>2012-07-23T08:40:11Z</time>
      </trkpt>
      <trkpt lat="46.146294744685292" lon="7.26439917460084">
        <ele>1354.1500000000001</ele>
        <time>2012-07-23T08:40:25Z</time>
      </trkpt>
      <trkpt lat="46.146432710811496" lon="7.264321139082313">
        <ele>1358.96</ele>
        <time>2012-07-23T08:40:37Z</time>
      </trkpt>
      <trkpt lat="46.14646565169096" lon="7.26432834751904">
        <ele>1360.4000000000001</ele>
        <time>2012-07-23T08:40:40Z</time>
      </trkpt>
      <trkpt lat="46.146469758823514" lon="7.264342261478305">
        <ele>1360.4000000000001</ele>
        <time>2012-07-23T08:40:41Z</time>
      </trkpt>
      <trkpt lat="46.146468752995133" lon="7.264359528198838">
        <ele>1360.8800000000001</ele>
        <time>2012-07-23T08:40:42Z</time>
      </trkpt>
      <trkpt lat="46.146459449082613" lon="7.264376878738403">
        <ele>1360.8800000000001</ele>
        <time>2012-07-23T08:40:43Z</time>
      </trkpt>
      <trkpt lat="46.146448636427522" lon="7.26439674384892">
        <ele>1360.4000000000001</ele>
        <time>2012-07-23T08:40:44Z</time>
      </trkpt>
      <trkpt lat="46.14644075743854" lon="7.26441434584558">
        <ele>1360.4000000000001</ele>
        <time>2012-07-23T08:40:45Z</time>
      </trkpt>
      <trkpt lat="46.146431369706988" lon="7.264428427442908">
        <ele>1360.4000000000001</ele>
        <time>2012-07-23T08:40:46Z</time>
      </trkpt>
      <trkpt lat="46.146421981975436" lon="7.264439826831222">
        <ele>1360.4000000000001</ele>
        <time>2012-07-23T08:40:47Z</time>
      </trkpt>
      <trkpt lat="46.146243950352073" lon="7.264529010280967">
        <ele>1363.29</ele>
        <time>2012-07-23T08:40:58Z</time>
      </trkpt>
      <trkpt lat="46.146194748580456" lon="7.26464694365859">
        <ele>1362.3299999999999</ele>
        <time>2012-07-23T08:41:04Z</time>
      </trkpt>
      <trkpt lat="46.146263899281621" lon="7.264697151258588">
        <ele>1361.8399999999999</ele>
        <time>2012-07-23T08:41:08Z</time>
      </trkpt>
      <trkpt lat="46.146433213725686" lon="7.264649961143732">
        <ele>1366.1700000000001</ele>
        <time>2012-07-23T08:41:19Z</time>
      </trkpt>
      <trkpt lat="46.146606802940369" lon="7.264547618106008">
        <ele>1373.3800000000001</ele>
        <time>2012-07-23T08:41:32Z</time>
      </trkpt>
      <trkpt lat="46.146673858165741" lon="7.264512581750751">
        <ele>1377.23</ele>
        <time>2012-07-23T08:41:37Z</time>
      </trkpt>
      <trkpt lat="46.146686431020498" lon="7.264524484053254">
        <ele>1377.71</ele>
        <time>2012-07-23T08:41:38Z</time>
      </trkpt>
      <trkpt lat="46.146693555638194" lon="7.264542253687978">
        <ele>1377.71</ele>
        <time>2012-07-23T08:41:39Z</time>
      </trkpt>
      <trkpt lat="46.146685844287276" lon="7.264581313356757">
        <ele>1377.23</ele>
        <time>2012-07-23T08:41:41Z</time>
      </trkpt>
      <trkpt lat="46.146676121279597" lon="7.264598244801164">
        <ele>1377.23</ele>
        <time>2012-07-23T08:41:42Z</time>
      </trkpt>
      <trkpt lat="46.146671008318663" lon="7.264618529006839">
        <ele>1377.23</ele>
        <time>2012-07-23T08:41:43Z</time>
      </trkpt>
      <trkpt lat="46.146662039682269" lon="7.264634454622865">
        <ele>1377.23</ele>
        <time>2012-07-23T08:41:44Z</time>
      </trkpt>
      <trkpt lat="46.146652484312654" lon="7.264647698029876">
        <ele>1377.23</ele>
        <time>2012-07-23T08:41:45Z</time>
      </trkpt>
      <trkpt lat="46.146501777693629" lon="7.264901334419847">
        <ele>1373.3800000000001</ele>
        <time>2012-07-23T08:42:00Z</time>
      </trkpt>
      <trkpt lat="46.14631712436676" lon="7.26513996720314">
        <ele>1370.02</ele>
        <time>2012-07-23T08:42:14Z</time>
      </trkpt>
      <trkpt lat="46.146156527101994" lon="7.265379521995783">
        <ele>1368.5699999999999</ele>
        <time>2012-07-23T08:42:28Z</time>
      </trkpt>
      <trkpt lat="46.146144708618522" lon="7.265395196154714">
        <ele>1368.5699999999999</ele>
        <time>2012-07-23T08:42:29Z</time>
      </trkpt>
      <trkpt lat="46.146133560687304" lon="7.265413301065564">
        <ele>1368.5699999999999</ele>
        <time>2012-07-23T08:42:30Z</time>
      </trkpt>
      <trkpt lat="46.146126771345735" lon="7.265434674918652">
        <ele>1369.05</ele>
        <time>2012-07-23T08:42:31Z</time>
      </trkpt>
      <trkpt lat="46.146119479089975" lon="7.265457138419151">
        <ele>1369.54</ele>
        <time>2012-07-23T08:42:32Z</time>
      </trkpt>
      <trkpt lat="46.146111767739058" lon="7.265475410968065">
        <ele>1370.02</ele>
        <time>2012-07-23T08:42:33Z</time>
      </trkpt>
      <trkpt lat="46.146105229854584" lon="7.265493599697948">
        <ele>1370.5</ele>
        <time>2012-07-23T08:42:34Z</time>
      </trkpt>
      <trkpt lat="46.146101290360093" lon="7.265512458980084">
        <ele>1370.98</ele>
        <time>2012-07-23T08:42:35Z</time>
      </trkpt>
      <trkpt lat="46.14610112272203" lon="7.265542550012469">
        <ele>1371.46</ele>
        <time>2012-07-23T08:42:37Z</time>
      </trkpt>
      <trkpt lat="46.146110342815518" lon="7.26555721834302">
        <ele>1371.9400000000001</ele>
        <time>2012-07-23T08:42:38Z</time>
      </trkpt>
      <trkpt lat="46.146123167127371" lon="7.265569288283587">
        <ele>1371.9400000000001</ele>
        <time>2012-07-23T08:42:39Z</time>
      </trkpt>
      <trkpt lat="46.14613976329565" lon="7.265575909987092">
        <ele>1372.4200000000001</ele>
        <time>2012-07-23T08:42:40Z</time>
      </trkpt>
      <trkpt lat="46.146154850721359" lon="7.265571383759379">
        <ele>1372.9000000000001</ele>
        <time>2012-07-23T08:42:41Z</time>
      </trkpt>
      <trkpt lat="46.146167675033212" lon="7.265558810904622">
        <ele>1373.3800000000001</ele>
        <time>2012-07-23T08:42:42Z</time>
      </trkpt>
      <trkpt lat="46.14618175663054" lon="7.265544561669231">
        <ele>1374.3399999999999</ele>
        <time>2012-07-23T08:42:43Z</time>
      </trkpt>
      <trkpt lat="46.146196341142058" lon="7.26553182117641">
        <ele>1374.8199999999999</ele>
        <time>2012-07-23T08:42:44Z</time>
      </trkpt>
      <trkpt lat="46.146212602034211" lon="7.26552109234035">
        <ele>1375.78</ele>
        <time>2012-07-23T08:42:45Z</time>
      </trkpt>
      <trkpt lat="46.146224420517683" lon="7.265505753457546">
        <ele>1376.26</ele>
        <time>2012-07-23T08:42:46Z</time>
      </trkpt>
      <trkpt lat="46.146238669753075" lon="7.265490666031838">
        <ele>1377.23</ele>
        <time>2012-07-23T08:42:47Z</time>
      </trkpt>
      <trkpt lat="46.146252835169435" lon="7.265475243330002">
        <ele>1377.71</ele>
        <time>2012-07-23T08:42:48Z</time>
      </trkpt>
      <trkpt lat="46.14632592536509" lon="7.265440206974745">
        <ele>1380.5899999999999</ele>
        <time>2012-07-23T08:42:52Z</time>
      </trkpt>
      <trkpt lat="46.146345622837543" lon="7.265437357127667">
        <ele>1381.0699999999999</ele>
        <time>2012-07-23T08:42:53Z</time>
      </trkpt>
      <trkpt lat="46.146428352221847" lon="7.265414977446199">
        <ele>1384.9200000000001</ele>
        <time>2012-07-23T08:42:58Z</time>
      </trkpt>
      <trkpt lat="46.146444613113999" lon="7.265418833121657">
        <ele>1385.8800000000001</ele>
        <time>2012-07-23T08:42:59Z</time>
      </trkpt>
      <trkpt lat="46.146460119634867" lon="7.265421096235514">
        <ele>1386.3599999999999</ele>
        <time>2012-07-23T08:43:00Z</time>
      </trkpt>
      <trkpt lat="46.146471183747053" lon="7.265428053215146">
        <ele>1386.8399999999999</ele>
        <time>2012-07-23T08:43:01Z</time>
      </trkpt>
      <trkpt lat="46.146476212888956" lon="7.265442050993443">
        <ele>1387.8</ele>
        <time>2012-07-23T08:43:02Z</time>
      </trkpt>
      <trkpt lat="46.146480571478605" lon="7.265462251380086">
        <ele>1388.28</ele>
        <time>2012-07-23T08:43:03Z</time>
      </trkpt>
      <trkpt lat="46.146482080221176" lon="7.265484798699617">
        <ele>1388.28</ele>
        <time>2012-07-23T08:43:04Z</time>
      </trkpt>
      <trkpt lat="46.146479733288288" lon="7.265506675466895">
        <ele>1388.76</ele>
        <time>2012-07-23T08:43:05Z</time>
      </trkpt>
      <trkpt lat="46.146475626155734" lon="7.265525618568063">
        <ele>1389.24</ele>
        <time>2012-07-23T08:43:06Z</time>
      </trkpt>
      <trkpt lat="46.146468166261911" lon="7.26554355584085">
        <ele>1389.24</ele>
        <time>2012-07-23T08:43:07Z</time>
      </trkpt>
      <trkpt lat="46.146456180140376" lon="7.26555772125721">
        <ele>1389.72</ele>
        <time>2012-07-23T08:43:08Z</time>
      </trkpt>
      <trkpt lat="46.146445535123348" lon="7.265570294111967">
        <ele>1389.72</ele>
        <time>2012-07-23T08:43:09Z</time>
      </trkpt>
      <trkpt lat="46.146433465182781" lon="7.265581777319312">
        <ele>1390.2</ele>
        <time>2012-07-23T08:43:10Z</time>
      </trkpt>
      <trkpt lat="46.146418126299977" lon="7.265589237213135">
        <ele>1390.2</ele>
        <time>2012-07-23T08:43:11Z</time>
      </trkpt>
      <trkpt lat="46.146399350836873" lon="7.265593009069562">
        <ele>1390.2</ele>
        <time>2012-07-23T08:43:12Z</time>
      </trkpt>
      <trkpt lat="46.146383425220847" lon="7.265602648258209">
        <ele>1390.2</ele>
        <time>2012-07-23T08:43:13Z</time>
      </trkpt>
      <trkpt lat="46.146372361108661" lon="7.265621423721314">
        <ele>1389.72</ele>
        <time>2012-07-23T08:43:14Z</time>
      </trkpt>
      <trkpt lat="46.146364565938711" lon="7.265642797574401">
        <ele>1389.72</ele>
        <time>2012-07-23T08:43:15Z</time>
      </trkpt>
      <trkpt lat="46.146355681121349" lon="7.265662578865886">
        <ele>1389.24</ele>
        <time>2012-07-23T08:43:16Z</time>
      </trkpt>
      <trkpt lat="46.146345790475607" lon="7.265680348500609">
        <ele>1389.24</ele>
        <time>2012-07-23T08:43:17Z</time>
      </trkpt>
      <trkpt lat="46.146335816010833" lon="7.265699710696936">
        <ele>1388.76</ele>
        <time>2012-07-23T08:43:18Z</time>
      </trkpt>
      <trkpt lat="46.146324751898646" lon="7.265716809779406">
        <ele>1388.76</ele>
        <time>2012-07-23T08:43:19Z</time>
      </trkpt>
      <trkpt lat="46.146250320598483" lon="7.265794510021806">
        <ele>1388.28</ele>
        <time>2012-07-23T08:43:25Z</time>
      </trkpt>
      <trkpt lat="46.146154263988137" lon="7.265856368467212">
        <ele>1389.72</ele>
        <time>2012-07-23T08:43:32Z</time>
      </trkpt>
      <trkpt lat="46.146145043894649" lon="7.265872126445174">
        <ele>1390.2</ele>
        <time>2012-07-23T08:43:33Z</time>
      </trkpt>
      <trkpt lat="46.14613582380116" lon="7.265885034576058">
        <ele>1390.6800000000001</ele>
        <time>2012-07-23T08:43:34Z</time>
      </trkpt>
      <trkpt lat="46.146117802709341" lon="7.265929877758026">
        <ele>1392.1300000000001</ele>
        <time>2012-07-23T08:43:37Z</time>
      </trkpt>
      <trkpt lat="46.146114282310009" lon="7.265948234125972">
        <ele>1392.1300000000001</ele>
        <time>2012-07-23T08:43:38Z</time>
      </trkpt>
      <trkpt lat="46.146104726940393" lon="7.265962902456522">
        <ele>1392.6099999999999</ele>
        <time>2012-07-23T08:43:39Z</time>
      </trkpt>
      <trkpt lat="46.146098775789142" lon="7.265979498624802">
        <ele>1392.6099999999999</ele>
        <time>2012-07-23T08:43:40Z</time>
      </trkpt>
      <trkpt lat="46.14609282463789" lon="7.265996346250176">
        <ele>1393.0899999999999</ele>
        <time>2012-07-23T08:43:41Z</time>
      </trkpt>
      <trkpt lat="46.146088046953082" lon="7.266014367341995">
        <ele>1393.0899999999999</ele>
        <time>2012-07-23T08:43:42Z</time>
      </trkpt>
      <trkpt lat="46.146088466048241" lon="7.266036830842495">
        <ele>1392.6099999999999</ele>
        <time>2012-07-23T08:43:43Z</time>
      </trkpt>
      <trkpt lat="46.146088298410177" lon="7.266058120876551">
        <ele>1392.6099999999999</ele>
        <time>2012-07-23T08:43:44Z</time>
      </trkpt>
      <trkpt lat="46.14608746021986" lon="7.266078572720289">
        <ele>1393.0899999999999</ele>
        <time>2012-07-23T08:43:45Z</time>
      </trkpt>
      <trkpt lat="46.146085951477289" lon="7.26609961129725">
        <ele>1393.0899999999999</ele>
        <time>2012-07-23T08:43:46Z</time>
      </trkpt>
      <trkpt lat="46.146070193499327" lon="7.266168342903256">
        <ele>1394.05</ele>
        <time>2012-07-23T08:43:50Z</time>
      </trkpt>
      <trkpt lat="46.146064074710011" lon="7.266184100881219">
        <ele>1394.53</ele>
        <time>2012-07-23T08:43:51Z</time>
      </trkpt>
      <trkpt lat="46.146067259833217" lon="7.266202792525291">
        <ele>1395.01</ele>
        <time>2012-07-23T08:43:52Z</time>
      </trkpt>
      <trkpt lat="46.146072205156088" lon="7.266224920749664">
        <ele>1395.49</ele>
        <time>2012-07-23T08:43:53Z</time>
      </trkpt>
      <trkpt lat="46.146075474098325" lon="7.266246546059847">
        <ele>1395.49</ele>
        <time>2012-07-23T08:43:54Z</time>
      </trkpt>
      <trkpt lat="46.146073546260595" lon="7.266264231875539">
        <ele>1395.97</ele>
        <time>2012-07-23T08:43:55Z</time>
      </trkpt>
      <trkpt lat="46.146072121337056" lon="7.266281498596072">
        <ele>1396.45</ele>
        <time>2012-07-23T08:43:56Z</time>
      </trkpt>
      <trkpt lat="46.146072624251246" lon="7.266387110576034">
        <ele>1397.8900000000001</ele>
        <time>2012-07-23T08:44:01Z</time>
      </trkpt>
      <trkpt lat="46.146065834909678" lon="7.266416866332293">
        <ele>1398.3699999999999</ele>
        <time>2012-07-23T08:44:03Z</time>
      </trkpt>
      <trkpt lat="46.146066505461931" lon="7.266524489969015">
        <ele>1400.3</ele>
        <time>2012-07-23T08:44:09Z</time>
      </trkpt>
      <trkpt lat="46.146063907071948" lon="7.266543181613088">
        <ele>1400.3</ele>
        <time>2012-07-23T08:44:10Z</time>
      </trkpt>
      <trkpt lat="46.146074552088976" lon="7.266605710610747">
        <ele>1401.26</ele>
        <time>2012-07-23T08:44:13Z</time>
      </trkpt>
      <trkpt lat="46.146074384450912" lon="7.26663077250123">
        <ele>1401.74</ele>
        <time>2012-07-23T08:44:14Z</time>
      </trkpt>
      <trkpt lat="46.146080419421196" lon="7.266657594591379">
        <ele>1402.22</ele>
        <time>2012-07-23T08:44:15Z</time>
      </trkpt>
      <trkpt lat="46.146083772182465" lon="7.266685673967004">
        <ele>1402.22</ele>
        <time>2012-07-23T08:44:16Z</time>
      </trkpt>
      <trkpt lat="46.146084442734718" lon="7.266711238771677">
        <ele>1402.7</ele>
        <time>2012-07-23T08:44:17Z</time>
      </trkpt>
      <trkpt lat="46.146085532382131" lon="7.266737222671509">
        <ele>1402.7</ele>
        <time>2012-07-23T08:44:18Z</time>
      </trkpt>
      <trkpt lat="46.146084945648909" lon="7.266776114702225">
        <ele>1402.7</ele>
        <time>2012-07-23T08:44:20Z</time>
      </trkpt>
      <trkpt lat="46.146088466048241" lon="7.266798745840788">
        <ele>1402.7</ele>
        <time>2012-07-23T08:44:21Z</time>
      </trkpt>
      <trkpt lat="46.14608938805759" lon="7.266824478283525">
        <ele>1402.7</ele>
        <time>2012-07-23T08:44:22Z</time>
      </trkpt>
      <trkpt lat="46.146088298410177" lon="7.266849372535944">
        <ele>1402.7</ele>
        <time>2012-07-23T08:44:23Z</time>
      </trkpt>
      <trkpt lat="46.146087376400828" lon="7.266870494931936">
        <ele>1402.7</ele>
        <time>2012-07-23T08:44:24Z</time>
      </trkpt>
      <trkpt lat="46.146082347258925" lon="7.26689362898469">
        <ele>1402.22</ele>
        <time>2012-07-23T08:44:25Z</time>
      </trkpt>
      <trkpt lat="46.146076396107674" lon="7.266911063343287">
        <ele>1402.22</ele>
        <time>2012-07-23T08:44:26Z</time>
      </trkpt>
      <trkpt lat="46.146068852394819" lon="7.266931431367993">
        <ele>1401.74</ele>
        <time>2012-07-23T08:44:27Z</time>
      </trkpt>
      <trkpt lat="46.146064661443233" lon="7.266950458288193">
        <ele>1402.22</ele>
        <time>2012-07-23T08:44:28Z</time>
      </trkpt>
      <trkpt lat="46.146057955920696" lon="7.267110301181674">
        <ele>1404.6199999999999</ele>
        <time>2012-07-23T08:44:35Z</time>
      </trkpt>
      <trkpt lat="46.146060386672616" lon="7.267132932320237">
        <ele>1405.0999999999999</ele>
        <time>2012-07-23T08:44:36Z</time>
      </trkpt>
      <trkpt lat="46.146064912900329" lon="7.267153384163976">
        <ele>1405.0999999999999</ele>
        <time>2012-07-23T08:44:37Z</time>
      </trkpt>
      <trkpt lat="46.146076312288642" lon="7.267173752188683">
        <ele>1405.5799999999999</ele>
        <time>2012-07-23T08:44:38Z</time>
      </trkpt>
      <trkpt lat="46.146091483533382" lon="7.267190180718899">
        <ele>1405.5799999999999</ele>
        <time>2012-07-23T08:44:39Z</time>
      </trkpt>
      <trkpt lat="46.146107409149408" lon="7.267199819907546">
        <ele>1405.5799999999999</ele>
        <time>2012-07-23T08:44:40Z</time>
      </trkpt>
      <trkpt lat="46.146125346422195" lon="7.267201747745276">
        <ele>1406.0699999999999</ele>
        <time>2012-07-23T08:44:41Z</time>
      </trkpt>
      <trkpt lat="46.146140014752746" lon="7.267194287851453">
        <ele>1406.0699999999999</ele>
        <time>2012-07-23T08:44:42Z</time>
      </trkpt>
      <trkpt lat="46.146150156855583" lon="7.267178194597364">
        <ele>1406.55</ele>
        <time>2012-07-23T08:44:43Z</time>
      </trkpt>
      <trkpt lat="46.146169686689973" lon="7.267145169898868">
        <ele>1407.51</ele>
        <time>2012-07-23T08:44:45Z</time>
      </trkpt>
      <trkpt lat="46.146180247887969" lon="7.267131004482508">
        <ele>1408.47</ele>
        <time>2012-07-23T08:44:46Z</time>
      </trkpt>
      <trkpt lat="46.146186701953411" lon="7.267109211534262">
        <ele>1408.95</ele>
        <time>2012-07-23T08:44:47Z</time>
      </trkpt>
      <trkpt lat="46.146191395819187" lon="7.267083982005715">
        <ele>1409.4300000000001</ele>
        <time>2012-07-23T08:44:48Z</time>
      </trkpt>
      <trkpt lat="46.146192401647568" lon="7.267061015591025">
        <ele>1409.4300000000001</ele>
        <time>2012-07-23T08:44:49Z</time>
      </trkpt>
      <trkpt lat="46.14620422013104" lon="7.266943417489529">
        <ele>1409.9100000000001</ele>
        <time>2012-07-23T08:44:54Z</time>
      </trkpt>
      <trkpt lat="46.146211596205831" lon="7.266924642026424">
        <ele>1409.9100000000001</ele>
        <time>2012-07-23T08:44:55Z</time>
      </trkpt>
      <trkpt lat="46.146218301728368" lon="7.266904609277844">
        <ele>1409.9100000000001</ele>
        <time>2012-07-23T08:44:56Z</time>
      </trkpt>
      <trkpt lat="46.146226935088634" lon="7.266885666176677">
        <ele>1409.9100000000001</ele>
        <time>2012-07-23T08:44:57Z</time>
      </trkpt>
      <trkpt lat="46.146233808249235" lon="7.266865884885192">
        <ele>1409.9100000000001</ele>
        <time>2012-07-23T08:44:58Z</time>
      </trkpt>
      <trkpt lat="46.146240681409836" lon="7.266847779974341">
        <ele>1410.3900000000001</ele>
        <time>2012-07-23T08:44:59Z</time>
      </trkpt>
      <trkpt lat="46.14624872803688" lon="7.266832273453474">
        <ele>1410.3900000000001</ele>
        <time>2012-07-23T08:45:00Z</time>
      </trkpt>
      <trkpt lat="46.146257612854242" lon="7.266817605122924">
        <ele>1411.3499999999999</ele>
        <time>2012-07-23T08:45:01Z</time>
      </trkpt>
      <trkpt lat="46.146263564005494" lon="7.26680276915431">
        <ele>1411.8299999999999</ele>
        <time>2012-07-23T08:45:02Z</time>
      </trkpt>
      <trkpt lat="46.14626825787127" lon="7.266785334795713">
        <ele>1412.79</ele>
        <time>2012-07-23T08:45:03Z</time>
      </trkpt>
      <trkpt lat="46.146272700279951" lon="7.266766307875514">
        <ele>1413.76</ele>
        <time>2012-07-23T08:45:04Z</time>
      </trkpt>
      <trkpt lat="46.146274460479617" lon="7.266748957335949">
        <ele>1414.24</ele>
        <time>2012-07-23T08:45:05Z</time>
      </trkpt>
      <trkpt lat="46.146277813240886" lon="7.266728254035115">
        <ele>1414.72</ele>
        <time>2012-07-23T08:45:06Z</time>
      </trkpt>
      <trkpt lat="46.146278064697981" lon="7.266702270135284">
        <ele>1415.6800000000001</ele>
        <time>2012-07-23T08:45:07Z</time>
      </trkpt>
      <trkpt lat="46.146280243992805" lon="7.26667620241642">
        <ele>1416.1600000000001</ele>
        <time>2012-07-23T08:45:08Z</time>
      </trkpt>
      <trkpt lat="46.146282507106662" lon="7.26665273308754">
        <ele>1416.6400000000001</ele>
        <time>2012-07-23T08:45:09Z</time>
      </trkpt>
      <trkpt lat="46.14628435112536" lon="7.266629850491881">
        <ele>1417.1199999999999</ele>
        <time>2012-07-23T08:45:10Z</time>
      </trkpt>
      <trkpt lat="46.146285440772772" lon="7.266608895733953">
        <ele>1417.5999999999999</ele>
        <time>2012-07-23T08:45:11Z</time>
      </trkpt>
      <trkpt lat="46.14628829061985" lon="7.26658140309155">
        <ele>1418.0799999999999</ele>
        <time>2012-07-23T08:45:12Z</time>
      </trkpt>
      <trkpt lat="46.146290637552738" lon="7.266556676477194">
        <ele>1418.5599999999999</ele>
        <time>2012-07-23T08:45:13Z</time>
      </trkpt>
      <trkpt lat="46.146292397752404" lon="7.266533290967345">
        <ele>1418.5599999999999</ele>
        <time>2012-07-23T08:45:14Z</time>
      </trkpt>
      <trkpt lat="46.14629901945591" lon="7.26651200093329">
        <ele>1418.5599999999999</ele>
        <time>2012-07-23T08:45:15Z</time>
      </trkpt>
      <trkpt lat="46.146308407187462" lon="7.266493225470185">
        <ele>1419.04</ele>
        <time>2012-07-23T08:45:16Z</time>
      </trkpt>
      <trkpt lat="46.146335480734706" lon="7.26642943918705">
        <ele>1419.04</ele>
        <time>2012-07-23T08:45:19Z</time>
      </trkpt>
      <trkpt lat="46.146348221227527" lon="7.266413345932961">
        <ele>1419.52</ele>
        <time>2012-07-23T08:45:20Z</time>
      </trkpt>
      <trkpt lat="46.146360291168094" lon="7.266395408660173">
        <ele>1420</ele>
        <time>2012-07-23T08:45:21Z</time>
      </trkpt>
      <trkpt lat="46.14637671969831" lon="7.266385518014431">
        <ele>1420.49</ele>
        <time>2012-07-23T08:45:22Z</time>
      </trkpt>
      <trkpt lat="46.14639482460916" lon="7.266380907967687">
        <ele>1420.49</ele>
        <time>2012-07-23T08:45:23Z</time>
      </trkpt>
      <trkpt lat="46.146544776856899" lon="7.266433294862509">
        <ele>1420.49</ele>
        <time>2012-07-23T08:45:34Z</time>
      </trkpt>
      <trkpt lat="46.146699255332351" lon="7.26645190268755">
        <ele>1422.8900000000001</ele>
        <time>2012-07-23T08:45:48Z</time>
      </trkpt>
      <trkpt lat="46.146833868697286" lon="7.266421895474196">
        <ele>1426.25</ele>
        <time>2012-07-23T08:45:57Z</time>
      </trkpt>
      <trkpt lat="46.146850381046534" lon="7.266412926837802">
        <ele>1426.73</ele>
        <time>2012-07-23T08:45:58Z</time>
      </trkpt>
      <trkpt lat="46.146868066862226" lon="7.266407562419772">
        <ele>1427.21</ele>
        <time>2012-07-23T08:45:59Z</time>
      </trkpt>
      <trkpt lat="46.146884998306632" lon="7.26639867760241">
        <ele>1428.1800000000001</ele>
        <time>2012-07-23T08:46:00Z</time>
      </trkpt>
      <trkpt lat="46.146900756284595" lon="7.266386104747653">
        <ele>1428.6600000000001</ele>
        <time>2012-07-23T08:46:01Z</time>
      </trkpt>
      <trkpt lat="46.146919531747699" lon="7.266369089484215">
        <ele>1429.6199999999999</ele>
        <time>2012-07-23T08:46:02Z</time>
      </trkpt>
      <trkpt lat="46.146932691335678" lon="7.266347212716937">
        <ele>1430.0999999999999</ele>
        <time>2012-07-23T08:46:03Z</time>
      </trkpt>
      <trkpt lat="46.146943755447865" lon="7.266322821378708">
        <ele>1431.0599999999999</ele>
        <time>2012-07-23T08:46:04Z</time>
      </trkpt>
      <trkpt lat="46.146950963884592" lon="7.266294993460178">
        <ele>1431.0599999999999</ele>
        <time>2012-07-23T08:46:05Z</time>
      </trkpt>
      <trkpt lat="46.146956328302622" lon="7.266270015388727">
        <ele>1431.54</ele>
        <time>2012-07-23T08:46:06Z</time>
      </trkpt>
      <trkpt lat="46.146962363272905" lon="7.266242103651166">
        <ele>1431.54</ele>
        <time>2012-07-23T08:46:07Z</time>
      </trkpt>
      <trkpt lat="46.14696747623384" lon="7.266213353723288">
        <ele>1431.54</ele>
        <time>2012-07-23T08:46:08Z</time>
      </trkpt>
      <trkpt lat="46.14697091281414" lon="7.26618560962379">
        <ele>1431.54</ele>
        <time>2012-07-23T08:46:09Z</time>
      </trkpt>
      <trkpt lat="46.146973930299282" lon="7.266159541904926">
        <ele>1431.54</ele>
        <time>2012-07-23T08:46:10Z</time>
      </trkpt>
      <trkpt lat="46.146976025775075" lon="7.266131462529302">
        <ele>1431.54</ele>
        <time>2012-07-23T08:46:11Z</time>
      </trkpt>
      <trkpt lat="46.14697627723217" lon="7.266101874411106">
        <ele>1431.54</ele>
        <time>2012-07-23T08:46:12Z</time>
      </trkpt>
      <trkpt lat="46.14697870798409" lon="7.266074046492577">
        <ele>1431.54</ele>
        <time>2012-07-23T08:46:13Z</time>
      </trkpt>
      <trkpt lat="46.14697971381247" lon="7.266043787822127">
        <ele>1431.54</ele>
        <time>2012-07-23T08:46:14Z</time>
      </trkpt>
      <trkpt lat="46.146986670792103" lon="7.266018642112613">
        <ele>1431.54</ele>
        <time>2012-07-23T08:46:15Z</time>
      </trkpt>
      <trkpt lat="46.146996980533004" lon="7.265995927155018">
        <ele>1431.54</ele>
        <time>2012-07-23T08:46:16Z</time>
      </trkpt>
      <trkpt lat="46.147001255303621" lon="7.265974804759026">
        <ele>1431.54</ele>
        <time>2012-07-23T08:46:17Z</time>
      </trkpt>
      <trkpt lat="46.147004272788763" lon="7.265925602987409">
        <ele>1431.0599999999999</ele>
        <time>2012-07-23T08:46:19Z</time>
      </trkpt>
      <trkpt lat="46.147003853693604" lon="7.265899954363704">
        <ele>1430.5799999999999</ele>
        <time>2012-07-23T08:46:20Z</time>
      </trkpt>
      <trkpt lat="46.147008296102285" lon="7.265877826139331">
        <ele>1430.5799999999999</ele>
        <time>2012-07-23T08:46:21Z</time>
      </trkpt>
      <trkpt lat="46.147019192576408" lon="7.265858380123973">
        <ele>1430.0999999999999</ele>
        <time>2012-07-23T08:46:22Z</time>
      </trkpt>
      <trkpt lat="46.147029167041183" lon="7.265838598832488">
        <ele>1430.0999999999999</ele>
        <time>2012-07-23T08:46:23Z</time>
      </trkpt>
      <trkpt lat="46.147038219496608" lon="7.265815297141671">
        <ele>1430.0999999999999</ele>
        <time>2012-07-23T08:46:24Z</time>
      </trkpt>
      <trkpt lat="46.147207031026483" lon="7.265569120645523">
        <ele>1432.5</ele>
        <time>2012-07-23T08:46:38Z</time>
      </trkpt>
      <trkpt lat="46.147367125377059" lon="7.265649503096938">
        <ele>1434.4200000000001</ele>
        <time>2012-07-23T08:46:48Z</time>
      </trkpt>
      <trkpt lat="46.147381877526641" lon="7.265665344893932">
        <ele>1434.4200000000001</ele>
        <time>2012-07-23T08:46:49Z</time>
      </trkpt>
      <trkpt lat="46.147396545857191" lon="7.265675235539675">
        <ele>1434.4200000000001</ele>
        <time>2012-07-23T08:46:50Z</time>
      </trkpt>
      <trkpt lat="46.147412555292249" lon="7.265687556937337">
        <ele>1434.4200000000001</ele>
        <time>2012-07-23T08:46:51Z</time>
      </trkpt>
      <trkpt lat="46.147659318521619" lon="7.265758300200105">
        <ele>1435.8699999999999</ele>
        <time>2012-07-23T08:47:03Z</time>
      </trkpt>
      <trkpt lat="46.147733414545655" lon="7.265763664618135">
        <ele>1436.8299999999999</ele>
        <time>2012-07-23T08:47:07Z</time>
      </trkpt>
      <trkpt lat="46.147755961865187" lon="7.265764838084579">
        <ele>1437.3099999999999</ele>
        <time>2012-07-23T08:47:08Z</time>
      </trkpt>
      <trkpt lat="46.147781275212765" lon="7.265769280493259">
        <ele>1437.3099999999999</ele>
        <time>2012-07-23T08:47:09Z</time>
      </trkpt>
      <trkpt lat="46.148014711216092" lon="7.265841783955693">
        <ele>1439.71</ele>
        <time>2012-07-23T08:47:20Z</time>
      </trkpt>
      <trkpt lat="46.148258624598384" lon="7.265754695981741">
        <ele>1444.52</ele>
        <time>2012-07-23T08:47:33Z</time>
      </trkpt>
      <trkpt lat="46.148308329284191" lon="7.265724185854197">
        <ele>1445.96</ele>
        <time>2012-07-23T08:47:36Z</time>
      </trkpt>
      <trkpt lat="46.14831805229187" lon="7.265709266066551">
        <ele>1446.4400000000001</ele>
        <time>2012-07-23T08:47:37Z</time>
      </trkpt>
      <trkpt lat="46.148331463336945" lon="7.265695352107287">
        <ele>1446.9200000000001</ele>
        <time>2012-07-23T08:47:38Z</time>
      </trkpt>
      <trkpt lat="46.148347472772002" lon="7.265685461461544">
        <ele>1447.4000000000001</ele>
        <time>2012-07-23T08:47:39Z</time>
      </trkpt>
      <trkpt lat="46.14836398512125" lon="7.265673475340009">
        <ele>1447.8800000000001</ele>
        <time>2012-07-23T08:47:40Z</time>
      </trkpt>
      <trkpt lat="46.148399859666824" lon="7.265654448419809">
        <ele>1448.3599999999999</ele>
        <time>2012-07-23T08:47:42Z</time>
      </trkpt>
      <trkpt lat="46.148419138044119" lon="7.265645479783416">
        <ele>1448.8399999999999</ele>
        <time>2012-07-23T08:47:43Z</time>
      </trkpt>
      <trkpt lat="46.14864737726748" lon="7.265410032123327">
        <ele>1452.21</ele>
        <time>2012-07-23T08:47:55Z</time>
      </trkpt>
      <trkpt lat="46.148868408054113" lon="7.265228731557727">
        <ele>1454.6099999999999</ele>
        <time>2012-07-23T08:48:06Z</time>
      </trkpt>
      <trkpt lat="46.148883914574981" lon="7.265196712687612">
        <ele>1454.6099999999999</ele>
        <time>2012-07-23T08:48:07Z</time>
      </trkpt>
      <trkpt lat="46.148897828534245" lon="7.265165448188782">
        <ele>1454.1300000000001</ele>
        <time>2012-07-23T08:48:08Z</time>
      </trkpt>
      <trkpt lat="46.14890780299902" lon="7.265129573643208">
        <ele>1454.1300000000001</ele>
        <time>2012-07-23T08:48:09Z</time>
      </trkpt>
      <trkpt lat="46.148916268721223" lon="7.26509403437376">
        <ele>1454.1300000000001</ele>
        <time>2012-07-23T08:48:10Z</time>
      </trkpt>
      <trkpt lat="46.148941330611706" lon="7.264966461807489">
        <ele>1454.1300000000001</ele>
        <time>2012-07-23T08:48:14Z</time>
      </trkpt>
      <trkpt lat="46.148952646180987" lon="7.264940394088626">
        <ele>1454.6099999999999</ele>
        <time>2012-07-23T08:48:15Z</time>
      </trkpt>
      <trkpt lat="46.148961614817381" lon="7.264913404360414">
        <ele>1454.6099999999999</ele>
        <time>2012-07-23T08:48:16Z</time>
      </trkpt>
      <trkpt lat="46.148969912901521" lon="7.264884067699313">
        <ele>1454.6099999999999</ele>
        <time>2012-07-23T08:48:17Z</time>
      </trkpt>
      <trkpt lat="46.148986089974642" lon="7.26486386731267">
        <ele>1454.6099999999999</ele>
        <time>2012-07-23T08:48:18Z</time>
      </trkpt>
      <trkpt lat="46.149004613980651" lon="7.264849450439215">
        <ele>1454.6099999999999</ele>
        <time>2012-07-23T08:48:19Z</time>
      </trkpt>
      <trkpt lat="46.149219861254096" lon="7.264794884249568">
        <ele>1455.0899999999999</ele>
        <time>2012-07-23T08:48:32Z</time>
      </trkpt>
      <trkpt lat="46.149393869563937" lon="7.264863280579448">
        <ele>1456.53</ele>
        <time>2012-07-23T08:48:41Z</time>
      </trkpt>
      <trkpt lat="46.149508869275451" lon="7.264884151518345">
        <ele>1457.5</ele>
        <time>2012-07-23T08:48:48Z</time>
      </trkpt>
      <trkpt lat="46.149815395474434" lon="7.264832183718681">
        <ele>1460.8599999999999</ele>
        <time>2012-07-23T08:49:01Z</time>
      </trkpt>
      <trkpt lat="46.150121754035354" lon="7.264684494584799">
        <ele>1465.6700000000001</ele>
        <time>2012-07-23T08:49:16Z</time>
      </trkpt>
      <trkpt lat="46.150424843654037" lon="7.26457410492003">
        <ele>1467.1099999999999</ele>
        <time>2012-07-23T08:49:30Z</time>
      </trkpt>
      <trkpt lat="46.150783924385905" lon="7.264600088819861">
        <ele>1468.0699999999999</ele>
        <time>2012-07-23T08:49:46Z</time>
      </trkpt>
      <trkpt lat="46.151028759777546" lon="7.264670329168439">
        <ele>1470.95</ele>
        <time>2012-07-23T08:50:00Z</time>
      </trkpt>
      <trkpt lat="46.151041332632303" lon="7.264694720506668">
        <ele>1470.95</ele>
        <time>2012-07-23T08:50:01Z</time>
      </trkpt>
      <trkpt lat="46.151051558554173" lon="7.264717519283295">
        <ele>1471.4400000000001</ele>
        <time>2012-07-23T08:50:02Z</time>
      </trkpt>
      <trkpt lat="46.151047619059682" lon="7.264734953641892">
        <ele>1471.4400000000001</ele>
        <time>2012-07-23T08:50:03Z</time>
      </trkpt>
      <trkpt lat="46.151034710928798" lon="7.264747610315681">
        <ele>1471.4400000000001</ele>
        <time>2012-07-23T08:50:04Z</time>
      </trkpt>
      <trkpt lat="46.151025993749499" lon="7.264770157635212">
        <ele>1470.95</ele>
        <time>2012-07-23T08:50:05Z</time>
      </trkpt>
      <trkpt lat="46.151016354560852" lon="7.264791699126363">
        <ele>1470.95</ele>
        <time>2012-07-23T08:50:06Z</time>
      </trkpt>
      <trkpt lat="46.151007050648332" lon="7.264807876199484">
        <ele>1470.95</ele>
        <time>2012-07-23T08:50:07Z</time>
      </trkpt>
      <trkpt lat="46.150998082011938" lon="7.264816677197814">
        <ele>1470.95</ele>
        <time>2012-07-23T08:50:08Z</time>
      </trkpt>
      <trkpt lat="46.150990454480052" lon="7.264826316386461">
        <ele>1470.95</ele>
        <time>2012-07-23T08:50:09Z</time>
      </trkpt>
      <trkpt lat="46.150981737300754" lon="7.264836709946394">
        <ele>1470.95</ele>
        <time>2012-07-23T08:50:10Z</time>
      </trkpt>
      <trkpt lat="46.150964889675379" lon="7.2648502048105">
        <ele>1470.95</ele>
        <time>2012-07-23T08:50:12Z</time>
      </trkpt>
      <trkpt lat="46.150954915210605" lon="7.264854060485959">
        <ele>1470.95</ele>
        <time>2012-07-23T08:50:13Z</time>
      </trkpt>
      <trkpt lat="46.150920214131474" lon="7.2648692317307">
        <ele>1471.4400000000001</ele>
        <time>2012-07-23T08:50:16Z</time>
      </trkpt>
      <trkpt lat="46.150796329602599" lon="7.264954978600144">
        <ele>1473.8399999999999</ele>
        <time>2012-07-23T08:50:28Z</time>
      </trkpt>
      <trkpt lat="46.15063464269042" lon="7.265069978311658">
        <ele>1476.72</ele>
        <time>2012-07-23T08:50:39Z</time>
      </trkpt>
      <trkpt lat="46.150621231645346" lon="7.26508766412735">
        <ele>1476.24</ele>
        <time>2012-07-23T08:50:40Z</time>
      </trkpt>
      <trkpt lat="46.150604635477066" lon="7.265098392963409">
        <ele>1475.28</ele>
        <time>2012-07-23T08:50:41Z</time>
      </trkpt>
      <trkpt lat="46.150592230260372" lon="7.265110881999135">
        <ele>1475.28</ele>
        <time>2012-07-23T08:50:42Z</time>
      </trkpt>
      <trkpt lat="46.150580998510122" lon="7.265125550329685">
        <ele>1475.28</ele>
        <time>2012-07-23T08:50:43Z</time>
      </trkpt>
      <trkpt lat="46.150563228875399" lon="7.265135021880269">
        <ele>1475.28</ele>
        <time>2012-07-23T08:50:44Z</time>
      </trkpt>
      <trkpt lat="46.150543447583914" lon="7.265140805393457">
        <ele>1475.28</ele>
        <time>2012-07-23T08:50:45Z</time>
      </trkpt>
      <trkpt lat="46.150527102872729" lon="7.265150276944041">
        <ele>1475.28</ele>
        <time>2012-07-23T08:50:46Z</time>
      </trkpt>
      <trkpt lat="46.150516290217638" lon="7.265162179246545">
        <ele>1475.28</ele>
        <time>2012-07-23T08:50:47Z</time>
      </trkpt>
      <trkpt lat="46.150469854474068" lon="7.265218086540699">
        <ele>1473.8399999999999</ele>
        <time>2012-07-23T08:50:51Z</time>
      </trkpt>
      <trkpt lat="46.150464825332165" lon="7.265236610546708">
        <ele>1473.8399999999999</ele>
        <time>2012-07-23T08:50:52Z</time>
      </trkpt>
      <trkpt lat="46.150464741513133" lon="7.26527189835906">
        <ele>1473.8399999999999</ele>
        <time>2012-07-23T08:50:54Z</time>
      </trkpt>
      <trkpt lat="46.150474799796939" lon="7.265291512012482">
        <ele>1473.8399999999999</ele>
        <time>2012-07-23T08:50:55Z</time>
      </trkpt>
      <trkpt lat="46.150489551946521" lon="7.265306767076254">
        <ele>1473.8399999999999</ele>
        <time>2012-07-23T08:50:56Z</time>
      </trkpt>
      <trkpt lat="46.150503968819976" lon="7.26531146094203">
        <ele>1474.3199999999999</ele>
        <time>2012-07-23T08:50:57Z</time>
      </trkpt>
      <trkpt lat="46.150524588301778" lon="7.265314562246203">
        <ele>1474.3199999999999</ele>
        <time>2012-07-23T08:50:58Z</time>
      </trkpt>
      <trkpt lat="46.150542860850692" lon="7.265316741541028">
        <ele>1474.8</ele>
        <time>2012-07-23T08:50:59Z</time>
      </trkpt>
      <trkpt lat="46.150555852800608" lon="7.26531146094203">
        <ele>1474.8</ele>
        <time>2012-07-23T08:51:00Z</time>
      </trkpt>
      <trkpt lat="46.150570772588253" lon="7.265302911400795">
        <ele>1475.28</ele>
        <time>2012-07-23T08:51:01Z</time>
      </trkpt>
      <trkpt lat="46.150764562189579" lon="7.265285393223167">
        <ele>1477.2</ele>
        <time>2012-07-23T08:51:13Z</time>
      </trkpt>
      <trkpt lat="46.150783002376556" lon="7.265283884480596">
        <ele>1477.6800000000001</ele>
        <time>2012-07-23T08:51:14Z</time>
      </trkpt>
      <trkpt lat="46.151001937687397" lon="7.265287153422833">
        <ele>1480.5699999999999</ele>
        <time>2012-07-23T08:51:27Z</time>
      </trkpt>
      <trkpt lat="46.151018282398582" lon="7.26528505794704">
        <ele>1480.5699999999999</ele>
        <time>2012-07-23T08:51:28Z</time>
      </trkpt>
      <trkpt lat="46.151126408949494" lon="7.265277346596122">
        <ele>1481.05</ele>
        <time>2012-07-23T08:51:34Z</time>
      </trkpt>
      <trkpt lat="46.151145938783884" lon="7.26527483202517">
        <ele>1481.53</ele>
        <time>2012-07-23T08:51:35Z</time>
      </trkpt>
      <trkpt lat="46.151168402284384" lon="7.265275083482266">
        <ele>1481.53</ele>
        <time>2012-07-23T08:51:36Z</time>
      </trkpt>
      <trkpt lat="46.15119262598455" lon="7.265278520062566">
        <ele>1481.53</ele>
        <time>2012-07-23T08:51:37Z</time>
      </trkpt>
      <trkpt lat="46.151217268779874" lon="7.265280280262232">
        <ele>1481.53</ele>
        <time>2012-07-23T08:51:38Z</time>
      </trkpt>
      <trkpt lat="46.15123906172812" lon="7.265278184786439">
        <ele>1481.53</ele>
        <time>2012-07-23T08:51:39Z</time>
      </trkpt>
      <trkpt lat="46.151257250458002" lon="7.265274664387107">
        <ele>1481.53</ele>
        <time>2012-07-23T08:51:40Z</time>
      </trkpt>
      <trkpt lat="46.151274098083377" lon="7.265265109017491">
        <ele>1481.53</ele>
        <time>2012-07-23T08:51:41Z</time>
      </trkpt>
      <trkpt lat="46.151287592947483" lon="7.265248764306307">
        <ele>1481.53</ele>
        <time>2012-07-23T08:51:42Z</time>
      </trkpt>
      <trkpt lat="46.151308128610253" lon="7.265214398503304">
        <ele>1482.01</ele>
        <time>2012-07-23T08:51:43Z</time>
      </trkpt>
      <trkpt lat="46.151325395330787" lon="7.265183636918664">
        <ele>1482.49</ele>
        <time>2012-07-23T08:51:44Z</time>
      </trkpt>
      <trkpt lat="46.151339560747147" lon="7.265150360763073">
        <ele>1482.97</ele>
        <time>2012-07-23T08:51:45Z</time>
      </trkpt>
      <trkpt lat="46.151488674804568" lon="7.264938801527023">
        <ele>1490.6600000000001</ele>
        <time>2012-07-23T08:51:54Z</time>
      </trkpt>
      <trkpt lat="46.151501834392548" lon="7.26491910405457">
        <ele>1491.6199999999999</ele>
        <time>2012-07-23T08:51:55Z</time>
      </trkpt>
      <trkpt lat="46.151740048080683" lon="7.264731517061591">
        <ele>1499.3099999999999</ele>
        <time>2012-07-23T08:52:09Z</time>
      </trkpt>
      <trkpt lat="46.151971556246281" lon="7.264458518475294">
        <ele>1505.0799999999999</ele>
        <time>2012-07-23T08:52:24Z</time>
      </trkpt>
      <trkpt lat="46.152227455750108" lon="7.264359444379807">
        <ele>1504.1199999999999</ele>
        <time>2012-07-23T08:52:38Z</time>
      </trkpt>
      <trkpt lat="46.1524039786309" lon="7.264399928972125">
        <ele>1503.6400000000001</ele>
        <time>2012-07-23T08:52:49Z</time>
      </trkpt>
      <trkpt lat="46.152541525661945" lon="7.264614086598158">
        <ele>1505.0799999999999</ele>
        <time>2012-07-23T08:53:01Z</time>
      </trkpt>
      <trkpt lat="46.152682341635227" lon="7.264784323051572">
        <ele>1506.04</ele>
        <time>2012-07-23T08:53:13Z</time>
      </trkpt>
      <trkpt lat="46.152854505926371" lon="7.264896975830197">
        <ele>1511.3299999999999</ele>
        <time>2012-07-23T08:53:26Z</time>
      </trkpt>
      <trkpt lat="46.15303622558713" lon="7.264988925307989">
        <ele>1515.1800000000001</ele>
        <time>2012-07-23T08:53:38Z</time>
      </trkpt>
      <trkpt lat="46.153219202533364" lon="7.265193611383438">
        <ele>1517.0999999999999</ele>
        <time>2012-07-23T08:53:50Z</time>
      </trkpt>
      <trkpt lat="46.153450878337026" lon="7.265285812318325">
        <ele>1522.8699999999999</ele>
        <time>2012-07-23T08:54:03Z</time>
      </trkpt>
      <trkpt lat="46.153634525835514" lon="7.265338534489274">
        <ele>1526.23</ele>
        <time>2012-07-23T08:54:13Z</time>
      </trkpt>
      <trkpt lat="46.153652463108301" lon="7.265346832573414">
        <ele>1526.23</ele>
        <time>2012-07-23T08:54:14Z</time>
      </trkpt>
      <trkpt lat="46.153904758393764" lon="7.265435010194778">
        <ele>1527.1900000000001</ele>
        <time>2012-07-23T08:54:27Z</time>
      </trkpt>
      <trkpt lat="46.154045322909951" lon="7.265421096235514">
        <ele>1529.5899999999999</ele>
        <time>2012-07-23T08:54:37Z</time>
      </trkpt>
      <trkpt lat="46.154072564095259" lon="7.26541263051331">
        <ele>1530.0799999999999</ele>
        <time>2012-07-23T08:54:39Z</time>
      </trkpt>
      <trkpt lat="46.154171638190746" lon="7.265418330207467">
        <ele>1531.52</ele>
        <time>2012-07-23T08:54:45Z</time>
      </trkpt>
      <trkpt lat="46.154190162196755" lon="7.265421347692609">
        <ele>1531.52</ele>
        <time>2012-07-23T08:54:46Z</time>
      </trkpt>
      <trkpt lat="46.154216565191746" lon="7.265422102063894">
        <ele>1531.52</ele>
        <time>2012-07-23T08:54:47Z</time>
      </trkpt>
      <trkpt lat="46.154241543263197" lon="7.265418581664562">
        <ele>1532</ele>
        <time>2012-07-23T08:54:48Z</time>
      </trkpt>
      <trkpt lat="46.154265264049172" lon="7.265415145084262">
        <ele>1532.48</ele>
        <time>2012-07-23T08:54:49Z</time>
      </trkpt>
      <trkpt lat="46.154289655387402" lon="7.26541112177074">
        <ele>1532.96</ele>
        <time>2012-07-23T08:54:50Z</time>
      </trkpt>
      <trkpt lat="46.154329217970371" lon="7.265407098457217">
        <ele>1533.4400000000001</ele>
        <time>2012-07-23T08:54:52Z</time>
      </trkpt>
      <trkpt lat="46.154351178556681" lon="7.265410032123327">
        <ele>1534.4000000000001</ele>
        <time>2012-07-23T08:54:53Z</time>
      </trkpt>
      <trkpt lat="46.154375486075878" lon="7.265412295237184">
        <ele>1534.4000000000001</ele>
        <time>2012-07-23T08:54:54Z</time>
      </trkpt>
      <trkpt lat="46.154544297605753" lon="7.265422521159053">
        <ele>1536.3199999999999</ele>
        <time>2012-07-23T08:55:02Z</time>
      </trkpt>
      <trkpt lat="46.154817631468177" lon="7.26539695635438">
        <ele>1543.05</ele>
        <time>2012-07-23T08:55:16Z</time>
      </trkpt>
      <trkpt lat="46.155080320313573" lon="7.265493432059884">
        <ele>1545.46</ele>
        <time>2012-07-23T08:55:29Z</time>
      </trkpt>
      <trkpt lat="46.155214514583349" lon="7.265562079846859">
        <ele>1546.4200000000001</ele>
        <time>2012-07-23T08:55:36Z</time>
      </trkpt>
      <trkpt lat="46.155228428542614" lon="7.265576580539346">
        <ele>1546.4200000000001</ele>
        <time>2012-07-23T08:55:37Z</time>
      </trkpt>
      <trkpt lat="46.155246365815401" lon="7.265581609681249">
        <ele>1545.9400000000001</ele>
        <time>2012-07-23T08:55:38Z</time>
      </trkpt>
      <trkpt lat="46.155472341924906" lon="7.265676325187087">
        <ele>1545.46</ele>
        <time>2012-07-23T08:55:50Z</time>
      </trkpt>
      <trkpt lat="46.155601926147938" lon="7.265795515850186">
        <ele>1544.5</ele>
        <time>2012-07-23T08:55:58Z</time>
      </trkpt>
      <trkpt lat="46.155597819015384" lon="7.265816973522306">
        <ele>1544.5</ele>
        <time>2012-07-23T08:55:59Z</time>
      </trkpt>
      <trkpt lat="46.155587425455451" lon="7.265830468386412">
        <ele>1544.5</ele>
        <time>2012-07-23T08:56:00Z</time>
      </trkpt>
      <trkpt lat="46.15557367913425" lon="7.265837509185076">
        <ele>1544.5</ele>
        <time>2012-07-23T08:56:01Z</time>
      </trkpt>
      <trkpt lat="46.155559429898858" lon="7.265841448679566">
        <ele>1544.5</ele>
        <time>2012-07-23T08:56:02Z</time>
      </trkpt>
      <trkpt lat="46.155543671920896" lon="7.265839520841837">
        <ele>1544.5</ele>
        <time>2012-07-23T08:56:03Z</time>
      </trkpt>
      <trkpt lat="46.155527997761965" lon="7.265828959643841">
        <ele>1544.5</ele>
        <time>2012-07-23T08:56:04Z</time>
      </trkpt>
      <trkpt lat="46.155246449634433" lon="7.265784200280905">
        <ele>1548.8199999999999</ele>
        <time>2012-07-23T08:56:20Z</time>
      </trkpt>
      <trkpt lat="46.155001781880856" lon="7.265862906351686">
        <ele>1550.74</ele>
        <time>2012-07-23T08:56:34Z</time>
      </trkpt>
      <trkpt lat="46.154738506302238" lon="7.266063736751676">
        <ele>1550.74</ele>
        <time>2012-07-23T08:56:50Z</time>
      </trkpt>
      <trkpt lat="46.154458969831467" lon="7.2661885432899">
        <ele>1554.5899999999999</ele>
        <time>2012-07-23T08:57:06Z</time>
      </trkpt>
      <trkpt lat="46.154239196330309" lon="7.266257191076875">
        <ele>1557.95</ele>
        <time>2012-07-23T08:57:19Z</time>
      </trkpt>
      <trkpt lat="46.1539719812572" lon="7.266258113086224">
        <ele>1561.3199999999999</ele>
        <time>2012-07-23T08:57:36Z</time>
      </trkpt>
      <trkpt lat="46.153720021247864" lon="7.266236823052168">
        <ele>1565.6400000000001</ele>
        <time>2012-07-23T08:57:50Z</time>
      </trkpt>
      <trkpt lat="46.153498739004135" lon="7.266257023438811">
        <ele>1567.0899999999999</ele>
        <time>2012-07-23T08:58:03Z</time>
      </trkpt>
      <trkpt lat="46.153304949402809" lon="7.266306392848492">
        <ele>1569.97</ele>
        <time>2012-07-23T08:58:15Z</time>
      </trkpt>
      <trkpt lat="46.153237726539373" lon="7.266312930732966">
        <ele>1571.8900000000001</ele>
        <time>2012-07-23T08:58:19Z</time>
      </trkpt>
      <trkpt lat="46.153218783438206" lon="7.266309913247824">
        <ele>1572.3699999999999</ele>
        <time>2012-07-23T08:58:20Z</time>
      </trkpt>
      <trkpt lat="46.153198834508657" lon="7.266306728124619">
        <ele>1572.3699999999999</ele>
        <time>2012-07-23T08:58:21Z</time>
      </trkpt>
      <trkpt lat="46.15318039432168" lon="7.266307817772031">
        <ele>1572.3699999999999</ele>
        <time>2012-07-23T08:58:22Z</time>
      </trkpt>
      <trkpt lat="46.153162205591798" lon="7.266311757266522">
        <ele>1572.3699999999999</ele>
        <time>2012-07-23T08:58:23Z</time>
      </trkpt>
      <trkpt lat="46.153144855052233" lon="7.266306728124619">
        <ele>1572.8499999999999</ele>
        <time>2012-07-23T08:58:24Z</time>
      </trkpt>
      <trkpt lat="46.153126414865255" lon="7.266298597678542">
        <ele>1572.8499999999999</ele>
        <time>2012-07-23T08:58:25Z</time>
      </trkpt>
      <trkpt lat="46.153109483420849" lon="7.266293317079544">
        <ele>1573.3299999999999</ele>
        <time>2012-07-23T08:58:26Z</time>
      </trkpt>
      <trkpt lat="46.15309095941484" lon="7.266285689547658">
        <ele>1573.8199999999999</ele>
        <time>2012-07-23T08:58:27Z</time>
      </trkpt>
      <trkpt lat="46.153072854503989" lon="7.266279654577375">
        <ele>1573.8199999999999</ele>
        <time>2012-07-23T08:58:28Z</time>
      </trkpt>
      <trkpt lat="46.15305625833571" lon="7.266278313472867">
        <ele>1574.3</ele>
        <time>2012-07-23T08:58:29Z</time>
      </trkpt>
      <trkpt lat="46.152797089889646" lon="7.266218047589064">
        <ele>1575.74</ele>
        <time>2012-07-23T08:58:44Z</time>
      </trkpt>
      <trkpt lat="46.152575137093663" lon="7.266187369823456">
        <ele>1580.0599999999999</ele>
        <time>2012-07-23T08:58:58Z</time>
      </trkpt>
      <trkpt lat="46.152304569259286" lon="7.266282504424453">
        <ele>1580.54</ele>
        <time>2012-07-23T08:59:14Z</time>
      </trkpt>
      <trkpt lat="46.152121257036924" lon="7.266458189114928">
        <ele>1581.03</ele>
        <time>2012-07-23T08:59:27Z</time>
      </trkpt>
      <trkpt lat="46.152109438553452" lon="7.266467828303576">
        <ele>1581.03</ele>
        <time>2012-07-23T08:59:28Z</time>
      </trkpt>
      <trkpt lat="46.152101224288344" lon="7.266482077538967">
        <ele>1580.54</ele>
        <time>2012-07-23T08:59:29Z</time>
      </trkpt>
      <trkpt lat="46.152089741080999" lon="7.266490962356329">
        <ele>1580.54</ele>
        <time>2012-07-23T08:59:30Z</time>
      </trkpt>
      <trkpt lat="46.152075156569481" lon="7.26649884134531">
        <ele>1580.54</ele>
        <time>2012-07-23T08:59:31Z</time>
      </trkpt>
      <trkpt lat="46.152060152962804" lon="7.266510324552655">
        <ele>1580.54</ele>
        <time>2012-07-23T08:59:32Z</time>
      </trkpt>
      <trkpt lat="46.151984632015228" lon="7.266580983996391">
        <ele>1578.6199999999999</ele>
        <time>2012-07-23T08:59:37Z</time>
      </trkpt>
      <trkpt lat="46.151967532932758" lon="7.266596239060164">
        <ele>1578.6199999999999</ele>
        <time>2012-07-23T08:59:38Z</time>
      </trkpt>
      <trkpt lat="46.151952194049954" lon="7.266614930704236">
        <ele>1578.6199999999999</ele>
        <time>2012-07-23T08:59:39Z</time>
      </trkpt>
      <trkpt lat="46.15189092233777" lon="7.266687266528606">
        <ele>1579.0999999999999</ele>
        <time>2012-07-23T08:59:43Z</time>
      </trkpt>
      <trkpt lat="46.151876589283347" lon="7.266707886010408">
        <ele>1579.5799999999999</ele>
        <time>2012-07-23T08:59:44Z</time>
      </trkpt>
      <trkpt lat="46.151860076934099" lon="7.266726242378354">
        <ele>1579.5799999999999</ele>
        <time>2012-07-23T08:59:45Z</time>
      </trkpt>
      <trkpt lat="46.151844738051295" lon="7.266743676736951">
        <ele>1579.5799999999999</ele>
        <time>2012-07-23T08:59:46Z</time>
      </trkpt>
      <trkpt lat="46.15182981826365" lon="7.266766559332609">
        <ele>1579.5799999999999</ele>
        <time>2012-07-23T08:59:47Z</time>
      </trkpt>
      <trkpt lat="46.151812132447958" lon="7.266788184642792">
        <ele>1579.5799999999999</ele>
        <time>2012-07-23T08:59:48Z</time>
      </trkpt>
      <trkpt lat="46.15179218351841" lon="7.266806205734611">
        <ele>1579.5799999999999</ele>
        <time>2012-07-23T08:59:49Z</time>
      </trkpt>
      <trkpt lat="46.151773827150464" lon="7.26682523265481">
        <ele>1579.5799999999999</ele>
        <time>2012-07-23T08:59:50Z</time>
      </trkpt>
      <trkpt lat="46.151513401418924" lon="7.267054561525583">
        <ele>1580.54</ele>
        <time>2012-07-23T09:00:04Z</time>
      </trkpt>
      <trkpt lat="46.151319527998567" lon="7.267213817685843">
        <ele>1581.99</ele>
        <time>2012-07-23T09:00:15Z</time>
      </trkpt>
      <trkpt lat="46.150989281013608" lon="7.267349185422063">
        <ele>1583.4300000000001</ele>
        <time>2012-07-23T09:00:31Z</time>
      </trkpt>
      <trkpt lat="46.150719216093421" lon="7.267326889559627">
        <ele>1584.8699999999999</ele>
        <time>2012-07-23T09:00:44Z</time>
      </trkpt>
      <trkpt lat="46.150517128407955" lon="7.267529731616378">
        <ele>1586.3099999999999</ele>
        <time>2012-07-23T09:00:57Z</time>
      </trkpt>
      <trkpt lat="46.150273298844695" lon="7.267620004713535">
        <ele>1587.75</ele>
        <time>2012-07-23T09:01:10Z</time>
      </trkpt>
      <trkpt lat="46.150077497586608" lon="7.267600642517209">
        <ele>1588.72</ele>
        <time>2012-07-23T09:01:20Z</time>
      </trkpt>
      <trkpt lat="46.150064002722502" lon="7.267617741599679">
        <ele>1588.72</ele>
        <time>2012-07-23T09:01:21Z</time>
      </trkpt>
      <trkpt lat="46.150048328563571" lon="7.267634924501181">
        <ele>1588.72</ele>
        <time>2012-07-23T09:01:22Z</time>
      </trkpt>
      <trkpt lat="46.150030307471752" lon="7.267645820975304">
        <ele>1588.72</ele>
        <time>2012-07-23T09:01:23Z</time>
      </trkpt>
      <trkpt lat="46.150012705475092" lon="7.267657220363617">
        <ele>1588.72</ele>
        <time>2012-07-23T09:01:24Z</time>
      </trkpt>
      <trkpt lat="46.149992337450385" lon="7.267668368294835">
        <ele>1588.24</ele>
        <time>2012-07-23T09:01:25Z</time>
      </trkpt>
      <trkpt lat="46.149970963597298" lon="7.267676834017038">
        <ele>1588.24</ele>
        <time>2012-07-23T09:01:26Z</time>
      </trkpt>
      <trkpt lat="46.149949673563242" lon="7.267688736319542">
        <ele>1588.72</ele>
        <time>2012-07-23T09:01:27Z</time>
      </trkpt>
      <trkpt lat="46.149928299710155" lon="7.267700219526887">
        <ele>1588.72</ele>
        <time>2012-07-23T09:01:28Z</time>
      </trkpt>
      <trkpt lat="46.149680949747562" lon="7.267854698002338">
        <ele>1591.5999999999999</ele>
        <time>2012-07-23T09:01:42Z</time>
      </trkpt>
      <trkpt lat="46.149460589513183" lon="7.268182262778282">
        <ele>1595.9300000000001</ele>
        <time>2012-07-23T09:01:58Z</time>
      </trkpt>
      <trkpt lat="46.149436198174953" lon="7.268227441236377">
        <ele>1596.4100000000001</ele>
        <time>2012-07-23T09:02:00Z</time>
      </trkpt>
      <trkpt lat="46.149209719151258" lon="7.268403377383947">
        <ele>1599.29</ele>
        <time>2012-07-23T09:02:14Z</time>
      </trkpt>
      <trkpt lat="46.149192955344915" lon="7.268438581377268">
        <ele>1599.29</ele>
        <time>2012-07-23T09:02:16Z</time>
      </trkpt>
      <trkpt lat="46.14918733946979" lon="7.26846213452518">
        <ele>1599.77</ele>
        <time>2012-07-23T09:02:17Z</time>
      </trkpt>
      <trkpt lat="46.149182142689824" lon="7.268489040434361">
        <ele>1599.77</ele>
        <time>2012-07-23T09:02:18Z</time>
      </trkpt>
      <trkpt lat="46.149178706109524" lon="7.268516616895795">
        <ele>1600.25</ele>
        <time>2012-07-23T09:02:19Z</time>
      </trkpt>
      <trkpt lat="46.149173593148589" lon="7.268535392358899">
        <ele>1600.25</ele>
        <time>2012-07-23T09:02:20Z</time>
      </trkpt>
      <trkpt lat="46.149170491844416" lon="7.268559699878097">
        <ele>1600.73</ele>
        <time>2012-07-23T09:02:21Z</time>
      </trkpt>
      <trkpt lat="46.149165881797671" lon="7.268583253026009">
        <ele>1600.73</ele>
        <time>2012-07-23T09:02:22Z</time>
      </trkpt>
      <trkpt lat="46.149158673360944" lon="7.268604040145874">
        <ele>1601.21</ele>
        <time>2012-07-23T09:02:23Z</time>
      </trkpt>
      <trkpt lat="46.149069992825389" lon="7.268916433677077">
        <ele>1603.1400000000001</ele>
        <time>2012-07-23T09:02:36Z</time>
      </trkpt>
      <trkpt lat="46.149024059996009" lon="7.269206028431654">
        <ele>1604.5799999999999</ele>
        <time>2012-07-23T09:02:49Z</time>
      </trkpt>
      <trkpt lat="46.148997489362955" lon="7.269408367574215">
        <ele>1607.9400000000001</ele>
        <time>2012-07-23T09:02:57Z</time>
      </trkpt>
      <trkpt lat="46.148994136601686" lon="7.269433848559856">
        <ele>1608.4200000000001</ele>
        <time>2012-07-23T09:02:58Z</time>
      </trkpt>
      <trkpt lat="46.14898944273591" lon="7.269455222412944">
        <ele>1608.4200000000001</ele>
        <time>2012-07-23T09:02:59Z</time>
      </trkpt>
      <trkpt lat="46.148986676707864" lon="7.269475171342492">
        <ele>1608.4200000000001</ele>
        <time>2012-07-23T09:03:00Z</time>
      </trkpt>
      <trkpt lat="46.148983910679817" lon="7.269497970119119">
        <ele>1608.9000000000001</ele>
        <time>2012-07-23T09:03:01Z</time>
      </trkpt>
      <trkpt lat="46.148981731384993" lon="7.26952051743865">
        <ele>1608.9000000000001</ele>
        <time>2012-07-23T09:03:02Z</time>
      </trkpt>
      <trkpt lat="46.148948622867465" lon="7.269713636487722">
        <ele>1609.3800000000001</ele>
        <time>2012-07-23T09:03:09Z</time>
      </trkpt>
      <trkpt lat="46.148786013945937" lon="7.270100545138121">
        <ele>1613.23</ele>
        <time>2012-07-23T09:03:25Z</time>
      </trkpt>
      <trkpt lat="46.148628853261471" lon="7.270263573154807">
        <ele>1617.5599999999999</ele>
        <time>2012-07-23T09:03:37Z</time>
      </trkpt>
      <trkpt lat="46.148611502721906" lon="7.270268937572837">
        <ele>1618.04</ele>
        <time>2012-07-23T09:03:38Z</time>
      </trkpt>
      <trkpt lat="46.148595996201038" lon="7.270277654752135">
        <ele>1618.52</ele>
        <time>2012-07-23T09:03:39Z</time>
      </trkpt>
      <trkpt lat="46.148581160232425" lon="7.2702881321311">
        <ele>1619</ele>
        <time>2012-07-23T09:03:40Z</time>
      </trkpt>
      <trkpt lat="46.14856481552124" lon="7.270294250920415">
        <ele>1619.48</ele>
        <time>2012-07-23T09:03:41Z</time>
      </trkpt>
      <trkpt lat="46.148548135533929" lon="7.270300202071667">
        <ele>1619.96</ele>
        <time>2012-07-23T09:03:42Z</time>
      </trkpt>
      <trkpt lat="46.148532461374998" lon="7.270313613116741">
        <ele>1619.96</ele>
        <time>2012-07-23T09:03:43Z</time>
      </trkpt>
      <trkpt lat="46.148517793044448" lon="7.270327024161816">
        <ele>1620.4400000000001</ele>
        <time>2012-07-23T09:03:44Z</time>
      </trkpt>
      <trkpt lat="46.148261055350304" lon="7.270456692203879">
        <ele>1626.21</ele>
        <time>2012-07-23T09:04:00Z</time>
      </trkpt>
      <trkpt lat="46.148195173591375" lon="7.27049239911139">
        <ele>1627.6500000000001</ele>
        <time>2012-07-23T09:04:04Z</time>
      </trkpt>
      <trkpt lat="46.148182516917586" lon="7.27050656452775">
        <ele>1627.6500000000001</ele>
        <time>2012-07-23T09:04:05Z</time>
      </trkpt>
      <trkpt lat="46.148173799738288" lon="7.270524417981505">
        <ele>1628.1300000000001</ele>
        <time>2012-07-23T09:04:06Z</time>
      </trkpt>
      <trkpt lat="46.148167932406068" lon="7.270543612539768">
        <ele>1628.1300000000001</ele>
        <time>2012-07-23T09:04:07Z</time>
      </trkpt>
      <trkpt lat="46.148161310702562" lon="7.270561968907714">
        <ele>1628.6099999999999</ele>
        <time>2012-07-23T09:04:08Z</time>
      </trkpt>
      <trkpt lat="46.148153599351645" lon="7.27058032527566">
        <ele>1628.6099999999999</ele>
        <time>2012-07-23T09:04:09Z</time>
      </trkpt>
      <trkpt lat="46.148146139457822" lon="7.270598094910383">
        <ele>1628.6099999999999</ele>
        <time>2012-07-23T09:04:10Z</time>
      </trkpt>
      <trkpt lat="46.148139266297221" lon="7.270619301125407">
        <ele>1628.6099999999999</ele>
        <time>2012-07-23T09:04:11Z</time>
      </trkpt>
      <trkpt lat="46.148134237155318" lon="7.270644027739763">
        <ele>1629.0899999999999</ele>
        <time>2012-07-23T09:04:12Z</time>
      </trkpt>
      <trkpt lat="46.148080676794052" lon="7.270955499261618">
        <ele>1631.01</ele>
        <time>2012-07-23T09:04:26Z</time>
      </trkpt>
      <trkpt lat="46.14806248806417" lon="7.271020961925387">
        <ele>1631.49</ele>
        <time>2012-07-23T09:04:29Z</time>
      </trkpt>
      <trkpt lat="46.148058297112584" lon="7.271046778187156">
        <ele>1631.98</ele>
        <time>2012-07-23T09:04:30Z</time>
      </trkpt>
      <trkpt lat="46.148051004856825" lon="7.271068822592497">
        <ele>1631.98</ele>
        <time>2012-07-23T09:04:31Z</time>
      </trkpt>
      <trkpt lat="46.148044047877192" lon="7.271093297749758">
        <ele>1631.98</ele>
        <time>2012-07-23T09:04:32Z</time>
      </trkpt>
      <trkpt lat="46.148037174716592" lon="7.27111634798348">
        <ele>1631.98</ele>
        <time>2012-07-23T09:04:33Z</time>
      </trkpt>
      <trkpt lat="46.148029547184706" lon="7.271137470379472">
        <ele>1632.46</ele>
        <time>2012-07-23T09:04:34Z</time>
      </trkpt>
      <trkpt lat="46.148023428395391" lon="7.271163370460272">
        <ele>1632.46</ele>
        <time>2012-07-23T09:04:35Z</time>
      </trkpt>
      <trkpt lat="46.148016639053822" lon="7.271186839789152">
        <ele>1632.46</ele>
        <time>2012-07-23T09:04:36Z</time>
      </trkpt>
      <trkpt lat="46.148008340969682" lon="7.271207626909018">
        <ele>1632.9400000000001</ele>
        <time>2012-07-23T09:04:37Z</time>
      </trkpt>
      <trkpt lat="46.148000713437796" lon="7.271227911114693">
        <ele>1632.9400000000001</ele>
        <time>2012-07-23T09:04:38Z</time>
      </trkpt>
      <trkpt lat="46.147958049550653" lon="7.27143008261919">
        <ele>1634.3800000000001</ele>
        <time>2012-07-23T09:04:47Z</time>
      </trkpt>
      <trkpt lat="46.147944135591388" lon="7.271456150338054">
        <ele>1634.3800000000001</ele>
        <time>2012-07-23T09:04:49Z</time>
      </trkpt>
      <trkpt lat="46.147940363734961" lon="7.271477691829205">
        <ele>1634.3800000000001</ele>
        <time>2012-07-23T09:04:50Z</time>
      </trkpt>
      <trkpt lat="46.147935334593058" lon="7.271496132016182">
        <ele>1634.3800000000001</ele>
        <time>2012-07-23T09:04:51Z</time>
      </trkpt>
      <trkpt lat="46.147931311279535" lon="7.271515158936381">
        <ele>1634.8599999999999</ele>
        <time>2012-07-23T09:04:52Z</time>
      </trkpt>
      <trkpt lat="46.147927790880203" lon="7.271538963541389">
        <ele>1634.8599999999999</ele>
        <time>2012-07-23T09:04:53Z</time>
      </trkpt>
      <trkpt lat="46.147926198318601" lon="7.271566204726696">
        <ele>1634.8599999999999</ele>
        <time>2012-07-23T09:04:54Z</time>
      </trkpt>
      <trkpt lat="46.14792175590992" lon="7.271588584408164">
        <ele>1634.8599999999999</ele>
        <time>2012-07-23T09:04:55Z</time>
      </trkpt>
      <trkpt lat="46.147912116721272" lon="7.271609706804156">
        <ele>1634.8599999999999</ele>
        <time>2012-07-23T09:04:56Z</time>
      </trkpt>
      <trkpt lat="46.147865429520607" lon="7.27172420360148">
        <ele>1636.3</ele>
        <time>2012-07-23T09:05:02Z</time>
      </trkpt>
      <trkpt lat="46.147859562188387" lon="7.271744823083282">
        <ele>1636.3</ele>
        <time>2012-07-23T09:05:03Z</time>
      </trkpt>
      <trkpt lat="46.14785386249423" lon="7.271766029298306">
        <ele>1636.3</ele>
        <time>2012-07-23T09:05:04Z</time>
      </trkpt>
      <trkpt lat="46.147848162800074" lon="7.271786564961076">
        <ele>1636.78</ele>
        <time>2012-07-23T09:05:05Z</time>
      </trkpt>
      <trkpt lat="46.147841289639473" lon="7.271805927157402">
        <ele>1636.78</ele>
        <time>2012-07-23T09:05:06Z</time>
      </trkpt>
      <trkpt lat="46.147835003212094" lon="7.271827636286616">
        <ele>1637.26</ele>
        <time>2012-07-23T09:05:07Z</time>
      </trkpt>
      <trkpt lat="46.147829135879874" lon="7.271852279081941">
        <ele>1637.26</ele>
        <time>2012-07-23T09:05:08Z</time>
      </trkpt>
      <trkpt lat="46.147823771461844" lon="7.271872730925679">
        <ele>1637.74</ele>
        <time>2012-07-23T09:05:09Z</time>
      </trkpt>
      <trkpt lat="46.147754117846489" lon="7.272136593237519">
        <ele>1640.1500000000001</ele>
        <time>2012-07-23T09:05:20Z</time>
      </trkpt>
      <trkpt lat="46.147637609392405" lon="7.272266345098615">
        <ele>1643.03</ele>
        <time>2012-07-23T09:05:29Z</time>
      </trkpt>
      <trkpt lat="46.147628808394074" lon="7.272281683981419">
        <ele>1643.99</ele>
        <time>2012-07-23T09:05:30Z</time>
      </trkpt>
      <trkpt lat="46.147619336843491" lon="7.272299621254206">
        <ele>1643.99</ele>
        <time>2012-07-23T09:05:31Z</time>
      </trkpt>
      <trkpt lat="46.147610452026129" lon="7.272316301241517">
        <ele>1644.47</ele>
        <time>2012-07-23T09:05:32Z</time>
      </trkpt>
      <trkpt lat="46.147600058466196" lon="7.272334070876241">
        <ele>1644.47</ele>
        <time>2012-07-23T09:05:33Z</time>
      </trkpt>
      <trkpt lat="46.147589832544327" lon="7.272354187443852">
        <ele>1644.47</ele>
        <time>2012-07-23T09:05:34Z</time>
      </trkpt>
      <trkpt lat="46.147580780088902" lon="7.272372879087925">
        <ele>1644.47</ele>
        <time>2012-07-23T09:05:35Z</time>
      </trkpt>
      <trkpt lat="46.147571643814445" lon="7.27239266037941">
        <ele>1644.47</ele>
        <time>2012-07-23T09:05:36Z</time>
      </trkpt>
      <trkpt lat="46.147561753168702" lon="7.272410513833165">
        <ele>1644.47</ele>
        <time>2012-07-23T09:05:37Z</time>
      </trkpt>
      <trkpt lat="46.147549180313945" lon="7.272422416135669">
        <ele>1644.47</ele>
        <time>2012-07-23T09:05:38Z</time>
      </trkpt>
      <trkpt lat="46.147535601630807" lon="7.272432977333665">
        <ele>1644.47</ele>
        <time>2012-07-23T09:05:39Z</time>
      </trkpt>
      <trkpt lat="46.147524872794747" lon="7.272449070587754">
        <ele>1644.47</ele>
        <time>2012-07-23T09:05:40Z</time>
      </trkpt>
      <trkpt lat="46.147512216120958" lon="7.272466337308288">
        <ele>1643.99</ele>
        <time>2012-07-23T09:05:41Z</time>
      </trkpt>
      <trkpt lat="46.147499810904264" lon="7.272481508553028">
        <ele>1643.99</ele>
        <time>2012-07-23T09:05:42Z</time>
      </trkpt>
      <trkpt lat="46.147484891116619" lon="7.272497098892927">
        <ele>1644.47</ele>
        <time>2012-07-23T09:05:43Z</time>
      </trkpt>
      <trkpt lat="46.147469636052847" lon="7.272513275966048">
        <ele>1644.47</ele>
        <time>2012-07-23T09:05:44Z</time>
      </trkpt>
      <trkpt lat="46.14731733687222" lon="7.2726487275213">
        <ele>1645.9100000000001</ele>
        <time>2012-07-23T09:05:54Z</time>
      </trkpt>
      <trkpt lat="46.147301411256194" lon="7.272653672844172">
        <ele>1645.9100000000001</ele>
        <time>2012-07-23T09:05:55Z</time>
      </trkpt>
      <trkpt lat="46.147251958027482" lon="7.272666832432151">
        <ele>1646.4000000000001</ele>
        <time>2012-07-23T09:05:58Z</time>
      </trkpt>
      <trkpt lat="46.147235697135329" lon="7.27267311885953">
        <ele>1646.4000000000001</ele>
        <time>2012-07-23T09:05:59Z</time>
      </trkpt>
      <trkpt lat="46.147219268605113" lon="7.272677142173052">
        <ele>1646.4000000000001</ele>
        <time>2012-07-23T09:06:00Z</time>
      </trkpt>
      <trkpt lat="46.14720300771296" lon="7.27267999202013">
        <ele>1646.8800000000001</ele>
        <time>2012-07-23T09:06:01Z</time>
      </trkpt>
      <trkpt lat="46.147185740992427" lon="7.272683763876557">
        <ele>1646.8800000000001</ele>
        <time>2012-07-23T09:06:02Z</time>
      </trkpt>
      <trkpt lat="46.14716880954802" lon="7.272684518247843">
        <ele>1646.8800000000001</ele>
        <time>2012-07-23T09:06:03Z</time>
      </trkpt>
      <trkpt lat="46.147152045741677" lon="7.272683093324304">
        <ele>1646.8800000000001</ele>
        <time>2012-07-23T09:06:04Z</time>
      </trkpt>
      <trkpt lat="46.147135868668556" lon="7.27268242277205">
        <ele>1646.8800000000001</ele>
        <time>2012-07-23T09:06:05Z</time>
      </trkpt>
      <trkpt lat="46.147119607776403" lon="7.272676220163703">
        <ele>1647.3599999999999</ele>
        <time>2012-07-23T09:06:06Z</time>
      </trkpt>
      <trkpt lat="46.1471042688936" lon="7.272663898766041">
        <ele>1647.3599999999999</ele>
        <time>2012-07-23T09:06:07Z</time>
      </trkpt>
      <trkpt lat="46.147089265286922" lon="7.272654930129647">
        <ele>1647.8399999999999</ele>
        <time>2012-07-23T09:06:08Z</time>
      </trkpt>
      <trkpt lat="46.14707401022315" lon="7.272643782198429">
        <ele>1648.8</ele>
        <time>2012-07-23T09:06:09Z</time>
      </trkpt>
      <trkpt lat="46.146920286118984" lon="7.272544875741005">
        <ele>1654.0899999999999</ele>
        <time>2012-07-23T09:06:19Z</time>
      </trkpt>
      <trkpt lat="46.146796066313982" lon="7.27271318435669">
        <ele>1656.01</ele>
        <time>2012-07-23T09:06:31Z</time>
      </trkpt>
      <trkpt lat="46.146767316386104" lon="7.272790046408773">
        <ele>1656.49</ele>
        <time>2012-07-23T09:06:35Z</time>
      </trkpt>
      <trkpt lat="46.146711744368076" lon="7.273131022229791">
        <ele>1659.8499999999999</ele>
        <time>2012-07-23T09:06:50Z</time>
      </trkpt>
      <trkpt lat="46.14667578600347" lon="7.273341743275523">
        <ele>1660.8099999999999</ele>
        <time>2012-07-23T09:06:59Z</time>
      </trkpt>
      <trkpt lat="46.146624404937029" lon="7.273765448480845">
        <ele>1664.6600000000001</ele>
        <time>2012-07-23T09:07:17Z</time>
      </trkpt>
      <trkpt lat="46.146609652787447" lon="7.273958567529917">
        <ele>1666.0999999999999</ele>
        <time>2012-07-23T09:07:25Z</time>
      </trkpt>
      <trkpt lat="46.146613759920001" lon="7.274049678817391">
        <ele>1666.5799999999999</ele>
        <time>2012-07-23T09:07:29Z</time>
      </trkpt>
      <trkpt lat="46.146564977243543" lon="7.274263584986329">
        <ele>1667.54</ele>
        <time>2012-07-23T09:07:39Z</time>
      </trkpt>
      <trkpt lat="46.14644025452435" lon="7.27453381754458">
        <ele>1669.95</ele>
        <time>2012-07-23T09:07:54Z</time>
      </trkpt>
      <trkpt lat="46.146199274808168" lon="7.274709418416023">
        <ele>1675.23</ele>
        <time>2012-07-23T09:08:09Z</time>
      </trkpt>
      <trkpt lat="46.14597262814641" lon="7.274698102846742">
        <ele>1678.1199999999999</ele>
        <time>2012-07-23T09:08:21Z</time>
      </trkpt>
      <trkpt lat="46.145916134119034" lon="7.274697097018361">
        <ele>1679.0799999999999</ele>
        <time>2012-07-23T09:08:24Z</time>
      </trkpt>
      <trkpt lat="46.145896939560771" lon="7.274709502235055">
        <ele>1679.0799999999999</ele>
        <time>2012-07-23T09:08:25Z</time>
      </trkpt>
      <trkpt lat="46.145878499373794" lon="7.274725176393986">
        <ele>1679.0799999999999</ele>
        <time>2012-07-23T09:08:26Z</time>
      </trkpt>
      <trkpt lat="46.145749920979142" lon="7.275016196072102">
        <ele>1681</ele>
        <time>2012-07-23T09:08:40Z</time>
      </trkpt>
      <trkpt lat="46.145627209916711" lon="7.275408636778593">
        <ele>1682.9300000000001</ele>
        <time>2012-07-23T09:08:57Z</time>
      </trkpt>
      <trkpt lat="46.145471055060625" lon="7.275692950934172">
        <ele>1685.3299999999999</ele>
        <time>2012-07-23T09:09:12Z</time>
      </trkpt>
      <trkpt lat="46.145308278501034" lon="7.275933427736163">
        <ele>1686.77</ele>
        <time>2012-07-23T09:09:25Z</time>
      </trkpt>
      <trkpt lat="46.145193027332425" lon="7.276142137125135">
        <ele>1688.21</ele>
        <time>2012-07-23T09:09:35Z</time>
      </trkpt>
      <trkpt lat="46.145180370658636" lon="7.276162756606937">
        <ele>1688.21</ele>
        <time>2012-07-23T09:09:36Z</time>
      </trkpt>
      <trkpt lat="46.145135946571827" lon="7.276252107694745">
        <ele>1688.6900000000001</ele>
        <time>2012-07-23T09:09:40Z</time>
      </trkpt>
      <trkpt lat="46.14512094296515" lon="7.276268117129803">
        <ele>1689.1700000000001</ele>
        <time>2012-07-23T09:09:41Z</time>
      </trkpt>
      <trkpt lat="46.145106526091695" lon="7.276284210383892">
        <ele>1689.1700000000001</ele>
        <time>2012-07-23T09:09:42Z</time>
      </trkpt>
      <trkpt lat="46.145091857761145" lon="7.276301980018616">
        <ele>1689.1700000000001</ele>
        <time>2012-07-23T09:09:43Z</time>
      </trkpt>
      <trkpt lat="46.145077608525753" lon="7.276319582015276">
        <ele>1689.6500000000001</ele>
        <time>2012-07-23T09:09:44Z</time>
      </trkpt>
      <trkpt lat="46.144911898300052" lon="7.276436928659678">
        <ele>1691.5799999999999</ele>
        <time>2012-07-23T09:09:54Z</time>
      </trkpt>
      <trkpt lat="46.14489471539855" lon="7.276448411867023">
        <ele>1691.5799999999999</ele>
        <time>2012-07-23T09:09:55Z</time>
      </trkpt>
      <trkpt lat="46.144877364858985" lon="7.27645805105567">
        <ele>1692.0599999999999</ele>
        <time>2012-07-23T09:09:56Z</time>
      </trkpt>
      <trkpt lat="46.14456145092845" lon="7.276502726599574">
        <ele>1695.4200000000001</ele>
        <time>2012-07-23T09:10:13Z</time>
      </trkpt>
      <trkpt lat="46.144295576959848" lon="7.276480933651328">
        <ele>1697.3399999999999</ele>
        <time>2012-07-23T09:10:27Z</time>
      </trkpt>
      <trkpt lat="46.14395703189075" lon="7.276412872597575">
        <ele>1699.75</ele>
        <time>2012-07-23T09:10:46Z</time>
      </trkpt>
      <trkpt lat="46.143622929230332" lon="7.276341877877712">
        <ele>1703.5899999999999</ele>
        <time>2012-07-23T09:11:04Z</time>
      </trkpt>
      <trkpt lat="46.143341632559896" lon="7.276466013863683">
        <ele>1706</ele>
        <time>2012-07-23T09:11:19Z</time>
      </trkpt>
      <trkpt lat="46.143026640638709" lon="7.27655092254281">
        <ele>1708.4000000000001</ele>
        <time>2012-07-23T09:11:36Z</time>
      </trkpt>
      <trkpt lat="46.142750959843397" lon="7.276526615023613">
        <ele>1711.76</ele>
        <time>2012-07-23T09:11:51Z</time>
      </trkpt>
      <trkpt lat="46.142469244077802" lon="7.276473054662347">
        <ele>1714.6500000000001</ele>
        <time>2012-07-23T09:12:07Z</time>
      </trkpt>
      <trkpt lat="46.142458682879806" lon="7.276482945308089">
        <ele>1714.6500000000001</ele>
        <time>2012-07-23T09:12:08Z</time>
      </trkpt>
      <trkpt lat="46.142221391201019" lon="7.276577828451991">
        <ele>1717.05</ele>
        <time>2012-07-23T09:12:21Z</time>
      </trkpt>
      <trkpt lat="46.142022237181664" lon="7.276675729081035">
        <ele>1719.46</ele>
        <time>2012-07-23T09:12:32Z</time>
      </trkpt>
      <trkpt lat="46.14179776981473" lon="7.276981920003891">
        <ele>1721.8599999999999</ele>
        <time>2012-07-23T09:12:49Z</time>
      </trkpt>
      <trkpt lat="46.141746137291193" lon="7.277047969400883">
        <ele>1721.3800000000001</ele>
        <time>2012-07-23T09:12:53Z</time>
      </trkpt>
      <trkpt lat="46.141727361828089" lon="7.27705710567534">
        <ele>1720.9000000000001</ele>
        <time>2012-07-23T09:12:54Z</time>
      </trkpt>
      <trkpt lat="46.141656199470162" lon="7.27712843567133">
        <ele>1720.9000000000001</ele>
        <time>2012-07-23T09:12:59Z</time>
      </trkpt>
      <trkpt lat="46.141648655757308" lon="7.277153413742781">
        <ele>1721.3800000000001</ele>
        <time>2012-07-23T09:13:00Z</time>
      </trkpt>
      <trkpt lat="46.141648404300213" lon="7.277176547795534">
        <ele>1721.3800000000001</ele>
        <time>2012-07-23T09:13:01Z</time>
      </trkpt>
      <trkpt lat="46.141656283289194" lon="7.277197921648622">
        <ele>1721.8599999999999</ele>
        <time>2012-07-23T09:13:02Z</time>
      </trkpt>
      <trkpt lat="46.141773127019405" lon="7.277166908606887">
        <ele>1723.78</ele>
        <time>2012-07-23T09:13:10Z</time>
      </trkpt>
      <trkpt lat="46.142028607428074" lon="7.27694914676249">
        <ele>1727.6300000000001</ele>
        <time>2012-07-23T09:13:26Z</time>
      </trkpt>
      <trkpt lat="46.142245531082153" lon="7.276874799281359">
        <ele>1730.51</ele>
        <time>2012-07-23T09:13:39Z</time>
      </trkpt>
      <trkpt lat="46.142475614324212" lon="7.276965910568833">
        <ele>1733.8800000000001</ele>
        <time>2012-07-23T09:13:52Z</time>
      </trkpt>
      <trkpt lat="46.142720365896821" lon="7.27722130715847">
        <ele>1736.76</ele>
        <time>2012-07-23T09:14:08Z</time>
      </trkpt>
      <trkpt lat="46.142980959266424" lon="7.277389783412218">
        <ele>1738.6800000000001</ele>
        <time>2012-07-23T09:14:23Z</time>
      </trkpt>
      <trkpt lat="46.143161924555898" lon="7.277712151408196">
        <ele>1740.1199999999999</ele>
        <time>2012-07-23T09:14:39Z</time>
      </trkpt>
      <trkpt lat="46.143337022513151" lon="7.278020437806845">
        <ele>1742.05</ele>
        <time>2012-07-23T09:14:54Z</time>
      </trkpt>
      <trkpt lat="46.143523687496781" lon="7.278288658708334">
        <ele>1743.97</ele>
        <time>2012-07-23T09:15:08Z</time>
      </trkpt>
      <trkpt lat="46.14371856674552" lon="7.278489824384451">
        <ele>1746.8499999999999</ele>
        <time>2012-07-23T09:15:22Z</time>
      </trkpt>
      <trkpt lat="46.143842451274395" lon="7.278529722243547">
        <ele>1749.74</ele>
        <time>2012-07-23T09:15:30Z</time>
      </trkpt>
      <trkpt lat="46.144123412668705" lon="7.278558304533362">
        <ele>1755.99</ele>
        <time>2012-07-23T09:15:44Z</time>
      </trkpt>
      <trkpt lat="46.144390208646655" lon="7.278704149648547">
        <ele>1758.3900000000001</ele>
        <time>2012-07-23T09:15:59Z</time>
      </trkpt>
      <trkpt lat="46.144573856145144" lon="7.278964826837182">
        <ele>1761.75</ele>
        <time>2012-07-23T09:16:11Z</time>
      </trkpt>
      <trkpt lat="46.144903684034944" lon="7.278999025002122">
        <ele>1761.27</ele>
        <time>2012-07-23T09:16:23Z</time>
      </trkpt>
      <trkpt lat="46.145361922681332" lon="7.278987960889936">
        <ele>1763.6800000000001</ele>
        <time>2012-07-23T09:16:38Z</time>
      </trkpt>
      <trkpt lat="46.145623186603189" lon="7.278981506824493">
        <ele>1766.5599999999999</ele>
        <time>2012-07-23T09:16:51Z</time>
      </trkpt>
      <trkpt lat="46.145868273451924" lon="7.279071193188429">
        <ele>1767.52</ele>
        <time>2012-07-23T09:17:05Z</time>
      </trkpt>
      <trkpt lat="46.146121406927705" lon="7.279191222041845">
        <ele>1765.5999999999999</ele>
        <time>2012-07-23T09:17:17Z</time>
      </trkpt>
      <trkpt lat="46.146437237039208" lon="7.279160041362047">
        <ele>1765.1199999999999</ele>
        <time>2012-07-23T09:17:29Z</time>
      </trkpt>
      <trkpt lat="46.146702356636524" lon="7.278853515163064">
        <ele>1770.8900000000001</ele>
        <time>2012-07-23T09:17:43Z</time>
      </trkpt>
      <trkpt lat="46.146912658587098" lon="7.278579762205482">
        <ele>1774.73</ele>
        <time>2012-07-23T09:17:56Z</time>
      </trkpt>
      <trkpt lat="46.147236786782742" lon="7.2784164827317">
        <ele>1779.0599999999999</ele>
        <time>2012-07-23T09:18:12Z</time>
      </trkpt>
      <trkpt lat="46.147457230836153" lon="7.278364095836878">
        <ele>1782.9000000000001</ele>
        <time>2012-07-23T09:18:26Z</time>
      </trkpt>
      <trkpt lat="46.147609362378716" lon="7.278439700603485">
        <ele>1784.3399999999999</ele>
        <time>2012-07-23T09:18:37Z</time>
      </trkpt>
      <trkpt lat="46.147608859464526" lon="7.278460822999477">
        <ele>1784.8199999999999</ele>
        <time>2012-07-23T09:18:38Z</time>
      </trkpt>
      <trkpt lat="46.147601818665862" lon="7.278478173539043">
        <ele>1784.8199999999999</ele>
        <time>2012-07-23T09:18:39Z</time>
      </trkpt>
      <trkpt lat="46.147589664906263" lon="7.278490662574768">
        <ele>1785.3099999999999</ele>
        <time>2012-07-23T09:18:40Z</time>
      </trkpt>
      <trkpt lat="46.147575918585062" lon="7.278501223772764">
        <ele>1785.3099999999999</ele>
        <time>2012-07-23T09:18:41Z</time>
      </trkpt>
      <trkpt lat="46.147513389587402" lon="7.278545731678605">
        <ele>1786.27</ele>
        <time>2012-07-23T09:18:46Z</time>
      </trkpt>
      <trkpt lat="46.147501822561026" lon="7.278551263734698">
        <ele>1786.75</ele>
        <time>2012-07-23T09:18:47Z</time>
      </trkpt>
      <trkpt lat="46.14741557277739" lon="7.278603315353394">
        <ele>1789.1500000000001</ele>
        <time>2012-07-23T09:18:53Z</time>
      </trkpt>
      <trkpt lat="46.147400233894587" lon="7.278607590124011">
        <ele>1789.1500000000001</ele>
        <time>2012-07-23T09:18:54Z</time>
      </trkpt>
      <trkpt lat="46.147386319935322" lon="7.278614044189453">
        <ele>1789.6300000000001</ele>
        <time>2012-07-23T09:18:55Z</time>
      </trkpt>
      <trkpt lat="46.147160176187754" lon="7.278742203488946">
        <ele>1792.52</ele>
        <time>2012-07-23T09:19:10Z</time>
      </trkpt>
      <trkpt lat="46.147025562822819" lon="7.278866255655885">
        <ele>1793.48</ele>
        <time>2012-07-23T09:19:19Z</time>
      </trkpt>
      <trkpt lat="46.147020114585757" lon="7.278886875137687">
        <ele>1793.48</ele>
        <time>2012-07-23T09:19:20Z</time>
      </trkpt>
      <trkpt lat="46.147015420719981" lon="7.278910512104631">
        <ele>1793.96</ele>
        <time>2012-07-23T09:19:21Z</time>
      </trkpt>
      <trkpt lat="46.147015420719981" lon="7.278931802138686">
        <ele>1793.96</ele>
        <time>2012-07-23T09:19:22Z</time>
      </trkpt>
      <trkpt lat="46.147020701318979" lon="7.278945129364729">
        <ele>1794.4400000000001</ele>
        <time>2012-07-23T09:19:23Z</time>
      </trkpt>
      <trkpt lat="46.147034028545022" lon="7.2789500746876">
        <ele>1794.9200000000001</ele>
        <time>2012-07-23T09:19:24Z</time>
      </trkpt>
      <trkpt lat="46.147048780694604" lon="7.278954014182091">
        <ele>1794.9200000000001</ele>
        <time>2012-07-23T09:19:25Z</time>
      </trkpt>
      <trkpt lat="46.147064957767725" lon="7.278951918706298">
        <ele>1794.9200000000001</ele>
        <time>2012-07-23T09:19:26Z</time>
      </trkpt>
      <trkpt lat="46.14707694388926" lon="7.278931802138686">
        <ele>1795.4000000000001</ele>
        <time>2012-07-23T09:19:32Z</time>
      </trkpt>
      <trkpt lat="46.147097479552031" lon="7.278915457427502">
        <ele>1793.96</ele>
        <time>2012-07-23T09:19:45Z</time>
      </trkpt>
      <trkpt lat="46.14711306989193" lon="7.278922749683261">
        <ele>1794.4400000000001</ele>
        <time>2012-07-23T09:20:03Z</time>
      </trkpt>
      <trkpt lat="46.147088091820478" lon="7.278903471305966">
        <ele>1793</ele>
        <time>2012-07-23T09:20:31Z</time>
      </trkpt>
      <trkpt lat="46.147088930010796" lon="7.27888310328126">
        <ele>1795.4000000000001</ele>
        <time>2012-07-23T09:21:02Z</time>
      </trkpt>
      <trkpt lat="46.147133521735668" lon="7.278821412473917">
        <ele>1797.3199999999999</ele>
        <time>2012-07-23T09:21:20Z</time>
      </trkpt>
      <trkpt lat="46.147146932780743" lon="7.278813198208809">
        <ele>1797.3199999999999</ele>
        <time>2012-07-23T09:21:21Z</time>
      </trkpt>
      <trkpt lat="46.147161265835166" lon="7.278807163238525">
        <ele>1797.3199999999999</ele>
        <time>2012-07-23T09:21:22Z</time>
      </trkpt>
      <trkpt lat="46.147239049896598" lon="7.278781346976757">
        <ele>1797.8</ele>
        <time>2012-07-23T09:21:36Z</time>
      </trkpt>
      <trkpt lat="46.147257070988417" lon="7.278817808255553">
        <ele>1797.8</ele>
        <time>2012-07-23T09:21:56Z</time>
      </trkpt>
      <trkpt lat="46.147310715168715" lon="7.278829123824835">
        <ele>1798.76</ele>
        <time>2012-07-23T09:22:01Z</time>
      </trkpt>
      <trkpt lat="46.147326054051518" lon="7.278842534869909">
        <ele>1798.76</ele>
        <time>2012-07-23T09:22:02Z</time>
      </trkpt>
      <trkpt lat="46.147341979667544" lon="7.278848988935351">
        <ele>1798.76</ele>
        <time>2012-07-23T09:22:03Z</time>
      </trkpt>
      <trkpt lat="46.147357821464539" lon="7.278853347525001">
        <ele>1798.76</ele>
        <time>2012-07-23T09:22:04Z</time>
      </trkpt>
      <trkpt lat="46.14737500436604" lon="7.278856951743364">
        <ele>1799.24</ele>
        <time>2012-07-23T09:22:05Z</time>
      </trkpt>
      <trkpt lat="46.147599890828133" lon="7.278905566781759">
        <ele>1798.76</ele>
        <time>2012-07-23T09:22:18Z</time>
      </trkpt>
      <trkpt lat="46.147854700684547" lon="7.278748992830515">
        <ele>1798.28</ele>
        <time>2012-07-23T09:22:32Z</time>
      </trkpt>
      <trkpt lat="46.14811185747385" lon="7.278615469112992">
        <ele>1799.73</ele>
        <time>2012-07-23T09:22:46Z</time>
      </trkpt>
      <trkpt lat="46.148327942937613" lon="7.278346996754408">
        <ele>1805.49</ele>
        <time>2012-07-23T09:23:00Z</time>
      </trkpt>
      <trkpt lat="46.148459706455469" lon="7.277925303205848">
        <ele>1812.22</ele>
        <time>2012-07-23T09:23:16Z</time>
      </trkpt>
      <trkpt lat="46.148681743070483" lon="7.277585752308369">
        <ele>1815.5899999999999</ele>
        <time>2012-07-23T09:23:33Z</time>
      </trkpt>
      <trkpt lat="46.148827336728573" lon="7.277355333790183">
        <ele>1817.51</ele>
        <time>2012-07-23T09:23:46Z</time>
      </trkpt>
      <trkpt lat="46.148965219035745" lon="7.277144026011229">
        <ele>1820.8699999999999</ele>
        <time>2012-07-23T09:23:59Z</time>
      </trkpt>
      <trkpt lat="46.148978127166629" lon="7.277131956070662">
        <ele>1820.8699999999999</ele>
        <time>2012-07-23T09:24:00Z</time>
      </trkpt>
      <trkpt lat="46.148990448564291" lon="7.277118964120746">
        <ele>1821.8399999999999</ele>
        <time>2012-07-23T09:24:01Z</time>
      </trkpt>
      <trkpt lat="46.149000255391002" lon="7.27710010483861">
        <ele>1821.8399999999999</ele>
        <time>2012-07-23T09:24:02Z</time>
      </trkpt>
      <trkpt lat="46.149009056389332" lon="7.277080910280347">
        <ele>1821.8399999999999</ele>
        <time>2012-07-23T09:24:03Z</time>
      </trkpt>
      <trkpt lat="46.149017438292503" lon="7.277063643559814">
        <ele>1822.3199999999999</ele>
        <time>2012-07-23T09:24:04Z</time>
      </trkpt>
      <trkpt lat="46.149208964779973" lon="7.27682794444263">
        <ele>1825.2</ele>
        <time>2012-07-23T09:24:20Z</time>
      </trkpt>
      <trkpt lat="46.14935489371419" lon="7.276589144021273">
        <ele>1830.97</ele>
        <time>2012-07-23T09:24:34Z</time>
      </trkpt>
      <trkpt lat="46.149480286985636" lon="7.276438185945153">
        <ele>1832.8900000000001</ele>
        <time>2012-07-23T09:24:45Z</time>
      </trkpt>
      <trkpt lat="46.149495290592313" lon="7.27642921730876">
        <ele>1833.3699999999999</ele>
        <time>2012-07-23T09:24:46Z</time>
      </trkpt>
      <trkpt lat="46.14951029419899" lon="7.276419829577208">
        <ele>1833.3699999999999</ele>
        <time>2012-07-23T09:24:47Z</time>
      </trkpt>
      <trkpt lat="46.149738365784287" lon="7.27646735496819">
        <ele>1836.74</ele>
        <time>2012-07-23T09:25:02Z</time>
      </trkpt>
      <trkpt lat="46.149903321638703" lon="7.276693833991885">
        <ele>1838.6600000000001</ele>
        <time>2012-07-23T09:25:17Z</time>
      </trkpt>
      <trkpt lat="46.149898208677769" lon="7.277086693793535">
        <ele>1840.5799999999999</ele>
        <time>2012-07-23T09:25:34Z</time>
      </trkpt>
      <trkpt lat="46.14978002384305" lon="7.277356004342437">
        <ele>1842.5</ele>
        <time>2012-07-23T09:25:47Z</time>
      </trkpt>
      <trkpt lat="46.149748507887125" lon="7.277707625180483">
        <ele>1845.8699999999999</ele>
        <time>2012-07-23T09:26:02Z</time>
      </trkpt>
      <trkpt lat="46.149740880355239" lon="7.277754731476307">
        <ele>1846.3499999999999</ele>
        <time>2012-07-23T09:26:04Z</time>
      </trkpt>
      <trkpt lat="46.149736354127526" lon="7.277781553566456">
        <ele>1846.3499999999999</ele>
        <time>2012-07-23T09:26:05Z</time>
      </trkpt>
      <trkpt lat="46.149732749909163" lon="7.277805274352431">
        <ele>1846.3499999999999</ele>
        <time>2012-07-23T09:26:06Z</time>
      </trkpt>
      <trkpt lat="46.149729816243052" lon="7.277828911319375">
        <ele>1846.3499999999999</ele>
        <time>2012-07-23T09:26:07Z</time>
      </trkpt>
      <trkpt lat="46.14972579292953" lon="7.27785212919116">
        <ele>1846.3499999999999</ele>
        <time>2012-07-23T09:26:08Z</time>
      </trkpt>
      <trkpt lat="46.149674160405993" lon="7.278050109744072">
        <ele>1847.79</ele>
        <time>2012-07-23T09:26:17Z</time>
      </trkpt>
      <trkpt lat="46.14956553094089" lon="7.278333501890302">
        <ele>1850.6800000000001</ele>
        <time>2012-07-23T09:26:31Z</time>
      </trkpt>
      <trkpt lat="46.149473246186972" lon="7.278697276487947">
        <ele>1855</ele>
        <time>2012-07-23T09:26:48Z</time>
      </trkpt>
      <trkpt lat="46.149511132389307" lon="7.278748909011483">
        <ele>1855.96</ele>
        <time>2012-07-23T09:26:51Z</time>
      </trkpt>
      <trkpt lat="46.149527058005333" lon="7.278754273429513">
        <ele>1855.96</ele>
        <time>2012-07-23T09:26:52Z</time>
      </trkpt>
      <trkpt lat="46.149540301412344" lon="7.278751926496625">
        <ele>1856.4400000000001</ele>
        <time>2012-07-23T09:26:53Z</time>
      </trkpt>
      <trkpt lat="46.149552538990974" lon="7.278744885697961">
        <ele>1856.4400000000001</ele>
        <time>2012-07-23T09:26:54Z</time>
      </trkpt>
      <trkpt lat="46.149566201493144" lon="7.278736336156726">
        <ele>1856.9200000000001</ele>
        <time>2012-07-23T09:26:55Z</time>
      </trkpt>
      <trkpt lat="46.149581372737885" lon="7.278728373348713">
        <ele>1857.4000000000001</ele>
        <time>2012-07-23T09:26:56Z</time>
      </trkpt>
      <trkpt lat="46.149815060198307" lon="7.278621755540371">
        <ele>1861.25</ele>
        <time>2012-07-23T09:27:12Z</time>
      </trkpt>
      <trkpt lat="46.150069367140532" lon="7.278511198237538">
        <ele>1864.6099999999999</ele>
        <time>2012-07-23T09:27:30Z</time>
      </trkpt>
      <trkpt lat="46.150337085127831" lon="7.278328808024526">
        <ele>1870.8599999999999</ele>
        <time>2012-07-23T09:27:50Z</time>
      </trkpt>
      <trkpt lat="46.150519559159875" lon="7.278258316218853">
        <ele>1874.23</ele>
        <time>2012-07-23T09:28:04Z</time>
      </trkpt>
      <trkpt lat="46.150750732049346" lon="7.278225878253579">
        <ele>1877.1099999999999</ele>
        <time>2012-07-23T09:28:22Z</time>
      </trkpt>
      <trkpt lat="46.150987939909101" lon="7.278099562972784">
        <ele>1880</ele>
        <time>2012-07-23T09:28:40Z</time>
      </trkpt>
      <trkpt lat="46.151150045916438" lon="7.277912478893995">
        <ele>1883.3599999999999</ele>
        <time>2012-07-23T09:28:54Z</time>
      </trkpt>
      <trkpt lat="46.15132606588304" lon="7.277623051777482">
        <ele>1886.24</ele>
        <time>2012-07-23T09:29:12Z</time>
      </trkpt>
      <trkpt lat="46.15146336145699" lon="7.277335971593857">
        <ele>1890.0899999999999</ele>
        <time>2012-07-23T09:29:27Z</time>
      </trkpt>
      <trkpt lat="46.151493368670344" lon="7.277284674346447">
        <ele>1890.5699999999999</ele>
        <time>2012-07-23T09:29:30Z</time>
      </trkpt>
      <trkpt lat="46.151505522429943" lon="7.277270508930087">
        <ele>1890.5699999999999</ele>
        <time>2012-07-23T09:29:31Z</time>
      </trkpt>
      <trkpt lat="46.151518765836954" lon="7.277255589142442">
        <ele>1891.05</ele>
        <time>2012-07-23T09:29:32Z</time>
      </trkpt>
      <trkpt lat="46.151689505204558" lon="7.277080239728093">
        <ele>1893.45</ele>
        <time>2012-07-23T09:29:45Z</time>
      </trkpt>
      <trkpt lat="46.151705598458648" lon="7.277075881138444">
        <ele>1893.9300000000001</ele>
        <time>2012-07-23T09:29:46Z</time>
      </trkpt>
      <trkpt lat="46.151721104979515" lon="7.27707177400589">
        <ele>1894.4200000000001</ele>
        <time>2012-07-23T09:29:47Z</time>
      </trkpt>
      <trkpt lat="46.151736862957478" lon="7.2770712710917">
        <ele>1894.4200000000001</ele>
        <time>2012-07-23T09:29:48Z</time>
      </trkpt>
      <trkpt lat="46.151752201840281" lon="7.277072025462985">
        <ele>1894.9000000000001</ele>
        <time>2012-07-23T09:29:49Z</time>
      </trkpt>
      <trkpt lat="46.151767792180181" lon="7.277070851996541">
        <ele>1894.9000000000001</ele>
        <time>2012-07-23T09:29:50Z</time>
      </trkpt>
      <trkpt lat="46.151891006156802" lon="7.277148552238941">
        <ele>1895.8599999999999</ele>
        <time>2012-07-23T09:29:59Z</time>
      </trkpt>
      <trkpt lat="46.151903579011559" lon="7.277163974940777">
        <ele>1896.3399999999999</ele>
        <time>2012-07-23T09:30:00Z</time>
      </trkpt>
      <trkpt lat="46.152134416624904" lon="7.277191383764148">
        <ele>1898.26</ele>
        <time>2012-07-23T09:30:15Z</time>
      </trkpt>
      <trkpt lat="46.152192838490009" lon="7.277111671864986">
        <ele>1899.7</ele>
        <time>2012-07-23T09:30:20Z</time>
      </trkpt>
      <trkpt lat="46.152274813503027" lon="7.276871195062995">
        <ele>1903.0699999999999</ele>
        <time>2012-07-23T09:30:34Z</time>
      </trkpt>
      <trkpt lat="46.152317728847265" lon="7.27655234746635">
        <ele>1905.47</ele>
        <time>2012-07-23T09:30:49Z</time>
      </trkpt>
      <trkpt lat="46.152423843741417" lon="7.276274152100086">
        <ele>1909.8</ele>
        <time>2012-07-23T09:31:03Z</time>
      </trkpt>
      <trkpt lat="46.152529623359442" lon="7.275963183492422">
        <ele>1914.1199999999999</ele>
        <time>2012-07-23T09:31:19Z</time>
      </trkpt>
      <trkpt lat="46.152641270309687" lon="7.275634864345193">
        <ele>1916.04</ele>
        <time>2012-07-23T09:31:36Z</time>
      </trkpt>
      <trkpt lat="46.152755012735724" lon="7.275267485529184">
        <ele>1917.97</ele>
        <time>2012-07-23T09:31:53Z</time>
      </trkpt>
      <trkpt lat="46.15284126251936" lon="7.27497898042202">
        <ele>1921.3299999999999</ele>
        <time>2012-07-23T09:32:07Z</time>
      </trkpt>
      <trkpt lat="46.153031196445227" lon="7.274641776457429">
        <ele>1925.6600000000001</ele>
        <time>2012-07-23T09:32:26Z</time>
      </trkpt>
      <trkpt lat="46.153260190039873" lon="7.27442485280335">
        <ele>1929.5</ele>
        <time>2012-07-23T09:32:44Z</time>
      </trkpt>
      <trkpt lat="46.153284246101975" lon="7.274394426494837">
        <ele>1929.98</ele>
        <time>2012-07-23T09:32:46Z</time>
      </trkpt>
      <trkpt lat="46.153348116204143" lon="7.274349499493837">
        <ele>1931.4300000000001</ele>
        <time>2012-07-23T09:32:51Z</time>
      </trkpt>
      <trkpt lat="46.153542911633849" lon="7.274131486192346">
        <ele>1934.79</ele>
        <time>2012-07-23T09:33:08Z</time>
      </trkpt>
      <trkpt lat="46.153549868613482" lon="7.27411019615829">
        <ele>1935.27</ele>
        <time>2012-07-23T09:33:09Z</time>
      </trkpt>
      <trkpt lat="46.15359328687191" lon="7.273988910019398">
        <ele>1936.23</ele>
        <time>2012-07-23T09:33:15Z</time>
      </trkpt>
      <trkpt lat="46.153764445334673" lon="7.273814985528588">
        <ele>1937.6700000000001</ele>
        <time>2012-07-23T09:33:30Z</time>
      </trkpt>
      <trkpt lat="46.154031325131655" lon="7.273905258625746">
        <ele>1939.5999999999999</ele>
        <time>2012-07-23T09:33:48Z</time>
      </trkpt>
      <trkpt lat="46.154170045629144" lon="7.274011122062802">
        <ele>1941.52</ele>
        <time>2012-07-23T09:33:59Z</time>
      </trkpt>
      <trkpt lat="46.154216984286904" lon="7.274041632190347">
        <ele>1941.52</ele>
        <time>2012-07-23T09:34:03Z</time>
      </trkpt>
      <trkpt lat="46.154301054775715" lon="7.274115895852447">
        <ele>1943.4400000000001</ele>
        <time>2012-07-23T09:34:11Z</time>
      </trkpt>
      <trkpt lat="46.1542431358248" lon="7.274254281073809">
        <ele>1944.8800000000001</ele>
        <time>2012-07-23T09:34:20Z</time>
      </trkpt>
      <trkpt lat="46.15400324575603" lon="7.274235505610704">
        <ele>1947.29</ele>
        <time>2012-07-23T09:34:35Z</time>
      </trkpt>
      <trkpt lat="46.153887407854199" lon="7.274378165602684">
        <ele>1949.21</ele>
        <time>2012-07-23T09:34:45Z</time>
      </trkpt>
      <trkpt lat="46.15385614335537" lon="7.274568267166615">
        <ele>1950.1700000000001</ele>
        <time>2012-07-23T09:34:53Z</time>
      </trkpt>
      <trkpt lat="46.153858574107289" lon="7.274634735658765">
        <ele>1950.6500000000001</ele>
        <time>2012-07-23T09:34:56Z</time>
      </trkpt>
      <trkpt lat="46.153859244659543" lon="7.275003204122186">
        <ele>1954.5</ele>
        <time>2012-07-23T09:35:14Z</time>
      </trkpt>
      <trkpt lat="46.153891095891595" lon="7.275384161621332">
        <ele>1958.8199999999999</ele>
        <time>2012-07-23T09:35:33Z</time>
      </trkpt>
      <trkpt lat="46.153868297114968" lon="7.275736453011632">
        <ele>1962.6700000000001</ele>
        <time>2012-07-23T09:35:50Z</time>
      </trkpt>
      <trkpt lat="46.153861088678241" lon="7.27610919624567">
        <ele>1965.0699999999999</ele>
        <time>2012-07-23T09:36:08Z</time>
      </trkpt>
      <trkpt lat="46.153886569663882" lon="7.276451345533133">
        <ele>1968.9200000000001</ele>
        <time>2012-07-23T09:36:24Z</time>
      </trkpt>
      <trkpt lat="46.153852455317974" lon="7.276857700198889">
        <ele>1972.76</ele>
        <time>2012-07-23T09:36:43Z</time>
      </trkpt>
      <trkpt lat="46.153846001252532" lon="7.277192389592528">
        <ele>1976.6099999999999</ele>
        <time>2012-07-23T09:36:58Z</time>
      </trkpt>
      <trkpt lat="46.153804343193769" lon="7.277554739266634">
        <ele>1979.01</ele>
        <time>2012-07-23T09:37:14Z</time>
      </trkpt>
      <trkpt lat="46.15378774702549" lon="7.277751127257943">
        <ele>1980.9300000000001</ele>
        <time>2012-07-23T09:37:23Z</time>
      </trkpt>
      <trkpt lat="46.15381415002048" lon="7.277874005958438">
        <ele>1981.4100000000001</ele>
        <time>2012-07-23T09:37:29Z</time>
      </trkpt>
      <trkpt lat="46.153998216614127" lon="7.278140634298325">
        <ele>1982.8599999999999</ele>
        <time>2012-07-23T09:37:46Z</time>
      </trkpt>
      <trkpt lat="46.15412687882781" lon="7.278398796916008">
        <ele>1984.78</ele>
        <time>2012-07-23T09:38:00Z</time>
      </trkpt>
      <trkpt lat="46.15415420383215" lon="7.278484292328358">
        <ele>1985.74</ele>
        <time>2012-07-23T09:38:04Z</time>
      </trkpt>
      <trkpt lat="46.154178595170379" lon="7.278665844351053">
        <ele>1987.6600000000001</ele>
        <time>2012-07-23T09:38:12Z</time>
      </trkpt>
      <trkpt lat="46.154186222702265" lon="7.278773803263903">
        <ele>1989.0999999999999</ele>
        <time>2012-07-23T09:38:17Z</time>
      </trkpt>
      <trkpt lat="46.154206758365035" lon="7.27880297228694">
        <ele>1989.5899999999999</ele>
        <time>2012-07-23T09:38:19Z</time>
      </trkpt>
      <trkpt lat="46.154266437515616" lon="7.278723595663905">
        <ele>1991.03</ele>
        <time>2012-07-23T09:38:26Z</time>
      </trkpt>
      <trkpt lat="46.154237687587738" lon="7.27836761623621">
        <ele>1996.8</ele>
        <time>2012-07-23T09:38:43Z</time>
      </trkpt>
      <trkpt lat="46.154187815263867" lon="7.278013229370117">
        <ele>1998.72</ele>
        <time>2012-07-23T09:38:59Z</time>
      </trkpt>
      <trkpt lat="46.154162921011448" lon="7.277908455580473">
        <ele>1998.72</ele>
        <time>2012-07-23T09:39:04Z</time>
      </trkpt>
      <trkpt lat="46.154156886041164" lon="7.277667811140418">
        <ele>2000.6400000000001</ele>
        <time>2012-07-23T09:39:15Z</time>
      </trkpt>
      <trkpt lat="46.154315052554011" lon="7.277421047911048">
        <ele>2004.49</ele>
        <time>2012-07-23T09:39:30Z</time>
      </trkpt>
      <trkpt lat="46.154436506330967" lon="7.277180319651961">
        <ele>2006.4100000000001</ele>
        <time>2012-07-23T09:39:44Z</time>
      </trkpt>
      <trkpt lat="46.154485121369362" lon="7.277104966342449">
        <ele>2006.8900000000001</ele>
        <time>2012-07-23T09:39:49Z</time>
      </trkpt>
      <trkpt lat="46.154530635103583" lon="7.277025422081351">
        <ele>2007.8499999999999</ele>
        <time>2012-07-23T09:39:54Z</time>
      </trkpt>
      <trkpt lat="46.154729034751654" lon="7.276760553941131">
        <ele>2011.7</ele>
        <time>2012-07-23T09:40:12Z</time>
      </trkpt>
      <trkpt lat="46.15488275885582" lon="7.276541450992227">
        <ele>2015.54</ele>
        <time>2012-07-23T09:40:27Z</time>
      </trkpt>
      <trkpt lat="46.155059114098549" lon="7.276359731331468">
        <ele>2016.5</ele>
        <time>2012-07-23T09:40:42Z</time>
      </trkpt>
      <trkpt lat="46.155312834307551" lon="7.276489231735468">
        <ele>2018.4300000000001</ele>
        <time>2012-07-23T09:41:01Z</time>
      </trkpt>
      <trkpt lat="46.155451219528913" lon="7.276644548401237">
        <ele>2020.8299999999999</ele>
        <time>2012-07-23T09:41:14Z</time>
      </trkpt>
      <trkpt lat="46.155487345531583" lon="7.276775976642966">
        <ele>2021.79</ele>
        <time>2012-07-23T09:41:21Z</time>
      </trkpt>
      <trkpt lat="46.155458427965641" lon="7.276841020211577">
        <ele>2022.75</ele>
        <time>2012-07-23T09:41:25Z</time>
      </trkpt>
      <trkpt lat="46.155185345560312" lon="7.276822831481695">
        <ele>2025.6400000000001</ele>
        <time>2012-07-23T09:41:44Z</time>
      </trkpt>
      <trkpt lat="46.155164306983352" lon="7.276853760704398">
        <ele>2026.1199999999999</ele>
        <time>2012-07-23T09:41:46Z</time>
      </trkpt>
      <trkpt lat="46.155101023614407" lon="7.277274448424578">
        <ele>2030.9200000000001</ele>
        <time>2012-07-23T09:42:06Z</time>
      </trkpt>
      <trkpt lat="46.155077638104558" lon="7.277516853064299">
        <ele>2032.8399999999999</ele>
        <time>2012-07-23T09:42:17Z</time>
      </trkpt>
      <trkpt lat="46.155060790479183" lon="7.277767304331064">
        <ele>2035.73</ele>
        <time>2012-07-23T09:42:29Z</time>
      </trkpt>
      <trkpt lat="46.155073111876845" lon="7.277854308485985">
        <ele>2036.21</ele>
        <time>2012-07-23T09:42:33Z</time>
      </trkpt>
      <trkpt lat="46.155117871239781" lon="7.278214395046234">
        <ele>2038.6099999999999</ele>
        <time>2012-07-23T09:42:49Z</time>
      </trkpt>
      <trkpt lat="46.15510068833828" lon="7.27856065146625">
        <ele>2041.5</ele>
        <time>2012-07-23T09:43:04Z</time>
      </trkpt>
      <trkpt lat="46.155072273686528" lon="7.279025344178081">
        <ele>2043.9000000000001</ele>
        <time>2012-07-23T09:43:23Z</time>
      </trkpt>
      <trkpt lat="46.155050732195377" lon="7.27926179766655">
        <ele>2044.8599999999999</ele>
        <time>2012-07-23T09:43:33Z</time>
      </trkpt>
      <trkpt lat="46.155130947008729" lon="7.279229611158371">
        <ele>2047.26</ele>
        <time>2012-07-23T09:43:45Z</time>
      </trkpt>
      <trkpt lat="46.155170928686857" lon="7.279042778536677">
        <ele>2049.1900000000001</ele>
        <time>2012-07-23T09:43:57Z</time>
      </trkpt>
      <trkpt lat="46.15517252124846" lon="7.279034564271569">
        <ele>2049.1900000000001</ele>
        <time>2012-07-23T09:43:58Z</time>
      </trkpt>
      <trkpt lat="46.155195571482182" lon="7.278995169326663">
        <ele>2049.6700000000001</ele>
        <time>2012-07-23T09:44:01Z</time>
      </trkpt>
      <trkpt lat="46.155270421877503" lon="7.278861729428172">
        <ele>2051.1100000000001</ele>
        <time>2012-07-23T09:44:09Z</time>
      </trkpt>
      <trkpt lat="46.155438311398029" lon="7.27858311496675">
        <ele>2055.4400000000001</ele>
        <time>2012-07-23T09:44:27Z</time>
      </trkpt>
      <trkpt lat="46.155450213700533" lon="7.278546234592795">
        <ele>2055.4400000000001</ele>
        <time>2012-07-23T09:44:29Z</time>
      </trkpt>
      <trkpt lat="46.155598238110542" lon="7.278295950964093">
        <ele>2058.8000000000002</ele>
        <time>2012-07-23T09:44:45Z</time>
      </trkpt>
      <trkpt lat="46.15580577403307" lon="7.278183717280626">
        <ele>2062.1700000000001</ele>
        <time>2012-07-23T09:45:01Z</time>
      </trkpt>
      <trkpt lat="46.156105007976294" lon="7.278028400614858">
        <ele>2063.6100000000001</ele>
        <time>2012-07-23T09:45:21Z</time>
      </trkpt>
      <trkpt lat="46.156350849196315" lon="7.277889177203178">
        <ele>2066.0100000000002</ele>
        <time>2012-07-23T09:45:37Z</time>
      </trkpt>
      <trkpt lat="46.156398793682456" lon="7.277871407568455">
        <ele>2066.9699999999998</ele>
        <time>2012-07-23T09:45:40Z</time>
      </trkpt>
      <trkpt lat="46.156457299366593" lon="7.277833772823215">
        <ele>2066.9699999999998</ele>
        <time>2012-07-23T09:45:44Z</time>
      </trkpt>
      <trkpt lat="46.156690483912826" lon="7.277725897729397">
        <ele>2068.4099999999999</ele>
        <time>2012-07-23T09:45:59Z</time>
      </trkpt>
      <trkpt lat="46.156888883560896" lon="7.277548871934414">
        <ele>2072.7399999999998</ele>
        <time>2012-07-23T09:46:13Z</time>
      </trkpt>
      <trkpt lat="46.157157858833671" lon="7.277401015162468">
        <ele>2076.5900000000001</ele>
        <time>2012-07-23T09:46:30Z</time>
      </trkpt>
      <trkpt lat="46.157466899603605" lon="7.277380898594856">
        <ele>2079.9499999999998</ele>
        <time>2012-07-23T09:46:48Z</time>
      </trkpt>
      <trkpt lat="46.157742328941822" lon="7.277283165603876">
        <ele>2083.3099999999999</ele>
        <time>2012-07-23T09:47:05Z</time>
      </trkpt>
      <trkpt lat="46.157855400815606" lon="7.277209404855967">
        <ele>2085.7199999999998</ele>
        <time>2012-07-23T09:47:13Z</time>
      </trkpt>
      <trkpt lat="46.158136110752821" lon="7.277075629681349">
        <ele>2088.5999999999999</ele>
        <time>2012-07-23T09:47:30Z</time>
      </trkpt>
      <trkpt lat="46.158383879810572" lon="7.277029445394874">
        <ele>2090.52</ele>
        <time>2012-07-23T09:47:44Z</time>
      </trkpt>
      <trkpt lat="46.158614968881011" lon="7.277180822566152">
        <ele>2090.04</ele>
        <time>2012-07-23T09:47:54Z</time>
      </trkpt>
      <trkpt lat="46.158626368269324" lon="7.277213931083679">
        <ele>2090.04</ele>
        <time>2012-07-23T09:47:55Z</time>
      </trkpt>
      <trkpt lat="46.158632654696703" lon="7.277248967438936">
        <ele>2090.04</ele>
        <time>2012-07-23T09:47:56Z</time>
      </trkpt>
      <trkpt lat="46.158671630546451" lon="7.277774177491665">
        <ele>2090.52</ele>
        <time>2012-07-23T09:48:09Z</time>
      </trkpt>
      <trkpt lat="46.158889476209879" lon="7.278087828308344">
        <ele>2094.3699999999999</ele>
        <time>2012-07-23T09:48:24Z</time>
      </trkpt>
      <trkpt lat="46.159071028232574" lon="7.278411537408829">
        <ele>2096.29</ele>
        <time>2012-07-23T09:48:38Z</time>
      </trkpt>
      <trkpt lat="46.159298932179809" lon="7.278809929266572">
        <ele>2097.73</ele>
        <time>2012-07-23T09:48:56Z</time>
      </trkpt>
      <trkpt lat="46.159361796453595" lon="7.278876230120659">
        <ele>2098.21</ele>
        <time>2012-07-23T09:49:00Z</time>
      </trkpt>
      <trkpt lat="46.159374788403511" lon="7.278896011412144">
        <ele>2098.21</ele>
        <time>2012-07-23T09:49:01Z</time>
      </trkpt>
      <trkpt lat="46.159651977941394" lon="7.27911327034235">
        <ele>2102.0599999999999</ele>
        <time>2012-07-23T09:49:17Z</time>
      </trkpt>
      <trkpt lat="46.159869572147727" lon="7.279392555356026">
        <ele>2104.46</ele>
        <time>2012-07-23T09:49:31Z</time>
      </trkpt>
      <trkpt lat="46.159927994012833" lon="7.279392303898931">
        <ele>2103.98</ele>
        <time>2012-07-23T09:49:34Z</time>
      </trkpt>
      <trkpt lat="46.159942829981446" lon="7.279384257271886">
        <ele>2104.46</ele>
        <time>2012-07-23T09:49:35Z</time>
      </trkpt>
      <trkpt lat="46.160027906298637" lon="7.279283674433827">
        <ele>2106.8699999999999</ele>
        <time>2012-07-23T09:49:42Z</time>
      </trkpt>
      <trkpt lat="46.160040898248553" lon="7.279252326115966">
        <ele>2107.3499999999999</ele>
        <time>2012-07-23T09:49:44Z</time>
      </trkpt>
      <trkpt lat="46.160051543265581" lon="7.279238998889923">
        <ele>2107.3499999999999</ele>
        <time>2012-07-23T09:49:45Z</time>
      </trkpt>
      <trkpt lat="46.160085825249553" lon="7.27918753400445">
        <ele>2108.3099999999999</ele>
        <time>2012-07-23T09:49:48Z</time>
      </trkpt>
      <trkpt lat="46.160098733380437" lon="7.27917387150228">
        <ele>2108.3099999999999</ele>
        <time>2012-07-23T09:49:49Z</time>
      </trkpt>
      <trkpt lat="46.160111222416162" lon="7.279156185686588">
        <ele>2108.3099999999999</ele>
        <time>2012-07-23T09:49:50Z</time>
      </trkpt>
      <trkpt lat="46.160123543813825" lon="7.279138835147023">
        <ele>2108.3099999999999</ele>
        <time>2012-07-23T09:49:51Z</time>
      </trkpt>
      <trkpt lat="46.160135194659233" lon="7.279122658073902">
        <ele>2108.3099999999999</ele>
        <time>2012-07-23T09:49:52Z</time>
      </trkpt>
      <trkpt lat="46.160336947068572" lon="7.278991397470236">
        <ele>2108.79</ele>
        <time>2012-07-23T09:50:05Z</time>
      </trkpt>
      <trkpt lat="46.160567868500948" lon="7.278918391093612">
        <ele>2112.1500000000001</ele>
        <time>2012-07-23T09:50:19Z</time>
      </trkpt>
      <trkpt lat="46.160868108272552" lon="7.279021237045527">
        <ele>2112.6300000000001</ele>
        <time>2012-07-23T09:50:36Z</time>
      </trkpt>
      <trkpt lat="46.161131719127297" lon="7.279186695814133">
        <ele>2114.5599999999999</ele>
        <time>2012-07-23T09:50:53Z</time>
      </trkpt>
      <trkpt lat="46.161378985270858" lon="7.27931996807456">
        <ele>2115.52</ele>
        <time>2012-07-23T09:51:09Z</time>
      </trkpt>
      <trkpt lat="46.161652654409409" lon="7.279349304735661">
        <ele>2116.48</ele>
        <time>2012-07-23T09:51:25Z</time>
      </trkpt>
      <trkpt lat="46.161870332434773" lon="7.279398506507278">
        <ele>2117.9200000000001</ele>
        <time>2012-07-23T09:51:38Z</time>
      </trkpt>
      <trkpt lat="46.162103684619069" lon="7.279544435441494">
        <ele>2119.3600000000001</ele>
        <time>2012-07-23T09:51:53Z</time>
      </trkpt>
      <trkpt lat="46.162307364866138" lon="7.279788767918944">
        <ele>2120.8099999999999</ele>
        <time>2012-07-23T09:52:06Z</time>
      </trkpt>
      <trkpt lat="46.162587320432067" lon="7.280106106773019">
        <ele>2122.25</ele>
        <time>2012-07-23T09:52:22Z</time>
      </trkpt>
      <trkpt lat="46.16281371563673" lon="7.280441466718912">
        <ele>2124.1700000000001</ele>
        <time>2012-07-23T09:52:39Z</time>
      </trkpt>
      <trkpt lat="46.162900887429714" lon="7.280741538852453">
        <ele>2126.5700000000002</ele>
        <time>2012-07-23T09:52:54Z</time>
      </trkpt>
      <trkpt lat="46.162891583517194" lon="7.280754782259464">
        <ele>2127.0500000000002</ele>
        <time>2012-07-23T09:52:55Z</time>
      </trkpt>
      <trkpt lat="46.162881357595325" lon="7.280763415619731">
        <ele>2127.0500000000002</ele>
        <time>2012-07-23T09:52:56Z</time>
      </trkpt>
      <trkpt lat="46.162870796397328" lon="7.280763415619731">
        <ele>2127.0500000000002</ele>
        <time>2012-07-23T09:52:57Z</time>
      </trkpt>
      <trkpt lat="46.162861157208681" lon="7.280759643763304">
        <ele>2127.0500000000002</ele>
        <time>2012-07-23T09:52:58Z</time>
      </trkpt>
      <trkpt lat="46.162852356210351" lon="7.280751597136259">
        <ele>2127.5300000000002</ele>
        <time>2012-07-23T09:52:59Z</time>
      </trkpt>
      <trkpt lat="46.162842633202672" lon="7.280738772824407">
        <ele>2128.02</ele>
        <time>2012-07-23T09:53:00Z</time>
      </trkpt>
      <trkpt lat="46.162831401452422" lon="7.280727121978998">
        <ele>2128.02</ele>
        <time>2012-07-23T09:53:01Z</time>
      </trkpt>
      <trkpt lat="46.16281958296895" lon="7.280715638771653">
        <ele>2128.5</ele>
        <time>2012-07-23T09:53:02Z</time>
      </trkpt>
      <trkpt lat="46.162806339561939" lon="7.280707759782672">
        <ele>2128.98</ele>
        <time>2012-07-23T09:53:03Z</time>
      </trkpt>
      <trkpt lat="46.162792844697833" lon="7.280698791146278">
        <ele>2128.98</ele>
        <time>2012-07-23T09:53:04Z</time>
      </trkpt>
      <trkpt lat="46.162779685109854" lon="7.280687810853124">
        <ele>2129.46</ele>
        <time>2012-07-23T09:53:05Z</time>
      </trkpt>
      <trkpt lat="46.162542141973972" lon="7.280591335147619">
        <ele>2133.3000000000002</ele>
        <time>2012-07-23T09:53:21Z</time>
      </trkpt>
      <trkpt lat="46.162296216934919" lon="7.280667275190353">
        <ele>2135.71</ele>
        <time>2012-07-23T09:53:37Z</time>
      </trkpt>
      <trkpt lat="46.162090860307217" lon="7.280749836936593">
        <ele>2136.6700000000001</ele>
        <time>2012-07-23T09:53:51Z</time>
      </trkpt>
      <trkpt lat="46.161901094019413" lon="7.280775737017393">
        <ele>2139.0700000000002</ele>
        <time>2012-07-23T09:54:03Z</time>
      </trkpt>
      <trkpt lat="46.16166447289288" lon="7.280799206346273">
        <ele>2141.4699999999998</ele>
        <time>2012-07-23T09:54:16Z</time>
      </trkpt>
      <trkpt lat="46.161432210355997" lon="7.280768696218729">
        <ele>2146.2800000000002</ele>
        <time>2012-07-23T09:54:31Z</time>
      </trkpt>
      <trkpt lat="46.161213107407093" lon="7.280967347323895">
        <ele>2148.6799999999998</ele>
        <time>2012-07-23T09:54:49Z</time>
      </trkpt>
      <trkpt lat="46.161066675558686" lon="7.281219307333231">
        <ele>2152.0500000000002</ele>
        <time>2012-07-23T09:55:04Z</time>
      </trkpt>
      <trkpt lat="46.160857211798429" lon="7.281493730843067">
        <ele>2155.4099999999999</ele>
        <time>2012-07-23T09:55:22Z</time>
      </trkpt>
      <trkpt lat="46.160693513229489" lon="7.281709564849734">
        <ele>2157.8200000000002</ele>
        <time>2012-07-23T09:55:37Z</time>
      </trkpt>
      <trkpt lat="46.160679683089256" lon="7.281721383333206">
        <ele>2157.8200000000002</ele>
        <time>2012-07-23T09:55:38Z</time>
      </trkpt>
      <trkpt lat="46.160404505208135" lon="7.281869323924184">
        <ele>2160.6999999999998</ele>
        <time>2012-07-23T09:55:56Z</time>
      </trkpt>
      <trkpt lat="46.160113569349051" lon="7.281839232891798">
        <ele>2163.5799999999999</ele>
        <time>2012-07-23T09:56:15Z</time>
      </trkpt>
      <trkpt lat="46.159905362874269" lon="7.281705122441053">
        <ele>2165.5100000000002</ele>
        <time>2012-07-23T09:56:29Z</time>
      </trkpt>
      <trkpt lat="46.159712160006166" lon="7.281626081094146">
        <ele>2167.4299999999998</ele>
        <time>2012-07-23T09:56:42Z</time>
      </trkpt>
      <trkpt lat="46.159698413684964" lon="7.281637564301491">
        <ele>2167.9099999999999</ele>
        <time>2012-07-23T09:56:43Z</time>
      </trkpt>
      <trkpt lat="46.159688690677285" lon="7.281655333936214">
        <ele>2167.9099999999999</ele>
        <time>2012-07-23T09:56:44Z</time>
      </trkpt>
      <trkpt lat="46.15968257188797" lon="7.281677881255746">
        <ele>2168.3899999999999</ele>
        <time>2012-07-23T09:56:45Z</time>
      </trkpt>
      <trkpt lat="46.159679302945733" lon="7.281700763851404">
        <ele>2168.3899999999999</ele>
        <time>2012-07-23T09:56:46Z</time>
      </trkpt>
      <trkpt lat="46.159682823345065" lon="7.281724568456411">
        <ele>2168.8699999999999</ele>
        <time>2012-07-23T09:56:47Z</time>
      </trkpt>
      <trkpt lat="46.15969086997211" lon="7.281745187938213">
        <ele>2168.8699999999999</ele>
        <time>2012-07-23T09:56:48Z</time>
      </trkpt>
      <trkpt lat="46.159702185541391" lon="7.281762203201652">
        <ele>2168.8699999999999</ele>
        <time>2012-07-23T09:56:49Z</time>
      </trkpt>
      <trkpt lat="46.159715596586466" lon="7.281774692237377">
        <ele>2168.8699999999999</ele>
        <time>2012-07-23T09:56:50Z</time>
      </trkpt>
      <trkpt lat="46.159730097278953" lon="7.281787348911166">
        <ele>2168.8699999999999</ele>
        <time>2012-07-23T09:56:51Z</time>
      </trkpt>
      <trkpt lat="46.15974510088563" lon="7.281801262870431">
        <ele>2168.8699999999999</ele>
        <time>2012-07-23T09:56:52Z</time>
      </trkpt>
      <trkpt lat="46.159760104492307" lon="7.281814506277442">
        <ele>2168.8699999999999</ele>
        <time>2012-07-23T09:56:53Z</time>
      </trkpt>
      <trkpt lat="46.159775862470269" lon="7.28182615712285">
        <ele>2168.8699999999999</ele>
        <time>2012-07-23T09:56:54Z</time>
      </trkpt>
      <trkpt lat="46.159790195524693" lon="7.28183931671083">
        <ele>2169.3499999999999</ele>
        <time>2012-07-23T09:56:55Z</time>
      </trkpt>
      <trkpt lat="46.15998943336308" lon="7.282166043296456">
        <ele>2169.8299999999999</ele>
        <time>2012-07-23T09:57:11Z</time>
      </trkpt>
      <trkpt lat="46.160151287913322" lon="7.282575331628323">
        <ele>2170.79</ele>
        <time>2012-07-23T09:57:24Z</time>
      </trkpt>
      <trkpt lat="46.160464100539684" lon="7.282971711829305">
        <ele>2173.1999999999998</ele>
        <time>2012-07-23T09:57:40Z</time>
      </trkpt>
      <trkpt lat="46.160672726109624" lon="7.283248817548156">
        <ele>2176.5599999999999</ele>
        <time>2012-07-23T09:57:57Z</time>
      </trkpt>
      <trkpt lat="46.160707427188754" lon="7.283297600224614">
        <ele>2177.52</ele>
        <time>2012-07-23T09:58:00Z</time>
      </trkpt>
      <trkpt lat="46.160722346976399" lon="7.283309502527118">
        <ele>2178</ele>
        <time>2012-07-23T09:58:01Z</time>
      </trkpt>
      <trkpt lat="46.160735506564379" lon="7.283319560810924">
        <ele>2178</ele>
        <time>2012-07-23T09:58:02Z</time>
      </trkpt>
      <trkpt lat="46.160749923437834" lon="7.283324589952827">
        <ele>2178</ele>
        <time>2012-07-23T09:58:03Z</time>
      </trkpt>
      <trkpt lat="46.160764591768384" lon="7.283328445628285">
        <ele>2178.48</ele>
        <time>2012-07-23T09:58:04Z</time>
      </trkpt>
      <trkpt lat="46.160778924822807" lon="7.2833311278373">
        <ele>2178.48</ele>
        <time>2012-07-23T09:58:05Z</time>
      </trkpt>
      <trkpt lat="46.160793676972389" lon="7.28333355858922">
        <ele>2178.9699999999998</ele>
        <time>2012-07-23T09:58:06Z</time>
      </trkpt>
      <trkpt lat="46.160808680579066" lon="7.283339593559504">
        <ele>2178.9699999999998</ele>
        <time>2012-07-23T09:58:07Z</time>
      </trkpt>
      <trkpt lat="46.160979671403766" lon="7.283440846949816">
        <ele>2181.8499999999999</ele>
        <time>2012-07-23T09:58:23Z</time>
      </trkpt>
      <trkpt lat="46.161078829318285" lon="7.283530617132783">
        <ele>2184.73</ele>
        <time>2012-07-23T09:58:39Z</time>
      </trkpt>
      <trkpt lat="46.161133144050837" lon="7.283622398972511">
        <ele>2188.0999999999999</ele>
        <time>2012-07-23T09:58:53Z</time>
      </trkpt>
      <trkpt lat="46.16116801276803" lon="7.283708900213242">
        <ele>2190.02</ele>
        <time>2012-07-23T09:59:06Z</time>
      </trkpt>
      <trkpt lat="46.161252502351999" lon="7.283723652362824">
        <ele>2193.3899999999999</ele>
        <time>2012-07-23T09:59:21Z</time>
      </trkpt>
      <trkpt lat="46.161258788779378" lon="7.283572359010577">
        <ele>2195.79</ele>
        <time>2012-07-23T09:59:34Z</time>
      </trkpt>
      <trkpt lat="46.161283683031797" lon="7.283376390114427">
        <ele>2198.6700000000001</ele>
        <time>2012-07-23T09:59:51Z</time>
      </trkpt>
      <trkpt lat="46.16132534109056" lon="7.283233478665352">
        <ele>2202.04</ele>
        <time>2012-07-23T10:00:06Z</time>
      </trkpt>
      <trkpt lat="46.161329615861177" lon="7.283169189468026">
        <ele>2202.52</ele>
        <time>2012-07-23T10:00:11Z</time>
      </trkpt>
      <trkpt lat="46.161389295011759" lon="7.283094925805926">
        <ele>2203.48</ele>
        <time>2012-07-23T10:00:24Z</time>
      </trkpt>
      <trkpt lat="46.161377811804414" lon="7.28302082978189">
        <ele>2205.8800000000001</ele>
        <time>2012-07-23T10:00:36Z</time>
      </trkpt>
      <trkpt lat="46.161387953907251" lon="7.283042287454009">
        <ele>2207.3200000000002</ele>
        <time>2012-07-23T10:01:11Z</time>
      </trkpt>
      <trkpt lat="46.161392563953996" lon="7.283037845045328">
        <ele>2204.4400000000001</ele>
        <time>2012-07-23T10:02:01Z</time>
      </trkpt>
      <trkpt lat="46.161397509276867" lon="7.282992666587234">
        <ele>2203.48</ele>
        <time>2012-07-23T10:02:50Z</time>
      </trkpt>
      <trkpt lat="46.161375548690557" lon="7.283034073188901">
        <ele>2203</ele>
        <time>2012-07-23T10:03:57Z</time>
      </trkpt>
      <trkpt lat="46.1613629758358" lon="7.283090064302087">
        <ele>2200.5900000000001</ele>
        <time>2012-07-23T10:04:50Z</time>
      </trkpt>
      <trkpt lat="46.161393402144313" lon="7.283131051808596">
        <ele>2199.6300000000001</ele>
        <time>2012-07-23T10:05:07Z</time>
      </trkpt>
      <trkpt lat="46.161386361345649" lon="7.283184779807925">
        <ele>2198.1900000000001</ele>
        <time>2012-07-23T10:05:16Z</time>
      </trkpt>
      <trkpt lat="46.161334896460176" lon="7.2832275275141">
        <ele>2200.5900000000001</ele>
        <time>2012-07-23T10:05:23Z</time>
      </trkpt>
      <trkpt lat="46.161371441558003" lon="7.283312603831291">
        <ele>2201.0799999999999</ele>
        <time>2012-07-23T10:05:30Z</time>
      </trkpt>
      <trkpt lat="46.161396587267518" lon="7.283522402867675">
        <ele>2201.5599999999999</ele>
        <time>2012-07-23T10:05:48Z</time>
      </trkpt>
      <trkpt lat="46.161365071311593" lon="7.283521816134453">
        <ele>2201.0799999999999</ele>
        <time>2012-07-23T10:06:16Z</time>
      </trkpt>
      <trkpt lat="46.161349480971694" lon="7.283536652103066">
        <ele>2200.5900000000001</ele>
        <time>2012-07-23T10:07:00Z</time>
      </trkpt>
      <trkpt lat="46.16134244017303" lon="7.283557271584868">
        <ele>2199.6300000000001</ele>
        <time>2012-07-23T10:07:31Z</time>
      </trkpt>
      <trkpt lat="46.16135174408555" lon="7.283557439222932">
        <ele>2198.6700000000001</ele>
        <time>2012-07-23T10:08:08Z</time>
      </trkpt>
      <trkpt lat="46.161366160959005" lon="7.283530198037624">
        <ele>2199.6300000000001</ele>
        <time>2012-07-23T10:08:33Z</time>
      </trkpt>
      <trkpt lat="46.161367502063513" lon="7.283494407311082">
        <ele>2203.96</ele>
        <time>2012-07-23T10:09:07Z</time>
      </trkpt>
      <trkpt lat="46.161363394930959" lon="7.283507399260998">
        <ele>2202.04</ele>
        <time>2012-07-23T10:09:38Z</time>
      </trkpt>
      <trkpt lat="46.161373369395733" lon="7.283512931317091">
        <ele>2203</ele>
        <time>2012-07-23T10:10:15Z</time>
      </trkpt>
      <trkpt lat="46.161363311111927" lon="7.283510165289044">
        <ele>2203</ele>
        <time>2012-07-23T10:10:52Z</time>
      </trkpt>
      <trkpt lat="46.161346212029457" lon="7.283517960458994">
        <ele>2204.9200000000001</ele>
        <time>2012-07-23T10:11:23Z</time>
      </trkpt>
      <trkpt lat="46.161364233121276" lon="7.283536065369844">
        <ele>2203.96</ele>
        <time>2012-07-23T10:11:51Z</time>
      </trkpt>
      <trkpt lat="46.161356940865517" lon="7.28354612365365">
        <ele>2202.04</ele>
        <time>2012-07-23T10:12:16Z</time>
      </trkpt>
      <trkpt lat="46.161341518163681" lon="7.28354855440557">
        <ele>2201.5599999999999</ele>
        <time>2012-07-23T10:12:47Z</time>
      </trkpt>
      <trkpt lat="46.161332298070192" lon="7.283574119210243">
        <ele>2199.1500000000001</ele>
        <time>2012-07-23T10:13:22Z</time>
      </trkpt>
      <trkpt lat="46.161331124603748" lon="7.283579986542463">
        <ele>2196.75</ele>
        <time>2012-07-23T10:13:49Z</time>
      </trkpt>
      <trkpt lat="46.161337746307254" lon="7.283613178879023">
        <ele>2194.8299999999999</ele>
        <time>2012-07-23T10:14:30Z</time>
      </trkpt>
      <trkpt lat="46.161339255049825" lon="7.283593649044633">
        <ele>2195.3099999999999</ele>
        <time>2012-07-23T10:15:03Z</time>
      </trkpt>
      <trkpt lat="46.16133606992662" lon="7.28359742090106">
        <ele>2195.79</ele>
        <time>2012-07-23T10:15:31Z</time>
      </trkpt>
      <trkpt lat="46.161340177059174" lon="7.283572610467672">
        <ele>2195.3099999999999</ele>
        <time>2012-07-23T10:16:01Z</time>
      </trkpt>
      <trkpt lat="46.161341601982713" lon="7.283597253262997">
        <ele>2195.3099999999999</ele>
        <time>2012-07-23T10:16:26Z</time>
      </trkpt>
      <trkpt lat="46.161343529820442" lon="7.283590380102396">
        <ele>2192.9000000000001</ele>
        <time>2012-07-23T10:17:01Z</time>
      </trkpt>
      <trkpt lat="46.161366999149323" lon="7.283613011240959">
        <ele>2191.9400000000001</ele>
        <time>2012-07-23T10:17:37Z</time>
      </trkpt>
      <trkpt lat="46.161378063261509" lon="7.283581662923098">
        <ele>2191.9400000000001</ele>
        <time>2012-07-23T10:18:04Z</time>
      </trkpt>
      <trkpt lat="46.161353839561343" lon="7.283598929643631">
        <ele>2192.9000000000001</ele>
        <time>2012-07-23T10:18:31Z</time>
      </trkpt>
      <trkpt lat="46.161353252828121" lon="7.283595073968172">
        <ele>2192.4200000000001</ele>
        <time>2012-07-23T10:18:57Z</time>
      </trkpt>
      <trkpt lat="46.161382421851158" lon="7.283598594367504">
        <ele>2193.3899999999999</ele>
        <time>2012-07-23T10:19:26Z</time>
      </trkpt>
      <trkpt lat="46.161380410194397" lon="7.283590715378523">
        <ele>2193.3899999999999</ele>
        <time>2012-07-23T10:19:50Z</time>
      </trkpt>
      <trkpt lat="46.161362556740642" lon="7.283571269363165">
        <ele>2195.3099999999999</ele>
        <time>2012-07-23T10:20:22Z</time>
      </trkpt>
      <trkpt lat="46.161368926987052" lon="7.283556265756488">
        <ele>2196.75</ele>
        <time>2012-07-23T10:20:54Z</time>
      </trkpt>
      <trkpt lat="46.161349648609757" lon="7.283593900501728">
        <ele>2194.3499999999999</ele>
        <time>2012-07-23T10:21:20Z</time>
      </trkpt>
      <trkpt lat="46.161364149302244" lon="7.283594738692045">
        <ele>2193.8699999999999</ele>
        <time>2012-07-23T10:21:50Z</time>
      </trkpt>
      <trkpt lat="46.161363562569022" lon="7.283599432557821">
        <ele>2193.3899999999999</ele>
        <time>2012-07-23T10:22:25Z</time>
      </trkpt>
      <trkpt lat="46.161360377445817" lon="7.283584596589208">
        <ele>2190.98</ele>
        <time>2012-07-23T10:23:00Z</time>
      </trkpt>
      <trkpt lat="46.161341769620776" lon="7.283586692065001">
        <ele>2192.4200000000001</ele>
        <time>2012-07-23T10:23:32Z</time>
      </trkpt>
      <trkpt lat="46.161349229514599" lon="7.283569006249309">
        <ele>2192.9000000000001</ele>
        <time>2012-07-23T10:24:06Z</time>
      </trkpt>
      <trkpt lat="46.161340177059174" lon="7.283576549962163">
        <ele>2193.3899999999999</ele>
        <time>2012-07-23T10:24:37Z</time>
      </trkpt>
      <trkpt lat="46.161349229514599" lon="7.283523576334119">
        <ele>2195.79</ele>
        <time>2012-07-23T10:24:50Z</time>
      </trkpt>
      <trkpt lat="46.161352749913931" lon="7.283390555530787">
        <ele>2197.71</ele>
        <time>2012-07-23T10:25:02Z</time>
      </trkpt>
      <trkpt lat="46.16132240742445" lon="7.28316986002028">
        <ele>2196.75</ele>
        <time>2012-07-23T10:25:11Z</time>
      </trkpt>
      <trkpt lat="46.16124814376235" lon="7.282893760129809">
        <ele>2194.3499999999999</ele>
        <time>2012-07-23T10:25:19Z</time>
      </trkpt>
      <trkpt lat="46.161019317805767" lon="7.282802313566208">
        <ele>2190.5</ele>
        <time>2012-07-23T10:25:31Z</time>
      </trkpt>
      <trkpt lat="46.160870036110282" lon="7.282757135108113">
        <ele>2187.6199999999999</ele>
        <time>2012-07-23T10:25:36Z</time>
      </trkpt>
      <trkpt lat="46.160749336704612" lon="7.282718662172556">
        <ele>2185.21</ele>
        <time>2012-07-23T10:25:39Z</time>
      </trkpt>
      <trkpt lat="46.160708265379071" lon="7.282709693536162">
        <ele>2184.25</ele>
        <time>2012-07-23T10:25:40Z</time>
      </trkpt>
      <trkpt lat="46.160594690591097" lon="7.282662000507116">
        <ele>2181.3699999999999</ele>
        <time>2012-07-23T10:25:43Z</time>
      </trkpt>
      <trkpt lat="46.160555630922318" lon="7.28264263831079">
        <ele>2180.4099999999999</ele>
        <time>2012-07-23T10:25:44Z</time>
      </trkpt>
      <trkpt lat="46.160516319796443" lon="7.282622689381242">
        <ele>2179.4499999999998</ele>
        <time>2012-07-23T10:25:45Z</time>
      </trkpt>
      <trkpt lat="46.160478517413139" lon="7.282608523964882">
        <ele>2178.48</ele>
        <time>2012-07-23T10:25:46Z</time>
      </trkpt>
      <trkpt lat="46.160441720858216" lon="7.282591927796602">
        <ele>2177.52</ele>
        <time>2012-07-23T10:25:47Z</time>
      </trkpt>
      <trkpt lat="46.160404169932008" lon="7.282567620277405">
        <ele>2176.5599999999999</ele>
        <time>2012-07-23T10:25:48Z</time>
      </trkpt>
      <trkpt lat="46.160364942625165" lon="7.282537696883082">
        <ele>2175.5999999999999</ele>
        <time>2012-07-23T10:25:49Z</time>
      </trkpt>
      <trkpt lat="46.160324793308973" lon="7.282504169270396">
        <ele>2175.1199999999999</ele>
        <time>2012-07-23T10:25:50Z</time>
      </trkpt>
      <trkpt lat="46.160288415849209" lon="7.282466115429997">
        <ele>2174.6399999999999</ele>
        <time>2012-07-23T10:25:51Z</time>
      </trkpt>
      <trkpt lat="46.16025673225522" lon="7.282422110438347">
        <ele>2174.1599999999999</ele>
        <time>2012-07-23T10:25:52Z</time>
      </trkpt>
      <trkpt lat="46.16022689267993" lon="7.282371651381254">
        <ele>2173.6799999999998</ele>
        <time>2012-07-23T10:25:53Z</time>
      </trkpt>
      <trkpt lat="46.16013552993536" lon="7.282214071601629">
        <ele>2172.2399999999998</ele>
        <time>2012-07-23T10:25:56Z</time>
      </trkpt>
      <trkpt lat="46.160092614591122" lon="7.282159002497792">
        <ele>2171.7600000000002</ele>
        <time>2012-07-23T10:25:57Z</time>
      </trkpt>
      <trkpt lat="46.159788267686963" lon="7.281818948686123">
        <ele>2169.8299999999999</ele>
        <time>2012-07-23T10:26:07Z</time>
      </trkpt>
      <trkpt lat="46.159700006246567" lon="7.281728088855743">
        <ele>2169.3499999999999</ele>
        <time>2012-07-23T10:26:11Z</time>
      </trkpt>
      <trkpt lat="46.159690450876951" lon="7.281692549586296">
        <ele>2168.8699999999999</ele>
        <time>2012-07-23T10:26:12Z</time>
      </trkpt>
      <trkpt lat="46.159694474190474" lon="7.281658602878451">
        <ele>2168.3899999999999</ele>
        <time>2012-07-23T10:26:13Z</time>
      </trkpt>
      <trkpt lat="46.159712160006166" lon="7.281633457168937">
        <ele>2168.3899999999999</ele>
        <time>2012-07-23T10:26:14Z</time>
      </trkpt>
      <trkpt lat="46.159736970439553" lon="7.281624656170607">
        <ele>2167.9099999999999</ele>
        <time>2012-07-23T10:26:15Z</time>
      </trkpt>
      <trkpt lat="46.159770665690303" lon="7.281632199883461">
        <ele>2167.4299999999998</ele>
        <time>2012-07-23T10:26:16Z</time>
      </trkpt>
      <trkpt lat="46.159814754500985" lon="7.281648628413677">
        <ele>2167.4299999999998</ele>
        <time>2012-07-23T10:26:17Z</time>
      </trkpt>
      <trkpt lat="46.159865632653236" lon="7.281675450503826">
        <ele>2166.9499999999998</ele>
        <time>2012-07-23T10:26:18Z</time>
      </trkpt>
      <trkpt lat="46.159922042861581" lon="7.28171325288713">
        <ele>2166.4699999999998</ele>
        <time>2012-07-23T10:26:19Z</time>
      </trkpt>
      <trkpt lat="46.159982141107321" lon="7.281754994764924">
        <ele>2165.5100000000002</ele>
        <time>2012-07-23T10:26:20Z</time>
      </trkpt>
      <trkpt lat="46.160047268494964" lon="7.281797155737877">
        <ele>2165.0300000000002</ele>
        <time>2012-07-23T10:26:21Z</time>
      </trkpt>
      <trkpt lat="46.160243153572083" lon="7.281890949234366">
        <ele>2162.6199999999999</ele>
        <time>2012-07-23T10:26:24Z</time>
      </trkpt>
      <trkpt lat="46.160318087786436" lon="7.281891871243715">
        <ele>2162.1399999999999</ele>
        <time>2012-07-23T10:26:25Z</time>
      </trkpt>
      <trkpt lat="46.160394698381424" lon="7.281874604523182">
        <ele>2161.1799999999998</ele>
        <time>2012-07-23T10:26:26Z</time>
      </trkpt>
      <trkpt lat="46.160469548776746" lon="7.281847195699811">
        <ele>2160.2199999999998</ele>
        <time>2012-07-23T10:26:27Z</time>
      </trkpt>
      <trkpt lat="46.160536855459213" lon="7.281810902059078">
        <ele>2159.2600000000002</ele>
        <time>2012-07-23T10:26:28Z</time>
      </trkpt>
      <trkpt lat="46.160599049180746" lon="7.281770668923855">
        <ele>2158.3000000000002</ele>
        <time>2012-07-23T10:26:29Z</time>
      </trkpt>
      <trkpt lat="46.160658728331327" lon="7.281720377504826">
        <ele>2157.8200000000002</ele>
        <time>2012-07-23T10:26:30Z</time>
      </trkpt>
      <trkpt lat="46.160718156024814" lon="7.281657932326198">
        <ele>2157.3400000000001</ele>
        <time>2012-07-23T10:26:31Z</time>
      </trkpt>
      <trkpt lat="46.160775991156697" lon="7.281589955091476">
        <ele>2156.8600000000001</ele>
        <time>2012-07-23T10:26:32Z</time>
      </trkpt>
      <trkpt lat="46.161016887053847" lon="7.281276807188988">
        <ele>2153.4899999999998</ele>
        <time>2012-07-23T10:26:37Z</time>
      </trkpt>
      <trkpt lat="46.161109087988734" lon="7.281165663152933">
        <ele>2152.0500000000002</ele>
        <time>2012-07-23T10:26:39Z</time>
      </trkpt>
      <trkpt lat="46.161151751875877" lon="7.281098859384656">
        <ele>2151.0900000000001</ele>
        <time>2012-07-23T10:26:40Z</time>
      </trkpt>
      <trkpt lat="46.161189554259181" lon="7.281026607379317">
        <ele>2150.1300000000001</ele>
        <time>2012-07-23T10:26:41Z</time>
      </trkpt>
      <trkpt lat="46.161272367462516" lon="7.280843211337924">
        <ele>2148.1999999999998</ele>
        <time>2012-07-23T10:26:44Z</time>
      </trkpt>
      <trkpt lat="46.161313354969025" lon="7.280804235488176">
        <ele>2147.7199999999998</ele>
        <time>2012-07-23T10:26:45Z</time>
      </trkpt>
      <trkpt lat="46.161363562569022" lon="7.28077607229352">
        <ele>2147.2399999999998</ele>
        <time>2012-07-23T10:26:46Z</time>
      </trkpt>
      <trkpt lat="46.161416368559003" lon="7.280757129192352">
        <ele>2146.2800000000002</ele>
        <time>2012-07-23T10:26:47Z</time>
      </trkpt>
      <trkpt lat="46.161474119871855" lon="7.280748831108213">
        <ele>2145.8000000000002</ele>
        <time>2012-07-23T10:26:48Z</time>
      </trkpt>
      <trkpt lat="46.161536565050483" lon="7.280750758945942">
        <ele>2145.3200000000002</ele>
        <time>2012-07-23T10:26:49Z</time>
      </trkpt>
      <trkpt lat="46.161593226715922" lon="7.28075947612524">
        <ele>2144.8400000000001</ele>
        <time>2012-07-23T10:26:50Z</time>
      </trkpt>
      <trkpt lat="46.161647122353315" lon="7.280770037323237">
        <ele>2144.3600000000001</ele>
        <time>2012-07-23T10:26:51Z</time>
      </trkpt>
      <trkpt lat="46.161821633577347" lon="7.280772970989347">
        <ele>2142.9200000000001</ele>
        <time>2012-07-23T10:26:54Z</time>
      </trkpt>
      <trkpt lat="46.161881145089865" lon="7.280762158334255">
        <ele>2141.9499999999998</ele>
        <time>2012-07-23T10:26:55Z</time>
      </trkpt>
      <trkpt lat="46.162069318816066" lon="7.280732486397028">
        <ele>2139.5500000000002</ele>
        <time>2012-07-23T10:26:58Z</time>
      </trkpt>
      <trkpt lat="46.162136793136597" lon="7.280706586316228">
        <ele>2138.5900000000001</ele>
        <time>2012-07-23T10:26:59Z</time>
      </trkpt>
      <trkpt lat="46.162588410079479" lon="7.280585635453463">
        <ele>2133.3000000000002</ele>
        <time>2012-07-23T10:27:06Z</time>
      </trkpt>
      <trkpt lat="46.16263291798532" lon="7.280600387603045">
        <ele>2132.8200000000002</ele>
        <time>2012-07-23T10:27:07Z</time>
      </trkpt>
      <trkpt lat="46.162751773372293" lon="7.280683200806379">
        <ele>2130.4200000000001</ele>
        <time>2012-07-23T10:27:11Z</time>
      </trkpt>
      <trkpt lat="46.162791419774294" lon="7.280719075351954">
        <ele>2129.9400000000001</ele>
        <time>2012-07-23T10:27:12Z</time>
      </trkpt>
      <trkpt lat="46.162898791953921" lon="7.280812030658126">
        <ele>2128.02</ele>
        <time>2012-07-23T10:27:14Z</time>
      </trkpt>
      <trkpt lat="46.162960063666105" lon="7.280858550220728">
        <ele>2127.5300000000002</ele>
        <time>2012-07-23T10:27:15Z</time>
      </trkpt>
      <trkpt lat="46.163009097799659" lon="7.280914122238755">
        <ele>2127.5300000000002</ele>
        <time>2012-07-23T10:27:16Z</time>
      </trkpt>
      <trkpt lat="46.163045642897487" lon="7.280972627922893">
        <ele>2127.5300000000002</ele>
        <time>2012-07-23T10:27:17Z</time>
      </trkpt>
      <trkpt lat="46.163163240998983" lon="7.281199274584651">
        <ele>2127.5300000000002</ele>
        <time>2012-07-23T10:27:21Z</time>
      </trkpt>
      <trkpt lat="46.1632314696908" lon="7.281594397500157">
        <ele>2125.1300000000001</ele>
        <time>2012-07-23T10:27:28Z</time>
      </trkpt>
      <trkpt lat="46.16310054436326" lon="7.2822605073452">
        <ele>2116</ele>
        <time>2012-07-23T10:27:38Z</time>
      </trkpt>
      <trkpt lat="46.163105238229036" lon="7.282332088798285">
        <ele>2115.04</ele>
        <time>2012-07-23T10:27:39Z</time>
      </trkpt>
      <trkpt lat="46.163150249049067" lon="7.283076485618949">
        <ele>2104.9400000000001</ele>
        <time>2012-07-23T10:27:50Z</time>
      </trkpt>
      <trkpt lat="46.163152260705829" lon="7.283127615228295">
        <ele>2104.46</ele>
        <time>2012-07-23T10:27:51Z</time>
      </trkpt>
      <trkpt lat="46.163169778883457" lon="7.283252170309424">
        <ele>2103.02</ele>
        <time>2012-07-23T10:27:53Z</time>
      </trkpt>
      <trkpt lat="46.163317803293467" lon="7.283573532477021">
        <ele>2097.25</ele>
        <time>2012-07-23T10:27:58Z</time>
      </trkpt>
      <trkpt lat="46.163414865732193" lon="7.28379188105464">
        <ele>2094.8499999999999</ele>
        <time>2012-07-23T10:28:01Z</time>
      </trkpt>
      <trkpt lat="46.163447555154562" lon="7.283965134993196">
        <ele>2093.4099999999999</ele>
        <time>2012-07-23T10:28:03Z</time>
      </trkpt>
      <trkpt lat="46.163463396951556" lon="7.284051887691021">
        <ele>2093.4099999999999</ele>
        <time>2012-07-23T10:28:04Z</time>
      </trkpt>
      <trkpt lat="46.163490135222673" lon="7.284128833562136">
        <ele>2092.9299999999998</ele>
        <time>2012-07-23T10:28:05Z</time>
      </trkpt>
      <trkpt lat="46.163519388064742" lon="7.284206449985504">
        <ele>2092.4499999999998</ele>
        <time>2012-07-23T10:28:06Z</time>
      </trkpt>
      <trkpt lat="46.163737988099456" lon="7.285014800727367">
        <ele>2084.2800000000002</ele>
        <time>2012-07-23T10:28:15Z</time>
      </trkpt>
      <trkpt lat="46.163973771035671" lon="7.285566246137023">
        <ele>2078.5100000000002</ele>
        <time>2012-07-23T10:28:23Z</time>
      </trkpt>
      <trkpt lat="46.164031522348523" lon="7.285763807594776">
        <ele>2076.0999999999999</ele>
        <time>2012-07-23T10:28:26Z</time>
      </trkpt>
      <trkpt lat="46.164062535390258" lon="7.28589984588325">
        <ele>2074.1799999999998</ele>
        <time>2012-07-23T10:28:28Z</time>
      </trkpt>
      <trkpt lat="46.164105283096433" lon="7.286050384864211">
        <ele>2072.7399999999998</ele>
        <time>2012-07-23T10:28:30Z</time>
      </trkpt>
      <trkpt lat="46.164227994158864" lon="7.286319360136986">
        <ele>2070.8200000000002</ele>
        <time>2012-07-23T10:28:34Z</time>
      </trkpt>
      <trkpt lat="46.164236711338162" lon="7.286381553858519">
        <ele>2070.3400000000001</ele>
        <time>2012-07-23T10:28:35Z</time>
      </trkpt>
      <trkpt lat="46.164239142090082" lon="7.286440478637815">
        <ele>2069.8600000000001</ele>
        <time>2012-07-23T10:28:36Z</time>
      </trkpt>
      <trkpt lat="46.164241572842002" lon="7.28655656799674">
        <ele>2068.4099999999999</ele>
        <time>2012-07-23T10:28:38Z</time>
      </trkpt>
      <trkpt lat="46.164250206202269" lon="7.286619264632464">
        <ele>2067.9299999999998</ele>
        <time>2012-07-23T10:28:39Z</time>
      </trkpt>
      <trkpt lat="46.164264539256692" lon="7.286680955439806">
        <ele>2067.4499999999998</ele>
        <time>2012-07-23T10:28:40Z</time>
      </trkpt>
      <trkpt lat="46.164286332204938" lon="7.286739544942975">
        <ele>2066.4899999999998</ele>
        <time>2012-07-23T10:28:41Z</time>
      </trkpt>
      <trkpt lat="46.164319859817624" lon="7.286793692037463">
        <ele>2065.5300000000002</ele>
        <time>2012-07-23T10:28:42Z</time>
      </trkpt>
      <trkpt lat="46.164359506219625" lon="7.28683945722878">
        <ele>2065.0500000000002</ele>
        <time>2012-07-23T10:28:43Z</time>
      </trkpt>
      <trkpt lat="46.164401499554515" lon="7.286872984841466">
        <ele>2064.0900000000001</ele>
        <time>2012-07-23T10:28:44Z</time>
      </trkpt>
      <trkpt lat="46.164444163441658" lon="7.286900226026774">
        <ele>2063.6100000000001</ele>
        <time>2012-07-23T10:28:45Z</time>
      </trkpt>
      <trkpt lat="46.164540303871036" lon="7.286952864378691">
        <ele>2062.6500000000001</ele>
        <time>2012-07-23T10:28:48Z</time>
      </trkpt>
      <trkpt lat="46.164566874504089" lon="7.28698362596333">
        <ele>2062.1700000000001</ele>
        <time>2012-07-23T10:28:49Z</time>
      </trkpt>
      <trkpt lat="46.164595121517777" lon="7.287021763622761">
        <ele>2061.6799999999998</ele>
        <time>2012-07-23T10:28:50Z</time>
      </trkpt>
      <trkpt lat="46.16462554782629" lon="7.28705839253962">
        <ele>2061.1999999999998</ele>
        <time>2012-07-23T10:28:51Z</time>
      </trkpt>
      <trkpt lat="46.164652621373534" lon="7.28709502145648">
        <ele>2060.7199999999998</ele>
        <time>2012-07-23T10:28:52Z</time>
      </trkpt>
      <trkpt lat="46.164672235026956" lon="7.287137350067496">
        <ele>2060.7199999999998</ele>
        <time>2012-07-23T10:28:53Z</time>
      </trkpt>
      <trkpt lat="46.164686651900411" lon="7.287184707820416">
        <ele>2060.2399999999998</ele>
        <time>2012-07-23T10:28:54Z</time>
      </trkpt>
      <trkpt lat="46.164693692699075" lon="7.287237178534269">
        <ele>2059.7600000000002</ele>
        <time>2012-07-23T10:28:55Z</time>
      </trkpt>
      <trkpt lat="46.164698051288724" lon="7.28728948161006">
        <ele>2059.2800000000002</ele>
        <time>2012-07-23T10:28:56Z</time>
      </trkpt>
      <trkpt lat="46.164702074602246" lon="7.287341030314565">
        <ele>2058.8000000000002</ele>
        <time>2012-07-23T10:28:57Z</time>
      </trkpt>
      <trkpt lat="46.164701068773866" lon="7.28739551268518">
        <ele>2057.8400000000001</ele>
        <time>2012-07-23T10:28:58Z</time>
      </trkpt>
      <trkpt lat="46.164696207270026" lon="7.287453599274159">
        <ele>2057.3600000000001</ele>
        <time>2012-07-23T10:28:59Z</time>
      </trkpt>
      <trkpt lat="46.164694782346487" lon="7.287516379728913">
        <ele>2056.8800000000001</ele>
        <time>2012-07-23T10:29:00Z</time>
      </trkpt>
      <trkpt lat="46.164700984954834" lon="7.287583602592349">
        <ele>2056.4000000000001</ele>
        <time>2012-07-23T10:29:01Z</time>
      </trkpt>
      <trkpt lat="46.164719592779875" lon="7.287715533748269">
        <ele>2055.4400000000001</ele>
        <time>2012-07-23T10:29:03Z</time>
      </trkpt>
      <trkpt lat="46.164722191169858" lon="7.287787785753608">
        <ele>2054.4699999999998</ele>
        <time>2012-07-23T10:29:04Z</time>
      </trkpt>
      <trkpt lat="46.164719006046653" lon="7.287869928404689">
        <ele>2053.9899999999998</ele>
        <time>2012-07-23T10:29:05Z</time>
      </trkpt>
      <trkpt lat="46.16471104323864" lon="7.287959530949593">
        <ele>2053.0300000000002</ele>
        <time>2012-07-23T10:29:06Z</time>
      </trkpt>
      <trkpt lat="46.164699140936136" lon="7.288060365244746">
        <ele>2052.0700000000002</ele>
        <time>2012-07-23T10:29:07Z</time>
      </trkpt>
      <trkpt lat="46.164566874504089" lon="7.289001569151878">
        <ele>2042.9400000000001</ele>
        <time>2012-07-23T10:29:18Z</time>
      </trkpt>
      <trkpt lat="46.164553044363856" lon="7.289171470329166">
        <ele>2041.5</ele>
        <time>2012-07-23T10:29:20Z</time>
      </trkpt>
      <trkpt lat="46.164555810391903" lon="7.289254954084754">
        <ele>2041.02</ele>
        <time>2012-07-23T10:29:21Z</time>
      </trkpt>
      <trkpt lat="46.164565365761518" lon="7.289336929097772">
        <ele>2040.54</ele>
        <time>2012-07-23T10:29:22Z</time>
      </trkpt>
      <trkpt lat="46.164596546441317" lon="7.28948880918324">
        <ele>2039.0899999999999</ele>
        <time>2012-07-23T10:29:24Z</time>
      </trkpt>
      <trkpt lat="46.1646216083318" lon="7.289555864408612">
        <ele>2038.1300000000001</ele>
        <time>2012-07-23T10:29:25Z</time>
      </trkpt>
      <trkpt lat="46.164647256955504" lon="7.289617974311113">
        <ele>2037.6500000000001</ele>
        <time>2012-07-23T10:29:26Z</time>
      </trkpt>
      <trkpt lat="46.164713725447655" lon="7.289863731712103">
        <ele>2035.25</ele>
        <time>2012-07-23T10:29:30Z</time>
      </trkpt>
      <trkpt lat="46.164718586951494" lon="7.289937241002917">
        <ele>2034.29</ele>
        <time>2012-07-23T10:29:31Z</time>
      </trkpt>
      <trkpt lat="46.16469981148839" lon="7.290184842422605">
        <ele>2032.8399999999999</ele>
        <time>2012-07-23T10:29:34Z</time>
      </trkpt>
      <trkpt lat="46.164684807881713" lon="7.290266482159495">
        <ele>2032.8399999999999</ele>
        <time>2012-07-23T10:29:35Z</time>
      </trkpt>
      <trkpt lat="46.164647759869695" lon="7.29041232727468">
        <ele>2032.3599999999999</ele>
        <time>2012-07-23T10:29:37Z</time>
      </trkpt>
      <trkpt lat="46.164587996900082" lon="7.290591197088361">
        <ele>2032.8399999999999</ele>
        <time>2012-07-23T10:29:40Z</time>
      </trkpt>
      <trkpt lat="46.164433099329472" lon="7.291003670543432">
        <ele>2035.25</ele>
        <time>2012-07-23T10:29:52Z</time>
      </trkpt>
      <trkpt lat="46.164336623623967" lon="7.29144724085927">
        <ele>2038.6099999999999</ele>
        <time>2012-07-23T10:30:07Z</time>
      </trkpt>
      <trkpt lat="46.16434944793582" lon="7.291937666013837">
        <ele>2041.98</ele>
        <time>2012-07-23T10:30:22Z</time>
      </trkpt>
      <trkpt lat="46.164385238662362" lon="7.292347876355052">
        <ele>2046.78</ele>
        <time>2012-07-23T10:30:39Z</time>
      </trkpt>
      <trkpt lat="46.164399655535817" lon="7.292704358696938">
        <ele>2052.0700000000002</ele>
        <time>2012-07-23T10:30:55Z</time>
      </trkpt>
      <trkpt lat="46.164394374936819" lon="7.293063271790743">
        <ele>2052.5500000000002</ele>
        <time>2012-07-23T10:31:10Z</time>
      </trkpt>
      <trkpt lat="46.164391105994582" lon="7.293085986748338">
        <ele>2052.5500000000002</ele>
        <time>2012-07-23T10:31:11Z</time>
      </trkpt>
      <trkpt lat="46.164388256147504" lon="7.293111216276884">
        <ele>2053.0300000000002</ele>
        <time>2012-07-23T10:31:12Z</time>
      </trkpt>
      <trkpt lat="46.16430108435452" lon="7.293516146019101">
        <ele>2053.5100000000002</ele>
        <time>2012-07-23T10:31:25Z</time>
      </trkpt>
      <trkpt lat="46.164221037179232" lon="7.293824180960655">
        <ele>2053.0300000000002</ele>
        <time>2012-07-23T10:31:31Z</time>
      </trkpt>
      <trkpt lat="46.164074186235666" lon="7.294271104037762">
        <ele>2053.5100000000002</ele>
        <time>2012-07-23T10:31:39Z</time>
      </trkpt>
      <trkpt lat="46.16389648988843" lon="7.294775610789657">
        <ele>2054.96</ele>
        <time>2012-07-23T10:31:52Z</time>
      </trkpt>
      <trkpt lat="46.163764810189605" lon="7.295044083148241">
        <ele>2053.9899999999998</ele>
        <time>2012-07-23T10:31:57Z</time>
      </trkpt>
      <trkpt lat="46.16374310106039" lon="7.295105941593647">
        <ele>2053.5100000000002</ele>
        <time>2012-07-23T10:31:58Z</time>
      </trkpt>
      <trkpt lat="46.163726923987269" lon="7.295166375115514">
        <ele>2053.5100000000002</ele>
        <time>2012-07-23T10:31:59Z</time>
      </trkpt>
      <trkpt lat="46.163712423294783" lon="7.295229407027364">
        <ele>2053.0300000000002</ele>
        <time>2012-07-23T10:32:00Z</time>
      </trkpt>
      <trkpt lat="46.163703789934516" lon="7.295298054814339">
        <ele>2052.5500000000002</ele>
        <time>2012-07-23T10:32:01Z</time>
      </trkpt>
      <trkpt lat="46.163705214858055" lon="7.295367540791631">
        <ele>2052.5500000000002</ele>
        <time>2012-07-23T10:32:02Z</time>
      </trkpt>
      <trkpt lat="46.163713010028005" lon="7.295427806675434">
        <ele>2051.5900000000001</ele>
        <time>2012-07-23T10:32:03Z</time>
      </trkpt>
      <trkpt lat="46.16371862590313" lon="7.295481618493795">
        <ele>2051.1100000000001</ele>
        <time>2012-07-23T10:32:04Z</time>
      </trkpt>
      <trkpt lat="46.163725331425667" lon="7.295533586293459">
        <ele>2050.6300000000001</ele>
        <time>2012-07-23T10:32:05Z</time>
      </trkpt>
      <trkpt lat="46.163737904280424" lon="7.295587481930852">
        <ele>2050.6300000000001</ele>
        <time>2012-07-23T10:32:06Z</time>
      </trkpt>
      <trkpt lat="46.163754416629672" lon="7.295643221586943">
        <ele>2050.1500000000001</ele>
        <time>2012-07-23T10:32:07Z</time>
      </trkpt>
      <trkpt lat="46.16377092897892" lon="7.295702816918492">
        <ele>2049.6700000000001</ele>
        <time>2012-07-23T10:32:08Z</time>
      </trkpt>
      <trkpt lat="46.163780065253377" lon="7.295770458877087">
        <ele>2049.1900000000001</ele>
        <time>2012-07-23T10:32:09Z</time>
      </trkpt>
      <trkpt lat="46.163776880130172" lon="7.295850841328502">
        <ele>2048.23</ele>
        <time>2012-07-23T10:32:10Z</time>
      </trkpt>
      <trkpt lat="46.163763049989939" lon="7.295931223779917">
        <ele>2047.26</ele>
        <time>2012-07-23T10:32:11Z</time>
      </trkpt>
      <trkpt lat="46.16374796256423" lon="7.296007080003619">
        <ele>2046.78</ele>
        <time>2012-07-23T10:32:12Z</time>
      </trkpt>
      <trkpt lat="46.163693480193615" lon="7.29622844606638">
        <ele>2045.3399999999999</ele>
        <time>2012-07-23T10:32:15Z</time>
      </trkpt>
      <trkpt lat="46.163670346140862" lon="7.296277899295092">
        <ele>2044.3800000000001</ele>
        <time>2012-07-23T10:32:16Z</time>
      </trkpt>
      <trkpt lat="46.163645200431347" lon="7.296312684193254">
        <ele>2043.9000000000001</ele>
        <time>2012-07-23T10:32:17Z</time>
      </trkpt>
      <trkpt lat="46.16361946798861" lon="7.296340176835656">
        <ele>2042.9400000000001</ele>
        <time>2012-07-23T10:32:18Z</time>
      </trkpt>
      <trkpt lat="46.163597004488111" lon="7.296362807974219">
        <ele>2042.46</ele>
        <time>2012-07-23T10:32:19Z</time>
      </trkpt>
      <trkpt lat="46.163470270112157" lon="7.296473616734147">
        <ele>2039.5699999999999</ele>
        <time>2012-07-23T10:32:24Z</time>
      </trkpt>
      <trkpt lat="46.163452416658401" lon="7.29652508161962">
        <ele>2039.5699999999999</ele>
        <time>2012-07-23T10:32:25Z</time>
      </trkpt>
      <trkpt lat="46.163444453850389" lon="7.296589454635978">
        <ele>2039.0899999999999</ele>
        <time>2012-07-23T10:32:26Z</time>
      </trkpt>
      <trkpt lat="46.163446716964245" lon="7.296659862622619">
        <ele>2039.0899999999999</ele>
        <time>2012-07-23T10:32:27Z</time>
      </trkpt>
      <trkpt lat="46.163456104695797" lon="7.296735886484385">
        <ele>2038.6099999999999</ele>
        <time>2012-07-23T10:32:28Z</time>
      </trkpt>
      <trkpt lat="46.163468258455396" lon="7.296808054670692">
        <ele>2038.1300000000001</ele>
        <time>2012-07-23T10:32:29Z</time>
      </trkpt>
      <trkpt lat="46.163476472720504" lon="7.29687787592411">
        <ele>2037.6500000000001</ele>
        <time>2012-07-23T10:32:30Z</time>
      </trkpt>
      <trkpt lat="46.163477813825011" lon="7.296949960291386">
        <ele>2037.1700000000001</ele>
        <time>2012-07-23T10:32:31Z</time>
      </trkpt>
      <trkpt lat="46.16347236558795" lon="7.297026067972183">
        <ele>2036.6900000000001</ele>
        <time>2012-07-23T10:32:32Z</time>
      </trkpt>
      <trkpt lat="46.163422660902143" lon="7.297596707940102">
        <ele>2031.8800000000001</ele>
        <time>2012-07-23T10:32:39Z</time>
      </trkpt>
      <trkpt lat="46.163385696709156" lon="7.297838274389505">
        <ele>2029.96</ele>
        <time>2012-07-23T10:32:42Z</time>
      </trkpt>
      <trkpt lat="46.163376225158572" lon="7.298057544976473">
        <ele>2028.52</ele>
        <time>2012-07-23T10:32:45Z</time>
      </trkpt>
      <trkpt lat="46.163358287885785" lon="7.298184866085649">
        <ele>2027.5599999999999</ele>
        <time>2012-07-23T10:32:47Z</time>
      </trkpt>
      <trkpt lat="46.163341356441379" lon="7.298242030665278">
        <ele>2026.5999999999999</ele>
        <time>2012-07-23T10:32:48Z</time>
      </trkpt>
      <trkpt lat="46.163316043093801" lon="7.298298524692655">
        <ele>2025.6400000000001</ele>
        <time>2012-07-23T10:32:49Z</time>
      </trkpt>
      <trkpt lat="46.163282850757241" lon="7.298350157216191">
        <ele>2025.1500000000001</ele>
        <time>2012-07-23T10:32:50Z</time>
      </trkpt>
      <trkpt lat="46.163241611793637" lon="7.298390977084637">
        <ele>2024.1900000000001</ele>
        <time>2012-07-23T10:32:51Z</time>
      </trkpt>
      <trkpt lat="46.163192745298147" lon="7.298428611829877">
        <ele>2023.23</ele>
        <time>2012-07-23T10:32:52Z</time>
      </trkpt>
      <trkpt lat="46.163139184936881" lon="7.29847026988864">
        <ele>2022.27</ele>
        <time>2012-07-23T10:32:53Z</time>
      </trkpt>
      <trkpt lat="46.16296760737896" lon="7.298571104183793">
        <ele>2018.4300000000001</ele>
        <time>2012-07-23T10:32:57Z</time>
      </trkpt>
      <trkpt lat="46.162923686206341" lon="7.298571355640888">
        <ele>2017.9400000000001</ele>
        <time>2012-07-23T10:32:58Z</time>
      </trkpt>
      <trkpt lat="46.162878843024373" lon="7.298556435853243">
        <ele>2017.46</ele>
        <time>2012-07-23T10:32:59Z</time>
      </trkpt>
      <trkpt lat="46.162838693708181" lon="7.298528691753745">
        <ele>2016.98</ele>
        <time>2012-07-23T10:33:00Z</time>
      </trkpt>
      <trkpt lat="46.162799717858434" lon="7.298493655398488">
        <ele>2016.5</ele>
        <time>2012-07-23T10:33:01Z</time>
      </trkpt>
      <trkpt lat="46.162716234102845" lon="7.298431545495987">
        <ele>2016.02</ele>
        <time>2012-07-23T10:33:03Z</time>
      </trkpt>
      <trkpt lat="46.162667367607355" lon="7.298428192734718">
        <ele>2015.54</ele>
        <time>2012-07-23T10:33:04Z</time>
      </trkpt>
      <trkpt lat="46.162618082016706" lon="7.298448141664267">
        <ele>2015.54</ele>
        <time>2012-07-23T10:33:05Z</time>
      </trkpt>
      <trkpt lat="46.16257818415761" lon="7.298486614599824">
        <ele>2015.0599999999999</ele>
        <time>2012-07-23T10:33:06Z</time>
      </trkpt>
      <trkpt lat="46.162548512220383" lon="7.298535397276282">
        <ele>2015.0599999999999</ele>
        <time>2012-07-23T10:33:07Z</time>
      </trkpt>
      <trkpt lat="46.16252588108182" lon="7.298591220751405">
        <ele>2015.0599999999999</ele>
        <time>2012-07-23T10:33:08Z</time>
      </trkpt>
      <trkpt lat="46.162511045113206" lon="7.298654587939382">
        <ele>2015.0599999999999</ele>
        <time>2012-07-23T10:33:09Z</time>
      </trkpt>
      <trkpt lat="46.162505513057113" lon="7.298723990097642">
        <ele>2015.0599999999999</ele>
        <time>2012-07-23T10:33:10Z</time>
      </trkpt>
      <trkpt lat="46.16250685416162" lon="7.298799678683281">
        <ele>2014.5799999999999</ele>
        <time>2012-07-23T10:33:11Z</time>
      </trkpt>
      <trkpt lat="46.162513140588999" lon="7.298882659524679">
        <ele>2014.5799999999999</ele>
        <time>2012-07-23T10:33:12Z</time>
      </trkpt>
      <trkpt lat="46.162526216357946" lon="7.29897259734571">
        <ele>2014.5799999999999</ele>
        <time>2012-07-23T10:33:13Z</time>
      </trkpt>
      <trkpt lat="46.162545578554273" lon="7.299060774967074">
        <ele>2014.0999999999999</ele>
        <time>2012-07-23T10:33:14Z</time>
      </trkpt>
      <trkpt lat="46.162569969892502" lon="7.299139313399792">
        <ele>2014.0999999999999</ele>
        <time>2012-07-23T10:33:15Z</time>
      </trkpt>
      <trkpt lat="46.16259234957397" lon="7.29920863173902">
        <ele>2013.6199999999999</ele>
        <time>2012-07-23T10:33:16Z</time>
      </trkpt>
      <trkpt lat="46.16260408423841" lon="7.299274010583758">
        <ele>2013.6199999999999</ele>
        <time>2012-07-23T10:33:17Z</time>
      </trkpt>
      <trkpt lat="46.162601569667459" lon="7.299338048323989">
        <ele>2012.6600000000001</ele>
        <time>2012-07-23T10:33:18Z</time>
      </trkpt>
      <trkpt lat="46.162589164450765" lon="7.299391943961382">
        <ele>2012.1800000000001</ele>
        <time>2012-07-23T10:33:19Z</time>
      </trkpt>
      <trkpt lat="46.162572233006358" lon="7.299436954781413">
        <ele>2011.7</ele>
        <time>2012-07-23T10:33:20Z</time>
      </trkpt>
      <trkpt lat="46.162531999871135" lon="7.299510212615132">
        <ele>2010.73</ele>
        <time>2012-07-23T10:33:22Z</time>
      </trkpt>
      <trkpt lat="46.162359332665801" lon="7.299670055508614">
        <ele>2007.8499999999999</ele>
        <time>2012-07-23T10:33:27Z</time>
      </trkpt>
      <trkpt lat="46.162333264946938" lon="7.299729231745005">
        <ele>2007.3699999999999</ele>
        <time>2012-07-23T10:33:28Z</time>
      </trkpt>
      <trkpt lat="46.162314489483833" lon="7.299797795712948">
        <ele>2006.8900000000001</ele>
        <time>2012-07-23T10:33:29Z</time>
      </trkpt>
      <trkpt lat="46.162263862788677" lon="7.300008684396744">
        <ele>2005.9300000000001</ele>
        <time>2012-07-23T10:33:32Z</time>
      </trkpt>
      <trkpt lat="46.162181133404374" lon="7.300301464274526">
        <ele>2003.04</ele>
        <time>2012-07-23T10:33:38Z</time>
      </trkpt>
      <trkpt lat="46.162199238315225" lon="7.300337590277195">
        <ele>2002.5599999999999</ele>
        <time>2012-07-23T10:33:39Z</time>
      </trkpt>
      <trkpt lat="46.162229413166642" lon="7.300348989665508">
        <ele>2002.0799999999999</ele>
        <time>2012-07-23T10:33:40Z</time>
      </trkpt>
      <trkpt lat="46.162261348217726" lon="7.300330800935626">
        <ele>2001.5999999999999</ele>
        <time>2012-07-23T10:33:41Z</time>
      </trkpt>
      <trkpt lat="46.162290265783668" lon="7.300295177847147">
        <ele>2001.1199999999999</ele>
        <time>2012-07-23T10:33:42Z</time>
      </trkpt>
      <trkpt lat="46.162320524454117" lon="7.30025083757937">
        <ele>2000.6400000000001</ele>
        <time>2012-07-23T10:33:43Z</time>
      </trkpt>
      <trkpt lat="46.16235145367682" lon="7.30020297691226">
        <ele>2000.1600000000001</ele>
        <time>2012-07-23T10:33:44Z</time>
      </trkpt>
      <trkpt lat="46.162536274641752" lon="7.299923105165362">
        <ele>1998.72</ele>
        <time>2012-07-23T10:33:51Z</time>
      </trkpt>
      <trkpt lat="46.162581453099847" lon="7.299883961677551">
        <ele>1998.72</ele>
        <time>2012-07-23T10:33:52Z</time>
      </trkpt>
      <trkpt lat="46.162633001804352" lon="7.299851104617119">
        <ele>1998.24</ele>
        <time>2012-07-23T10:33:53Z</time>
      </trkpt>
      <trkpt lat="46.162689495831728" lon="7.299824198707938">
        <ele>1997.76</ele>
        <time>2012-07-23T10:33:54Z</time>
      </trkpt>
      <trkpt lat="46.16274775005877" lon="7.299807937815785">
        <ele>1997.76</ele>
        <time>2012-07-23T10:33:55Z</time>
      </trkpt>
      <trkpt lat="46.162802819162607" lon="7.299800226464868">
        <ele>1997.28</ele>
        <time>2012-07-23T10:33:56Z</time>
      </trkpt>
      <trkpt lat="46.162854954600334" lon="7.299797544255853">
        <ele>1997.28</ele>
        <time>2012-07-23T10:33:57Z</time>
      </trkpt>
      <trkpt lat="46.162943132221699" lon="7.299789078533649">
        <ele>1997.28</ele>
        <time>2012-07-23T10:33:59Z</time>
      </trkpt>
      <trkpt lat="46.162980515509844" lon="7.299771560356021">
        <ele>1996.8</ele>
        <time>2012-07-23T10:34:00Z</time>
      </trkpt>
      <trkpt lat="46.163015048950911" lon="7.29974415153265">
        <ele>1996.3199999999999</ele>
        <time>2012-07-23T10:34:01Z</time>
      </trkpt>
      <trkpt lat="46.16304924711585" lon="7.299704756587744">
        <ele>1995.8299999999999</ele>
        <time>2012-07-23T10:34:02Z</time>
      </trkpt>
      <trkpt lat="46.163079170510173" lon="7.299655051901937">
        <ele>1995.3499999999999</ele>
        <time>2012-07-23T10:34:03Z</time>
      </trkpt>
      <trkpt lat="46.163105741143227" lon="7.299598893150687">
        <ele>1994.8699999999999</ele>
        <time>2012-07-23T10:34:04Z</time>
      </trkpt>
      <trkpt lat="46.163138346746564" lon="7.299540555104613">
        <ele>1993.9100000000001</ele>
        <time>2012-07-23T10:34:05Z</time>
      </trkpt>
      <trkpt lat="46.163183357566595" lon="7.299485486000776">
        <ele>1993.4300000000001</ele>
        <time>2012-07-23T10:34:06Z</time>
      </trkpt>
      <trkpt lat="46.163235073909163" lon="7.299443744122982">
        <ele>1993.4300000000001</ele>
        <time>2012-07-23T10:34:07Z</time>
      </trkpt>
      <trkpt lat="46.163285784423351" lon="7.29941482655704">
        <ele>1992.95</ele>
        <time>2012-07-23T10:34:08Z</time>
      </trkpt>
      <trkpt lat="46.163334818556905" lon="7.299392949789763">
        <ele>1992.47</ele>
        <time>2012-07-23T10:34:09Z</time>
      </trkpt>
      <trkpt lat="46.163386283442378" lon="7.299377443268895">
        <ele>1991.99</ele>
        <time>2012-07-23T10:34:10Z</time>
      </trkpt>
      <trkpt lat="46.163443615660071" lon="7.299361014738679">
        <ele>1991.99</ele>
        <time>2012-07-23T10:34:11Z</time>
      </trkpt>
      <trkpt lat="46.163500444963574" lon="7.299345172941685">
        <ele>1991.51</ele>
        <time>2012-07-23T10:34:12Z</time>
      </trkpt>
      <trkpt lat="46.163551826030016" lon="7.299334276467562">
        <ele>1991.51</ele>
        <time>2012-07-23T10:34:13Z</time>
      </trkpt>
      <trkpt lat="46.163649978116155" lon="7.299305610358715">
        <ele>1991.51</ele>
        <time>2012-07-23T10:34:15Z</time>
      </trkpt>
      <trkpt lat="46.163692893460393" lon="7.299282224848867">
        <ele>1991.51</ele>
        <time>2012-07-23T10:34:16Z</time>
      </trkpt>
      <trkpt lat="46.163822896778584" lon="7.299186754971743">
        <ele>1991.99</ele>
        <time>2012-07-23T10:34:19Z</time>
      </trkpt>
      <trkpt lat="46.163856508210301" lon="7.299150293692946">
        <ele>1991.51</ele>
        <time>2012-07-23T10:34:20Z</time>
      </trkpt>
      <trkpt lat="46.163884587585926" lon="7.299119113013148">
        <ele>1991.03</ele>
        <time>2012-07-23T10:34:21Z</time>
      </trkpt>
      <trkpt lat="46.163954408839345" lon="7.299017775803804">
        <ele>1989.5899999999999</ele>
        <time>2012-07-23T10:34:24Z</time>
      </trkpt>
      <trkpt lat="46.1639722622931" lon="7.298955917358398">
        <ele>1988.6199999999999</ele>
        <time>2012-07-23T10:34:25Z</time>
      </trkpt>
      <trkpt lat="46.164022721350193" lon="7.298624161630869">
        <ele>1984.78</ele>
        <time>2012-07-23T10:34:29Z</time>
      </trkpt>
      <trkpt lat="46.164045017212629" lon="7.298541767522693">
        <ele>1983.8199999999999</ele>
        <time>2012-07-23T10:34:30Z</time>
      </trkpt>
      <trkpt lat="46.164095057174563" lon="7.2983877081424">
        <ele>1981.9000000000001</ele>
        <time>2012-07-23T10:34:32Z</time>
      </trkpt>
      <trkpt lat="46.164129339158535" lon="7.298319982364774">
        <ele>1980.9300000000001</ele>
        <time>2012-07-23T10:34:33Z</time>
      </trkpt>
      <trkpt lat="46.164310472086072" lon="7.298051342368126">
        <ele>1977.0899999999999</ele>
        <time>2012-07-23T10:34:37Z</time>
      </trkpt>
      <trkpt lat="46.164354141801596" lon="7.297996189445257">
        <ele>1976.1300000000001</ele>
        <time>2012-07-23T10:34:38Z</time>
      </trkpt>
      <trkpt lat="46.164394207298756" lon="7.297933241352439">
        <ele>1974.6900000000001</ele>
        <time>2012-07-23T10:34:39Z</time>
      </trkpt>
      <trkpt lat="46.16443008184433" lon="7.297854283824563">
        <ele>1974.2</ele>
        <time>2012-07-23T10:34:40Z</time>
      </trkpt>
      <trkpt lat="46.164461178705096" lon="7.29776912368834">
        <ele>1973.24</ele>
        <time>2012-07-23T10:34:41Z</time>
      </trkpt>
      <trkpt lat="46.164485989138484" lon="7.297685891389847">
        <ele>1972.28</ele>
        <time>2012-07-23T10:34:42Z</time>
      </trkpt>
      <trkpt lat="46.164508452638984" lon="7.297604251652956">
        <ele>1971.8</ele>
        <time>2012-07-23T10:34:43Z</time>
      </trkpt>
      <trkpt lat="46.16453418508172" lon="7.29752873070538">
        <ele>1970.8399999999999</ele>
        <time>2012-07-23T10:34:44Z</time>
      </trkpt>
      <trkpt lat="46.16456838324666" lon="7.297459580004215">
        <ele>1969.8800000000001</ele>
        <time>2012-07-23T10:34:45Z</time>
      </trkpt>
      <trkpt lat="46.164614902809262" lon="7.297393446788192">
        <ele>1968.9200000000001</ele>
        <time>2012-07-23T10:34:46Z</time>
      </trkpt>
      <trkpt lat="46.164766028523445" lon="7.297217845916748">
        <ele>1966.99</ele>
        <time>2012-07-23T10:34:49Z</time>
      </trkpt>
      <trkpt lat="46.164805255830288" lon="7.297153137624264">
        <ele>1966.51</ele>
        <time>2012-07-23T10:34:50Z</time>
      </trkpt>
      <trkpt lat="46.16484297439456" lon="7.297077449038625">
        <ele>1965.55</ele>
        <time>2012-07-23T10:34:51Z</time>
      </trkpt>
      <trkpt lat="46.164879519492388" lon="7.296995976939797">
        <ele>1964.5899999999999</ele>
        <time>2012-07-23T10:34:52Z</time>
      </trkpt>
      <trkpt lat="46.164914136752486" lon="7.296907883137465">
        <ele>1963.6300000000001</ele>
        <time>2012-07-23T10:34:53Z</time>
      </trkpt>
      <trkpt lat="46.164940288290381" lon="7.296813586726785">
        <ele>1963.1500000000001</ele>
        <time>2012-07-23T10:34:54Z</time>
      </trkpt>
      <trkpt lat="46.164962667971849" lon="7.296707388013601">
        <ele>1962.1900000000001</ele>
        <time>2012-07-23T10:34:55Z</time>
      </trkpt>
      <trkpt lat="46.165090827271342" lon="7.295953268185258">
        <ele>1955.9400000000001</ele>
        <time>2012-07-23T10:35:03Z</time>
      </trkpt>
      <trkpt lat="46.165109602734447" lon="7.295869030058384">
        <ele>1954.98</ele>
        <time>2012-07-23T10:35:04Z</time>
      </trkpt>
      <trkpt lat="46.165134329348803" lon="7.295785881578922">
        <ele>1954.02</ele>
        <time>2012-07-23T10:35:05Z</time>
      </trkpt>
      <trkpt lat="46.165211694315076" lon="7.295521264895797">
        <ele>1951.6099999999999</ele>
        <time>2012-07-23T10:35:08Z</time>
      </trkpt>
      <trkpt lat="46.165262488648295" lon="7.295286236330867">
        <ele>1949.21</ele>
        <time>2012-07-23T10:35:11Z</time>
      </trkpt>
      <trkpt lat="46.165286125615239" lon="7.295230161398649">
        <ele>1948.73</ele>
        <time>2012-07-23T10:35:12Z</time>
      </trkpt>
      <trkpt lat="46.165317976847291" lon="7.295182552188635">
        <ele>1948.25</ele>
        <time>2012-07-23T10:35:13Z</time>
      </trkpt>
      <trkpt lat="46.165357790887356" lon="7.29513930156827">
        <ele>1947.77</ele>
        <time>2012-07-23T10:35:14Z</time>
      </trkpt>
      <trkpt lat="46.165399951860309" lon="7.295101331546903">
        <ele>1947.29</ele>
        <time>2012-07-23T10:35:15Z</time>
      </trkpt>
      <trkpt lat="46.165444292128086" lon="7.295073671266437">
        <ele>1946.8099999999999</ele>
        <time>2012-07-23T10:35:16Z</time>
      </trkpt>
      <trkpt lat="46.165491817519069" lon="7.295048693194985">
        <ele>1946.3299999999999</ele>
        <time>2012-07-23T10:35:17Z</time>
      </trkpt>
      <trkpt lat="46.165583683177829" lon="7.294992282986641">
        <ele>1945.3599999999999</ele>
        <time>2012-07-23T10:35:19Z</time>
      </trkpt>
      <trkpt lat="46.165622156113386" lon="7.294947020709515">
        <ele>1944.8800000000001</ele>
        <time>2012-07-23T10:35:20Z</time>
      </trkpt>
      <trkpt lat="46.165648559108377" lon="7.294884910807014">
        <ele>1944.4000000000001</ele>
        <time>2012-07-23T10:35:21Z</time>
      </trkpt>
      <trkpt lat="46.165666580200195" lon="7.294815424829722">
        <ele>1943.9200000000001</ele>
        <time>2012-07-23T10:35:22Z</time>
      </trkpt>
      <trkpt lat="46.165687451139092" lon="7.294749291613698">
        <ele>1943.4400000000001</ele>
        <time>2012-07-23T10:35:23Z</time>
      </trkpt>
      <trkpt lat="46.165718380361795" lon="7.294691205024719">
        <ele>1942.96</ele>
        <time>2012-07-23T10:35:24Z</time>
      </trkpt>
      <trkpt lat="46.165759367868304" lon="7.294647367671132">
        <ele>1942.48</ele>
        <time>2012-07-23T10:35:25Z</time>
      </trkpt>
      <trkpt lat="46.165805468335748" lon="7.294618282467127">
        <ele>1942</ele>
        <time>2012-07-23T10:35:26Z</time>
      </trkpt>
      <trkpt lat="46.165855173021555" lon="7.294601015746594">
        <ele>1941.52</ele>
        <time>2012-07-23T10:35:27Z</time>
      </trkpt>
      <trkpt lat="46.165907979011536" lon="7.294581653550267">
        <ele>1941.04</ele>
        <time>2012-07-23T10:35:28Z</time>
      </trkpt>
      <trkpt lat="46.165960198268294" lon="7.294547623023391">
        <ele>1940.5599999999999</ele>
        <time>2012-07-23T10:35:29Z</time>
      </trkpt>
      <trkpt lat="46.16601032204926" lon="7.294496996328235">
        <ele>1940.0799999999999</ele>
        <time>2012-07-23T10:35:30Z</time>
      </trkpt>
      <trkpt lat="46.166058769449592" lon="7.294436227530241">
        <ele>1939.1199999999999</ele>
        <time>2012-07-23T10:35:31Z</time>
      </trkpt>
      <trkpt lat="46.166099421679974" lon="7.294372608885169">
        <ele>1938.6400000000001</ele>
        <time>2012-07-23T10:35:32Z</time>
      </trkpt>
      <trkpt lat="46.166130769997835" lon="7.294310834258795">
        <ele>1937.6700000000001</ele>
        <time>2012-07-23T10:35:33Z</time>
      </trkpt>
      <trkpt lat="46.166157340630889" lon="7.294247634708881">
        <ele>1936.71</ele>
        <time>2012-07-23T10:35:34Z</time>
      </trkpt>
      <trkpt lat="46.166183743625879" lon="7.294187871739268">
        <ele>1936.23</ele>
        <time>2012-07-23T10:35:35Z</time>
      </trkpt>
      <trkpt lat="46.16621064953506" lon="7.294133808463812">
        <ele>1935.27</ele>
        <time>2012-07-23T10:35:36Z</time>
      </trkpt>
      <trkpt lat="46.166239818558097" lon="7.294087037444115">
        <ele>1934.79</ele>
        <time>2012-07-23T10:35:37Z</time>
      </trkpt>
      <trkpt lat="46.166273010894656" lon="7.294055940583348">
        <ele>1934.3099999999999</ele>
        <time>2012-07-23T10:35:38Z</time>
      </trkpt>
      <trkpt lat="46.166429836302996" lon="7.293930966407061">
        <ele>1933.8299999999999</ele>
        <time>2012-07-23T10:35:41Z</time>
      </trkpt>
      <trkpt lat="46.166762765496969" lon="7.293687975034118">
        <ele>1929.02</ele>
        <time>2012-07-23T10:35:46Z</time>
      </trkpt>
      <trkpt lat="46.166820768266916" lon="7.293672636151314">
        <ele>1928.54</ele>
        <time>2012-07-23T10:35:47Z</time>
      </trkpt>
      <trkpt lat="46.167283952236176" lon="7.29351413436234">
        <ele>1920.3699999999999</ele>
        <time>2012-07-23T10:35:57Z</time>
      </trkpt>
      <trkpt lat="46.167323179543018" lon="7.293482450768352">
        <ele>1919.8900000000001</ele>
        <time>2012-07-23T10:35:58Z</time>
      </trkpt>
      <trkpt lat="46.167364083230495" lon="7.293440625071526">
        <ele>1918.9300000000001</ele>
        <time>2012-07-23T10:35:59Z</time>
      </trkpt>
      <trkpt lat="46.167438765987754" lon="7.293349849060178">
        <ele>1917.97</ele>
        <time>2012-07-23T10:36:01Z</time>
      </trkpt>
      <trkpt lat="46.167468437924981" lon="7.293299976736307">
        <ele>1917.01</ele>
        <time>2012-07-23T10:36:02Z</time>
      </trkpt>
      <trkpt lat="46.16749232634902" lon="7.293244739994407">
        <ele>1916.04</ele>
        <time>2012-07-23T10:36:03Z</time>
      </trkpt>
      <trkpt lat="46.16753239184618" lon="7.29311884380877">
        <ele>1914.5999999999999</ele>
        <time>2012-07-23T10:36:05Z</time>
      </trkpt>
      <trkpt lat="46.167568601667881" lon="7.292901081964374">
        <ele>1912.2</ele>
        <time>2012-07-23T10:36:08Z</time>
      </trkpt>
      <trkpt lat="46.167581006884575" lon="7.292772838845849">
        <ele>1910.28</ele>
        <time>2012-07-23T10:36:10Z</time>
      </trkpt>
      <trkpt lat="46.167596597224474" lon="7.292722379788756">
        <ele>1909.3199999999999</ele>
        <time>2012-07-23T10:36:11Z</time>
      </trkpt>
      <trkpt lat="46.167616546154022" lon="7.292688684538007">
        <ele>1908.8299999999999</ele>
        <time>2012-07-23T10:36:12Z</time>
      </trkpt>
      <trkpt lat="46.167632387951016" lon="7.292664041742683">
        <ele>1907.3900000000001</ele>
        <time>2012-07-23T10:36:21Z</time>
      </trkpt>
      <trkpt lat="46.167643116787076" lon="7.292695809155703">
        <ele>1906.9100000000001</ele>
        <time>2012-07-23T10:36:58Z</time>
      </trkpt>
      <trkpt lat="46.16765359416604" lon="7.292707040905953">
        <ele>1906.9100000000001</ele>
        <time>2012-07-23T10:37:30Z</time>
      </trkpt>
      <trkpt lat="46.167679578065872" lon="7.29275775142014">
        <ele>1906.4300000000001</ele>
        <time>2012-07-23T10:37:33Z</time>
      </trkpt>
      <trkpt lat="46.167687876150012" lon="7.292793793603778">
        <ele>1906.4300000000001</ele>
        <time>2012-07-23T10:37:34Z</time>
      </trkpt>
      <trkpt lat="46.167693324387074" lon="7.292841318994761">
        <ele>1905.95</ele>
        <time>2012-07-23T10:37:35Z</time>
      </trkpt>
      <trkpt lat="46.167692989110947" lon="7.292895885184407">
        <ele>1905.47</ele>
        <time>2012-07-23T10:37:36Z</time>
      </trkpt>
      <trkpt lat="46.16769072599709" lon="7.292960258200765">
        <ele>1904.99</ele>
        <time>2012-07-23T10:37:37Z</time>
      </trkpt>
      <trkpt lat="46.167693072929978" lon="7.293033432215452">
        <ele>1904.51</ele>
        <time>2012-07-23T10:37:38Z</time>
      </trkpt>
      <trkpt lat="46.167700532823801" lon="7.293110881000757">
        <ele>1904.03</ele>
        <time>2012-07-23T10:37:39Z</time>
      </trkpt>
      <trkpt lat="46.167710674926639" lon="7.293186234310269">
        <ele>1903.55</ele>
        <time>2012-07-23T10:37:40Z</time>
      </trkpt>
      <trkpt lat="46.167718889191747" lon="7.293259827420116">
        <ele>1902.5899999999999</ele>
        <time>2012-07-23T10:37:41Z</time>
      </trkpt>
      <trkpt lat="46.167767252773046" lon="7.294029034674168">
        <ele>1894.9000000000001</ele>
        <time>2012-07-23T10:37:50Z</time>
      </trkpt>
      <trkpt lat="46.167847132310271" lon="7.294706795364618">
        <ele>1888.1700000000001</ele>
        <time>2012-07-23T10:38:00Z</time>
      </trkpt>
      <trkpt lat="46.16770732216537" lon="7.295144079253078">
        <ele>1883.3599999999999</ele>
        <time>2012-07-23T10:38:07Z</time>
      </trkpt>
      <trkpt lat="46.167690558359027" lon="7.295209793373942">
        <ele>1882.4000000000001</ele>
        <time>2012-07-23T10:38:08Z</time>
      </trkpt>
      <trkpt lat="46.167652672156692" lon="7.295326218008995">
        <ele>1880.96</ele>
        <time>2012-07-23T10:38:10Z</time>
      </trkpt>
      <trkpt lat="46.167630208656192" lon="7.295376006513834">
        <ele>1880.48</ele>
        <time>2012-07-23T10:38:11Z</time>
      </trkpt>
      <trkpt lat="46.167602129280567" lon="7.295421687886119">
        <ele>1880</ele>
        <time>2012-07-23T10:38:12Z</time>
      </trkpt>
      <trkpt lat="46.167565165087581" lon="7.295467955991626">
        <ele>1879.51</ele>
        <time>2012-07-23T10:38:13Z</time>
      </trkpt>
      <trkpt lat="46.167523255571723" lon="7.295512296259403">
        <ele>1879.03</ele>
        <time>2012-07-23T10:38:14Z</time>
      </trkpt>
      <trkpt lat="46.167482435703278" lon="7.295549428090453">
        <ele>1878.55</ele>
        <time>2012-07-23T10:38:15Z</time>
      </trkpt>
      <trkpt lat="46.167440358549356" lon="7.295578261837363">
        <ele>1878.0699999999999</ele>
        <time>2012-07-23T10:38:16Z</time>
      </trkpt>
      <trkpt lat="46.167319240048528" lon="7.29566216468811">
        <ele>1876.1500000000001</ele>
        <time>2012-07-23T10:38:19Z</time>
      </trkpt>
      <trkpt lat="46.166925374418497" lon="7.296264488250017">
        <ele>1865.0899999999999</ele>
        <time>2012-07-23T10:38:30Z</time>
      </trkpt>
      <trkpt lat="46.166900563985109" lon="7.296313522383571">
        <ele>1864.6099999999999</ele>
        <time>2012-07-23T10:38:31Z</time>
      </trkpt>
      <trkpt lat="46.166883716359735" lon="7.296367837116122">
        <ele>1863.6500000000001</ele>
        <time>2012-07-23T10:38:32Z</time>
      </trkpt>
      <trkpt lat="46.166872819885612" lon="7.296427432447672">
        <ele>1863.1700000000001</ele>
        <time>2012-07-23T10:38:33Z</time>
      </trkpt>
      <trkpt lat="46.166862258687615" lon="7.296491386368871">
        <ele>1862.21</ele>
        <time>2012-07-23T10:38:34Z</time>
      </trkpt>
      <trkpt lat="46.166834849864244" lon="7.296705795451999">
        <ele>1860.29</ele>
        <time>2012-07-23T10:38:37Z</time>
      </trkpt>
      <trkpt lat="46.166827976703644" lon="7.29677620343864">
        <ele>1859.8099999999999</ele>
        <time>2012-07-23T10:38:38Z</time>
      </trkpt>
      <trkpt lat="46.16680626757443" lon="7.296919869259">
        <ele>1858.3699999999999</ele>
        <time>2012-07-23T10:38:40Z</time>
      </trkpt>
      <trkpt lat="46.166787575930357" lon="7.296997653320432">
        <ele>1857.8900000000001</ele>
        <time>2012-07-23T10:38:41Z</time>
      </trkpt>
      <trkpt lat="46.166636114940047" lon="7.297717574983835">
        <ele>1851.1600000000001</ele>
        <time>2012-07-23T10:38:52Z</time>
      </trkpt>
      <trkpt lat="46.166602922603488" lon="7.297860318794847">
        <ele>1850.1900000000001</ele>
        <time>2012-07-23T10:38:54Z</time>
      </trkpt>
      <trkpt lat="46.166579369455576" lon="7.297928966581821">
        <ele>1849.23</ele>
        <time>2012-07-23T10:38:55Z</time>
      </trkpt>
      <trkpt lat="46.166525138542056" lon="7.29806617833674">
        <ele>1847.3099999999999</ele>
        <time>2012-07-23T10:38:57Z</time>
      </trkpt>
      <trkpt lat="46.166500160470605" lon="7.298128539696336">
        <ele>1845.8699999999999</ele>
        <time>2012-07-23T10:38:58Z</time>
      </trkpt>
      <trkpt lat="46.166474092751741" lon="7.298189559951425">
        <ele>1844.9100000000001</ele>
        <time>2012-07-23T10:38:59Z</time>
      </trkpt>
      <trkpt lat="46.166454814374447" lon="7.298254519701004">
        <ele>1843.95</ele>
        <time>2012-07-23T10:39:00Z</time>
      </trkpt>
      <trkpt lat="46.16644224151969" lon="7.298321323469281">
        <ele>1842.5</ele>
        <time>2012-07-23T10:39:01Z</time>
      </trkpt>
      <trkpt lat="46.16643444634974" lon="7.298390474170446">
        <ele>1841.54</ele>
        <time>2012-07-23T10:39:02Z</time>
      </trkpt>
      <trkpt lat="46.166430171579123" lon="7.298455936834216">
        <ele>1840.0999999999999</ele>
        <time>2012-07-23T10:39:03Z</time>
      </trkpt>
      <trkpt lat="46.166430339217186" lon="7.298518298193812">
        <ele>1839.1400000000001</ele>
        <time>2012-07-23T10:39:04Z</time>
      </trkpt>
      <trkpt lat="46.166432434692979" lon="7.298587532714009">
        <ele>1838.1800000000001</ele>
        <time>2012-07-23T10:39:05Z</time>
      </trkpt>
      <trkpt lat="46.166437296196818" lon="7.298661880195141">
        <ele>1837.7</ele>
        <time>2012-07-23T10:39:06Z</time>
      </trkpt>
      <trkpt lat="46.166449617594481" lon="7.298735221847892">
        <ele>1836.74</ele>
        <time>2012-07-23T10:39:07Z</time>
      </trkpt>
      <trkpt lat="46.166466297581792" lon="7.298802947625518">
        <ele>1835.77</ele>
        <time>2012-07-23T10:39:08Z</time>
      </trkpt>
      <trkpt lat="46.166481887921691" lon="7.298868326470256">
        <ele>1835.29</ele>
        <time>2012-07-23T10:39:09Z</time>
      </trkpt>
      <trkpt lat="46.166495466604829" lon="7.298927754163742">
        <ele>1834.3299999999999</ele>
        <time>2012-07-23T10:39:10Z</time>
      </trkpt>
      <trkpt lat="46.166509967297316" lon="7.298979051411152">
        <ele>1833.8499999999999</ele>
        <time>2012-07-23T10:39:11Z</time>
      </trkpt>
      <trkpt lat="46.166521115228534" lon="7.299031019210815">
        <ele>1833.3699999999999</ele>
        <time>2012-07-23T10:39:12Z</time>
      </trkpt>
      <trkpt lat="46.166527485474944" lon="7.299086255952716">
        <ele>1832.8900000000001</ele>
        <time>2012-07-23T10:39:13Z</time>
      </trkpt>
      <trkpt lat="46.166530922055244" lon="7.299140654504299">
        <ele>1832.4100000000001</ele>
        <time>2012-07-23T10:39:14Z</time>
      </trkpt>
      <trkpt lat="46.166531089693308" lon="7.299193209037185">
        <ele>1832.4100000000001</ele>
        <time>2012-07-23T10:39:15Z</time>
      </trkpt>
      <trkpt lat="46.166526228189468" lon="7.299242075532675">
        <ele>1831.9300000000001</ele>
        <time>2012-07-23T10:39:16Z</time>
      </trkpt>
      <trkpt lat="46.166518349200487" lon="7.299290187656879">
        <ele>1831.45</ele>
        <time>2012-07-23T10:39:17Z</time>
      </trkpt>
      <trkpt lat="46.166478618979454" lon="7.299605179578066">
        <ele>1829.05</ele>
        <time>2012-07-23T10:39:22Z</time>
      </trkpt>
      <trkpt lat="46.166459256783128" lon="7.299669301137328">
        <ele>1828.0799999999999</ele>
        <time>2012-07-23T10:39:23Z</time>
      </trkpt>
      <trkpt lat="46.166436038911343" lon="7.299730908125639">
        <ele>1827.1199999999999</ele>
        <time>2012-07-23T10:39:24Z</time>
      </trkpt>
      <trkpt lat="46.166336545720696" lon="7.299951771274209">
        <ele>1823.28</ele>
        <time>2012-07-23T10:39:29Z</time>
      </trkpt>
      <trkpt lat="46.166348196566105" lon="7.299998374655843">
        <ele>1822.8</ele>
        <time>2012-07-23T10:39:30Z</time>
      </trkpt>
      <trkpt lat="46.166375521570444" lon="7.30001974850893">
        <ele>1822.3199999999999</ele>
        <time>2012-07-23T10:39:31Z</time>
      </trkpt>
      <trkpt lat="46.166402092203498" lon="7.300012959167361">
        <ele>1821.3499999999999</ele>
        <time>2012-07-23T10:39:32Z</time>
      </trkpt>
      <trkpt lat="46.166422544047236" lon="7.299988986924291">
        <ele>1821.3499999999999</ele>
        <time>2012-07-23T10:39:33Z</time>
      </trkpt>
      <trkpt lat="46.166439894586802" lon="7.299957806244493">
        <ele>1820.3900000000001</ele>
        <time>2012-07-23T10:39:34Z</time>
      </trkpt>
      <trkpt lat="46.166456071659923" lon="7.299926625564694">
        <ele>1819.9100000000001</ele>
        <time>2012-07-23T10:39:35Z</time>
      </trkpt>
      <trkpt lat="46.166476272046566" lon="7.29989854618907">
        <ele>1818.95</ele>
        <time>2012-07-23T10:39:36Z</time>
      </trkpt>
      <trkpt lat="46.166501250118017" lon="7.299867952242494">
        <ele>1818.47</ele>
        <time>2012-07-23T10:39:37Z</time>
      </trkpt>
      <trkpt lat="46.166531424969435" lon="7.299832999706268">
        <ele>1817.51</ele>
        <time>2012-07-23T10:39:38Z</time>
      </trkpt>
      <trkpt lat="46.166562521830201" lon="7.299802657216787">
        <ele>1816.55</ele>
        <time>2012-07-23T10:39:39Z</time>
      </trkpt>
      <trkpt lat="46.166595546528697" lon="7.29977541603148">
        <ele>1816.0699999999999</ele>
        <time>2012-07-23T10:39:40Z</time>
      </trkpt>
      <trkpt lat="46.166633516550064" lon="7.299749432131648">
        <ele>1815.1099999999999</ele>
        <time>2012-07-23T10:39:41Z</time>
      </trkpt>
      <trkpt lat="46.166673749685287" lon="7.299724537879229">
        <ele>1814.6300000000001</ele>
        <time>2012-07-23T10:39:42Z</time>
      </trkpt>
      <trkpt lat="46.166719095781446" lon="7.299702242016792">
        <ele>1813.6600000000001</ele>
        <time>2012-07-23T10:39:43Z</time>
      </trkpt>
      <trkpt lat="46.166767291724682" lon="7.299684640020132">
        <ele>1813.1800000000001</ele>
        <time>2012-07-23T10:39:44Z</time>
      </trkpt>
      <trkpt lat="46.166855972260237" lon="7.2996586561203">
        <ele>1811.74</ele>
        <time>2012-07-23T10:39:46Z</time>
      </trkpt>
      <trkpt lat="46.166899474337697" lon="7.299654632806778">
        <ele>1811.26</ele>
        <time>2012-07-23T10:39:47Z</time>
      </trkpt>
      <trkpt lat="46.167132407426834" lon="7.299658320844173">
        <ele>1809.8199999999999</ele>
        <time>2012-07-23T10:39:52Z</time>
      </trkpt>
      <trkpt lat="46.167177837342024" lon="7.299648178741336">
        <ele>1809.3399999999999</ele>
        <time>2012-07-23T10:39:53Z</time>
      </trkpt>
      <trkpt lat="46.167639512568712" lon="7.299535777419806">
        <ele>1802.1300000000001</ele>
        <time>2012-07-23T10:40:05Z</time>
      </trkpt>
      <trkpt lat="46.16773615591228" lon="7.299518510699272">
        <ele>1801.1700000000001</ele>
        <time>2012-07-23T10:40:07Z</time>
      </trkpt>
      <trkpt lat="46.167981661856174" lon="7.299503507092595">
        <ele>1797.3199999999999</ele>
        <time>2012-07-23T10:40:11Z</time>
      </trkpt>
      <trkpt lat="46.168041173368692" lon="7.299483641982079">
        <ele>1796.3599999999999</ele>
        <time>2012-07-23T10:40:12Z</time>
      </trkpt>
      <trkpt lat="46.168094733729959" lon="7.299455814063549">
        <ele>1795.4000000000001</ele>
        <time>2012-07-23T10:40:13Z</time>
      </trkpt>
      <trkpt lat="46.168342251330614" lon="7.299290522933006">
        <ele>1792.52</ele>
        <time>2012-07-23T10:40:18Z</time>
      </trkpt>
      <trkpt lat="46.168387345969677" lon="7.299251463264227">
        <ele>1792.03</ele>
        <time>2012-07-23T10:40:19Z</time>
      </trkpt>
      <trkpt lat="46.168433362618089" lon="7.299212152138352">
        <ele>1791.55</ele>
        <time>2012-07-23T10:40:20Z</time>
      </trkpt>
      <trkpt lat="46.168570322915912" lon="7.299095392227173">
        <ele>1789.1500000000001</ele>
        <time>2012-07-23T10:40:23Z</time>
      </trkpt>
      <trkpt lat="46.168917417526245" lon="7.298870170488954">
        <ele>1783.3800000000001</ele>
        <time>2012-07-23T10:40:32Z</time>
      </trkpt>
      <trkpt lat="46.169086983427405" lon="7.298716027289629">
        <ele>1780.02</ele>
        <time>2012-07-23T10:40:37Z</time>
      </trkpt>
      <trkpt lat="46.169126462191343" lon="7.298707393929362">
        <ele>1779.0599999999999</ele>
        <time>2012-07-23T10:40:38Z</time>
      </trkpt>
      <trkpt lat="46.169160660356283" lon="7.298718877136707">
        <ele>1778.5799999999999</ele>
        <time>2012-07-23T10:40:39Z</time>
      </trkpt>
      <trkpt lat="46.169190080836415" lon="7.298747878521681">
        <ele>1778.0999999999999</ele>
        <time>2012-07-23T10:40:40Z</time>
      </trkpt>
      <trkpt lat="46.169212041422725" lon="7.298787357285619">
        <ele>1777.6099999999999</ele>
        <time>2012-07-23T10:40:41Z</time>
      </trkpt>
      <trkpt lat="46.169219668954611" lon="7.298833709210157">
        <ele>1777.1300000000001</ele>
        <time>2012-07-23T10:40:42Z</time>
      </trkpt>
      <trkpt lat="46.169211622327566" lon="7.298880899325013">
        <ele>1776.1700000000001</ele>
        <time>2012-07-23T10:40:43Z</time>
      </trkpt>
      <trkpt lat="46.169191924855113" lon="7.29893353767693">
        <ele>1775.21</ele>
        <time>2012-07-23T10:40:44Z</time>
      </trkpt>
      <trkpt lat="46.16916879080236" lon="7.298991121351719">
        <ele>1774.25</ele>
        <time>2012-07-23T10:40:45Z</time>
      </trkpt>
      <trkpt lat="46.16914733313024" lon="7.299050884321332">
        <ele>1772.8099999999999</ele>
        <time>2012-07-23T10:40:46Z</time>
      </trkpt>
      <trkpt lat="46.169122690334916" lon="7.299111234024167">
        <ele>1771.8499999999999</ele>
        <time>2012-07-23T10:40:47Z</time>
      </trkpt>
      <trkpt lat="46.169094946235418" lon="7.299168817698956">
        <ele>1770.8900000000001</ele>
        <time>2012-07-23T10:40:48Z</time>
      </trkpt>
      <trkpt lat="46.169064184650779" lon="7.299218773841858">
        <ele>1769.9200000000001</ele>
        <time>2012-07-23T10:40:49Z</time>
      </trkpt>
      <trkpt lat="46.168981874361634" lon="7.299408121034503">
        <ele>1766.0799999999999</ele>
        <time>2012-07-23T10:40:53Z</time>
      </trkpt>
      <trkpt lat="46.16897433064878" lon="7.299485737457871">
        <ele>1765.1199999999999</ele>
        <time>2012-07-23T10:40:54Z</time>
      </trkpt>
      <trkpt lat="46.168981622904539" lon="7.299580117687583">
        <ele>1764.6400000000001</ele>
        <time>2012-07-23T10:40:55Z</time>
      </trkpt>
      <trkpt lat="46.168999392539263" lon="7.299686400219798">
        <ele>1763.6800000000001</ele>
        <time>2012-07-23T10:40:56Z</time>
      </trkpt>
      <trkpt lat="46.169022023677826" lon="7.299789329990745">
        <ele>1762.71</ele>
        <time>2012-07-23T10:40:57Z</time>
      </trkpt>
      <trkpt lat="46.169047085568309" lon="7.299877591431141">
        <ele>1761.75</ele>
        <time>2012-07-23T10:40:58Z</time>
      </trkpt>
      <trkpt lat="46.169067788869143" lon="7.299954704940319">
        <ele>1761.27</ele>
        <time>2012-07-23T10:40:59Z</time>
      </trkpt>
      <trkpt lat="46.169080948457122" lon="7.300026956945658">
        <ele>1760.3099999999999</ele>
        <time>2012-07-23T10:41:00Z</time>
      </trkpt>
      <trkpt lat="46.169085307046771" lon="7.300099125131965">
        <ele>1759.3499999999999</ele>
        <time>2012-07-23T10:41:01Z</time>
      </trkpt>
      <trkpt lat="46.169074326753616" lon="7.300166767090559">
        <ele>1757.9100000000001</ele>
        <time>2012-07-23T10:41:02Z</time>
      </trkpt>
      <trkpt lat="46.169050186872482" lon="7.300239186733961">
        <ele>1756.95</ele>
        <time>2012-07-23T10:41:03Z</time>
      </trkpt>
      <trkpt lat="46.168749863281846" lon="7.300854250788689">
        <ele>1747.8099999999999</ele>
        <time>2012-07-23T10:41:10Z</time>
      </trkpt>
      <trkpt lat="46.168723041191697" lon="7.300951816141605">
        <ele>1746.3699999999999</ele>
        <time>2012-07-23T10:41:11Z</time>
      </trkpt>
      <trkpt lat="46.168710049241781" lon="7.301061032339931">
        <ele>1744.9300000000001</ele>
        <time>2012-07-23T10:41:12Z</time>
      </trkpt>
      <trkpt lat="46.168698566034436" lon="7.301446264609695">
        <ele>1740.1199999999999</ele>
        <time>2012-07-23T10:41:16Z</time>
      </trkpt>
      <trkpt lat="46.168689513579011" lon="7.301529748365283">
        <ele>1738.6800000000001</ele>
        <time>2012-07-23T10:41:17Z</time>
      </trkpt>
      <trkpt lat="46.168669145554304" lon="7.30160535313189">
        <ele>1738.2</ele>
        <time>2012-07-23T10:41:18Z</time>
      </trkpt>
      <trkpt lat="46.168495807796717" lon="7.302037859335542">
        <ele>1736.28</ele>
        <time>2012-07-23T10:41:24Z</time>
      </trkpt>
      <trkpt lat="46.168458424508572" lon="7.302077924832702">
        <ele>1735.8</ele>
        <time>2012-07-23T10:41:25Z</time>
      </trkpt>
      <trkpt lat="46.168415592983365" lon="7.30210617184639">
        <ele>1734.8399999999999</ele>
        <time>2012-07-23T10:41:26Z</time>
      </trkpt>
      <trkpt lat="46.16837041452527" lon="7.302120253443718">
        <ele>1733.8800000000001</ele>
        <time>2012-07-23T10:41:27Z</time>
      </trkpt>
      <trkpt lat="46.168326074257493" lon="7.302116565406323">
        <ele>1732.9100000000001</ele>
        <time>2012-07-23T10:41:28Z</time>
      </trkpt>
      <trkpt lat="46.168280141428113" lon="7.302111703902483">
        <ele>1731.47</ele>
        <time>2012-07-23T10:41:29Z</time>
      </trkpt>
      <trkpt lat="46.168241836130619" lon="7.302134921774268">
        <ele>1730.51</ele>
        <time>2012-07-23T10:41:30Z</time>
      </trkpt>
      <trkpt lat="46.168225407600403" lon="7.302183201536536">
        <ele>1730.03</ele>
        <time>2012-07-23T10:41:31Z</time>
      </trkpt>
      <trkpt lat="46.168230688199401" lon="7.302235085517168">
        <ele>1729.55</ele>
        <time>2012-07-23T10:41:32Z</time>
      </trkpt>
      <trkpt lat="46.168254073709249" lon="7.302283281460404">
        <ele>1729.0699999999999</ele>
        <time>2012-07-23T10:41:33Z</time>
      </trkpt>
      <trkpt lat="46.168288607150316" lon="7.30232804082334">
        <ele>1728.5899999999999</ele>
        <time>2012-07-23T10:41:34Z</time>
      </trkpt>
      <trkpt lat="46.168332109227777" lon="7.302367938682437">
        <ele>1728.1099999999999</ele>
        <time>2012-07-23T10:41:35Z</time>
      </trkpt>
      <trkpt lat="46.168383238837123" lon="7.302397778257728">
        <ele>1727.6300000000001</ele>
        <time>2012-07-23T10:41:36Z</time>
      </trkpt>
      <trkpt lat="46.168439313769341" lon="7.302420577034354">
        <ele>1727.1500000000001</ele>
        <time>2012-07-23T10:41:37Z</time>
      </trkpt>
      <trkpt lat="46.168498322367668" lon="7.30243700556457">
        <ele>1726.6700000000001</ele>
        <time>2012-07-23T10:41:38Z</time>
      </trkpt>
      <trkpt lat="46.168554481118917" lon="7.302443459630013">
        <ele>1726.1800000000001</ele>
        <time>2012-07-23T10:41:39Z</time>
      </trkpt>
      <trkpt lat="46.168778780847788" lon="7.302440693601966">
        <ele>1723.78</ele>
        <time>2012-07-23T10:41:43Z</time>
      </trkpt>
      <trkpt lat="46.168840555474162" lon="7.302410686388612">
        <ele>1723.3</ele>
        <time>2012-07-23T10:41:44Z</time>
      </trkpt>
      <trkpt lat="46.16889956407249" lon="7.30236517265439">
        <ele>1722.8199999999999</ele>
        <time>2012-07-23T10:41:45Z</time>
      </trkpt>
      <trkpt lat="46.169161582365632" lon="7.302166689187288">
        <ele>1719.9400000000001</ele>
        <time>2012-07-23T10:41:50Z</time>
      </trkpt>
      <trkpt lat="46.169204832985997" lon="7.302142046391964">
        <ele>1719.46</ele>
        <time>2012-07-23T10:41:51Z</time>
      </trkpt>
      <trkpt lat="46.169270798563957" lon="7.302075074985623">
        <ele>1717.53</ele>
        <time>2012-07-23T10:41:53Z</time>
      </trkpt>
      <trkpt lat="46.169297872111201" lon="7.30202553793788">
        <ele>1716.5699999999999</ele>
        <time>2012-07-23T10:41:54Z</time>
      </trkpt>
      <trkpt lat="46.169318491593003" lon="7.301962589845061">
        <ele>1715.1300000000001</ele>
        <time>2012-07-23T10:41:55Z</time>
      </trkpt>
      <trkpt lat="46.169331315904856" lon="7.301885560154915">
        <ele>1714.1700000000001</ele>
        <time>2012-07-23T10:41:56Z</time>
      </trkpt>
      <trkpt lat="46.169341038912535" lon="7.301798891276121">
        <ele>1713.21</ele>
        <time>2012-07-23T10:41:57Z</time>
      </trkpt>
      <trkpt lat="46.169356377795339" lon="7.30171431787312">
        <ele>1711.76</ele>
        <time>2012-07-23T10:41:58Z</time>
      </trkpt>
      <trkpt lat="46.169375739991665" lon="7.301640557125211">
        <ele>1710.8</ele>
        <time>2012-07-23T10:41:59Z</time>
      </trkpt>
      <trkpt lat="46.169403987005353" lon="7.301583727821708">
        <ele>1709.8399999999999</ele>
        <time>2012-07-23T10:42:00Z</time>
      </trkpt>
      <trkpt lat="46.169442292302847" lon="7.301548859104514">
        <ele>1708.8800000000001</ele>
        <time>2012-07-23T10:42:01Z</time>
      </trkpt>
      <trkpt lat="46.169486297294497" lon="7.301525557413697">
        <ele>1708.4000000000001</ele>
        <time>2012-07-23T10:42:02Z</time>
      </trkpt>
      <trkpt lat="46.169532984495163" lon="7.301508625969291">
        <ele>1707.4400000000001</ele>
        <time>2012-07-23T10:42:03Z</time>
      </trkpt>
      <trkpt lat="46.169580593705177" lon="7.301488090306521">
        <ele>1706.96</ele>
        <time>2012-07-23T10:42:04Z</time>
      </trkpt>
      <trkpt lat="46.169631974771619" lon="7.30145338922739">
        <ele>1706</ele>
        <time>2012-07-23T10:42:05Z</time>
      </trkpt>
      <trkpt lat="46.16968628950417" lon="7.301403181627393">
        <ele>1705.04</ele>
        <time>2012-07-23T10:42:06Z</time>
      </trkpt>
      <trkpt lat="46.169745465740561" lon="7.301349118351936">
        <ele>1704.0699999999999</ele>
        <time>2012-07-23T10:42:07Z</time>
      </trkpt>
      <trkpt lat="46.169811431318521" lon="7.301290780305862">
        <ele>1703.1099999999999</ele>
        <time>2012-07-23T10:42:08Z</time>
      </trkpt>
      <trkpt lat="46.169881923124194" lon="7.301226407289505">
        <ele>1702.6300000000001</ele>
        <time>2012-07-23T10:42:09Z</time>
      </trkpt>
      <trkpt lat="46.170122483745217" lon="7.301059272140265">
        <ele>1700.71</ele>
        <time>2012-07-23T10:42:12Z</time>
      </trkpt>
      <trkpt lat="46.170207224786282" lon="7.301026666536927">
        <ele>1699.75</ele>
        <time>2012-07-23T10:42:13Z</time>
      </trkpt>
      <trkpt lat="46.170287942513824" lon="7.301011914387345">
        <ele>1699.27</ele>
        <time>2012-07-23T10:42:14Z</time>
      </trkpt>
      <trkpt lat="46.170358685776591" lon="7.301011830568314">
        <ele>1698.79</ele>
        <time>2012-07-23T10:42:15Z</time>
      </trkpt>
      <trkpt lat="46.170424483716488" lon="7.301020715385675">
        <ele>1698.79</ele>
        <time>2012-07-23T10:42:16Z</time>
      </trkpt>
      <trkpt lat="46.170495059341192" lon="7.301025744527578">
        <ele>1698.3099999999999</ele>
        <time>2012-07-23T10:42:17Z</time>
      </trkpt>
      <trkpt lat="46.170571250841022" lon="7.301017865538597">
        <ele>1697.8299999999999</ele>
        <time>2012-07-23T10:42:18Z</time>
      </trkpt>
      <trkpt lat="46.170648531988263" lon="7.300993390381336">
        <ele>1696.8599999999999</ele>
        <time>2012-07-23T10:42:19Z</time>
      </trkpt>
      <trkpt lat="46.170869898051023" lon="7.300873948261142">
        <ele>1693.98</ele>
        <time>2012-07-23T10:42:22Z</time>
      </trkpt>
      <trkpt lat="46.170928068459034" lon="7.300822315737605">
        <ele>1693.02</ele>
        <time>2012-07-23T10:42:23Z</time>
      </trkpt>
      <trkpt lat="46.170981293544173" lon="7.300763223320246">
        <ele>1692.0599999999999</ele>
        <time>2012-07-23T10:42:24Z</time>
      </trkpt>
      <trkpt lat="46.171022448688745" lon="7.300693653523922">
        <ele>1691.0999999999999</ele>
        <time>2012-07-23T10:42:25Z</time>
      </trkpt>
      <trkpt lat="46.1710558924824" lon="7.300613019615412">
        <ele>1690.1400000000001</ele>
        <time>2012-07-23T10:42:26Z</time>
      </trkpt>
      <trkpt lat="46.171136694028974" lon="7.300426019355655">
        <ele>1688.21</ele>
        <time>2012-07-23T10:42:28Z</time>
      </trkpt>
      <trkpt lat="46.171191846951842" lon="7.300326945260167">
        <ele>1687.25</ele>
        <time>2012-07-23T10:42:29Z</time>
      </trkpt>
      <trkpt lat="46.171257561072707" lon="7.300229631364346">
        <ele>1686.29</ele>
        <time>2012-07-23T10:42:30Z</time>
      </trkpt>
      <trkpt lat="46.171325873583555" lon="7.300144974142313">
        <ele>1685.3299999999999</ele>
        <time>2012-07-23T10:42:31Z</time>
      </trkpt>
      <trkpt lat="46.171397371217608" lon="7.300070878118277">
        <ele>1684.8499999999999</ele>
        <time>2012-07-23T10:42:32Z</time>
      </trkpt>
      <trkpt lat="46.171468449756503" lon="7.300000637769699">
        <ele>1684.3699999999999</ele>
        <time>2012-07-23T10:42:33Z</time>
      </trkpt>
      <trkpt lat="46.171604236587882" lon="7.299878429621458">
        <ele>1683.4100000000001</ele>
        <time>2012-07-23T10:42:35Z</time>
      </trkpt>
      <trkpt lat="46.17167011834681" lon="7.299841549247503">
        <ele>1682.9300000000001</ele>
        <time>2012-07-23T10:42:36Z</time>
      </trkpt>
      <trkpt lat="46.171735329553485" lon="7.299821097403765">
        <ele>1682.4400000000001</ele>
        <time>2012-07-23T10:42:37Z</time>
      </trkpt>
      <trkpt lat="46.171803222969174" lon="7.299809446558356">
        <ele>1681.96</ele>
        <time>2012-07-23T10:42:38Z</time>
      </trkpt>
      <trkpt lat="46.171872038394213" lon="7.299800477921963">
        <ele>1681.48</ele>
        <time>2012-07-23T10:42:39Z</time>
      </trkpt>
      <trkpt lat="46.171940350905061" lon="7.29978765361011">
        <ele>1681.48</ele>
        <time>2012-07-23T10:42:40Z</time>
      </trkpt>
      <trkpt lat="46.172004472464323" lon="7.299767704680562">
        <ele>1681</ele>
        <time>2012-07-23T10:42:41Z</time>
      </trkpt>
      <trkpt lat="46.172060295939445" lon="7.299742726609111">
        <ele>1681</ele>
        <time>2012-07-23T10:42:42Z</time>
      </trkpt>
      <trkpt lat="46.172106815502048" lon="7.299728058278561">
        <ele>1680.52</ele>
        <time>2012-07-23T10:42:43Z</time>
      </trkpt>
      <trkpt lat="46.172143528237939" lon="7.299734093248844">
        <ele>1680.04</ele>
        <time>2012-07-23T10:42:44Z</time>
      </trkpt>
      <trkpt lat="46.172171020880342" lon="7.299751359969378">
        <ele>1679.5599999999999</ele>
        <time>2012-07-23T10:42:45Z</time>
      </trkpt>
      <trkpt lat="46.172192059457302" lon="7.299774829298258">
        <ele>1679.0799999999999</ele>
        <time>2012-07-23T10:42:46Z</time>
      </trkpt>
      <trkpt lat="46.172202369198203" lon="7.299804668873549">
        <ele>1679.0799999999999</ele>
        <time>2012-07-23T10:42:47Z</time>
      </trkpt>
      <trkpt lat="46.172197926789522" lon="7.299829898402095">
        <ele>1679.0799999999999</ele>
        <time>2012-07-23T10:42:48Z</time>
      </trkpt>
      <trkpt lat="46.172176972031593" lon="7.299844985827804">
        <ele>1679.0799999999999</ele>
        <time>2012-07-23T10:42:49Z</time>
      </trkpt>
      <trkpt lat="46.172151658684015" lon="7.299861665815115">
        <ele>1678.5999999999999</ele>
        <time>2012-07-23T10:42:50Z</time>
      </trkpt>
      <trkpt lat="46.172082927078009" lon="7.299910364672542">
        <ele>1677.1600000000001</ele>
        <time>2012-07-23T10:42:52Z</time>
      </trkpt>
      <trkpt lat="46.171922329813242" lon="7.300053108483553">
        <ele>1674.75</ele>
        <time>2012-07-23T10:42:55Z</time>
      </trkpt>
      <trkpt lat="46.171858124434948" lon="7.300126450136304">
        <ele>1673.79</ele>
        <time>2012-07-23T10:42:56Z</time>
      </trkpt>
      <trkpt lat="46.171539528295398" lon="7.300639925524592">
        <ele>1664.6600000000001</ele>
        <time>2012-07-23T10:43:03Z</time>
      </trkpt>
      <trkpt lat="46.171518741175532" lon="7.30071603320539">
        <ele>1663.22</ele>
        <time>2012-07-23T10:43:04Z</time>
      </trkpt>
      <trkpt lat="46.171507677063346" lon="7.300800103694201">
        <ele>1661.78</ele>
        <time>2012-07-23T10:43:05Z</time>
      </trkpt>
      <trkpt lat="46.171495439484715" lon="7.301081316545606">
        <ele>1658.4100000000001</ele>
        <time>2012-07-23T10:43:08Z</time>
      </trkpt>
      <trkpt lat="46.171495439484715" lon="7.301172763109207">
        <ele>1657.45</ele>
        <time>2012-07-23T10:43:09Z</time>
      </trkpt>
      <trkpt lat="46.171482196077704" lon="7.301449533551931">
        <ele>1654.0899999999999</ele>
        <time>2012-07-23T10:43:12Z</time>
      </trkpt>
      <trkpt lat="46.171470209956169" lon="7.301544500514865">
        <ele>1653.1199999999999</ele>
        <time>2012-07-23T10:43:13Z</time>
      </trkpt>
      <trkpt lat="46.171450009569526" lon="7.301651369780302">
        <ele>1651.6800000000001</ele>
        <time>2012-07-23T10:43:14Z</time>
      </trkpt>
      <trkpt lat="46.171178855001926" lon="7.302480088546872">
        <ele>1641.5899999999999</ele>
        <time>2012-07-23T10:43:22Z</time>
      </trkpt>
      <trkpt lat="46.171074416488409" lon="7.302665244787931">
        <ele>1639.1900000000001</ele>
        <time>2012-07-23T10:43:24Z</time>
      </trkpt>
      <trkpt lat="46.171031417325139" lon="7.302773958072066">
        <ele>1637.74</ele>
        <time>2012-07-23T10:43:25Z</time>
      </trkpt>
      <trkpt lat="46.170997889712453" lon="7.302890047430992">
        <ele>1636.3</ele>
        <time>2012-07-23T10:43:26Z</time>
      </trkpt>
      <trkpt lat="46.17089906707406" lon="7.303300090134144">
        <ele>1632.46</ele>
        <time>2012-07-23T10:43:30Z</time>
      </trkpt>
      <trkpt lat="46.170863611623645" lon="7.30339321307838">
        <ele>1631.01</ele>
        <time>2012-07-23T10:43:31Z</time>
      </trkpt>
      <trkpt lat="46.170302527025342" lon="7.304434077814221">
        <ele>1619.48</ele>
        <time>2012-07-23T10:43:41Z</time>
      </trkpt>
      <trkpt lat="46.170054255053401" lon="7.304825680330396">
        <ele>1614.1900000000001</ele>
        <time>2012-07-23T10:43:45Z</time>
      </trkpt>
      <trkpt lat="46.169486297294497" lon="7.305529676377773">
        <ele>1605.54</ele>
        <time>2012-07-23T10:43:54Z</time>
      </trkpt>
      <trkpt lat="46.169430054724216" lon="7.305564964190126">
        <ele>1604.5799999999999</ele>
        <time>2012-07-23T10:43:55Z</time>
      </trkpt>
      <trkpt lat="46.169365178793669" lon="7.305587511509657">
        <ele>1604.0999999999999</ele>
        <time>2012-07-23T10:43:56Z</time>
      </trkpt>
      <trkpt lat="46.169292172417045" lon="7.305595893412828">
        <ele>1603.6199999999999</ele>
        <time>2012-07-23T10:43:57Z</time>
      </trkpt>
      <trkpt lat="46.169216567650437" lon="7.305590445175767">
        <ele>1602.6600000000001</ele>
        <time>2012-07-23T10:43:58Z</time>
      </trkpt>
      <trkpt lat="46.16914146579802" lon="7.305575525388122">
        <ele>1601.6900000000001</ele>
        <time>2012-07-23T10:43:59Z</time>
      </trkpt>
      <trkpt lat="46.169066280126572" lon="7.305566472932696">
        <ele>1600.73</ele>
        <time>2012-07-23T10:44:00Z</time>
      </trkpt>
      <trkpt lat="46.168987490236759" lon="7.305574519559741">
        <ele>1599.29</ele>
        <time>2012-07-23T10:44:01Z</time>
      </trkpt>
      <trkpt lat="46.168910041451454" lon="7.305603604763746">
        <ele>1598.3299999999999</ele>
        <time>2012-07-23T10:44:02Z</time>
      </trkpt>
      <trkpt lat="46.168841309845448" lon="7.305654482915998">
        <ele>1597.3699999999999</ele>
        <time>2012-07-23T10:44:03Z</time>
      </trkpt>
      <trkpt lat="46.1687833070755" lon="7.305717011913657">
        <ele>1596.8900000000001</ele>
        <time>2012-07-23T10:44:04Z</time>
      </trkpt>
      <trkpt lat="46.168734356760979" lon="7.305776691064239">
        <ele>1596.8900000000001</ele>
        <time>2012-07-23T10:44:05Z</time>
      </trkpt>
      <trkpt lat="46.16865430958569" lon="7.305876603350043">
        <ele>1596.8900000000001</ele>
        <time>2012-07-23T10:44:07Z</time>
      </trkpt>
      <trkpt lat="46.168328253552318" lon="7.30609436519444">
        <ele>1599.29</ele>
        <time>2012-07-23T10:44:18Z</time>
      </trkpt>
      <trkpt lat="46.167851323261857" lon="7.306302236393094">
        <ele>1601.21</ele>
        <time>2012-07-23T10:44:32Z</time>
      </trkpt>
      <trkpt lat="46.167540606111288" lon="7.306868936866522">
        <ele>1605.0599999999999</ele>
        <time>2012-07-23T10:44:46Z</time>
      </trkpt>
      <trkpt lat="46.167202731594443" lon="7.307423315942287">
        <ele>1606.98</ele>
        <time>2012-07-23T10:45:01Z</time>
      </trkpt>
      <trkpt lat="46.167167527601123" lon="7.307457095012069">
        <ele>1606.5</ele>
        <time>2012-07-23T10:45:02Z</time>
      </trkpt>
      <trkpt lat="46.166948089376092" lon="7.307649878785014">
        <ele>1606.5</ele>
        <time>2012-07-23T10:45:08Z</time>
      </trkpt>
      <trkpt lat="46.16685220040381" lon="7.307771667838097">
        <ele>1606.02</ele>
        <time>2012-07-23T10:45:11Z</time>
      </trkpt>
      <trkpt lat="46.166829988360405" lon="7.307822713628411">
        <ele>1606.02</ele>
        <time>2012-07-23T10:45:12Z</time>
      </trkpt>
      <trkpt lat="46.166814733296633" lon="7.307873005047441">
        <ele>1606.5</ele>
        <time>2012-07-23T10:45:13Z</time>
      </trkpt>
      <trkpt lat="46.16679210215807" lon="7.30798683129251">
        <ele>1606.98</ele>
        <time>2012-07-23T10:45:15Z</time>
      </trkpt>
      <trkpt lat="46.166784474626184" lon="7.308051874861121">
        <ele>1606.98</ele>
        <time>2012-07-23T10:45:16Z</time>
      </trkpt>
      <trkpt lat="46.166775673627853" lon="7.308115158230066">
        <ele>1606.98</ele>
        <time>2012-07-23T10:45:17Z</time>
      </trkpt>
      <trkpt lat="46.166703002527356" lon="7.308438867330551">
        <ele>1606.98</ele>
        <time>2012-07-23T10:45:23Z</time>
      </trkpt>
      <trkpt lat="46.166673749685287" lon="7.308478262275457">
        <ele>1606.98</ele>
        <time>2012-07-23T10:45:24Z</time>
      </trkpt>
      <trkpt lat="46.166244093328714" lon="7.308952091261745">
        <ele>1608.9000000000001</ele>
        <time>2012-07-23T10:45:38Z</time>
      </trkpt>
      <trkpt lat="46.165804965421557" lon="7.309259371832013">
        <ele>1614.1900000000001</ele>
        <time>2012-07-23T10:45:51Z</time>
      </trkpt>
      <trkpt lat="46.165327951312065" lon="7.309349644929171">
        <ele>1618.04</ele>
        <time>2012-07-23T10:46:04Z</time>
      </trkpt>
      <trkpt lat="46.1651361733675" lon="7.309316704049707">
        <ele>1619</ele>
        <time>2012-07-23T10:46:09Z</time>
      </trkpt>
      <trkpt lat="46.16509610787034" lon="7.309320978820324">
        <ele>1619.48</ele>
        <time>2012-07-23T10:46:10Z</time>
      </trkpt>
      <trkpt lat="46.165056880563498" lon="7.309331875294447">
        <ele>1619.48</ele>
        <time>2012-07-23T10:46:11Z</time>
      </trkpt>
      <trkpt lat="46.164909694343805" lon="7.309416197240353">
        <ele>1620.4400000000001</ele>
        <time>2012-07-23T10:46:15Z</time>
      </trkpt>
      <trkpt lat="46.16487767547369" lon="7.309450060129166">
        <ele>1620.4400000000001</ele>
        <time>2012-07-23T10:46:16Z</time>
      </trkpt>
      <trkpt lat="46.164847835898399" lon="7.309485767036676">
        <ele>1620.9200000000001</ele>
        <time>2012-07-23T10:46:17Z</time>
      </trkpt>
      <trkpt lat="46.164821851998568" lon="7.309525413438678">
        <ele>1620.9200000000001</ele>
        <time>2012-07-23T10:46:18Z</time>
      </trkpt>
      <trkpt lat="46.164798969402909" lon="7.309569250792265">
        <ele>1621.4000000000001</ele>
        <time>2012-07-23T10:46:19Z</time>
      </trkpt>
      <trkpt lat="46.164438212290406" lon="7.309798244386911">
        <ele>1623.3199999999999</ele>
        <time>2012-07-23T10:46:30Z</time>
      </trkpt>
      <trkpt lat="46.164020458236337" lon="7.309570340439677">
        <ele>1624.28</ele>
        <time>2012-07-23T10:46:42Z</time>
      </trkpt>
      <trkpt lat="46.163633968681097" lon="7.309584589675069">
        <ele>1624.28</ele>
        <time>2012-07-23T10:46:52Z</time>
      </trkpt>
      <trkpt lat="46.163592310622334" lon="7.309581907466054">
        <ele>1624.28</ele>
        <time>2012-07-23T10:46:53Z</time>
      </trkpt>
      <trkpt lat="46.163551406934857" lon="7.309573777019978">
        <ele>1624.28</ele>
        <time>2012-07-23T10:46:54Z</time>
      </trkpt>
      <trkpt lat="46.163009516894817" lon="7.309512421488762">
        <ele>1625.73</ele>
        <time>2012-07-23T10:47:08Z</time>
      </trkpt>
      <trkpt lat="46.162572484463453" lon="7.309400020167232">
        <ele>1626.6900000000001</ele>
        <time>2012-07-23T10:47:20Z</time>
      </trkpt>
      <trkpt lat="46.16249562241137" lon="7.309350650757551">
        <ele>1626.6900000000001</ele>
        <time>2012-07-23T10:47:22Z</time>
      </trkpt>
      <trkpt lat="46.162453880533576" lon="7.309325924143195">
        <ele>1626.6900000000001</ele>
        <time>2012-07-23T10:47:23Z</time>
      </trkpt>
      <trkpt lat="46.162409791722894" lon="7.309315195307136">
        <ele>1626.6900000000001</ele>
        <time>2012-07-23T10:47:24Z</time>
      </trkpt>
      <trkpt lat="46.162367546930909" lon="7.309318128973246">
        <ele>1626.6900000000001</ele>
        <time>2012-07-23T10:47:25Z</time>
      </trkpt>
      <trkpt lat="46.162328571081161" lon="7.309328857809305">
        <ele>1627.1700000000001</ele>
        <time>2012-07-23T10:47:26Z</time>
      </trkpt>
      <trkpt lat="46.162290601059794" lon="7.309341765940189">
        <ele>1627.1700000000001</ele>
        <time>2012-07-23T10:47:27Z</time>
      </trkpt>
      <trkpt lat="46.161627508699894" lon="7.309541925787926">
        <ele>1630.05</ele>
        <time>2012-07-23T10:47:44Z</time>
      </trkpt>
      <trkpt lat="46.16150856949389" lon="7.309610573574901">
        <ele>1630.53</ele>
        <time>2012-07-23T10:47:47Z</time>
      </trkpt>
      <trkpt lat="46.160899708047509" lon="7.309852726757526">
        <ele>1632.9400000000001</ele>
        <time>2012-07-23T10:48:02Z</time>
      </trkpt>
      <trkpt lat="46.160211469978094" lon="7.310018101707101">
        <ele>1632.46</ele>
        <time>2012-07-23T10:48:18Z</time>
      </trkpt>
      <trkpt lat="46.160167632624507" lon="7.310018017888069">
        <ele>1632.9400000000001</ele>
        <time>2012-07-23T10:48:19Z</time>
      </trkpt>
      <trkpt lat="46.159595651552081" lon="7.310120863839984">
        <ele>1632.9400000000001</ele>
        <time>2012-07-23T10:48:33Z</time>
      </trkpt>
      <trkpt lat="46.159151159226894" lon="7.310240641236305">
        <ele>1631.01</ele>
        <time>2012-07-23T10:48:45Z</time>
      </trkpt>
      <trkpt lat="46.158741284161806" lon="7.310402747243643">
        <ele>1632.9400000000001</ele>
        <time>2012-07-23T10:48:57Z</time>
      </trkpt>
      <trkpt lat="46.158233089372516" lon="7.310599470511079">
        <ele>1633.4200000000001</ele>
        <time>2012-07-23T10:49:11Z</time>
      </trkpt>
      <trkpt lat="46.157870320603251" lon="7.310760822147131">
        <ele>1635.8199999999999</ele>
        <time>2012-07-23T10:49:21Z</time>
      </trkpt>
      <trkpt lat="46.157228937372565" lon="7.310841791331768">
        <ele>1633.9000000000001</ele>
        <time>2012-07-23T10:49:37Z</time>
      </trkpt>
      <trkpt lat="46.156774219125509" lon="7.310690581798554">
        <ele>1634.8599999999999</ele>
        <time>2012-07-23T10:49:49Z</time>
      </trkpt>
      <trkpt lat="46.156302485615015" lon="7.310737268999219">
        <ele>1635.3399999999999</ele>
        <time>2012-07-23T10:50:02Z</time>
      </trkpt>
      <trkpt lat="46.155800744891167" lon="7.310966430231929">
        <ele>1638.22</ele>
        <time>2012-07-23T10:50:16Z</time>
      </trkpt>
      <trkpt lat="46.155469911172986" lon="7.311197016388178">
        <ele>1640.6300000000001</ele>
        <time>2012-07-23T10:50:26Z</time>
      </trkpt>
      <trkpt lat="46.155350636690855" lon="7.311217552050948">
        <ele>1640.1500000000001</ele>
        <time>2012-07-23T10:50:29Z</time>
      </trkpt>
      <trkpt lat="46.155311493203044" lon="7.311209421604872">
        <ele>1639.6700000000001</ele>
        <time>2012-07-23T10:50:30Z</time>
      </trkpt>
      <trkpt lat="46.155277043581009" lon="7.31118980795145">
        <ele>1639.6700000000001</ele>
        <time>2012-07-23T10:50:31Z</time>
      </trkpt>
      <trkpt lat="46.155245695263147" lon="7.311166757717729">
        <ele>1639.6700000000001</ele>
        <time>2012-07-23T10:50:32Z</time>
      </trkpt>
      <trkpt lat="46.15521065890789" lon="7.311149490997195">
        <ele>1639.6700000000001</ele>
        <time>2012-07-23T10:50:33Z</time>
      </trkpt>
      <trkpt lat="46.15516958758235" lon="7.311140522360802">
        <ele>1639.6700000000001</ele>
        <time>2012-07-23T10:50:34Z</time>
      </trkpt>
      <trkpt lat="46.155127342790365" lon="7.311144042760134">
        <ele>1639.6700000000001</ele>
        <time>2012-07-23T10:50:35Z</time>
      </trkpt>
      <trkpt lat="46.155084008350968" lon="7.31115804053843">
        <ele>1639.6700000000001</ele>
        <time>2012-07-23T10:50:36Z</time>
      </trkpt>
      <trkpt lat="46.155040422454476" lon="7.311177318915725">
        <ele>1639.1900000000001</ele>
        <time>2012-07-23T10:50:37Z</time>
      </trkpt>
      <trkpt lat="46.154997758567333" lon="7.311199530959129">
        <ele>1639.1900000000001</ele>
        <time>2012-07-23T10:50:38Z</time>
      </trkpt>
      <trkpt lat="46.154954759404063" lon="7.311221575364471">
        <ele>1639.1900000000001</ele>
        <time>2012-07-23T10:50:39Z</time>
      </trkpt>
      <trkpt lat="46.154431393370032" lon="7.311414526775479">
        <ele>1641.1099999999999</ele>
        <time>2012-07-23T10:50:51Z</time>
      </trkpt>
      <trkpt lat="46.154387891292572" lon="7.31141310185194">
        <ele>1641.1099999999999</ele>
        <time>2012-07-23T10:50:52Z</time>
      </trkpt>
      <trkpt lat="46.154343634843826" lon="7.311413185670972">
        <ele>1640.6300000000001</ele>
        <time>2012-07-23T10:50:53Z</time>
      </trkpt>
      <trkpt lat="46.154299210757017" lon="7.311418885365129">
        <ele>1640.6300000000001</ele>
        <time>2012-07-23T10:50:54Z</time>
      </trkpt>
      <trkpt lat="46.154256211593747" lon="7.311425423249602">
        <ele>1640.6300000000001</ele>
        <time>2012-07-23T10:50:55Z</time>
      </trkpt>
      <trkpt lat="46.154213799163699" lon="7.311435481533408">
        <ele>1640.6300000000001</ele>
        <time>2012-07-23T10:50:56Z</time>
      </trkpt>
      <trkpt lat="46.154035683721304" lon="7.311471272259951">
        <ele>1640.1500000000001</ele>
        <time>2012-07-23T10:51:00Z</time>
      </trkpt>
      <trkpt lat="46.153944404795766" lon="7.31148099526763">
        <ele>1639.6700000000001</ele>
        <time>2012-07-23T10:51:02Z</time>
      </trkpt>
      <trkpt lat="46.153899058699608" lon="7.311485186219215">
        <ele>1639.6700000000001</ele>
        <time>2012-07-23T10:51:03Z</time>
      </trkpt>
      <trkpt lat="46.153612146154046" lon="7.311500608921051">
        <ele>1640.6300000000001</ele>
        <time>2012-07-23T10:51:09Z</time>
      </trkpt>
      <trkpt lat="46.153059946373105" lon="7.311637736856937">
        <ele>1644.47</ele>
        <time>2012-07-23T10:51:22Z</time>
      </trkpt>
      <trkpt lat="46.152721485123038" lon="7.311745444312692">
        <ele>1645.9100000000001</ele>
        <time>2012-07-23T10:51:30Z</time>
      </trkpt>
      <trkpt lat="46.152680329978466" lon="7.311775451526046">
        <ele>1646.4000000000001</ele>
        <time>2012-07-23T10:51:31Z</time>
      </trkpt>
      <trkpt lat="46.152641605585814" lon="7.311806045472622">
        <ele>1646.4000000000001</ele>
        <time>2012-07-23T10:51:32Z</time>
      </trkpt>
      <trkpt lat="46.152601037174463" lon="7.311832197010517">
        <ele>1646.8800000000001</ele>
        <time>2012-07-23T10:51:33Z</time>
      </trkpt>
      <trkpt lat="46.152557283639908" lon="7.311857342720032">
        <ele>1647.3599999999999</ele>
        <time>2012-07-23T10:51:34Z</time>
      </trkpt>
      <trkpt lat="46.152372714132071" lon="7.311950130388141">
        <ele>1648.8</ele>
        <time>2012-07-23T10:51:38Z</time>
      </trkpt>
      <trkpt lat="46.152322422713041" lon="7.311972258612514">
        <ele>1648.8</ele>
        <time>2012-07-23T10:51:39Z</time>
      </trkpt>
      <trkpt lat="46.152274142950773" lon="7.311998158693314">
        <ele>1649.28</ele>
        <time>2012-07-23T10:51:40Z</time>
      </trkpt>
      <trkpt lat="46.152230054140091" lon="7.312025399878621">
        <ele>1649.28</ele>
        <time>2012-07-23T10:51:41Z</time>
      </trkpt>
      <trkpt lat="46.152188228443265" lon="7.312056161463261">
        <ele>1649.76</ele>
        <time>2012-07-23T10:51:42Z</time>
      </trkpt>
      <trkpt lat="46.152147324755788" lon="7.312092538923025">
        <ele>1649.76</ele>
        <time>2012-07-23T10:51:43Z</time>
      </trkpt>
      <trkpt lat="46.15210885182023" lon="7.312135705724359">
        <ele>1649.76</ele>
        <time>2012-07-23T10:51:44Z</time>
      </trkpt>
      <trkpt lat="46.15206828340888" lon="7.312176022678614">
        <ele>1649.76</ele>
        <time>2012-07-23T10:51:45Z</time>
      </trkpt>
      <trkpt lat="46.152026792988181" lon="7.312206700444222">
        <ele>1649.76</ele>
        <time>2012-07-23T10:51:46Z</time>
      </trkpt>
      <trkpt lat="46.151983793824911" lon="7.312228661030531">
        <ele>1650.24</ele>
        <time>2012-07-23T10:51:47Z</time>
      </trkpt>
      <trkpt lat="46.151942554861307" lon="7.312249699607492">
        <ele>1650.24</ele>
        <time>2012-07-23T10:51:48Z</time>
      </trkpt>
      <trkpt lat="46.151903746649623" lon="7.312269899994135">
        <ele>1650.24</ele>
        <time>2012-07-23T10:51:49Z</time>
      </trkpt>
      <trkpt lat="46.151862842962146" lon="7.312285406515002">
        <ele>1650.24</ele>
        <time>2012-07-23T10:51:50Z</time>
      </trkpt>
      <trkpt lat="46.151820095255971" lon="7.312297560274601">
        <ele>1650.24</ele>
        <time>2012-07-23T10:51:51Z</time>
      </trkpt>
      <trkpt lat="46.151776844635606" lon="7.312309211120009">
        <ele>1650.72</ele>
        <time>2012-07-23T10:51:52Z</time>
      </trkpt>
      <trkpt lat="46.151735102757812" lon="7.312317676842213">
        <ele>1650.72</ele>
        <time>2012-07-23T10:51:53Z</time>
      </trkpt>
      <trkpt lat="46.151468642055988" lon="7.312353048473597">
        <ele>1650.72</ele>
        <time>2012-07-23T10:51:59Z</time>
      </trkpt>
      <trkpt lat="46.151421368122101" lon="7.312372075393796">
        <ele>1650.72</ele>
        <time>2012-07-23T10:52:00Z</time>
      </trkpt>
      <trkpt lat="46.151375938206911" lon="7.312397472560406">
        <ele>1651.2</ele>
        <time>2012-07-23T10:52:01Z</time>
      </trkpt>
      <trkpt lat="46.15133386105299" lon="7.312433933839202">
        <ele>1651.6800000000001</ele>
        <time>2012-07-23T10:52:02Z</time>
      </trkpt>
      <trkpt lat="46.151295388117433" lon="7.312477771192789">
        <ele>1651.6800000000001</ele>
        <time>2012-07-23T10:52:03Z</time>
      </trkpt>
      <trkpt lat="46.151259765028954" lon="7.312523117288947">
        <ele>1652.1600000000001</ele>
        <time>2012-07-23T10:52:04Z</time>
      </trkpt>
      <trkpt lat="46.151225902140141" lon="7.312569217756391">
        <ele>1652.1600000000001</ele>
        <time>2012-07-23T10:52:05Z</time>
      </trkpt>
      <trkpt lat="46.151098078116775" lon="7.312752613797784">
        <ele>1653.5999999999999</ele>
        <time>2012-07-23T10:52:09Z</time>
      </trkpt>
      <trkpt lat="46.151059353724122" lon="7.312792930752039">
        <ele>1653.5999999999999</ele>
        <time>2012-07-23T10:52:10Z</time>
      </trkpt>
      <trkpt lat="46.151019623503089" lon="7.312825117260218">
        <ele>1653.5999999999999</ele>
        <time>2012-07-23T10:52:11Z</time>
      </trkpt>
      <trkpt lat="46.150980899110436" lon="7.31285210698843">
        <ele>1654.0899999999999</ele>
        <time>2012-07-23T10:52:12Z</time>
      </trkpt>
      <trkpt lat="46.150944186374545" lon="7.312874738126993">
        <ele>1654.0899999999999</ele>
        <time>2012-07-23T10:52:13Z</time>
      </trkpt>
      <trkpt lat="46.150482427328825" lon="7.313086129724979">
        <ele>1657.9300000000001</ele>
        <time>2012-07-23T10:52:26Z</time>
      </trkpt>
      <trkpt lat="46.150105576962233" lon="7.313179839402437">
        <ele>1658.8900000000001</ele>
        <time>2012-07-23T10:52:38Z</time>
      </trkpt>
      <trkpt lat="46.149666616693139" lon="7.313381005078554">
        <ele>1658.4100000000001</ele>
        <time>2012-07-23T10:52:52Z</time>
      </trkpt>
      <trkpt lat="46.149281971156597" lon="7.31345166452229">
        <ele>1658.4100000000001</ele>
        <time>2012-07-23T10:53:04Z</time>
      </trkpt>
      <trkpt lat="46.149220447987318" lon="7.313398942351341">
        <ele>1658.8900000000001</ele>
        <time>2012-07-23T10:53:07Z</time>
      </trkpt>
      <trkpt lat="46.149199409410357" lon="7.313391231000423">
        <ele>1659.3699999999999</ele>
        <time>2012-07-23T10:53:08Z</time>
      </trkpt>
      <trkpt lat="46.149180131033063" lon="7.313384609296918">
        <ele>1659.3699999999999</ele>
        <time>2012-07-23T10:53:09Z</time>
      </trkpt>
      <trkpt lat="46.149161942303181" lon="7.313375640660524">
        <ele>1659.8499999999999</ele>
        <time>2012-07-23T10:53:10Z</time>
      </trkpt>
      <trkpt lat="46.149139730259776" lon="7.31336516328156">
        <ele>1659.8499999999999</ele>
        <time>2012-07-23T10:53:11Z</time>
      </trkpt>
      <trkpt lat="46.149118524044752" lon="7.313352338969708">
        <ele>1660.3299999999999</ele>
        <time>2012-07-23T10:53:12Z</time>
      </trkpt>
      <trkpt lat="46.148984329774976" lon="7.313302885740995">
        <ele>1661.3</ele>
        <time>2012-07-23T10:53:19Z</time>
      </trkpt>
      <trkpt lat="46.14892590790987" lon="7.313238261267543">
        <ele>1660.3299999999999</ele>
        <time>2012-07-23T10:53:30Z</time>
      </trkpt>
      <trkpt lat="46.14890344440937" lon="7.313231639564037">
        <ele>1660.8099999999999</ele>
        <time>2012-07-23T10:53:53Z</time>
      </trkpt>
      <trkpt lat="46.148890536278486" lon="7.313191657885909">
        <ele>1660.8099999999999</ele>
        <time>2012-07-23T10:54:20Z</time>
      </trkpt>
      <trkpt lat="46.148849381133914" lon="7.313173217698932">
        <ele>1663.22</ele>
        <time>2012-07-23T10:54:45Z</time>
      </trkpt>
      <trkpt lat="46.148822726681828" lon="7.31316382996738">
        <ele>1663.22</ele>
        <time>2012-07-23T10:55:11Z</time>
      </trkpt>
      <trkpt lat="46.148808896541595" lon="7.313162907958031">
        <ele>1664.1800000000001</ele>
        <time>2012-07-23T10:55:25Z</time>
      </trkpt>
      <trkpt lat="46.148610999807715" lon="7.313102139160037">
        <ele>1662.74</ele>
        <time>2012-07-23T10:55:36Z</time>
      </trkpt>
      <trkpt lat="46.148267928510904" lon="7.313426854088903">
        <ele>1664.6600000000001</ele>
        <time>2012-07-23T10:55:53Z</time>
      </trkpt>
      <trkpt lat="46.148057961836457" lon="7.31354545801878">
        <ele>1663.7</ele>
        <time>2012-07-23T10:56:02Z</time>
      </trkpt>
      <trkpt lat="46.148042790591717" lon="7.31356062926352">
        <ele>1663.7</ele>
        <time>2012-07-23T10:56:03Z</time>
      </trkpt>
      <trkpt lat="46.148030469194055" lon="7.313557360321283">
        <ele>1663.7</ele>
        <time>2012-07-23T10:56:04Z</time>
      </trkpt>
      <trkpt lat="46.148018399253488" lon="7.313552247360349">
        <ele>1663.7</ele>
        <time>2012-07-23T10:56:05Z</time>
      </trkpt>
      <trkpt lat="46.14800582639873" lon="7.313545793294907">
        <ele>1663.22</ele>
        <time>2012-07-23T10:56:06Z</time>
      </trkpt>
      <trkpt lat="46.147987553849816" lon="7.313538920134306">
        <ele>1663.22</ele>
        <time>2012-07-23T10:56:07Z</time>
      </trkpt>
      <trkpt lat="46.147963749244809" lon="7.313530705869198">
        <ele>1662.74</ele>
        <time>2012-07-23T10:56:08Z</time>
      </trkpt>
      <trkpt lat="46.147734085097909" lon="7.31343599036336">
        <ele>1661.78</ele>
        <time>2012-07-23T10:56:20Z</time>
      </trkpt>
      <trkpt lat="46.147400820627809" lon="7.313484689220786">
        <ele>1659.8499999999999</ele>
        <time>2012-07-23T10:56:31Z</time>
      </trkpt>
      <trkpt lat="46.14707057364285" lon="7.313735978677869">
        <ele>1667.0599999999999</ele>
        <time>2012-07-23T10:56:43Z</time>
      </trkpt>
      <trkpt lat="46.147013325244188" lon="7.313767913728952">
        <ele>1667.54</ele>
        <time>2012-07-23T10:56:45Z</time>
      </trkpt>
      <trkpt lat="46.146980216726661" lon="7.313771350309253">
        <ele>1668.02</ele>
        <time>2012-07-23T10:56:46Z</time>
      </trkpt>
      <trkpt lat="46.14695331081748" lon="7.313767075538635">
        <ele>1668.51</ele>
        <time>2012-07-23T10:56:47Z</time>
      </trkpt>
      <trkpt lat="46.146894134581089" lon="7.313728937879205">
        <ele>1669.47</ele>
        <time>2012-07-23T10:56:50Z</time>
      </trkpt>
      <trkpt lat="46.146138589829206" lon="7.314209975302219">
        <ele>1679.0799999999999</ele>
        <time>2012-07-23T10:57:24Z</time>
      </trkpt>
      <trkpt lat="46.145764840766788" lon="7.314380211755633">
        <ele>1675.72</ele>
        <time>2012-07-23T10:57:37Z</time>
      </trkpt>
      <trkpt lat="46.145484717562795" lon="7.314575342461467">
        <ele>1676.6800000000001</ele>
        <time>2012-07-23T10:57:52Z</time>
      </trkpt>
      <trkpt lat="46.145193614065647" lon="7.31461021117866">
        <ele>1677.6400000000001</ele>
        <time>2012-07-23T10:58:06Z</time>
      </trkpt>
      <trkpt lat="46.144872670993209" lon="7.314711799845099">
        <ele>1680.04</ele>
        <time>2012-07-23T10:58:23Z</time>
      </trkpt>
      <trkpt lat="46.144561199471354" lon="7.314676595851779">
        <ele>1681</ele>
        <time>2012-07-23T10:58:38Z</time>
      </trkpt>
      <trkpt lat="46.144200777634978" lon="7.314676847308874">
        <ele>1685.8099999999999</ele>
        <time>2012-07-23T10:58:56Z</time>
      </trkpt>
      <trkpt lat="46.143920822069049" lon="7.314609372988343">
        <ele>1688.21</ele>
        <time>2012-07-23T10:59:11Z</time>
      </trkpt>
      <trkpt lat="46.143606081604958" lon="7.3145667091012">
        <ele>1690.6199999999999</ele>
        <time>2012-07-23T10:59:27Z</time>
      </trkpt>
      <trkpt lat="46.143277175724506" lon="7.314538042992353">
        <ele>1695.4200000000001</ele>
        <time>2012-07-23T10:59:44Z</time>
      </trkpt>
      <trkpt lat="46.143214730545878" lon="7.314500575885177">
        <ele>1696.3800000000001</ele>
        <time>2012-07-23T10:59:48Z</time>
      </trkpt>
      <trkpt lat="46.143200481310487" lon="7.314502755180001">
        <ele>1696.3800000000001</ele>
        <time>2012-07-23T10:59:49Z</time>
      </trkpt>
      <trkpt lat="46.143182627856731" lon="7.314510382711887">
        <ele>1696.8599999999999</ele>
        <time>2012-07-23T10:59:50Z</time>
      </trkpt>
      <trkpt lat="46.143163600936532" lon="7.314516752958298">
        <ele>1696.8599999999999</ele>
        <time>2012-07-23T10:59:51Z</time>
      </trkpt>
      <trkpt lat="46.143140885978937" lon="7.314530247822404">
        <ele>1697.3399999999999</ele>
        <time>2012-07-23T10:59:52Z</time>
      </trkpt>
      <trkpt lat="46.143117751926184" lon="7.314542988315225">
        <ele>1697.3399999999999</ele>
        <time>2012-07-23T10:59:53Z</time>
      </trkpt>
      <trkpt lat="46.143088499084115" lon="7.314554639160633">
        <ele>1697.3399999999999</ele>
        <time>2012-07-23T10:59:54Z</time>
      </trkpt>
      <trkpt lat="46.142905354499817" lon="7.314677182585001">
        <ele>1696.3800000000001</ele>
        <time>2012-07-23T10:59:59Z</time>
      </trkpt>
      <trkpt lat="46.1428302526474" lon="7.31474700383842">
        <ele>1695.4200000000001</ele>
        <time>2012-07-23T11:00:01Z</time>
      </trkpt>
      <trkpt lat="46.142610646784306" lon="7.314913803711534">
        <ele>1693.98</ele>
        <time>2012-07-23T11:00:06Z</time>
      </trkpt>
      <trkpt lat="46.142572090029716" lon="7.314972979947925">
        <ele>1693.98</ele>
        <time>2012-07-23T11:00:07Z</time>
      </trkpt>
      <trkpt lat="46.142543507739902" lon="7.315048081800342">
        <ele>1693.5</ele>
        <time>2012-07-23T11:00:08Z</time>
      </trkpt>
      <trkpt lat="46.142531270161271" lon="7.315135840326548">
        <ele>1693.5</ele>
        <time>2012-07-23T11:00:09Z</time>
      </trkpt>
      <trkpt lat="46.142528336495161" lon="7.31522049754858">
        <ele>1693.02</ele>
        <time>2012-07-23T11:00:10Z</time>
      </trkpt>
      <trkpt lat="46.142523223534226" lon="7.315296856686473">
        <ele>1692.54</ele>
        <time>2012-07-23T11:00:11Z</time>
      </trkpt>
      <trkpt lat="46.142507968470454" lon="7.315368270501494">
        <ele>1692.0599999999999</ele>
        <time>2012-07-23T11:00:12Z</time>
      </trkpt>
      <trkpt lat="46.142487097531557" lon="7.315436666831374">
        <ele>1691.5799999999999</ele>
        <time>2012-07-23T11:00:13Z</time>
      </trkpt>
      <trkpt lat="46.142464214935899" lon="7.315505063161254">
        <ele>1691.0999999999999</ele>
        <time>2012-07-23T11:00:14Z</time>
      </trkpt>
      <trkpt lat="46.142445104196668" lon="7.31556985527277">
        <ele>1690.6199999999999</ele>
        <time>2012-07-23T11:00:15Z</time>
      </trkpt>
      <trkpt lat="46.142430435866117" lon="7.315635401755571">
        <ele>1689.6500000000001</ele>
        <time>2012-07-23T11:00:16Z</time>
      </trkpt>
      <trkpt lat="46.142420042306185" lon="7.31569834984839">
        <ele>1689.1700000000001</ele>
        <time>2012-07-23T11:00:17Z</time>
      </trkpt>
      <trkpt lat="46.142411157488823" lon="7.315761130303145">
        <ele>1688.6900000000001</ele>
        <time>2012-07-23T11:00:18Z</time>
      </trkpt>
      <trkpt lat="46.142396992072463" lon="7.315820641815662">
        <ele>1688.21</ele>
        <time>2012-07-23T11:00:19Z</time>
      </trkpt>
      <trkpt lat="46.142376707866788" lon="7.315880656242371">
        <ele>1686.77</ele>
        <time>2012-07-23T11:00:20Z</time>
      </trkpt>
      <trkpt lat="46.142297079786658" lon="7.316078301519156">
        <ele>1684.3699999999999</ele>
        <time>2012-07-23T11:00:23Z</time>
      </trkpt>
      <trkpt lat="46.142119131982327" lon="7.31644450686872">
        <ele>1679.5599999999999</ele>
        <time>2012-07-23T11:00:31Z</time>
      </trkpt>
      <trkpt lat="46.141861723735929" lon="7.316693952307105">
        <ele>1685.3299999999999</ele>
        <time>2012-07-23T11:00:46Z</time>
      </trkpt>
      <trkpt lat="46.141576236113906" lon="7.316864775493741">
        <ele>1688.6900000000001</ele>
        <time>2012-07-23T11:01:02Z</time>
      </trkpt>
      <trkpt lat="46.141344392672181" lon="7.316626142710447">
        <ele>1688.21</ele>
        <time>2012-07-23T11:01:17Z</time>
      </trkpt>
      <trkpt lat="46.141090672463179" lon="7.316351886838675">
        <ele>1686.29</ele>
        <time>2012-07-23T11:01:34Z</time>
      </trkpt>
      <trkpt lat="46.14088598638773" lon="7.31608391739428">
        <ele>1687.73</ele>
        <time>2012-07-23T11:01:49Z</time>
      </trkpt>
      <trkpt lat="46.14073745906353" lon="7.315772529691458">
        <ele>1693.98</ele>
        <time>2012-07-23T11:02:05Z</time>
      </trkpt>
      <trkpt lat="46.140554482117295" lon="7.315422920510173">
        <ele>1702.1500000000001</ele>
        <time>2012-07-23T11:02:23Z</time>
      </trkpt>
      <trkpt lat="46.140302186831832" lon="7.315139193087816">
        <ele>1706</ele>
        <time>2012-07-23T11:02:42Z</time>
      </trkpt>
      <trkpt lat="46.140023488551378" lon="7.314993096515536">
        <ele>1710.3199999999999</ele>
        <time>2012-07-23T11:02:59Z</time>
      </trkpt>
      <trkpt lat="46.139961881563067" lon="7.314979769289494">
        <ele>1711.76</ele>
        <time>2012-07-23T11:03:03Z</time>
      </trkpt>
      <trkpt lat="46.139740431681275" lon="7.314953114837408">
        <ele>1717.53</ele>
        <time>2012-07-23T11:03:17Z</time>
      </trkpt>
      <trkpt lat="46.139500122517347" lon="7.315039113163948">
        <ele>1720.4200000000001</ele>
        <time>2012-07-23T11:03:32Z</time>
      </trkpt>
      <trkpt lat="46.139273559674621" lon="7.315370785072446">
        <ele>1722.3399999999999</ele>
        <time>2012-07-23T11:03:51Z</time>
      </trkpt>
      <trkpt lat="46.139121679589152" lon="7.315794238820672">
        <ele>1725.7</ele>
        <time>2012-07-23T11:04:10Z</time>
      </trkpt>
      <trkpt lat="46.138913221657276" lon="7.316089952364564">
        <ele>1728.1099999999999</ele>
        <time>2012-07-23T11:04:27Z</time>
      </trkpt>
      <trkpt lat="46.138708032667637" lon="7.3163350392133">
        <ele>1730.03</ele>
        <time>2012-07-23T11:04:42Z</time>
      </trkpt>
      <trkpt lat="46.138469902798533" lon="7.316434532403946">
        <ele>1730.03</ele>
        <time>2012-07-23T11:04:55Z</time>
      </trkpt>
      <trkpt lat="46.13814577460289" lon="7.316397484391928">
        <ele>1732.4300000000001</ele>
        <time>2012-07-23T11:05:13Z</time>
      </trkpt>
      <trkpt lat="46.13813160918653" lon="7.316381055861712">
        <ele>1732.4300000000001</ele>
        <time>2012-07-23T11:05:14Z</time>
      </trkpt>
      <trkpt lat="46.138117862865329" lon="7.316362112760544">
        <ele>1732.4300000000001</ele>
        <time>2012-07-23T11:05:15Z</time>
      </trkpt>
      <trkpt lat="46.138106379657984" lon="7.316340319812298">
        <ele>1732.4300000000001</ele>
        <time>2012-07-23T11:05:16Z</time>
      </trkpt>
      <trkpt lat="46.138097075745463" lon="7.316317856311798">
        <ele>1732.4300000000001</ele>
        <time>2012-07-23T11:05:17Z</time>
      </trkpt>
      <trkpt lat="46.138086346909404" lon="7.316296063363552">
        <ele>1732.4300000000001</ele>
        <time>2012-07-23T11:05:18Z</time>
      </trkpt>
      <trkpt lat="46.1380744446069" lon="7.316274270415306">
        <ele>1732.9100000000001</ele>
        <time>2012-07-23T11:05:19Z</time>
      </trkpt>
      <trkpt lat="46.138063799589872" lon="7.316249879077077">
        <ele>1732.9100000000001</ele>
        <time>2012-07-23T11:05:20Z</time>
      </trkpt>
      <trkpt lat="46.138058518990874" lon="7.316226661205292">
        <ele>1733.3900000000001</ele>
        <time>2012-07-23T11:05:21Z</time>
      </trkpt>
      <trkpt lat="46.138051645830274" lon="7.316205454990268">
        <ele>1733.3900000000001</ele>
        <time>2012-07-23T11:05:22Z</time>
      </trkpt>
      <trkpt lat="46.138047119602561" lon="7.316183326765895">
        <ele>1734.3599999999999</ele>
        <time>2012-07-23T11:05:23Z</time>
      </trkpt>
      <trkpt lat="46.13804267719388" lon="7.316161366179586">
        <ele>1734.3599999999999</ele>
        <time>2012-07-23T11:05:24Z</time>
      </trkpt>
      <trkpt lat="46.137971095740795" lon="7.315860707312822">
        <ele>1737.24</ele>
        <time>2012-07-23T11:05:39Z</time>
      </trkpt>
      <trkpt lat="46.137759704142809" lon="7.315657781437039">
        <ele>1740.5999999999999</ele>
        <time>2012-07-23T11:05:55Z</time>
      </trkpt>
      <trkpt lat="46.137516964226961" lon="7.315464494749904">
        <ele>1744.45</ele>
        <time>2012-07-23T11:06:15Z</time>
      </trkpt>
      <trkpt lat="46.137272967025638" lon="7.315330049023032">
        <ele>1748.29</ele>
        <time>2012-07-23T11:06:33Z</time>
      </trkpt>
      <trkpt lat="46.137076076120138" lon="7.315300879999995">
        <ele>1751.1800000000001</ele>
        <time>2012-07-23T11:06:47Z</time>
      </trkpt>
      <trkpt lat="46.136833084747195" lon="7.315224353224039">
        <ele>1754.54</ele>
        <time>2012-07-23T11:07:05Z</time>
      </trkpt>
      <trkpt lat="46.13662320189178" lon="7.315135756507516">
        <ele>1758.8699999999999</ele>
        <time>2012-07-23T11:07:21Z</time>
      </trkpt>
      <trkpt lat="46.136413821950555" lon="7.315011285245419">
        <ele>1762.71</ele>
        <time>2012-07-23T11:07:36Z</time>
      </trkpt>
      <trkpt lat="46.136391442269087" lon="7.315004831179977">
        <ele>1763.2</ele>
        <time>2012-07-23T11:07:51Z</time>
      </trkpt>
      <trkpt lat="46.136391861364245" lon="7.314998880028725">
        <ele>1762.71</ele>
        <time>2012-07-23T11:07:54Z</time>
      </trkpt>
      <trkpt lat="46.136382054537535" lon="7.314976919442415">
        <ele>1763.2</ele>
        <time>2012-07-23T11:07:56Z</time>
      </trkpt>
      <trkpt lat="46.136208632960916" lon="7.314820010215044">
        <ele>1766.0799999999999</ele>
        <time>2012-07-23T11:08:12Z</time>
      </trkpt>
      <trkpt lat="46.13600461743772" lon="7.314790841192007">
        <ele>1768</ele>
        <time>2012-07-23T11:08:27Z</time>
      </trkpt>
      <trkpt lat="46.135773696005344" lon="7.314661340788007">
        <ele>1770.8900000000001</ele>
        <time>2012-07-23T11:08:44Z</time>
      </trkpt>
      <trkpt lat="46.135524502024055" lon="7.314470401033759">
        <ele>1774.25</ele>
        <time>2012-07-23T11:09:02Z</time>
      </trkpt>
      <trkpt lat="46.135367173701525" lon="7.314398651942611">
        <ele>1776.6500000000001</ele>
        <time>2012-07-23T11:09:15Z</time>
      </trkpt>
      <trkpt lat="46.135201882570982" lon="7.314337631687522">
        <ele>1779.54</ele>
        <time>2012-07-23T11:09:27Z</time>
      </trkpt>
      <trkpt lat="46.135021084919572" lon="7.314229756593704">
        <ele>1781.46</ele>
        <time>2012-07-23T11:09:40Z</time>
      </trkpt>
      <trkpt lat="46.134815979748964" lon="7.314140070229769">
        <ele>1783.8599999999999</ele>
        <time>2012-07-23T11:09:54Z</time>
      </trkpt>
      <trkpt lat="46.134761581197381" lon="7.314154235646129">
        <ele>1784.8199999999999</ele>
        <time>2012-07-23T11:09:58Z</time>
      </trkpt>
      <trkpt lat="46.13466477021575" lon="7.31413428671658">
        <ele>1786.75</ele>
        <time>2012-07-23T11:10:05Z</time>
      </trkpt>
      <trkpt lat="46.134613305330276" lon="7.314110733568668">
        <ele>1787.71</ele>
        <time>2012-07-23T11:10:09Z</time>
      </trkpt>
      <trkpt lat="46.134386910125613" lon="7.313970504328609">
        <ele>1790.1099999999999</ele>
        <time>2012-07-23T11:10:25Z</time>
      </trkpt>
      <trkpt lat="46.134178284555674" lon="7.313976790755987">
        <ele>1794.4400000000001</ele>
        <time>2012-07-23T11:10:40Z</time>
      </trkpt>
      <trkpt lat="46.134000420570374" lon="7.313979137688875">
        <ele>1797.8</ele>
        <time>2012-07-23T11:10:53Z</time>
      </trkpt>
      <trkpt lat="46.133818365633488" lon="7.313944017514586">
        <ele>1802.6099999999999</ele>
        <time>2012-07-23T11:11:07Z</time>
      </trkpt>
      <trkpt lat="46.133603705093265" lon="7.31396715156734">
        <ele>1807.9000000000001</ele>
        <time>2012-07-23T11:11:21Z</time>
      </trkpt>
      <trkpt lat="46.133405975997448" lon="7.313929013907909">
        <ele>1811.26</ele>
        <time>2012-07-23T11:11:35Z</time>
      </trkpt>
      <trkpt lat="46.133391056209803" lon="7.313923900946975">
        <ele>1811.26</ele>
        <time>2012-07-23T11:11:36Z</time>
      </trkpt>
      <trkpt lat="46.133348308503628" lon="7.31392364948988">
        <ele>1811.26</ele>
        <time>2012-07-23T11:11:49Z</time>
      </trkpt>
      <trkpt lat="46.13332006148994" lon="7.313902778550983">
        <ele>1808.8599999999999</ele>
        <time>2012-07-23T11:12:07Z</time>
      </trkpt>
      <trkpt lat="46.133333891630173" lon="7.313884254544973">
        <ele>1807.9000000000001</ele>
        <time>2012-07-23T11:12:26Z</time>
      </trkpt>
      <trkpt lat="46.133318720385432" lon="7.313910908997059">
        <ele>1803.0899999999999</ele>
        <time>2012-07-23T11:12:56Z</time>
      </trkpt>
      <trkpt lat="46.133320648223162" lon="7.31391635723412">
        <ele>1802.1300000000001</ele>
        <time>2012-07-23T11:13:12Z</time>
      </trkpt>
      <trkpt lat="46.13329173065722" lon="7.313883667811751">
        <ele>1802.6099999999999</ele>
        <time>2012-07-23T11:13:16Z</time>
      </trkpt>
      <trkpt lat="46.133269853889942" lon="7.31386648491025">
        <ele>1802.6099999999999</ele>
        <time>2012-07-23T11:13:18Z</time>
      </trkpt>
      <trkpt lat="46.133141191676259" lon="7.313833460211754">
        <ele>1804.53</ele>
        <time>2012-07-23T11:13:27Z</time>
      </trkpt>
      <trkpt lat="46.132857715710998" lon="7.313885679468513">
        <ele>1808.8599999999999</ele>
        <time>2012-07-23T11:13:45Z</time>
      </trkpt>
      <trkpt lat="46.132602235302329" lon="7.313813343644142">
        <ele>1812.22</ele>
        <time>2012-07-23T11:14:02Z</time>
      </trkpt>
      <trkpt lat="46.13235941156745" lon="7.313756681978703">
        <ele>1816.55</ele>
        <time>2012-07-23T11:14:18Z</time>
      </trkpt>
      <trkpt lat="46.132084736600518" lon="7.313528275117278">
        <ele>1820.3900000000001</ele>
        <time>2012-07-23T11:14:35Z</time>
      </trkpt>
      <trkpt lat="46.131867058575153" lon="7.31341453269124">
        <ele>1823.28</ele>
        <time>2012-07-23T11:14:51Z</time>
      </trkpt>
      <trkpt lat="46.131671257317066" lon="7.313430877402425">
        <ele>1825.2</ele>
        <time>2012-07-23T11:15:06Z</time>
      </trkpt>
      <trkpt lat="46.131590791046619" lon="7.313481504097581">
        <ele>1826.1600000000001</ele>
        <time>2012-07-23T11:15:12Z</time>
      </trkpt>
      <trkpt lat="46.131522143259645" lon="7.313578315079212">
        <ele>1827.1199999999999</ele>
        <time>2012-07-23T11:15:19Z</time>
      </trkpt>
      <trkpt lat="46.131287785246968" lon="7.313719801604748">
        <ele>1830.97</ele>
        <time>2012-07-23T11:15:36Z</time>
      </trkpt>
      <trkpt lat="46.131162811070681" lon="7.313733296468854">
        <ele>1830.97</ele>
        <time>2012-07-23T11:15:44Z</time>
      </trkpt>
      <trkpt lat="46.131068179383874" lon="7.313739163801074">
        <ele>1830.49</ele>
        <time>2012-07-23T11:15:50Z</time>
      </trkpt>
      <trkpt lat="46.130804568529129" lon="7.313617123290896">
        <ele>1836.26</ele>
        <time>2012-07-23T11:16:06Z</time>
      </trkpt>
      <trkpt lat="46.130586555227637" lon="7.31355425901711">
        <ele>1839.1400000000001</ele>
        <time>2012-07-23T11:16:23Z</time>
      </trkpt>
      <trkpt lat="46.130339121446013" lon="7.313409084454179">
        <ele>1842.98</ele>
        <time>2012-07-23T11:16:41Z</time>
      </trkpt>
      <trkpt lat="46.130107697099447" lon="7.3133475612849">
        <ele>1844.9100000000001</ele>
        <time>2012-07-23T11:16:58Z</time>
      </trkpt>
      <trkpt lat="46.129887755960226" lon="7.313256366178393">
        <ele>1847.79</ele>
        <time>2012-07-23T11:17:13Z</time>
      </trkpt>
      <trkpt lat="46.129659013822675" lon="7.313036005944014">
        <ele>1848.75</ele>
        <time>2012-07-23T11:17:30Z</time>
      </trkpt>
      <trkpt lat="46.129420045763254" lon="7.31291857548058">
        <ele>1852.1199999999999</ele>
        <time>2012-07-23T11:17:46Z</time>
      </trkpt>
      <trkpt lat="46.129192057996988" lon="7.312785806134343">
        <ele>1855.48</ele>
        <time>2012-07-23T11:18:02Z</time>
      </trkpt>
      <trkpt lat="46.12909491173923" lon="7.312755296006799">
        <ele>1855.96</ele>
        <time>2012-07-23T11:18:09Z</time>
      </trkpt>
      <trkpt lat="46.128884023055434" lon="7.312610624358058">
        <ele>1857.8900000000001</ele>
        <time>2012-07-23T11:18:24Z</time>
      </trkpt>
      <trkpt lat="46.128674224019051" lon="7.312414571642876">
        <ele>1861.25</ele>
        <time>2012-07-23T11:18:41Z</time>
      </trkpt>
      <trkpt lat="46.128480769693851" lon="7.312173759564757">
        <ele>1863.1700000000001</ele>
        <time>2012-07-23T11:18:58Z</time>
      </trkpt>
      <trkpt lat="46.128282202407718" lon="7.312026489526033">
        <ele>1866.0599999999999</ele>
        <time>2012-07-23T11:19:13Z</time>
      </trkpt>
      <trkpt lat="46.128130489960313" lon="7.311775619164109">
        <ele>1867.98</ele>
        <time>2012-07-23T11:19:29Z</time>
      </trkpt>
      <trkpt lat="46.127982381731272" lon="7.311497088521719">
        <ele>1869.9000000000001</ele>
        <time>2012-07-23T11:19:45Z</time>
      </trkpt>
      <trkpt lat="46.127749783918262" lon="7.31128117069602">
        <ele>1872.79</ele>
        <time>2012-07-23T11:20:02Z</time>
      </trkpt>
      <trkpt lat="46.127497404813766" lon="7.31106374412775">
        <ele>1877.1099999999999</ele>
        <time>2012-07-23T11:20:20Z</time>
      </trkpt>
      <trkpt lat="46.127278553321958" lon="7.310820920392871">
        <ele>1880</ele>
        <time>2012-07-23T11:20:37Z</time>
      </trkpt>
      <trkpt lat="46.127147879451513" lon="7.310711788013578">
        <ele>1881.4400000000001</ele>
        <time>2012-07-23T11:20:48Z</time>
      </trkpt>
      <trkpt lat="46.126994574442506" lon="7.310595698654652">
        <ele>1882.8800000000001</ele>
        <time>2012-07-23T11:21:01Z</time>
      </trkpt>
      <trkpt lat="46.126743787899613" lon="7.310438957065344">
        <ele>1883.8399999999999</ele>
        <time>2012-07-23T11:21:20Z</time>
      </trkpt>
      <trkpt lat="46.126476572826505" lon="7.310459576547146">
        <ele>1886.24</ele>
        <time>2012-07-23T11:21:37Z</time>
      </trkpt>
      <trkpt lat="46.126216985285282" lon="7.310465360060334">
        <ele>1887.6900000000001</ele>
        <time>2012-07-23T11:21:53Z</time>
      </trkpt>
      <trkpt lat="46.125980783253908" lon="7.310444070026279">
        <ele>1890.0899999999999</ele>
        <time>2012-07-23T11:22:08Z</time>
      </trkpt>
      <trkpt lat="46.125736786052585" lon="7.310550436377525">
        <ele>1894.4200000000001</ele>
        <time>2012-07-23T11:22:24Z</time>
      </trkpt>
      <trkpt lat="46.125658499076962" lon="7.310556387528777">
        <ele>1894.9000000000001</ele>
        <time>2012-07-23T11:22:29Z</time>
      </trkpt>
      <trkpt lat="46.125531764701009" lon="7.31057851575315">
        <ele>1895.8599999999999</ele>
        <time>2012-07-23T11:22:37Z</time>
      </trkpt>
      <trkpt lat="46.125440569594502" lon="7.310637608170509">
        <ele>1897.3</ele>
        <time>2012-07-23T11:22:43Z</time>
      </trkpt>
      <trkpt lat="46.125274356454611" lon="7.310750093311071">
        <ele>1898.74</ele>
        <time>2012-07-23T11:22:55Z</time>
      </trkpt>
      <trkpt lat="46.125108981505036" lon="7.310831984505057">
        <ele>1899.22</ele>
        <time>2012-07-23T11:23:06Z</time>
      </trkpt>
      <trkpt lat="46.12488929182291" lon="7.310896189883351">
        <ele>1900.1800000000001</ele>
        <time>2012-07-23T11:23:19Z</time>
      </trkpt>
      <trkpt lat="46.124588716775179" lon="7.310980344191194">
        <ele>1902.1099999999999</ele>
        <time>2012-07-23T11:23:35Z</time>
      </trkpt>
      <trkpt lat="46.12447589635849" lon="7.311022253707051">
        <ele>1904.03</ele>
        <time>2012-07-23T11:23:47Z</time>
      </trkpt>
      <trkpt lat="46.124485535547137" lon="7.311034323647618">
        <ele>1904.51</ele>
        <time>2012-07-23T11:24:10Z</time>
      </trkpt>
      <trkpt lat="46.124490983784199" lon="7.311036754399538">
        <ele>1904.03</ele>
        <time>2012-07-23T11:24:44Z</time>
      </trkpt>
      <trkpt lat="46.124465418979526" lon="7.311037592589855">
        <ele>1906.4300000000001</ele>
        <time>2012-07-23T11:25:15Z</time>
      </trkpt>
      <trkpt lat="46.124314125627279" lon="7.311092242598534">
        <ele>1906.9100000000001</ele>
        <time>2012-07-23T11:25:25Z</time>
      </trkpt>
      <trkpt lat="46.1243009660393" lon="7.311094421893358">
        <ele>1906.9100000000001</ele>
        <time>2012-07-23T11:25:26Z</time>
      </trkpt>
      <trkpt lat="46.124284286051989" lon="7.311096014454961">
        <ele>1907.3900000000001</ele>
        <time>2012-07-23T11:25:27Z</time>
      </trkpt>
      <trkpt lat="46.124269030988216" lon="7.311098109930754">
        <ele>1907.3900000000001</ele>
        <time>2012-07-23T11:25:28Z</time>
      </trkpt>
      <trkpt lat="46.124254446476698" lon="7.31109987013042">
        <ele>1907.3900000000001</ele>
        <time>2012-07-23T11:25:29Z</time>
      </trkpt>
      <trkpt lat="46.124239610508084" lon="7.311099618673325">
        <ele>1907.8699999999999</ele>
        <time>2012-07-23T11:25:30Z</time>
      </trkpt>
      <trkpt lat="46.124029643833637" lon="7.311027953401208">
        <ele>1910.28</ele>
        <time>2012-07-23T11:25:44Z</time>
      </trkpt>
      <trkpt lat="46.123816156759858" lon="7.311065420508385">
        <ele>1912.2</ele>
        <time>2012-07-23T11:25:59Z</time>
      </trkpt>
      <trkpt lat="46.123658576980233" lon="7.31110037304461">
        <ele>1915.0799999999999</ele>
        <time>2012-07-23T11:26:10Z</time>
      </trkpt>
      <trkpt lat="46.123442994430661" lon="7.310961904004216">
        <ele>1917.49</ele>
        <time>2012-07-23T11:26:26Z</time>
      </trkpt>
      <trkpt lat="46.12327384762466" lon="7.310890490189195">
        <ele>1920.3699999999999</ele>
        <time>2012-07-23T11:26:40Z</time>
      </trkpt>
      <trkpt lat="46.123085170984268" lon="7.310852603986859">
        <ele>1923.25</ele>
        <time>2012-07-23T11:26:56Z</time>
      </trkpt>
      <trkpt lat="46.122942259535193" lon="7.310804910957813">
        <ele>1925.1800000000001</ele>
        <time>2012-07-23T11:27:12Z</time>
      </trkpt>
      <trkpt lat="46.122927088290453" lon="7.310794265940785">
        <ele>1923.25</ele>
        <time>2012-07-23T11:27:30Z</time>
      </trkpt>
      <trkpt lat="46.122711254283786" lon="7.310720421373844">
        <ele>1928.0599999999999</ele>
        <time>2012-07-23T11:27:47Z</time>
      </trkpt>
      <trkpt lat="46.122622238472104" lon="7.310689156875014">
        <ele>1929.98</ele>
        <time>2012-07-23T11:27:54Z</time>
      </trkpt>
      <trkpt lat="46.122436411678791" lon="7.310595279559493">
        <ele>1932.8699999999999</ele>
        <time>2012-07-23T11:28:08Z</time>
      </trkpt>
      <trkpt lat="46.122223846614361" lon="7.310517998412252">
        <ele>1936.23</ele>
        <time>2012-07-23T11:28:23Z</time>
      </trkpt>
      <trkpt lat="46.122045228257775" lon="7.310685636475682">
        <ele>1939.1199999999999</ele>
        <time>2012-07-23T11:28:38Z</time>
      </trkpt>
      <trkpt lat="46.1219697073102" lon="7.31093424372375">
        <ele>1940.0799999999999</ele>
        <time>2012-07-23T11:28:50Z</time>
      </trkpt>
      <trkpt lat="46.121872812509537" lon="7.311171283945441">
        <ele>1941.04</ele>
        <time>2012-07-23T11:29:04Z</time>
      </trkpt>
      <trkpt lat="46.121618757024407" lon="7.311318637803197">
        <ele>1942.48</ele>
        <time>2012-07-23T11:29:20Z</time>
      </trkpt>
      <trkpt lat="46.121423542499542" lon="7.31137597002089">
        <ele>1942.96</ele>
        <time>2012-07-23T11:29:32Z</time>
      </trkpt>
      <trkpt lat="46.121241319924593" lon="7.311491472646594">
        <ele>1943.9200000000001</ele>
        <time>2012-07-23T11:29:44Z</time>
      </trkpt>
      <trkpt lat="46.121317259967327" lon="7.311822976917028">
        <ele>1946.3299999999999</ele>
        <time>2012-07-23T11:29:57Z</time>
      </trkpt>
      <trkpt lat="46.121352966874838" lon="7.31195691972971">
        <ele>1947.77</ele>
        <time>2012-07-23T11:30:03Z</time>
      </trkpt>
      <trkpt lat="46.121325558051467" lon="7.312106788158417">
        <ele>1949.21</ele>
        <time>2012-07-23T11:30:10Z</time>
      </trkpt>
      <trkpt lat="46.121161440387368" lon="7.312441561371088">
        <ele>1953.0599999999999</ele>
        <time>2012-07-23T11:30:29Z</time>
      </trkpt>
      <trkpt lat="46.120988018810749" lon="7.312562176957727">
        <ele>1956.4200000000001</ele>
        <time>2012-07-23T11:30:43Z</time>
      </trkpt>
      <trkpt lat="46.120877880603075" lon="7.312602577731013">
        <ele>1958.8199999999999</ele>
        <time>2012-07-23T11:30:57Z</time>
      </trkpt>
      <trkpt lat="46.12092649564147" lon="7.312627639621496">
        <ele>1959.78</ele>
        <time>2012-07-23T11:31:27Z</time>
      </trkpt>
      <trkpt lat="46.120871510356665" lon="7.312595788389444">
        <ele>1962.1900000000001</ele>
        <time>2012-07-23T11:31:58Z</time>
      </trkpt>
      <trkpt lat="46.120887016877532" lon="7.312629232183099">
        <ele>1959.78</ele>
        <time>2012-07-23T11:32:23Z</time>
      </trkpt>
      <trkpt lat="46.120876288041472" lon="7.312604421749711">
        <ele>1959.78</ele>
        <time>2012-07-23T11:32:50Z</time>
      </trkpt>
      <trkpt lat="46.120850723236799" lon="7.312615737318993">
        <ele>1954.98</ele>
        <time>2012-07-23T11:33:21Z</time>
      </trkpt>
      <trkpt lat="46.120595829561353" lon="7.312704836949706">
        <ele>1961.71</ele>
        <time>2012-07-23T11:33:38Z</time>
      </trkpt>
      <trkpt lat="46.120315035805106" lon="7.312773149460554">
        <ele>1965.55</ele>
        <time>2012-07-23T11:33:55Z</time>
      </trkpt>
      <trkpt lat="46.120066931471229" lon="7.3128467425704">
        <ele>1970.3599999999999</ele>
        <time>2012-07-23T11:34:11Z</time>
      </trkpt>
      <trkpt lat="46.119779935106635" lon="7.312902985140681">
        <ele>1972.28</ele>
        <time>2012-07-23T11:34:30Z</time>
      </trkpt>
      <trkpt lat="46.119550438597798" lon="7.312945313751698">
        <ele>1974.2</ele>
        <time>2012-07-23T11:34:45Z</time>
      </trkpt>
      <trkpt lat="46.119468547403812" lon="7.312967693433166">
        <ele>1975.6500000000001</ele>
        <time>2012-07-23T11:34:50Z</time>
      </trkpt>
      <trkpt lat="46.119408365339041" lon="7.312988732010126">
        <ele>1976.6099999999999</ele>
        <time>2012-07-23T11:34:54Z</time>
      </trkpt>
      <trkpt lat="46.119300741702318" lon="7.313023097813129">
        <ele>1979.01</ele>
        <time>2012-07-23T11:35:01Z</time>
      </trkpt>
      <trkpt lat="46.119196806102991" lon="7.312988061457872">
        <ele>1979.97</ele>
        <time>2012-07-23T11:35:08Z</time>
      </trkpt>
      <trkpt lat="46.119221951812506" lon="7.312815226614475">
        <ele>1980.45</ele>
        <time>2012-07-23T11:35:16Z</time>
      </trkpt>
      <trkpt lat="46.119571812450886" lon="7.31260048225522">
        <ele>1979.97</ele>
        <time>2012-07-23T11:35:32Z</time>
      </trkpt>
      <trkpt lat="46.11990331672132" lon="7.312514400109649">
        <ele>1981.9000000000001</ele>
        <time>2012-07-23T11:35:46Z</time>
      </trkpt>
      <trkpt lat="46.120141111314297" lon="7.312286579981446">
        <ele>1982.3800000000001</ele>
        <time>2012-07-23T11:36:03Z</time>
      </trkpt>
      <trkpt lat="46.120141362771392" lon="7.312218602746725">
        <ele>1983.3399999999999</ele>
        <time>2012-07-23T11:36:06Z</time>
      </trkpt>
      <trkpt lat="46.120067937299609" lon="7.312113745138049">
        <ele>1984.3</ele>
        <time>2012-07-23T11:36:13Z</time>
      </trkpt>
      <trkpt lat="46.119818575680256" lon="7.311931606382132">
        <ele>1987.6600000000001</ele>
        <time>2012-07-23T11:36:30Z</time>
      </trkpt>
      <trkpt lat="46.119673065841198" lon="7.31164569966495">
        <ele>1989.5899999999999</ele>
        <time>2012-07-23T11:36:46Z</time>
      </trkpt>
      <trkpt lat="46.119562173262239" lon="7.311399942263961">
        <ele>1992.47</ele>
        <time>2012-07-23T11:37:01Z</time>
      </trkpt>
      <trkpt lat="46.119489166885614" lon="7.311308914795518">
        <ele>1994.3900000000001</ele>
        <time>2012-07-23T11:37:13Z</time>
      </trkpt>
      <trkpt lat="46.119391517713666" lon="7.311156867071986">
        <ele>1995.8299999999999</ele>
        <time>2012-07-23T11:37:23Z</time>
      </trkpt>
      <trkpt lat="46.119290683418512" lon="7.310861740261316">
        <ele>1998.24</ele>
        <time>2012-07-23T11:37:38Z</time>
      </trkpt>
      <trkpt lat="46.119179623201489" lon="7.310528391972184">
        <ele>2001.5999999999999</ele>
        <time>2012-07-23T11:37:55Z</time>
      </trkpt>
      <trkpt lat="46.119040148332715" lon="7.310323789715767">
        <ele>2005.45</ele>
        <time>2012-07-23T11:38:09Z</time>
      </trkpt>
      <trkpt lat="46.119026150554419" lon="7.310287579894066">
        <ele>2005.45</ele>
        <time>2012-07-23T11:38:11Z</time>
      </trkpt>
      <trkpt lat="46.119006033986807" lon="7.310161013156176">
        <ele>2005.9300000000001</ele>
        <time>2012-07-23T11:38:17Z</time>
      </trkpt>
      <trkpt lat="46.118980469182134" lon="7.310002511367202">
        <ele>2007.3699999999999</ele>
        <time>2012-07-23T11:38:26Z</time>
      </trkpt>
      <trkpt lat="46.118822302669287" lon="7.309700679033995">
        <ele>2012.1800000000001</ele>
        <time>2012-07-23T11:38:42Z</time>
      </trkpt>
      <trkpt lat="46.118666231632233" lon="7.309497417882085">
        <ele>2014.0999999999999</ele>
        <time>2012-07-23T11:38:56Z</time>
      </trkpt>
      <trkpt lat="46.118514183908701" lon="7.309282422065735">
        <ele>2016.98</ele>
        <time>2012-07-23T11:39:11Z</time>
      </trkpt>
      <trkpt lat="46.118402788415551" lon="7.309018140658736">
        <ele>2019.8699999999999</ele>
        <time>2012-07-23T11:39:25Z</time>
      </trkpt>
      <trkpt lat="46.118400441482663" lon="7.30899341404438">
        <ele>2019.8699999999999</ele>
        <time>2012-07-23T11:39:26Z</time>
      </trkpt>
      <trkpt lat="46.118408907204866" lon="7.308900123462081">
        <ele>2020.8299999999999</ele>
        <time>2012-07-23T11:39:30Z</time>
      </trkpt>
      <trkpt lat="46.118353502824903" lon="7.308609858155251">
        <ele>2021.3099999999999</ele>
        <time>2012-07-23T11:39:43Z</time>
      </trkpt>
      <trkpt lat="46.11828058026731" lon="7.308247508481145">
        <ele>2022.27</ele>
        <time>2012-07-23T11:39:56Z</time>
      </trkpt>
      <trkpt lat="46.118174381554127" lon="7.307926565408707">
        <ele>2023.71</ele>
        <time>2012-07-23T11:40:08Z</time>
      </trkpt>
      <trkpt lat="46.11806265078485" lon="7.307666474953294">
        <ele>2026.5999999999999</ele>
        <time>2012-07-23T11:40:22Z</time>
      </trkpt>
      <trkpt lat="46.117972377687693" lon="7.307554576545954">
        <ele>2028.52</ele>
        <time>2012-07-23T11:40:29Z</time>
      </trkpt>
      <trkpt lat="46.117811948060989" lon="7.307194909080863">
        <ele>2029.48</ele>
        <time>2012-07-23T11:40:47Z</time>
      </trkpt>
      <trkpt lat="46.117635676637292" lon="7.306981254369021">
        <ele>2031.4000000000001</ele>
        <time>2012-07-23T11:41:01Z</time>
      </trkpt>
      <trkpt lat="46.117444233968854" lon="7.306758966296911">
        <ele>2034.77</ele>
        <time>2012-07-23T11:41:16Z</time>
      </trkpt>
      <trkpt lat="46.117430320009589" lon="7.306507090106607">
        <ele>2036.6900000000001</ele>
        <time>2012-07-23T11:41:26Z</time>
      </trkpt>
      <trkpt lat="46.117444401606917" lon="7.306408016011119">
        <ele>2036.6900000000001</ele>
        <time>2012-07-23T11:41:30Z</time>
      </trkpt>
      <trkpt lat="46.117456974461675" lon="7.306143483147025">
        <ele>2037.6500000000001</ele>
        <time>2012-07-23T11:41:40Z</time>
      </trkpt>
      <trkpt lat="46.117435852065682" lon="7.305949274450541">
        <ele>2038.1300000000001</ele>
        <time>2012-07-23T11:41:48Z</time>
      </trkpt>
      <trkpt lat="46.117200152948499" lon="7.30574106797576">
        <ele>2040.05</ele>
        <time>2012-07-23T11:42:04Z</time>
      </trkpt>
      <trkpt lat="46.116940816864371" lon="7.305688094347715">
        <ele>2040.54</ele>
        <time>2012-07-23T11:42:16Z</time>
      </trkpt>
      <trkpt lat="46.116637978702784" lon="7.305609472095966">
        <ele>2040.54</ele>
        <time>2012-07-23T11:42:28Z</time>
      </trkpt>
      <trkpt lat="46.116314185783267" lon="7.305484917014837">
        <ele>2040.05</ele>
        <time>2012-07-23T11:42:39Z</time>
      </trkpt>
      <trkpt lat="46.115796938538551" lon="7.305384417995811">
        <ele>2040.54</ele>
        <time>2012-07-23T11:42:55Z</time>
      </trkpt>
      <trkpt lat="46.115436349064112" lon="7.305276794359088">
        <ele>2041.02</ele>
        <time>2012-07-23T11:43:06Z</time>
      </trkpt>
      <trkpt lat="46.114858584478498" lon="7.305131452158094">
        <ele>2041.98</ele>
        <time>2012-07-23T11:43:23Z</time>
      </trkpt>
      <trkpt lat="46.114374613389373" lon="7.304990971460939">
        <ele>2043.9000000000001</ele>
        <time>2012-07-23T11:43:37Z</time>
      </trkpt>
      <trkpt lat="46.11387949436903" lon="7.304872367531061">
        <ele>2045.3399999999999</ele>
        <time>2012-07-23T11:43:51Z</time>
      </trkpt>
      <trkpt lat="46.113473474979401" lon="7.304885275661945">
        <ele>2045.3399999999999</ele>
        <time>2012-07-23T11:44:03Z</time>
      </trkpt>
      <trkpt lat="46.11341530457139" lon="7.304837582632899">
        <ele>2045.8199999999999</ele>
        <time>2012-07-23T11:44:06Z</time>
      </trkpt>
      <trkpt lat="46.113442545756698" lon="7.304723672568798">
        <ele>2046.78</ele>
        <time>2012-07-23T11:44:10Z</time>
      </trkpt>
      <trkpt lat="46.113501889631152" lon="7.304475400596857">
        <ele>2046.3</ele>
        <time>2012-07-23T11:44:22Z</time>
      </trkpt>
      <trkpt lat="46.113520245999098" lon="7.304143644869328">
        <ele>2045.8199999999999</ele>
        <time>2012-07-23T11:44:30Z</time>
      </trkpt>
      <trkpt lat="46.11345729790628" lon="7.30404750443995">
        <ele>2046.3</ele>
        <time>2012-07-23T11:44:34Z</time>
      </trkpt>
      <trkpt lat="46.113416142761707" lon="7.304102489724755">
        <ele>2048.23</ele>
        <time>2012-07-23T11:44:46Z</time>
      </trkpt>
      <trkpt lat="46.113402899354696" lon="7.304102657362819">
        <ele>2048.23</ele>
        <time>2012-07-23T11:45:01Z</time>
      </trkpt>
      <trkpt lat="46.113374065607786" lon="7.304094275459647">
        <ele>2056.4000000000001</ele>
        <time>2012-07-23T11:45:17Z</time>
      </trkpt>
      <trkpt lat="46.113339113071561" lon="7.303947508335114">
        <ele>2057.8400000000001</ele>
        <time>2012-07-23T11:45:42Z</time>
      </trkpt>
      <trkpt lat="46.113342717289925" lon="7.303761430084705">
        <ele>2055.9200000000001</ele>
        <time>2012-07-23T11:46:03Z</time>
      </trkpt>
      <trkpt lat="46.11335176974535" lon="7.303671156987548">
        <ele>2055.4400000000001</ele>
        <time>2012-07-23T11:46:27Z</time>
      </trkpt>
      <trkpt lat="46.113340286538005" lon="7.303591025993228">
        <ele>2056.8800000000001</ele>
        <time>2012-07-23T11:46:47Z</time>
      </trkpt>
      <trkpt lat="46.113310782238841" lon="7.303482396528125">
        <ele>2052.0700000000002</ele>
        <time>2012-07-23T11:47:09Z</time>
      </trkpt>
      <trkpt lat="46.113277422264218" lon="7.303439900279045">
        <ele>2050.1500000000001</ele>
        <time>2012-07-23T11:47:35Z</time>
      </trkpt>
      <trkpt lat="46.113293347880244" lon="7.303375527262688">
        <ele>2048.71</ele>
        <time>2012-07-23T11:47:59Z</time>
      </trkpt>
      <trkpt lat="46.113274404779077" lon="7.303340490907431">
        <ele>2044.8599999999999</ele>
        <time>2012-07-23T11:48:24Z</time>
      </trkpt>
      <trkpt lat="46.113251689821482" lon="7.303450210019946">
        <ele>2041.5</ele>
        <time>2012-07-23T11:48:47Z</time>
      </trkpt>
      <trkpt lat="46.113277589902282" lon="7.303609298542142">
        <ele>2042.9400000000001</ele>
        <time>2012-07-23T11:49:15Z</time>
      </trkpt>
      <trkpt lat="46.113281026482582" lon="7.303655901923776">
        <ele>2045.3399999999999</ele>
        <time>2012-07-23T11:49:37Z</time>
      </trkpt>
      <trkpt lat="46.113268453627825" lon="7.303799232468009">
        <ele>2049.1900000000001</ele>
        <time>2012-07-23T11:49:57Z</time>
      </trkpt>
      <trkpt lat="46.113287732005119" lon="7.303819935768843">
        <ele>2052.0700000000002</ele>
        <time>2012-07-23T11:50:15Z</time>
      </trkpt>
      <trkpt lat="46.113333832472563" lon="7.303841980174184">
        <ele>2058.3200000000002</ele>
        <time>2012-07-23T11:50:32Z</time>
      </trkpt>
      <trkpt lat="46.11334883607924" lon="7.303732093423605">
        <ele>2067.4499999999998</ele>
        <time>2012-07-23T11:50:52Z</time>
      </trkpt>
      <trkpt lat="46.113341376185417" lon="7.303662523627281">
        <ele>2068.4099999999999</ele>
        <time>2012-07-23T11:51:22Z</time>
      </trkpt>
      <trkpt lat="46.113371215760708" lon="7.303767967969179">
        <ele>2061.1999999999998</ele>
        <time>2012-07-23T11:51:52Z</time>
      </trkpt>
      <trkpt lat="46.113387141376734" lon="7.303935438394547">
        <ele>2063.1300000000001</ele>
        <time>2012-07-23T11:52:23Z</time>
      </trkpt>
      <trkpt lat="46.113387392833829" lon="7.304020095616579">
        <ele>2061.1999999999998</ele>
        <time>2012-07-23T11:52:50Z</time>
      </trkpt>
      <trkpt lat="46.113379849120975" lon="7.303990591317415">
        <ele>2058.8000000000002</ele>
        <time>2012-07-23T11:53:10Z</time>
      </trkpt>
      <trkpt lat="46.113376915454865" lon="7.303964104503393">
        <ele>2053.5100000000002</ele>
        <time>2012-07-23T11:53:35Z</time>
      </trkpt>
      <trkpt lat="46.113335592672229" lon="7.303847093135119">
        <ele>2049.6700000000001</ele>
        <time>2012-07-23T11:53:55Z</time>
      </trkpt>
      <trkpt lat="46.113289827480912" lon="7.30371817946434">
        <ele>2049.1900000000001</ele>
        <time>2012-07-23T11:54:13Z</time>
      </trkpt>
      <trkpt lat="46.113256886601448" lon="7.303553139790893">
        <ele>2049.6700000000001</ele>
        <time>2012-07-23T11:54:32Z</time>
      </trkpt>
      <trkpt lat="46.113232243806124" lon="7.303430764004588">
        <ele>2048.71</ele>
        <time>2012-07-23T11:54:51Z</time>
      </trkpt>
      <trkpt lat="46.113207265734673" lon="7.303303359076381">
        <ele>2050.1500000000001</ele>
        <time>2012-07-23T11:55:04Z</time>
      </trkpt>
      <trkpt lat="46.113251857459545" lon="7.303295396268368">
        <ele>2051.1100000000001</ele>
        <time>2012-07-23T11:55:34Z</time>
      </trkpt>
      <trkpt lat="46.113263089209795" lon="7.303410982713103">
        <ele>2055.9200000000001</ele>
        <time>2012-07-23T11:56:02Z</time>
      </trkpt>
      <trkpt lat="46.1132110375911" lon="7.303333450108767">
        <ele>2057.8400000000001</ele>
        <time>2012-07-23T11:56:28Z</time>
      </trkpt>
      <trkpt lat="46.113227549940348" lon="7.303407043218613">
        <ele>2059.7600000000002</ele>
        <time>2012-07-23T11:56:46Z</time>
      </trkpt>
      <trkpt lat="46.113244984298944" lon="7.303517097607255">
        <ele>2059.2800000000002</ele>
        <time>2012-07-23T11:57:09Z</time>
      </trkpt>
      <trkpt lat="46.11322277225554" lon="7.303581973537803">
        <ele>2058.3200000000002</ele>
        <time>2012-07-23T11:57:31Z</time>
      </trkpt>
      <trkpt lat="46.113225957378745" lon="7.303543500602245">
        <ele>2060.2399999999998</ele>
        <time>2012-07-23T11:57:57Z</time>
      </trkpt>
      <trkpt lat="46.113232579082251" lon="7.303596390411258">
        <ele>2057.8400000000001</ele>
        <time>2012-07-23T11:58:24Z</time>
      </trkpt>
      <trkpt lat="46.113261748105288" lon="7.303657745942473">
        <ele>2056.4000000000001</ele>
        <time>2012-07-23T11:58:45Z</time>
      </trkpt>
      <trkpt lat="46.113348416984081" lon="7.303746091201901">
        <ele>2047.75</ele>
        <time>2012-07-23T11:59:18Z</time>
      </trkpt>
      <trkpt lat="46.113399965688586" lon="7.303606867790222">
        <ele>2040.05</ele>
        <time>2012-07-23T11:59:50Z</time>
      </trkpt>
      <trkpt lat="46.113387392833829" lon="7.303661350160837">
        <ele>2036.21</ele>
        <time>2012-07-23T12:00:20Z</time>
      </trkpt>
      <trkpt lat="46.113388482481241" lon="7.303722286596894">
        <ele>2042.9400000000001</ele>
        <time>2012-07-23T12:00:45Z</time>
      </trkpt>
      <trkpt lat="46.113342382013798" lon="7.303736871108413">
        <ele>2050.1500000000001</ele>
        <time>2012-07-23T12:00:57Z</time>
      </trkpt>
      <trkpt lat="46.113323858007789" lon="7.303715329617262">
        <ele>2060.2399999999998</ele>
        <time>2012-07-23T12:01:08Z</time>
      </trkpt>
      <trkpt lat="46.113313883543015" lon="7.303854469209909">
        <ele>2074.1799999999998</ele>
        <time>2012-07-23T12:01:20Z</time>
      </trkpt>
      <trkpt lat="46.113305920735002" lon="7.303957482799888">
        <ele>2081.3899999999999</ele>
        <time>2012-07-23T12:01:32Z</time>
      </trkpt>
      <trkpt lat="46.113277422264218" lon="7.303947005420923">
        <ele>2088.5999999999999</ele>
        <time>2012-07-23T12:01:44Z</time>
      </trkpt>
      <trkpt lat="46.113268285989761" lon="7.303929654881358">
        <ele>2091.4899999999998</ele>
        <time>2012-07-23T12:01:55Z</time>
      </trkpt>
      <trkpt lat="46.113197794184089" lon="7.303976844996214">
        <ele>2088.1199999999999</ele>
        <time>2012-07-23T12:02:08Z</time>
      </trkpt>
      <trkpt lat="46.113298963755369" lon="7.304174825549126">
        <ele>2071.7800000000002</ele>
        <time>2012-07-23T12:02:30Z</time>
      </trkpt>
      <trkpt lat="46.113324528560042" lon="7.304158983752132">
        <ele>2068.8899999999999</ele>
        <time>2012-07-23T12:02:41Z</time>
      </trkpt>
      <trkpt lat="46.113224280998111" lon="7.304320670664311">
        <ele>2044.8599999999999</ele>
        <time>2012-07-23T12:03:08Z</time>
      </trkpt>
      <trkpt lat="46.113133756443858" lon="7.304323855787516">
        <ele>2039.0899999999999</ele>
        <time>2012-07-23T12:03:41Z</time>
      </trkpt>
      <trkpt lat="46.113119423389435" lon="7.304399712011218">
        <ele>2028.04</ele>
        <time>2012-07-23T12:04:09Z</time>
      </trkpt>
      <trkpt lat="46.112983971834183" lon="7.304513202980161">
        <ele>2015.0599999999999</ele>
        <time>2012-07-23T12:04:40Z</time>
      </trkpt>
      <trkpt lat="46.112959329038858" lon="7.304397532716394">
        <ele>1981.9000000000001</ele>
        <time>2012-07-23T12:05:08Z</time>
      </trkpt>
      <trkpt lat="46.113154208287597" lon="7.304023364558816">
        <ele>1943.9200000000001</ele>
        <time>2012-07-23T12:05:41Z</time>
      </trkpt>
      <trkpt lat="46.113134007900953" lon="7.304136184975505">
        <ele>1934.79</ele>
        <time>2012-07-23T12:06:10Z</time>
      </trkpt>
      <trkpt lat="46.113079274073243" lon="7.304276749491692">
        <ele>1937.6700000000001</ele>
        <time>2012-07-23T12:06:37Z</time>
      </trkpt>
      <trkpt lat="46.112976344302297" lon="7.304337350651622">
        <ele>1942</ele>
        <time>2012-07-23T12:07:03Z</time>
      </trkpt>
      <trkpt lat="46.112951366230845" lon="7.304279012605548">
        <ele>1939.1199999999999</ele>
        <time>2012-07-23T12:07:34Z</time>
      </trkpt>
      <trkpt lat="46.112850196659565" lon="7.304414547979832">
        <ele>1932.3900000000001</ele>
        <time>2012-07-23T12:08:16Z</time>
      </trkpt>
      <trkpt lat="46.112798815593123" lon="7.304562740027905">
        <ele>1936.23</ele>
        <time>2012-07-23T12:08:50Z</time>
      </trkpt>
      <trkpt lat="46.112819686532021" lon="7.304606912657619">
        <ele>1938.1600000000001</ele>
        <time>2012-07-23T12:09:30Z</time>
      </trkpt>
      <trkpt lat="46.112810717895627" lon="7.304530888795853">
        <ele>1945.8499999999999</ele>
        <time>2012-07-23T12:09:57Z</time>
      </trkpt>
      <trkpt lat="46.112903924658895" lon="7.304485710337758">
        <ele>1944.8800000000001</ele>
        <time>2012-07-23T12:10:26Z</time>
      </trkpt>
      <trkpt lat="46.112891854718328" lon="7.304486464709044">
        <ele>1945.3599999999999</ele>
        <time>2012-07-23T12:10:59Z</time>
      </trkpt>
      <trkpt lat="46.112852040678263" lon="7.304505156353116">
        <ele>1938.1600000000001</ele>
        <time>2012-07-23T12:11:30Z</time>
      </trkpt>
      <trkpt lat="46.112762438133359" lon="7.304568691179156">
        <ele>1921.8099999999999</ele>
        <time>2012-07-23T12:12:08Z</time>
      </trkpt>
      <trkpt lat="46.112774424254894" lon="7.30452879332006">
        <ele>1926.6199999999999</ele>
        <time>2012-07-23T12:12:40Z</time>
      </trkpt>
      <trkpt lat="46.112824631854892" lon="7.304640021175146">
        <ele>1929.02</ele>
        <time>2012-07-23T12:13:12Z</time>
      </trkpt>
      <trkpt lat="46.112802838906646" lon="7.304529882967472">
        <ele>1916.53</ele>
        <time>2012-07-23T12:13:51Z</time>
      </trkpt>
      <trkpt lat="46.112926471978426" lon="7.3045111913234">
        <ele>1919.8900000000001</ele>
        <time>2012-07-23T12:14:26Z</time>
      </trkpt>
      <trkpt lat="46.112877018749714" lon="7.304519908502698">
        <ele>1934.3099999999999</ele>
        <time>2012-07-23T12:14:55Z</time>
      </trkpt>
      <trkpt lat="46.112849861383438" lon="7.304490488022566">
        <ele>1937.1900000000001</ele>
        <time>2012-07-23T12:15:16Z</time>
      </trkpt>
      <trkpt lat="46.112835528329015" lon="7.304475316777825">
        <ele>1936.71</ele>
        <time>2012-07-23T12:15:45Z</time>
      </trkpt>
      <trkpt lat="46.112843574956059" lon="7.304432652890682">
        <ele>1941.04</ele>
        <time>2012-07-23T12:15:54Z</time>
      </trkpt>
      <trkpt lat="46.112817926332355" lon="7.304430641233921">
        <ele>1942.96</ele>
        <time>2012-07-23T12:15:57Z</time>
      </trkpt>
      <trkpt lat="46.112372344359756" lon="7.304298374801874">
        <ele>1970.8399999999999</ele>
        <time>2012-07-23T12:16:11Z</time>
      </trkpt>
      <trkpt lat="46.111530130729079" lon="7.30419946834445">
        <ele>2007.3699999999999</ele>
        <time>2012-07-23T12:16:26Z</time>
      </trkpt>
      <trkpt lat="46.110587166622281" lon="7.304065609350801">
        <ele>2054.96</ele>
        <time>2012-07-23T12:16:44Z</time>
      </trkpt>
      <trkpt lat="46.10998023301363" lon="7.304021855816245">
        <ele>2077.0700000000002</ele>
        <time>2012-07-23T12:16:52Z</time>
      </trkpt>
      <trkpt lat="46.108777513727546" lon="7.303964188322425">
        <ele>2110.23</ele>
        <time>2012-07-23T12:17:05Z</time>
      </trkpt>
      <trkpt lat="46.107524754479527" lon="7.303891349583864">
        <ele>2138.1100000000001</ele>
        <time>2012-07-23T12:17:20Z</time>
      </trkpt>
      <trkpt lat="46.106614312157035" lon="7.30382957495749">
        <ele>2169.3499999999999</ele>
        <time>2012-07-23T12:17:34Z</time>
      </trkpt>
      <trkpt lat="46.105400193482637" lon="7.303739050403237">
        <ele>2203.96</ele>
        <time>2012-07-23T12:17:48Z</time>
      </trkpt>
      <trkpt lat="46.104520177468657" lon="7.303663026541472">
        <ele>2235.6799999999998</ele>
        <time>2012-07-23T12:18:00Z</time>
      </trkpt>
      <trkpt lat="46.103538405150175" lon="7.30356914922595">
        <ele>2272.6900000000001</ele>
        <time>2012-07-23T12:18:15Z</time>
      </trkpt>
      <trkpt lat="46.102541545405984" lon="7.303490526974201">
        <ele>2314.0300000000002</ele>
        <time>2012-07-23T12:18:28Z</time>
      </trkpt>
      <trkpt lat="46.101669240742922" lon="7.303425231948495">
        <ele>2354.8899999999999</ele>
        <time>2012-07-23T12:18:42Z</time>
      </trkpt>
      <trkpt lat="46.100401477888227" lon="7.303318781778216">
        <ele>2414.0100000000002</ele>
        <time>2012-07-23T12:18:58Z</time>
      </trkpt>
      <trkpt lat="46.099094152450562" lon="7.30320462025702">
        <ele>2483.6999999999998</ele>
        <time>2012-07-23T12:19:14Z</time>
      </trkpt>
      <trkpt lat="46.097158268094063" lon="7.303041256964207">
        <ele>2602.9099999999999</ele>
        <time>2012-07-23T12:19:38Z</time>
      </trkpt>
      <trkpt lat="46.096375565975904" lon="7.302976548671722">
        <ele>2664.4299999999998</ele>
        <time>2012-07-23T12:19:51Z</time>
      </trkpt>
      <trkpt lat="46.095876088365912" lon="7.302941428497434">
        <ele>2691.3499999999999</ele>
        <time>2012-07-23T12:19:59Z</time>
      </trkpt>
      <trkpt lat="46.095070336014032" lon="7.302878145128489">
        <ele>2720.1900000000001</ele>
        <time>2012-07-23T12:20:09Z</time>
      </trkpt>
      <trkpt lat="46.094356533139944" lon="7.302825590595603">
        <ele>2753.3499999999999</ele>
        <time>2012-07-23T12:20:19Z</time>
      </trkpt>
      <trkpt lat="46.093639377504587" lon="7.302768090739846">
        <ele>2786.52</ele>
        <time>2012-07-23T12:20:31Z</time>
      </trkpt>
      <trkpt lat="46.092542270198464" lon="7.30268569663167">
        <ele>2815.3600000000001</ele>
        <time>2012-07-23T12:20:44Z</time>
      </trkpt>
      <trkpt lat="46.091520851477981" lon="7.302617216482759">
        <ele>2850.4499999999998</ele>
        <time>2012-07-23T12:20:58Z</time>
      </trkpt>
      <trkpt lat="46.090731779113412" lon="7.302547730505467">
        <ele>2867.27</ele>
        <time>2012-07-23T12:21:10Z</time>
      </trkpt>
      <trkpt lat="46.089478014037013" lon="7.302425522357225">
        <ele>2862.46</ele>
        <time>2012-07-23T12:21:24Z</time>
      </trkpt>
      <trkpt lat="46.088103968650103" lon="7.302321419119835">
        <ele>2862.46</ele>
        <time>2012-07-23T12:21:40Z</time>
      </trkpt>
      <trkpt lat="46.087077185511589" lon="7.302236678078771">
        <ele>2868.71</ele>
        <time>2012-07-23T12:21:55Z</time>
      </trkpt>
      <trkpt lat="46.085985023528337" lon="7.302144812420011">
        <ele>2885.0500000000002</ele>
        <time>2012-07-23T12:22:10Z</time>
      </trkpt>
      <trkpt lat="46.085466938093305" lon="7.302108686417341">
        <ele>2896.1100000000001</ele>
        <time>2012-07-23T12:22:24Z</time>
      </trkpt>
      <trkpt lat="46.085282703861594" lon="7.302114050835371">
        <ele>2898.9899999999998</ele>
        <time>2012-07-23T12:22:40Z</time>
      </trkpt>
      <trkpt lat="46.085219504311681" lon="7.302126372233033">
        <ele>2904.2800000000002</ele>
        <time>2012-07-23T12:22:58Z</time>
      </trkpt>
      <trkpt lat="46.085266778245568" lon="7.302090246230364">
        <ele>2906.1999999999998</ele>
        <time>2012-07-23T12:23:14Z</time>
      </trkpt>
      <trkpt lat="46.085366606712341" lon="7.302061412483454">
        <ele>2909.5700000000002</ele>
        <time>2012-07-23T12:23:34Z</time>
      </trkpt>
      <trkpt lat="46.085435673594475" lon="7.30207004584372">
        <ele>2908.6100000000001</ele>
        <time>2012-07-23T12:23:47Z</time>
      </trkpt>
      <trkpt lat="46.085338778793812" lon="7.302027465775609">
        <ele>2902.3600000000001</ele>
        <time>2012-07-23T12:24:04Z</time>
      </trkpt>
      <trkpt lat="46.085145911201835" lon="7.302005253732204">
        <ele>2895.1500000000001</ele>
        <time>2012-07-23T12:24:21Z</time>
      </trkpt>
      <trkpt lat="46.084934519603848" lon="7.301917159929872">
        <ele>2885.5300000000002</ele>
        <time>2012-07-23T12:24:43Z</time>
      </trkpt>
      <trkpt lat="46.084911804646254" lon="7.301797885447741">
        <ele>2890.8200000000002</ele>
        <time>2012-07-23T12:24:57Z</time>
      </trkpt>
      <trkpt lat="46.084858747199178" lon="7.30167081579566">
        <ele>2891.7800000000002</ele>
        <time>2012-07-23T12:25:02Z</time>
      </trkpt>
      <trkpt lat="46.084755901247263" lon="7.301294133067131">
        <ele>2898.9899999999998</ele>
        <time>2012-07-23T12:25:17Z</time>
      </trkpt>
      <trkpt lat="46.084743747487664" lon="7.301283236593008">
        <ele>2899.4699999999998</ele>
        <time>2012-07-23T12:25:18Z</time>
      </trkpt>
      <trkpt lat="46.084599746391177" lon="7.301220623776317">
        <ele>2900.9200000000001</ele>
        <time>2012-07-23T12:25:30Z</time>
      </trkpt>
      <trkpt lat="46.084535457193851" lon="7.301134206354618">
        <ele>2900.9200000000001</ele>
        <time>2012-07-23T12:25:38Z</time>
      </trkpt>
      <trkpt lat="46.084294393658638" lon="7.301302850246429">
        <ele>2899.9499999999998</ele>
        <time>2012-07-23T12:25:52Z</time>
      </trkpt>
      <trkpt lat="46.08424267731607" lon="7.301569730043411">
        <ele>2899.4699999999998</ele>
        <time>2012-07-23T12:25:57Z</time>
      </trkpt>
      <trkpt lat="46.084165228530765" lon="7.301877094432712">
        <ele>2898.5100000000002</ele>
        <time>2012-07-23T12:26:02Z</time>
      </trkpt>
      <trkpt lat="46.083944784477353" lon="7.302091671153903">
        <ele>2899.4699999999998</ele>
        <time>2012-07-23T12:26:12Z</time>
      </trkpt>
      <trkpt lat="46.08356743119657" lon="7.302248831838369">
        <ele>2898.9899999999998</ele>
        <time>2012-07-23T12:26:23Z</time>
      </trkpt>
      <trkpt lat="46.083358386531472" lon="7.302275318652391">
        <ele>2899.9499999999998</ele>
        <time>2012-07-23T12:26:32Z</time>
      </trkpt>
      <trkpt lat="46.083130650222301" lon="7.302330303937197">
        <ele>2898.0300000000002</ele>
        <time>2012-07-23T12:26:39Z</time>
      </trkpt>
      <trkpt lat="46.08309930190444" lon="7.302313707768917">
        <ele>2897.5500000000002</ele>
        <time>2012-07-23T12:26:40Z</time>
      </trkpt>
      <trkpt lat="46.083077089861035" lon="7.302284371107817">
        <ele>2897.0700000000002</ele>
        <time>2012-07-23T12:26:41Z</time>
      </trkpt>
      <trkpt lat="46.083064684644341" lon="7.30224740691483">
        <ele>2897.0700000000002</ele>
        <time>2012-07-23T12:26:42Z</time>
      </trkpt>
      <trkpt lat="46.083060074597597" lon="7.302206587046385">
        <ele>2896.5900000000001</ele>
        <time>2012-07-23T12:26:43Z</time>
      </trkpt>
      <trkpt lat="46.083063427358866" lon="7.302160235121846">
        <ele>2896.1100000000001</ele>
        <time>2012-07-23T12:26:44Z</time>
      </trkpt>
      <trkpt lat="46.083077928051353" lon="7.302110446617007">
        <ele>2895.6300000000001</ele>
        <time>2012-07-23T12:26:45Z</time>
      </trkpt>
      <trkpt lat="46.083101648837328" lon="7.302072225138545">
        <ele>2895.1500000000001</ele>
        <time>2012-07-23T12:26:46Z</time>
      </trkpt>
      <trkpt lat="46.083128722384572" lon="7.302042888477445">
        <ele>2894.6700000000001</ele>
        <time>2012-07-23T12:26:47Z</time>
      </trkpt>
      <trkpt lat="46.083602635189891" lon="7.301744241267443">
        <ele>2888.4200000000001</ele>
        <time>2012-07-23T12:26:57Z</time>
      </trkpt>
      <trkpt lat="46.083655105903745" lon="7.301695290952921">
        <ele>2887.46</ele>
        <time>2012-07-23T12:26:58Z</time>
      </trkpt>
      <trkpt lat="46.083698440343142" lon="7.301625804975629">
        <ele>2886.5</ele>
        <time>2012-07-23T12:26:59Z</time>
      </trkpt>
      <trkpt lat="46.08373305760324" lon="7.301542488858104">
        <ele>2885.5300000000002</ele>
        <time>2012-07-23T12:27:00Z</time>
      </trkpt>
      <trkpt lat="46.083759879693389" lon="7.301462525501847">
        <ele>2884.5700000000002</ele>
        <time>2012-07-23T12:27:01Z</time>
      </trkpt>
      <trkpt lat="46.083784606307745" lon="7.301395554095507">
        <ele>2884.0900000000001</ele>
        <time>2012-07-23T12:27:02Z</time>
      </trkpt>
      <trkpt lat="46.083811931312084" lon="7.301342329010367">
        <ele>2883.1300000000001</ele>
        <time>2012-07-23T12:27:03Z</time>
      </trkpt>
      <trkpt lat="46.083851074799895" lon="7.301306035369635">
        <ele>2882.6500000000001</ele>
        <time>2012-07-23T12:27:04Z</time>
      </trkpt>
      <trkpt lat="46.083950651809573" lon="7.301230262964964">
        <ele>2881.21</ele>
        <time>2012-07-23T12:27:06Z</time>
      </trkpt>
      <trkpt lat="46.084000859409571" lon="7.301170835271478">
        <ele>2880.73</ele>
        <time>2012-07-23T12:27:07Z</time>
      </trkpt>
      <trkpt lat="46.084052827209234" lon="7.301096823066473">
        <ele>2880.25</ele>
        <time>2012-07-23T12:27:08Z</time>
      </trkpt>
      <trkpt lat="46.084253322333097" lon="7.300743442028761">
        <ele>2875.9200000000001</ele>
        <time>2012-07-23T12:27:12Z</time>
      </trkpt>
      <trkpt lat="46.084272097796202" lon="7.300643613561988">
        <ele>2874.96</ele>
        <time>2012-07-23T12:27:13Z</time>
      </trkpt>
      <trkpt lat="46.084277546033263" lon="7.300543198361993">
        <ele>2874</ele>
        <time>2012-07-23T12:27:14Z</time>
      </trkpt>
      <trkpt lat="46.084268828853965" lon="7.300442615523934">
        <ele>2873.04</ele>
        <time>2012-07-23T12:27:15Z</time>
      </trkpt>
      <trkpt lat="46.084246952086687" lon="7.300336752086878">
        <ele>2872.0799999999999</ele>
        <time>2012-07-23T12:27:16Z</time>
      </trkpt>
      <trkpt lat="46.084215687587857" lon="7.300230385735631">
        <ele>2871.1100000000001</ele>
        <time>2012-07-23T12:27:17Z</time>
      </trkpt>
      <trkpt lat="46.084176292642951" lon="7.300137933343649">
        <ele>2870.1500000000001</ele>
        <time>2012-07-23T12:27:18Z</time>
      </trkpt>
      <trkpt lat="46.084130862727761" lon="7.300072805956006">
        <ele>2869.6700000000001</ele>
        <time>2012-07-23T12:27:19Z</time>
      </trkpt>
      <trkpt lat="46.08408241532743" lon="7.300023688003421">
        <ele>2868.71</ele>
        <time>2012-07-23T12:27:20Z</time>
      </trkpt>
      <trkpt lat="46.084034303203225" lon="7.299977336078882">
        <ele>2868.23</ele>
        <time>2012-07-23T12:27:21Z</time>
      </trkpt>
      <trkpt lat="46.083984430879354" lon="7.299943305552006">
        <ele>2867.75</ele>
        <time>2012-07-23T12:27:22Z</time>
      </trkpt>
      <trkpt lat="46.083931121975183" lon="7.299932576715946">
        <ele>2866.79</ele>
        <time>2012-07-23T12:27:23Z</time>
      </trkpt>
      <trkpt lat="46.083879489451647" lon="7.299945568665862">
        <ele>2865.8299999999999</ele>
        <time>2012-07-23T12:27:24Z</time>
      </trkpt>
      <trkpt lat="46.083834813907743" lon="7.29997968301177">
        <ele>2865.3499999999999</ele>
        <time>2012-07-23T12:27:25Z</time>
      </trkpt>
      <trkpt lat="46.0837990231812" lon="7.300033159554005">
        <ele>2864.8699999999999</ele>
        <time>2012-07-23T12:27:26Z</time>
      </trkpt>
      <trkpt lat="46.08376775868237" lon="7.300100717693567">
        <ele>2864.3899999999999</ele>
        <time>2012-07-23T12:27:27Z</time>
      </trkpt>
      <trkpt lat="46.083734817802906" lon="7.300170119851828">
        <ele>2864.8699999999999</ele>
        <time>2012-07-23T12:27:28Z</time>
      </trkpt>
      <trkpt lat="46.083694333210588" lon="7.300213538110256">
        <ele>2864.3899999999999</ele>
        <time>2012-07-23T12:27:29Z</time>
      </trkpt>
      <trkpt lat="46.083649825304747" lon="7.300228122621775">
        <ele>2863.9000000000001</ele>
        <time>2012-07-23T12:27:30Z</time>
      </trkpt>
      <trkpt lat="46.083608837798238" lon="7.300222674384713">
        <ele>2863.4200000000001</ele>
        <time>2012-07-23T12:27:31Z</time>
      </trkpt>
      <trkpt lat="46.083567934110761" lon="7.300208006054163">
        <ele>2861.98</ele>
        <time>2012-07-23T12:27:32Z</time>
      </trkpt>
      <trkpt lat="46.083471961319447" lon="7.30015461333096">
        <ele>2860.54</ele>
        <time>2012-07-23T12:27:34Z</time>
      </trkpt>
      <trkpt lat="46.083426363766193" lon="7.30009401217103">
        <ele>2859.5799999999999</ele>
        <time>2012-07-23T12:27:35Z</time>
      </trkpt>
      <trkpt lat="46.083393171429634" lon="7.300020921975374">
        <ele>2859.0999999999999</ele>
        <time>2012-07-23T12:27:36Z</time>
      </trkpt>
      <trkpt lat="46.083379676565528" lon="7.299946825951338">
        <ele>2858.1399999999999</ele>
        <time>2012-07-23T12:27:37Z</time>
      </trkpt>
      <trkpt lat="46.083377581089735" lon="7.299874657765031">
        <ele>2857.6599999999999</ele>
        <time>2012-07-23T12:27:38Z</time>
      </trkpt>
      <trkpt lat="46.083377748727798" lon="7.299801986664534">
        <ele>2857.1799999999998</ele>
        <time>2012-07-23T12:27:39Z</time>
      </trkpt>
      <trkpt lat="46.083385711535811" lon="7.299732668325305">
        <ele>2856.21</ele>
        <time>2012-07-23T12:27:40Z</time>
      </trkpt>
      <trkpt lat="46.083393758162856" lon="7.299672486260533">
        <ele>2855.73</ele>
        <time>2012-07-23T12:27:41Z</time>
      </trkpt>
      <trkpt lat="46.083390321582556" lon="7.299621189013124">
        <ele>2854.77</ele>
        <time>2012-07-23T12:27:42Z</time>
      </trkpt>
      <trkpt lat="46.083370037376881" lon="7.299585314467549">
        <ele>2854.29</ele>
        <time>2012-07-23T12:27:43Z</time>
      </trkpt>
      <trkpt lat="46.083338856697083" lon="7.299577435478568">
        <ele>2853.3299999999999</ele>
        <time>2012-07-23T12:27:44Z</time>
      </trkpt>
      <trkpt lat="46.083302395418286" lon="7.299599563702941">
        <ele>2852.8499999999999</ele>
        <time>2012-07-23T12:27:45Z</time>
      </trkpt>
      <trkpt lat="46.083272472023964" lon="7.299648597836494">
        <ele>2852.3699999999999</ele>
        <time>2012-07-23T12:27:46Z</time>
      </trkpt>
      <trkpt lat="46.083244476467371" lon="7.299714647233486">
        <ele>2852.3699999999999</ele>
        <time>2012-07-23T12:27:47Z</time>
      </trkpt>
      <trkpt lat="46.082980697974563" lon="7.300173807889223">
        <ele>2849.48</ele>
        <time>2012-07-23T12:27:56Z</time>
      </trkpt>
      <trkpt lat="46.082915738224983" lon="7.300258046016097">
        <ele>2849.48</ele>
        <time>2012-07-23T12:27:58Z</time>
      </trkpt>
      <trkpt lat="46.082889083772898" lon="7.300301799550653">
        <ele>2849</ele>
        <time>2012-07-23T12:27:59Z</time>
      </trkpt>
      <trkpt lat="46.082858825102448" lon="7.300319401547313">
        <ele>2849</ele>
        <time>2012-07-23T12:28:00Z</time>
      </trkpt>
      <trkpt lat="46.082834182307124" lon="7.300307583063841">
        <ele>2848.52</ele>
        <time>2012-07-23T12:28:01Z</time>
      </trkpt>
      <trkpt lat="46.082821190357208" lon="7.300274977460504">
        <ele>2848.52</ele>
        <time>2012-07-23T12:28:02Z</time>
      </trkpt>
      <trkpt lat="46.082822950556874" lon="7.300238767638803">
        <ele>2848.52</ele>
        <time>2012-07-23T12:28:03Z</time>
      </trkpt>
      <trkpt lat="46.082839462906122" lon="7.300204234197736">
        <ele>2848.52</ele>
        <time>2012-07-23T12:28:04Z</time>
      </trkpt>
      <trkpt lat="46.082865446805954" lon="7.3001663479954">
        <ele>2848.52</ele>
        <time>2012-07-23T12:28:05Z</time>
      </trkpt>
      <trkpt lat="46.082952199503779" lon="7.300021843984723">
        <ele>2849</ele>
        <time>2012-07-23T12:28:08Z</time>
      </trkpt>
      <trkpt lat="46.082973070442677" lon="7.299954537302256">
        <ele>2848.52</ele>
        <time>2012-07-23T12:28:09Z</time>
      </trkpt>
      <trkpt lat="46.082989079877734" lon="7.299878848716617">
        <ele>2848.04</ele>
        <time>2012-07-23T12:28:10Z</time>
      </trkpt>
      <trkpt lat="46.083031324669719" lon="7.299504177644849">
        <ele>2845.6399999999999</ele>
        <time>2012-07-23T12:28:14Z</time>
      </trkpt>
      <trkpt lat="46.083025373518467" lon="7.29939135722816">
        <ele>2845.1599999999999</ele>
        <time>2012-07-23T12:28:15Z</time>
      </trkpt>
      <trkpt lat="46.083013890311122" lon="7.299280380830169">
        <ele>2844.6799999999998</ele>
        <time>2012-07-23T12:28:16Z</time>
      </trkpt>
      <trkpt lat="46.082995031028986" lon="7.299169152975082">
        <ele>2843.7199999999998</ele>
        <time>2012-07-23T12:28:17Z</time>
      </trkpt>
      <trkpt lat="46.082968041300774" lon="7.299057254567742">
        <ele>2843.2399999999998</ele>
        <time>2012-07-23T12:28:18Z</time>
      </trkpt>
      <trkpt lat="46.082940129563212" lon="7.298945272341371">
        <ele>2842.2800000000002</ele>
        <time>2012-07-23T12:28:19Z</time>
      </trkpt>
      <trkpt lat="46.082922695204616" lon="7.298836056143045">
        <ele>2841.3099999999999</ele>
        <time>2012-07-23T12:28:20Z</time>
      </trkpt>
      <trkpt lat="46.082917749881744" lon="7.298735724762082">
        <ele>2840.8299999999999</ele>
        <time>2012-07-23T12:28:21Z</time>
      </trkpt>
      <trkpt lat="46.082921857014298" lon="7.298651486635208">
        <ele>2839.8699999999999</ele>
        <time>2012-07-23T12:28:22Z</time>
      </trkpt>
      <trkpt lat="46.082918252795935" lon="7.298585772514343">
        <ele>2838.9099999999999</ele>
        <time>2012-07-23T12:28:23Z</time>
      </trkpt>
      <trkpt lat="46.082899561151862" lon="7.298547383397818">
        <ele>2838.4299999999998</ele>
        <time>2012-07-23T12:28:24Z</time>
      </trkpt>
      <trkpt lat="46.082871900871396" lon="7.298535816371441">
        <ele>2837.4699999999998</ele>
        <time>2012-07-23T12:28:25Z</time>
      </trkpt>
      <trkpt lat="46.082844324409962" lon="7.298553418368101">
        <ele>2836.9899999999998</ele>
        <time>2012-07-23T12:28:26Z</time>
      </trkpt>
      <trkpt lat="46.082822866737843" lon="7.298598261550069">
        <ele>2836.5100000000002</ele>
        <time>2012-07-23T12:28:27Z</time>
      </trkpt>
      <trkpt lat="46.082806857302785" lon="7.298664059489965">
        <ele>2835.5500000000002</ele>
        <time>2012-07-23T12:28:28Z</time>
      </trkpt>
      <trkpt lat="46.082799481227994" lon="7.298742346465588">
        <ele>2834.5799999999999</ele>
        <time>2012-07-23T12:28:29Z</time>
      </trkpt>
      <trkpt lat="46.082806186750531" lon="7.298828009516001">
        <ele>2834.0999999999999</ele>
        <time>2012-07-23T12:28:30Z</time>
      </trkpt>
      <trkpt lat="46.082818172872066" lon="7.298920294269919">
        <ele>2833.6199999999999</ele>
        <time>2012-07-23T12:28:31Z</time>
      </trkpt>
      <trkpt lat="46.082828314974904" lon="7.299015512689948">
        <ele>2833.1399999999999</ele>
        <time>2012-07-23T12:28:32Z</time>
      </trkpt>
      <trkpt lat="46.082835355773568" lon="7.299116682261229">
        <ele>2832.1799999999998</ele>
        <time>2012-07-23T12:28:33Z</time>
      </trkpt>
      <trkpt lat="46.08284080401063" lon="7.299225814640522">
        <ele>2831.6999999999998</ele>
        <time>2012-07-23T12:28:34Z</time>
      </trkpt>
      <trkpt lat="46.082834769040346" lon="7.299333773553371">
        <ele>2831.2199999999998</ele>
        <time>2012-07-23T12:28:35Z</time>
      </trkpt>
      <trkpt lat="46.082815993577242" lon="7.29943485930562">
        <ele>2830.2600000000002</ele>
        <time>2012-07-23T12:28:36Z</time>
      </trkpt>
      <trkpt lat="46.082781963050365" lon="7.29953158646822">
        <ele>2829.3000000000002</ele>
        <time>2012-07-23T12:28:37Z</time>
      </trkpt>
      <trkpt lat="46.08273577876389" lon="7.299628313630819">
        <ele>2828.3400000000001</ele>
        <time>2012-07-23T12:28:38Z</time>
      </trkpt>
      <trkpt lat="46.082687834277749" lon="7.299721939489245">
        <ele>2827.8499999999999</ele>
        <time>2012-07-23T12:28:39Z</time>
      </trkpt>
      <trkpt lat="46.082641147077084" lon="7.299806009978056">
        <ele>2826.8899999999999</ele>
        <time>2012-07-23T12:28:40Z</time>
      </trkpt>
      <trkpt lat="46.082603009417653" lon="7.299885973334312">
        <ele>2825.9299999999998</ele>
        <time>2012-07-23T12:28:41Z</time>
      </trkpt>
      <trkpt lat="46.082578115165234" lon="7.299962164834142">
        <ele>2825.4499999999998</ele>
        <time>2012-07-23T12:28:42Z</time>
      </trkpt>
      <trkpt lat="46.082567386329174" lon="7.300029052421451">
        <ele>2824.4899999999998</ele>
        <time>2012-07-23T12:28:43Z</time>
      </trkpt>
      <trkpt lat="46.082567134872079" lon="7.300086133182049">
        <ele>2824.0100000000002</ele>
        <time>2012-07-23T12:28:44Z</time>
      </trkpt>
      <trkpt lat="46.082569314166903" lon="7.300136759877205">
        <ele>2823.5300000000002</ele>
        <time>2012-07-23T12:28:45Z</time>
      </trkpt>
      <trkpt lat="46.082561686635017" lon="7.300181351602078">
        <ele>2823.5300000000002</ele>
        <time>2012-07-23T12:28:46Z</time>
      </trkpt>
      <trkpt lat="46.082543497905135" lon="7.300211358815432">
        <ele>2823.5300000000002</ele>
        <time>2012-07-23T12:28:47Z</time>
      </trkpt>
      <trkpt lat="46.082520866766572" lon="7.300218818709254">
        <ele>2823.5300000000002</ele>
        <time>2012-07-23T12:28:48Z</time>
      </trkpt>
      <trkpt lat="46.082498570904136" lon="7.300207084044814">
        <ele>2823.5300000000002</ele>
        <time>2012-07-23T12:28:49Z</time>
      </trkpt>
      <trkpt lat="46.08248365111649" lon="7.300173891708255">
        <ele>2823.5300000000002</ele>
        <time>2012-07-23T12:28:50Z</time>
      </trkpt>
      <trkpt lat="46.082484070211649" lon="7.300132736563683">
        <ele>2823.5300000000002</ele>
        <time>2012-07-23T12:28:51Z</time>
      </trkpt>
      <trkpt lat="46.082484908401966" lon="7.30009107850492">
        <ele>2823.0500000000002</ele>
        <time>2012-07-23T12:28:52Z</time>
      </trkpt>
      <trkpt lat="46.082485746592283" lon="7.300048330798745">
        <ele>2822.5700000000002</ele>
        <time>2012-07-23T12:28:53Z</time>
      </trkpt>
      <trkpt lat="46.082485830411315" lon="7.299998207017779">
        <ele>2822.0900000000001</ele>
        <time>2012-07-23T12:28:54Z</time>
      </trkpt>
      <trkpt lat="46.08248557895422" lon="7.299938946962357">
        <ele>2821.6100000000001</ele>
        <time>2012-07-23T12:28:55Z</time>
      </trkpt>
      <trkpt lat="46.082490356639028" lon="7.29980475269258">
        <ele>2820.6500000000001</ele>
        <time>2012-07-23T12:28:57Z</time>
      </trkpt>
      <trkpt lat="46.082557747140527" lon="7.299347687512636">
        <ele>2815.8400000000001</ele>
        <time>2012-07-23T12:29:02Z</time>
      </trkpt>
      <trkpt lat="46.082560513168573" lon="7.299264706671238">
        <ele>2815.3600000000001</ele>
        <time>2012-07-23T12:29:03Z</time>
      </trkpt>
      <trkpt lat="46.082544922828674" lon="7.299181809648871">
        <ele>2814.8800000000001</ele>
        <time>2012-07-23T12:29:04Z</time>
      </trkpt>
      <trkpt lat="46.082510640844703" lon="7.299106121063232">
        <ele>2814.8800000000001</ele>
        <time>2012-07-23T12:29:05Z</time>
      </trkpt>
      <trkpt lat="46.082466971129179" lon="7.299036551266909">
        <ele>2814.4000000000001</ele>
        <time>2012-07-23T12:29:06Z</time>
      </trkpt>
      <trkpt lat="46.082425145432353" lon="7.298965975642204">
        <ele>2813.9200000000001</ele>
        <time>2012-07-23T12:29:07Z</time>
      </trkpt>
      <trkpt lat="46.082388432696462" lon="7.298890370875597">
        <ele>2813.4400000000001</ele>
        <time>2012-07-23T12:29:08Z</time>
      </trkpt>
      <trkpt lat="46.082355659455061" lon="7.298809317871928">
        <ele>2812.4699999999998</ele>
        <time>2012-07-23T12:29:09Z</time>
      </trkpt>
      <trkpt lat="46.082326574251056" lon="7.298730108886957">
        <ele>2811.9899999999998</ele>
        <time>2012-07-23T12:29:10Z</time>
      </trkpt>
      <trkpt lat="46.082306206226349" lon="7.298655677586794">
        <ele>2811.0300000000002</ele>
        <time>2012-07-23T12:29:11Z</time>
      </trkpt>
      <trkpt lat="46.082296231761575" lon="7.298582503572106">
        <ele>2810.0700000000002</ele>
        <time>2012-07-23T12:29:12Z</time>
      </trkpt>
      <trkpt lat="46.082290280610323" lon="7.298513436689973">
        <ele>2809.5900000000001</ele>
        <time>2012-07-23T12:29:13Z</time>
      </trkpt>
      <trkpt lat="46.082276366651058" lon="7.298456439748406">
        <ele>2808.6300000000001</ele>
        <time>2012-07-23T12:29:14Z</time>
      </trkpt>
      <trkpt lat="46.08224811963737" lon="7.298424001783133">
        <ele>2808.1500000000001</ele>
        <time>2012-07-23T12:29:15Z</time>
      </trkpt>
      <trkpt lat="46.082215514034033" lon="7.298424420878291">
        <ele>2807.6700000000001</ele>
        <time>2012-07-23T12:29:16Z</time>
      </trkpt>
      <trkpt lat="46.082188440486789" lon="7.29845417663455">
        <ele>2807.1900000000001</ele>
        <time>2012-07-23T12:29:17Z</time>
      </trkpt>
      <trkpt lat="46.082173269242048" lon="7.298503462225199">
        <ele>2806.23</ele>
        <time>2012-07-23T12:29:18Z</time>
      </trkpt>
      <trkpt lat="46.082175867632031" lon="7.29856800287962">
        <ele>2805.2600000000002</ele>
        <time>2012-07-23T12:29:19Z</time>
      </trkpt>
      <trkpt lat="46.082190368324518" lon="7.298643356189132">
        <ele>2804.7800000000002</ele>
        <time>2012-07-23T12:29:20Z</time>
      </trkpt>
      <trkpt lat="46.082212077453732" lon="7.298726085573435">
        <ele>2803.8200000000002</ele>
        <time>2012-07-23T12:29:21Z</time>
      </trkpt>
      <trkpt lat="46.082311486825347" lon="7.29915289208293">
        <ele>2800.9400000000001</ele>
        <time>2012-07-23T12:29:26Z</time>
      </trkpt>
      <trkpt lat="46.08231651596725" lon="7.29923939332366">
        <ele>2800.46</ele>
        <time>2012-07-23T12:29:27Z</time>
      </trkpt>
      <trkpt lat="46.08230578713119" lon="7.299322290346026">
        <ele>2799.98</ele>
        <time>2012-07-23T12:29:28Z</time>
      </trkpt>
      <trkpt lat="46.082285083830357" lon="7.299399320036173">
        <ele>2799.98</ele>
        <time>2012-07-23T12:29:29Z</time>
      </trkpt>
      <trkpt lat="46.082258932292461" lon="7.299478026106954">
        <ele>2799.5</ele>
        <time>2012-07-23T12:29:30Z</time>
      </trkpt>
      <trkpt lat="46.082215011119843" lon="7.29960392229259">
        <ele>2799.02</ele>
        <time>2012-07-23T12:29:32Z</time>
      </trkpt>
      <trkpt lat="46.082187099382281" lon="7.299632672220469">
        <ele>2799.02</ele>
        <time>2012-07-23T12:29:33Z</time>
      </trkpt>
      <trkpt lat="46.082159103825688" lon="7.299636024981737">
        <ele>2798.54</ele>
        <time>2012-07-23T12:29:34Z</time>
      </trkpt>
      <trkpt lat="46.082132533192635" lon="7.299607610329986">
        <ele>2798.0500000000002</ele>
        <time>2012-07-23T12:29:35Z</time>
      </trkpt>
      <trkpt lat="46.082127168774605" lon="7.29955555871129">
        <ele>2797.5700000000002</ele>
        <time>2012-07-23T12:29:36Z</time>
      </trkpt>
      <trkpt lat="46.08213965781033" lon="7.299493616446853">
        <ele>2796.1300000000001</ele>
        <time>2012-07-23T12:29:37Z</time>
      </trkpt>
      <trkpt lat="46.082151895388961" lon="7.299427315592766">
        <ele>2795.1700000000001</ele>
        <time>2012-07-23T12:29:38Z</time>
      </trkpt>
      <trkpt lat="46.082161031663418" lon="7.299353387206793">
        <ele>2794.21</ele>
        <time>2012-07-23T12:29:39Z</time>
      </trkpt>
      <trkpt lat="46.082167234271765" lon="7.299270993098617">
        <ele>2793.25</ele>
        <time>2012-07-23T12:29:40Z</time>
      </trkpt>
      <trkpt lat="46.08215969055891" lon="7.299181893467903">
        <ele>2792.77</ele>
        <time>2012-07-23T12:29:41Z</time>
      </trkpt>
      <trkpt lat="46.082131443545222" lon="7.299089441075921">
        <ele>2791.8099999999999</ele>
        <time>2012-07-23T12:29:42Z</time>
      </trkpt>
      <trkpt lat="46.082085091620684" lon="7.299005286768079">
        <ele>2791.3299999999999</ele>
        <time>2012-07-23T12:29:43Z</time>
      </trkpt>
      <trkpt lat="46.082033291459084" lon="7.29893353767693">
        <ele>2790.8400000000001</ele>
        <time>2012-07-23T12:29:44Z</time>
      </trkpt>
      <trkpt lat="46.081986017525196" lon="7.298857262358069">
        <ele>2790.3600000000001</ele>
        <time>2012-07-23T12:29:45Z</time>
      </trkpt>
      <trkpt lat="46.081943353638053" lon="7.298769922927022">
        <ele>2789.8800000000001</ele>
        <time>2012-07-23T12:29:46Z</time>
      </trkpt>
      <trkpt lat="46.081907143816352" lon="7.298680152744055">
        <ele>2788.9200000000001</ele>
        <time>2012-07-23T12:29:47Z</time>
      </trkpt>
      <trkpt lat="46.081882836297154" lon="7.298586275428534">
        <ele>2787.96</ele>
        <time>2012-07-23T12:29:48Z</time>
      </trkpt>
      <trkpt lat="46.081869844347239" lon="7.298487285152078">
        <ele>2787.48</ele>
        <time>2012-07-23T12:29:49Z</time>
      </trkpt>
      <trkpt lat="46.081863306462765" lon="7.29839164763689">
        <ele>2786.52</ele>
        <time>2012-07-23T12:29:50Z</time>
      </trkpt>
      <trkpt lat="46.081861294806004" lon="7.298304056748748">
        <ele>2786.04</ele>
        <time>2012-07-23T12:29:51Z</time>
      </trkpt>
      <trkpt lat="46.081868587061763" lon="7.298229960724711">
        <ele>2785.5599999999999</ele>
        <time>2012-07-23T12:29:52Z</time>
      </trkpt>
      <trkpt lat="46.081891218200326" lon="7.298172125592828">
        <ele>2785.0799999999999</ele>
        <time>2012-07-23T12:29:53Z</time>
      </trkpt>
      <trkpt lat="46.081927930936217" lon="7.298127198591828">
        <ele>2784.5999999999999</ele>
        <time>2012-07-23T12:29:54Z</time>
      </trkpt>
      <trkpt lat="46.081974199041724" lon="7.298089899122715">
        <ele>2783.6300000000001</ele>
        <time>2012-07-23T12:29:55Z</time>
      </trkpt>
      <trkpt lat="46.082026669755578" lon="7.298050336539745">
        <ele>2782.6700000000001</ele>
        <time>2012-07-23T12:29:56Z</time>
      </trkpt>
      <trkpt lat="46.082079224288464" lon="7.297993171960115">
        <ele>2782.1900000000001</ele>
        <time>2012-07-23T12:29:57Z</time>
      </trkpt>
      <trkpt lat="46.082128928974271" lon="7.297925446182489">
        <ele>2781.23</ele>
        <time>2012-07-23T12:29:58Z</time>
      </trkpt>
      <trkpt lat="46.082493709400296" lon="7.297394955530763">
        <ele>2774.5</ele>
        <time>2012-07-23T12:30:05Z</time>
      </trkpt>
      <trkpt lat="46.082714907824993" lon="7.296956079080701">
        <ele>2771.6199999999999</ele>
        <time>2012-07-23T12:30:12Z</time>
      </trkpt>
      <trkpt lat="46.082748770713806" lon="7.296905452385545">
        <ele>2771.1399999999999</ele>
        <time>2012-07-23T12:30:13Z</time>
      </trkpt>
      <trkpt lat="46.082859160378575" lon="7.296718619763851">
        <ele>2768.25</ele>
        <time>2012-07-23T12:30:17Z</time>
      </trkpt>
      <trkpt lat="46.08285253867507" lon="7.296679560095072">
        <ele>2767.77</ele>
        <time>2012-07-23T12:30:18Z</time>
      </trkpt>
      <trkpt lat="46.08283250592649" lon="7.29665600694716">
        <ele>2767.29</ele>
        <time>2012-07-23T12:30:19Z</time>
      </trkpt>
      <trkpt lat="46.082807695493102" lon="7.296654917299748">
        <ele>2766.8099999999999</ele>
        <time>2012-07-23T12:30:20Z</time>
      </trkpt>
      <trkpt lat="46.082783723250031" lon="7.296675620600581">
        <ele>2765.8499999999999</ele>
        <time>2012-07-23T12:30:21Z</time>
      </trkpt>
      <trkpt lat="46.08275874517858" lon="7.296714261174202">
        <ele>2765.3699999999999</ele>
        <time>2012-07-23T12:30:22Z</time>
      </trkpt>
      <trkpt lat="46.082728486508131" lon="7.296758098527789">
        <ele>2764.8899999999999</ele>
        <time>2012-07-23T12:30:23Z</time>
      </trkpt>
      <trkpt lat="46.08269177377224" lon="7.296803779900074">
        <ele>2764.4099999999999</ele>
        <time>2012-07-23T12:30:24Z</time>
      </trkpt>
      <trkpt lat="46.082654809579253" lon="7.296852394938469">
        <ele>2764.4099999999999</ele>
        <time>2012-07-23T12:30:25Z</time>
      </trkpt>
      <trkpt lat="46.082581970840693" lon="7.296965969726443">
        <ele>2763.4499999999998</ele>
        <time>2012-07-23T12:30:27Z</time>
      </trkpt>
      <trkpt lat="46.082536624744534" lon="7.297020452097058">
        <ele>2762.9699999999998</ele>
        <time>2012-07-23T12:30:28Z</time>
      </trkpt>
      <trkpt lat="46.082187602296472" lon="7.297414736822248">
        <ele>2758.1599999999999</ele>
        <time>2012-07-23T12:30:35Z</time>
      </trkpt>
      <trkpt lat="46.082129012793303" lon="7.297454634681344">
        <ele>2757.1999999999998</ele>
        <time>2012-07-23T12:30:36Z</time>
      </trkpt>
      <trkpt lat="46.081619895994663" lon="7.297840034589171">
        <ele>2750.4699999999998</ele>
        <time>2012-07-23T12:30:44Z</time>
      </trkpt>
      <trkpt lat="46.08157622627914" lon="7.297899881377816">
        <ele>2749.5100000000002</ele>
        <time>2012-07-23T12:30:45Z</time>
      </trkpt>
      <trkpt lat="46.081543285399675" lon="7.297970121726394">
        <ele>2749.0300000000002</ele>
        <time>2012-07-23T12:30:46Z</time>
      </trkpt>
      <trkpt lat="46.081497520208359" lon="7.298116302117705">
        <ele>2747.5900000000001</ele>
        <time>2012-07-23T12:30:48Z</time>
      </trkpt>
      <trkpt lat="46.08148536644876" lon="7.298191068693996">
        <ele>2746.6199999999999</ele>
        <time>2012-07-23T12:30:49Z</time>
      </trkpt>
      <trkpt lat="46.081454269587994" lon="7.29848250746727">
        <ele>2744.2199999999998</ele>
        <time>2012-07-23T12:30:53Z</time>
      </trkpt>
      <trkpt lat="46.081440523266792" lon="7.29868576861918">
        <ele>2742.7800000000002</ele>
        <time>2012-07-23T12:30:56Z</time>
      </trkpt>
      <trkpt lat="46.081337342038751" lon="7.29901023209095">
        <ele>2740.8600000000001</ele>
        <time>2012-07-23T12:31:00Z</time>
      </trkpt>
      <trkpt lat="46.081053530797362" lon="7.299696374684572">
        <ele>2735.0900000000001</ele>
        <time>2012-07-23T12:31:08Z</time>
      </trkpt>
      <trkpt lat="46.081024277955294" lon="7.299735099077225">
        <ele>2734.1300000000001</ele>
        <time>2012-07-23T12:31:09Z</time>
      </trkpt>
      <trkpt lat="46.08099720440805" lon="7.299764854833484">
        <ele>2733.6500000000001</ele>
        <time>2012-07-23T12:31:10Z</time>
      </trkpt>
      <trkpt lat="46.080967029556632" lon="7.299790671095252">
        <ele>2733.1700000000001</ele>
        <time>2012-07-23T12:31:11Z</time>
      </trkpt>
      <trkpt lat="46.080934004858136" lon="7.299818666651845">
        <ele>2732.6799999999998</ele>
        <time>2012-07-23T12:31:12Z</time>
      </trkpt>
      <trkpt lat="46.080905590206385" lon="7.299849847331643">
        <ele>2732.1999999999998</ele>
        <time>2012-07-23T12:31:13Z</time>
      </trkpt>
      <trkpt lat="46.080878684297204" lon="7.2998848836869">
        <ele>2731.2399999999998</ele>
        <time>2012-07-23T12:31:14Z</time>
      </trkpt>
      <trkpt lat="46.080851946026087" lon="7.299926793202758">
        <ele>2730.7600000000002</ele>
        <time>2012-07-23T12:31:15Z</time>
      </trkpt>
      <trkpt lat="46.080822441726923" lon="7.29996987618506">
        <ele>2729.8000000000002</ele>
        <time>2012-07-23T12:31:16Z</time>
      </trkpt>
      <trkpt lat="46.080787237733603" lon="7.300009187310934">
        <ele>2729.3200000000002</ele>
        <time>2012-07-23T12:31:17Z</time>
      </trkpt>
      <trkpt lat="46.080745914950967" lon="7.300043888390064">
        <ele>2728.3600000000001</ele>
        <time>2012-07-23T12:31:18Z</time>
      </trkpt>
      <trkpt lat="46.080703251063824" lon="7.300078170374036">
        <ele>2727.4000000000001</ele>
        <time>2012-07-23T12:31:19Z</time>
      </trkpt>
      <trkpt lat="46.080662179738283" lon="7.300109518691897">
        <ele>2726.9200000000001</ele>
        <time>2012-07-23T12:31:20Z</time>
      </trkpt>
      <trkpt lat="46.080623036250472" lon="7.300133742392063">
        <ele>2726.4400000000001</ele>
        <time>2012-07-23T12:31:21Z</time>
      </trkpt>
      <trkpt lat="46.080587413161993" lon="7.30015117675066">
        <ele>2725.48</ele>
        <time>2012-07-23T12:31:22Z</time>
      </trkpt>
      <trkpt lat="46.080509461462498" lon="7.300170622766018">
        <ele>2724.0300000000002</ele>
        <time>2012-07-23T12:31:24Z</time>
      </trkpt>
      <trkpt lat="46.080379290506244" lon="7.3001663479954">
        <ele>2720.6700000000001</ele>
        <time>2012-07-23T12:31:27Z</time>
      </trkpt>
      <trkpt lat="46.080340733751655" lon="7.300145393237472">
        <ele>2719.23</ele>
        <time>2012-07-23T12:31:28Z</time>
      </trkpt>
      <trkpt lat="46.080311061814427" lon="7.300109686329961">
        <ele>2718.27</ele>
        <time>2012-07-23T12:31:29Z</time>
      </trkpt>
      <trkpt lat="46.080295806750655" lon="7.300064759328961">
        <ele>2718.27</ele>
        <time>2012-07-23T12:31:30Z</time>
      </trkpt>
      <trkpt lat="46.08029555529356" lon="7.300024526193738">
        <ele>2717.7800000000002</ele>
        <time>2012-07-23T12:31:31Z</time>
      </trkpt>
      <trkpt lat="46.080305362120271" lon="7.299984125420451">
        <ele>2717.3000000000002</ele>
        <time>2012-07-23T12:31:32Z</time>
      </trkpt>
      <trkpt lat="46.080326065421104" lon="7.299934336915612">
        <ele>2716.8200000000002</ele>
        <time>2012-07-23T12:31:33Z</time>
      </trkpt>
      <trkpt lat="46.080353641882539" lon="7.299876669421792">
        <ele>2715.8600000000001</ele>
        <time>2012-07-23T12:31:34Z</time>
      </trkpt>
      <trkpt lat="46.080381469801068" lon="7.299810452386737">
        <ele>2715.3800000000001</ele>
        <time>2012-07-23T12:31:35Z</time>
      </trkpt>
      <trkpt lat="46.080403011292219" lon="7.299727806821466">
        <ele>2714.4200000000001</ele>
        <time>2012-07-23T12:31:36Z</time>
      </trkpt>
      <trkpt lat="46.080412482842803" lon="7.299634600058198">
        <ele>2713.9400000000001</ele>
        <time>2012-07-23T12:31:37Z</time>
      </trkpt>
      <trkpt lat="46.08040695078671" lon="7.299543740227819">
        <ele>2713.46</ele>
        <time>2012-07-23T12:31:38Z</time>
      </trkpt>
      <trkpt lat="46.080388091504574" lon="7.299459585919976">
        <ele>2713.46</ele>
        <time>2012-07-23T12:31:39Z</time>
      </trkpt>
      <trkpt lat="46.080359425395727" lon="7.299382220953703">
        <ele>2713.46</ele>
        <time>2012-07-23T12:31:40Z</time>
      </trkpt>
      <trkpt lat="46.080325981602073" lon="7.299311310052872">
        <ele>2712.98</ele>
        <time>2012-07-23T12:31:41Z</time>
      </trkpt>
      <trkpt lat="46.080294717103243" lon="7.299247859045863">
        <ele>2712.98</ele>
        <time>2012-07-23T12:31:42Z</time>
      </trkpt>
      <trkpt lat="46.080261943861842" lon="7.299196310341358">
        <ele>2712.98</ele>
        <time>2012-07-23T12:31:43Z</time>
      </trkpt>
      <trkpt lat="46.080228751525283" lon="7.299149120226502">
        <ele>2712.98</ele>
        <time>2012-07-23T12:31:44Z</time>
      </trkpt>
      <trkpt lat="46.080196397379041" lon="7.299100253731012">
        <ele>2712.98</ele>
        <time>2012-07-23T12:31:45Z</time>
      </trkpt>
      <trkpt lat="46.080126157030463" lon="7.299007633700967">
        <ele>2712.02</ele>
        <time>2012-07-23T12:31:47Z</time>
      </trkpt>
      <trkpt lat="46.080090869218111" lon="7.298951977863908">
        <ele>2712.02</ele>
        <time>2012-07-23T12:31:48Z</time>
      </trkpt>
      <trkpt lat="46.080050719901919" lon="7.29890713468194">
        <ele>2712.02</ele>
        <time>2012-07-23T12:31:49Z</time>
      </trkpt>
      <trkpt lat="46.08000872656703" lon="7.298873020336032">
        <ele>2712.02</ele>
        <time>2012-07-23T12:31:50Z</time>
      </trkpt>
      <trkpt lat="46.079966565594077" lon="7.298846952617168">
        <ele>2712.02</ele>
        <time>2012-07-23T12:31:51Z</time>
      </trkpt>
      <trkpt lat="46.079925242811441" lon="7.298829266801477">
        <ele>2712.02</ele>
        <time>2012-07-23T12:31:52Z</time>
      </trkpt>
      <trkpt lat="46.079876879230142" lon="7.298816861584783">
        <ele>2711.54</ele>
        <time>2012-07-23T12:31:53Z</time>
      </trkpt>
      <trkpt lat="46.079579656943679" lon="7.298722062259913">
        <ele>2709.1300000000001</ele>
        <time>2012-07-23T12:31:58Z</time>
      </trkpt>
      <trkpt lat="46.079518971964717" lon="7.298680739477277">
        <ele>2708.6500000000001</ele>
        <time>2012-07-23T12:31:59Z</time>
      </trkpt>
      <trkpt lat="46.079413611441851" lon="7.298581078648567">
        <ele>2708.1700000000001</ele>
        <time>2012-07-23T12:32:01Z</time>
      </trkpt>
      <trkpt lat="46.079286793246865" lon="7.298407154157758">
        <ele>2707.21</ele>
        <time>2012-07-23T12:32:04Z</time>
      </trkpt>
      <trkpt lat="46.07926407828927" lon="7.298358036205173">
        <ele>2706.73</ele>
        <time>2012-07-23T12:32:05Z</time>
      </trkpt>
      <trkpt lat="46.079259300604463" lon="7.29830170981586">
        <ele>2706.73</ele>
        <time>2012-07-23T12:32:06Z</time>
      </trkpt>
      <trkpt lat="46.079270616173744" lon="7.298244712874293">
        <ele>2706.25</ele>
        <time>2012-07-23T12:32:07Z</time>
      </trkpt>
      <trkpt lat="46.079294169321656" lon="7.298199282959104">
        <ele>2705.77</ele>
        <time>2012-07-23T12:32:08Z</time>
      </trkpt>
      <trkpt lat="46.079325014725327" lon="7.298169862478972">
        <ele>2705.77</ele>
        <time>2012-07-23T12:32:09Z</time>
      </trkpt>
      <trkpt lat="46.079356865957379" lon="7.298159301280975">
        <ele>2705.77</ele>
        <time>2012-07-23T12:32:10Z</time>
      </trkpt>
      <trkpt lat="46.079388549551368" lon="7.298167264088988">
        <ele>2705.77</ele>
        <time>2012-07-23T12:32:11Z</time>
      </trkpt>
      <trkpt lat="46.07942383736372" lon="7.298188051208854">
        <ele>2705.29</ele>
        <time>2012-07-23T12:32:12Z</time>
      </trkpt>
      <trkpt lat="46.079462897032499" lon="7.298229457810521">
        <ele>2705.29</ele>
        <time>2012-07-23T12:32:13Z</time>
      </trkpt>
      <trkpt lat="46.079505560919642" lon="7.298275725916028">
        <ele>2705.29</ele>
        <time>2012-07-23T12:32:14Z</time>
      </trkpt>
      <trkpt lat="46.079549649730325" lon="7.298314953222871">
        <ele>2704.8099999999999</ele>
        <time>2012-07-23T12:32:15Z</time>
      </trkpt>
      <trkpt lat="46.079591810703278" lon="7.298343870788813">
        <ele>2704.3299999999999</ele>
        <time>2012-07-23T12:32:16Z</time>
      </trkpt>
      <trkpt lat="46.079629361629486" lon="7.298353426158428">
        <ele>2703.8499999999999</ele>
        <time>2012-07-23T12:32:17Z</time>
      </trkpt>
      <trkpt lat="46.079655345529318" lon="7.298341440036893">
        <ele>2702.8800000000001</ele>
        <time>2012-07-23T12:32:18Z</time>
      </trkpt>
      <trkpt lat="46.07967060059309" lon="7.298313276842237">
        <ele>2702.4000000000001</ele>
        <time>2012-07-23T12:32:19Z</time>
      </trkpt>
      <trkpt lat="46.079672947525978" lon="7.298271702602506">
        <ele>2701.4400000000001</ele>
        <time>2012-07-23T12:32:20Z</time>
      </trkpt>
      <trkpt lat="46.079659285023808" lon="7.298220908269286">
        <ele>2700.96</ele>
        <time>2012-07-23T12:32:21Z</time>
      </trkpt>
      <trkpt lat="46.07963246293366" lon="7.298165839165449">
        <ele>2700.48</ele>
        <time>2012-07-23T12:32:22Z</time>
      </trkpt>
      <trkpt lat="46.079605221748352" lon="7.29810188524425">
        <ele>2700</ele>
        <time>2012-07-23T12:32:23Z</time>
      </trkpt>
      <trkpt lat="46.079587871208787" lon="7.298022089526057">
        <ele>2699.52</ele>
        <time>2012-07-23T12:32:24Z</time>
      </trkpt>
      <trkpt lat="46.079574795439839" lon="7.297939276322722">
        <ele>2699.52</ele>
        <time>2012-07-23T12:32:25Z</time>
      </trkpt>
      <trkpt lat="46.079540345817804" lon="7.297765016555786">
        <ele>2697.5999999999999</ele>
        <time>2012-07-23T12:32:27Z</time>
      </trkpt>
      <trkpt lat="46.079465495422482" lon="7.29754189029336">
        <ele>2695.1900000000001</ele>
        <time>2012-07-23T12:32:30Z</time>
      </trkpt>
      <trkpt lat="46.07943456619978" lon="7.297481624409556">
        <ele>2694.71</ele>
        <time>2012-07-23T12:32:31Z</time>
      </trkpt>
      <trkpt lat="46.079258713871241" lon="7.297125477343798">
        <ele>2691.3499999999999</ele>
        <time>2012-07-23T12:32:37Z</time>
      </trkpt>
      <trkpt lat="46.079246308654547" lon="7.297067306935787">
        <ele>2690.8699999999999</ele>
        <time>2012-07-23T12:32:38Z</time>
      </trkpt>
      <trkpt lat="46.079186210408807" lon="7.296825824305415">
        <ele>2688.9400000000001</ele>
        <time>2012-07-23T12:32:44Z</time>
      </trkpt>
      <trkpt lat="46.079187383875251" lon="7.296792212873697">
        <ele>2688.46</ele>
        <time>2012-07-23T12:32:45Z</time>
      </trkpt>
      <trkpt lat="46.079195095226169" lon="7.296761618927121">
        <ele>2687.98</ele>
        <time>2012-07-23T12:32:46Z</time>
      </trkpt>
      <trkpt lat="46.079206578433514" lon="7.296730354428291">
        <ele>2687.02</ele>
        <time>2012-07-23T12:32:47Z</time>
      </trkpt>
      <trkpt lat="46.079213786870241" lon="7.296695653349161">
        <ele>2686.0599999999999</ele>
        <time>2012-07-23T12:32:48Z</time>
      </trkpt>
      <trkpt lat="46.079220827668905" lon="7.296662796288729">
        <ele>2685.0999999999999</ele>
        <time>2012-07-23T12:32:49Z</time>
      </trkpt>
      <trkpt lat="46.079231472685933" lon="7.296638321131468">
        <ele>2684.6199999999999</ele>
        <time>2012-07-23T12:32:50Z</time>
      </trkpt>
      <trkpt lat="46.079245721921325" lon="7.296625161543489">
        <ele>2684.1399999999999</ele>
        <time>2012-07-23T12:32:51Z</time>
      </trkpt>
      <trkpt lat="46.079259971156716" lon="7.296623485162854">
        <ele>2683.6599999999999</ele>
        <time>2012-07-23T12:32:52Z</time>
      </trkpt>
      <trkpt lat="46.079274052754045" lon="7.296632034704089">
        <ele>2683.6599999999999</ele>
        <time>2012-07-23T12:32:53Z</time>
      </trkpt>
      <trkpt lat="46.079289643093944" lon="7.296653827652335">
        <ele>2683.6599999999999</ele>
        <time>2012-07-23T12:32:54Z</time>
      </trkpt>
      <trkpt lat="46.079307999461889" lon="7.296684505417943">
        <ele>2683.6599999999999</ele>
        <time>2012-07-23T12:32:55Z</time>
      </trkpt>
      <trkpt lat="46.079325517639518" lon="7.296717027202249">
        <ele>2683.6599999999999</ele>
        <time>2012-07-23T12:32:56Z</time>
      </trkpt>
      <trkpt lat="46.079341527074575" lon="7.296757595613599">
        <ele>2683.1799999999998</ele>
        <time>2012-07-23T12:32:57Z</time>
      </trkpt>
      <trkpt lat="46.079359380528331" lon="7.296804869547486">
        <ele>2683.1799999999998</ele>
        <time>2012-07-23T12:32:58Z</time>
      </trkpt>
      <trkpt lat="46.079382514581084" lon="7.296858597546816">
        <ele>2682.2199999999998</ele>
        <time>2012-07-23T12:32:59Z</time>
      </trkpt>
      <trkpt lat="46.079411096870899" lon="7.296912577003241">
        <ele>2681.73</ele>
        <time>2012-07-23T12:33:00Z</time>
      </trkpt>
      <trkpt lat="46.079444624483585" lon="7.29696094058454">
        <ele>2681.25</ele>
        <time>2012-07-23T12:33:01Z</time>
      </trkpt>
      <trkpt lat="46.07948686927557" lon="7.296999748796225">
        <ele>2680.77</ele>
        <time>2012-07-23T12:33:02Z</time>
      </trkpt>
      <trkpt lat="46.079533891752362" lon="7.297034282237291">
        <ele>2680.29</ele>
        <time>2012-07-23T12:33:03Z</time>
      </trkpt>
      <trkpt lat="46.079581500962377" lon="7.297077029943466">
        <ele>2679.8099999999999</ele>
        <time>2012-07-23T12:33:04Z</time>
      </trkpt>
      <trkpt lat="46.079632630571723" lon="7.297121873125434">
        <ele>2679.3299999999999</ele>
        <time>2012-07-23T12:33:05Z</time>
      </trkpt>
      <trkpt lat="46.079685436561704" lon="7.297163028270006">
        <ele>2678.3699999999999</ele>
        <time>2012-07-23T12:33:06Z</time>
      </trkpt>
      <trkpt lat="46.079921135678887" lon="7.297311304137111">
        <ele>2675.4899999999998</ele>
        <time>2012-07-23T12:33:10Z</time>
      </trkpt>
      <trkpt lat="46.08003512956202" lon="7.297348435968161">
        <ele>2674.04</ele>
        <time>2012-07-23T12:33:12Z</time>
      </trkpt>
      <trkpt lat="46.080088941380382" lon="7.297351369634271">
        <ele>2673.5599999999999</ele>
        <time>2012-07-23T12:33:13Z</time>
      </trkpt>
      <trkpt lat="46.080139903351665" lon="7.297343490645289">
        <ele>2673.0799999999999</ele>
        <time>2012-07-23T12:33:14Z</time>
      </trkpt>
      <trkpt lat="46.080185584723949" lon="7.297323541715741">
        <ele>2672.5999999999999</ele>
        <time>2012-07-23T12:33:15Z</time>
      </trkpt>
      <trkpt lat="46.080219950526953" lon="7.297285906970501">
        <ele>2671.6399999999999</ele>
        <time>2012-07-23T12:33:16Z</time>
      </trkpt>
      <trkpt lat="46.08024375513196" lon="7.297230502590537">
        <ele>2671.1599999999999</ele>
        <time>2012-07-23T12:33:17Z</time>
      </trkpt>
      <trkpt lat="46.080256914719939" lon="7.297171074897051">
        <ele>2670.6799999999998</ele>
        <time>2012-07-23T12:33:18Z</time>
      </trkpt>
      <trkpt lat="46.080253729596734" lon="7.297109300270677">
        <ele>2669.7199999999998</ele>
        <time>2012-07-23T12:33:19Z</time>
      </trkpt>
      <trkpt lat="46.080234199762344" lon="7.297056578099728">
        <ele>2669.2399999999998</ele>
        <time>2012-07-23T12:33:20Z</time>
      </trkpt>
      <trkpt lat="46.080198241397738" lon="7.297021625563502">
        <ele>2668.7600000000002</ele>
        <time>2012-07-23T12:33:21Z</time>
      </trkpt>
      <trkpt lat="46.080151218920946" lon="7.296993043273687">
        <ele>2668.2800000000002</ele>
        <time>2012-07-23T12:33:22Z</time>
      </trkpt>
      <trkpt lat="46.08001459389925" lon="7.29690327309072">
        <ele>2665.8699999999999</ele>
        <time>2012-07-23T12:33:25Z</time>
      </trkpt>
      <trkpt lat="46.079981820657849" lon="7.296854071319103">
        <ele>2665.3899999999999</ele>
        <time>2012-07-23T12:33:26Z</time>
      </trkpt>
      <trkpt lat="46.079956674948335" lon="7.296792464330792">
        <ele>2664.9099999999999</ele>
        <time>2012-07-23T12:33:27Z</time>
      </trkpt>
      <trkpt lat="46.07993689365685" lon="7.296722391620278">
        <ele>2664.4299999999998</ele>
        <time>2012-07-23T12:33:28Z</time>
      </trkpt>
      <trkpt lat="46.079920884221792" lon="7.296643685549498">
        <ele>2663.9499999999998</ele>
        <time>2012-07-23T12:33:29Z</time>
      </trkpt>
      <trkpt lat="46.079907221719623" lon="7.296557771041989">
        <ele>2663.4699999999998</ele>
        <time>2012-07-23T12:33:30Z</time>
      </trkpt>
      <trkpt lat="46.079894062131643" lon="7.296466659754515">
        <ele>2662.9899999999998</ele>
        <time>2012-07-23T12:33:31Z</time>
      </trkpt>
      <trkpt lat="46.07985625974834" lon="7.296195924282074">
        <ele>2660.5900000000001</ele>
        <time>2012-07-23T12:33:34Z</time>
      </trkpt>
      <trkpt lat="46.079854499548674" lon="7.296101879328489">
        <ele>2660.1100000000001</ele>
        <time>2012-07-23T12:33:35Z</time>
      </trkpt>
      <trkpt lat="46.07985919341445" lon="7.296012947335839">
        <ele>2659.1399999999999</ele>
        <time>2012-07-23T12:33:36Z</time>
      </trkpt>
      <trkpt lat="46.079871850088239" lon="7.295917728915811">
        <ele>2658.1799999999998</ele>
        <time>2012-07-23T12:33:37Z</time>
      </trkpt>
      <trkpt lat="46.079892134293914" lon="7.295818571001291">
        <ele>2657.6999999999998</ele>
        <time>2012-07-23T12:33:38Z</time>
      </trkpt>
      <trkpt lat="46.079952232539654" lon="7.295507937669754">
        <ele>2655.7800000000002</ele>
        <time>2012-07-23T12:33:41Z</time>
      </trkpt>
      <trkpt lat="46.079956004396081" lon="7.295415485277772">
        <ele>2655.3000000000002</ele>
        <time>2012-07-23T12:33:42Z</time>
      </trkpt>
      <trkpt lat="46.07995399273932" lon="7.295329151675105">
        <ele>2654.3400000000001</ele>
        <time>2012-07-23T12:33:43Z</time>
      </trkpt>
      <trkpt lat="46.079946868121624" lon="7.295250948518515">
        <ele>2653.8600000000001</ele>
        <time>2012-07-23T12:33:44Z</time>
      </trkpt>
      <trkpt lat="46.079932702705264" lon="7.295180791988969">
        <ele>2653.3800000000001</ele>
        <time>2012-07-23T12:33:45Z</time>
      </trkpt>
      <trkpt lat="46.079911412671208" lon="7.295115077868104">
        <ele>2652.4200000000001</ele>
        <time>2012-07-23T12:33:46Z</time>
      </trkpt>
      <trkpt lat="46.079885764047503" lon="7.295051459223032">
        <ele>2651.9299999999998</ele>
        <time>2012-07-23T12:33:47Z</time>
      </trkpt>
      <trkpt lat="46.079858103767037" lon="7.294987756758928">
        <ele>2651.4499999999998</ele>
        <time>2012-07-23T12:33:48Z</time>
      </trkpt>
      <trkpt lat="46.079592313617468" lon="7.294365065172315">
        <ele>2643.2800000000002</ele>
        <time>2012-07-23T12:33:57Z</time>
      </trkpt>
      <trkpt lat="46.079599019140005" lon="7.294312175363302">
        <ele>2642.8000000000002</ele>
        <time>2012-07-23T12:33:58Z</time>
      </trkpt>
      <trkpt lat="46.0796217340976" lon="7.294272780418396">
        <ele>2642.3200000000002</ele>
        <time>2012-07-23T12:33:59Z</time>
      </trkpt>
      <trkpt lat="46.079654088243842" lon="7.294252077117562">
        <ele>2641.8400000000001</ele>
        <time>2012-07-23T12:34:00Z</time>
      </trkpt>
      <trkpt lat="46.079690968617797" lon="7.294246209785342">
        <ele>2641.8400000000001</ele>
        <time>2012-07-23T12:34:01Z</time>
      </trkpt>
      <trkpt lat="46.079729944467545" lon="7.294253753498197">
        <ele>2641.3600000000001</ele>
        <time>2012-07-23T12:34:02Z</time>
      </trkpt>
      <trkpt lat="46.079764561727643" lon="7.294265739619732">
        <ele>2640.8800000000001</ele>
        <time>2012-07-23T12:34:03Z</time>
      </trkpt>
      <trkpt lat="46.079799933359027" lon="7.294285017997026">
        <ele>2640.4000000000001</ele>
        <time>2012-07-23T12:34:04Z</time>
      </trkpt>
      <trkpt lat="46.079839579761028" lon="7.294316114857793">
        <ele>2639.9200000000001</ele>
        <time>2012-07-23T12:34:05Z</time>
      </trkpt>
      <trkpt lat="46.079883081838489" lon="7.294353079050779">
        <ele>2639.4400000000001</ele>
        <time>2012-07-23T12:34:06Z</time>
      </trkpt>
      <trkpt lat="46.079933540895581" lon="7.294389959424734">
        <ele>2638.96</ele>
        <time>2012-07-23T12:34:07Z</time>
      </trkpt>
      <trkpt lat="46.079991711303592" lon="7.294408399611712">
        <ele>2638.48</ele>
        <time>2012-07-23T12:34:08Z</time>
      </trkpt>
      <trkpt lat="46.080050887539983" lon="7.294401526451111">
        <ele>2637.9899999999998</ele>
        <time>2012-07-23T12:34:09Z</time>
      </trkpt>
      <trkpt lat="46.080099670216441" lon="7.294375291094184">
        <ele>2637.0300000000002</ele>
        <time>2012-07-23T12:34:10Z</time>
      </trkpt>
      <trkpt lat="46.080145519226789" lon="7.294337404891849">
        <ele>2636.5500000000002</ele>
        <time>2012-07-23T12:34:11Z</time>
      </trkpt>
      <trkpt lat="46.080471994355321" lon="7.294113608077169">
        <ele>2631.27</ele>
        <time>2012-07-23T12:34:17Z</time>
      </trkpt>
      <trkpt lat="46.080520609393716" lon="7.294106315821409">
        <ele>2631.27</ele>
        <time>2012-07-23T12:34:18Z</time>
      </trkpt>
      <trkpt lat="46.080569392070174" lon="7.294119475409389">
        <ele>2630.79</ele>
        <time>2012-07-23T12:34:19Z</time>
      </trkpt>
      <trkpt lat="46.080822190269828" lon="7.294225674122572">
        <ele>2629.3400000000001</ele>
        <time>2012-07-23T12:34:27Z</time>
      </trkpt>
      <trkpt lat="46.080987481400371" lon="7.294264147058129">
        <ele>2628.3800000000001</ele>
        <time>2012-07-23T12:34:31Z</time>
      </trkpt>
      <trkpt lat="46.081039868295193" lon="7.29427345097065">
        <ele>2627.9000000000001</ele>
        <time>2012-07-23T12:34:32Z</time>
      </trkpt>
      <trkpt lat="46.081088148057461" lon="7.294291807338595">
        <ele>2627.9000000000001</ele>
        <time>2012-07-23T12:34:33Z</time>
      </trkpt>
      <trkpt lat="46.081124609336257" lon="7.29430471546948">
        <ele>2626.9400000000001</ele>
        <time>2012-07-23T12:34:34Z</time>
      </trkpt>
      <trkpt lat="46.081156376749277" lon="7.294314438477159">
        <ele>2626.9400000000001</ele>
        <time>2012-07-23T12:34:35Z</time>
      </trkpt>
      <trkpt lat="46.081188227981329" lon="7.294320305809379">
        <ele>2626.46</ele>
        <time>2012-07-23T12:34:36Z</time>
      </trkpt>
      <trkpt lat="46.081218319013715" lon="7.294313181191683">
        <ele>2625.98</ele>
        <time>2012-07-23T12:34:37Z</time>
      </trkpt>
      <trkpt lat="46.08124203979969" lon="7.294290214776993">
        <ele>2625.5</ele>
        <time>2012-07-23T12:34:38Z</time>
      </trkpt>
      <trkpt lat="46.081261401996017" lon="7.294252663850784">
        <ele>2624.54</ele>
        <time>2012-07-23T12:34:39Z</time>
      </trkpt>
      <trkpt lat="46.081271711736917" lon="7.294203126803041">
        <ele>2624.0599999999999</ele>
        <time>2012-07-23T12:34:40Z</time>
      </trkpt>
      <trkpt lat="46.081266850233078" lon="7.294149063527584">
        <ele>2623.5799999999999</ele>
        <time>2012-07-23T12:34:41Z</time>
      </trkpt>
      <trkpt lat="46.081245979294181" lon="7.294097431004047">
        <ele>2622.6100000000001</ele>
        <time>2012-07-23T12:34:42Z</time>
      </trkpt>
      <trkpt lat="46.08121320605278" lon="7.294053258374333">
        <ele>2622.1300000000001</ele>
        <time>2012-07-23T12:34:43Z</time>
      </trkpt>
      <trkpt lat="46.081171212717891" lon="7.294022496789694">
        <ele>2621.6500000000001</ele>
        <time>2012-07-23T12:34:44Z</time>
      </trkpt>
      <trkpt lat="46.081131314858794" lon="7.293993663042784">
        <ele>2621.1700000000001</ele>
        <time>2012-07-23T12:34:45Z</time>
      </trkpt>
      <trkpt lat="46.081096362322569" lon="7.293960219249129">
        <ele>2621.1700000000001</ele>
        <time>2012-07-23T12:34:46Z</time>
      </trkpt>
      <trkpt lat="46.081032324582338" lon="7.293830551207066">
        <ele>2620.21</ele>
        <time>2012-07-23T12:34:49Z</time>
      </trkpt>
      <trkpt lat="46.081035006791353" lon="7.293772883713245">
        <ele>2620.21</ele>
        <time>2012-07-23T12:34:50Z</time>
      </trkpt>
      <trkpt lat="46.081047914922237" lon="7.293714294210076">
        <ele>2619.73</ele>
        <time>2012-07-23T12:34:51Z</time>
      </trkpt>
      <trkpt lat="46.081062667071819" lon="7.293655620887876">
        <ele>2619.25</ele>
        <time>2012-07-23T12:34:52Z</time>
      </trkpt>
      <trkpt lat="46.081072892993689" lon="7.293605580925942">
        <ele>2618.29</ele>
        <time>2012-07-23T12:34:53Z</time>
      </trkpt>
      <trkpt lat="46.081059733405709" lon="7.293070899322629">
        <ele>2612.52</ele>
        <time>2012-07-23T12:35:04Z</time>
      </trkpt>
      <trkpt lat="46.081038191914558" lon="7.293022871017456">
        <ele>2612.04</ele>
        <time>2012-07-23T12:35:05Z</time>
      </trkpt>
      <trkpt lat="46.08100944198668" lon="7.292976183816791">
        <ele>2612.04</ele>
        <time>2012-07-23T12:35:06Z</time>
      </trkpt>
      <trkpt lat="46.080976333469152" lon="7.292930837720633">
        <ele>2611.5599999999999</ele>
        <time>2012-07-23T12:35:07Z</time>
      </trkpt>
      <trkpt lat="46.080939201638103" lon="7.29288867674768">
        <ele>2611.0799999999999</ele>
        <time>2012-07-23T12:35:08Z</time>
      </trkpt>
      <trkpt lat="46.080899890512228" lon="7.292850622907281">
        <ele>2610.5999999999999</ele>
        <time>2012-07-23T12:35:09Z</time>
      </trkpt>
      <trkpt lat="46.080855634063482" lon="7.292819945141673">
        <ele>2610.1199999999999</ele>
        <time>2012-07-23T12:35:10Z</time>
      </trkpt>
      <trkpt lat="46.080809030681849" lon="7.292800415307283">
        <ele>2609.6399999999999</ele>
        <time>2012-07-23T12:35:11Z</time>
      </trkpt>
      <trkpt lat="46.080764690414071" lon="7.29279245249927">
        <ele>2609.1599999999999</ele>
        <time>2012-07-23T12:35:12Z</time>
      </trkpt>
      <trkpt lat="46.080694030970335" lon="7.292756075039506">
        <ele>2607.71</ele>
        <time>2012-07-23T12:35:14Z</time>
      </trkpt>
      <trkpt lat="46.080673662945628" lon="7.292720787227154">
        <ele>2607.23</ele>
        <time>2012-07-23T12:35:15Z</time>
      </trkpt>
      <trkpt lat="46.080661341547966" lon="7.292678542435169">
        <ele>2606.27</ele>
        <time>2012-07-23T12:35:16Z</time>
      </trkpt>
      <trkpt lat="46.080657904967666" lon="7.292634453624487">
        <ele>2605.79</ele>
        <time>2012-07-23T12:35:17Z</time>
      </trkpt>
      <trkpt lat="46.080668047070503" lon="7.292596651241183">
        <ele>2604.8299999999999</ele>
        <time>2012-07-23T12:35:18Z</time>
      </trkpt>
      <trkpt lat="46.080685146152973" lon="7.292561866343021">
        <ele>2604.3499999999999</ele>
        <time>2012-07-23T12:35:19Z</time>
      </trkpt>
      <trkpt lat="46.080706520006061" lon="7.292529679834843">
        <ele>2603.8699999999999</ele>
        <time>2012-07-23T12:35:20Z</time>
      </trkpt>
      <trkpt lat="46.080733509734273" lon="7.292502522468567">
        <ele>2603.3899999999999</ele>
        <time>2012-07-23T12:35:21Z</time>
      </trkpt>
      <trkpt lat="46.08076611533761" lon="7.292479136958718">
        <ele>2602.9099999999999</ele>
        <time>2012-07-23T12:35:22Z</time>
      </trkpt>
      <trkpt lat="46.080805007368326" lon="7.292460529133678">
        <ele>2601.9499999999998</ele>
        <time>2012-07-23T12:35:23Z</time>
      </trkpt>
      <trkpt lat="46.08084674924612" lon="7.292445190250874">
        <ele>2600.98</ele>
        <time>2012-07-23T12:35:24Z</time>
      </trkpt>
      <trkpt lat="46.080889496952295" lon="7.292434712871909">
        <ele>2600.5</ele>
        <time>2012-07-23T12:35:25Z</time>
      </trkpt>
      <trkpt lat="46.080933753401041" lon="7.292427169159055">
        <ele>2599.54</ele>
        <time>2012-07-23T12:35:26Z</time>
      </trkpt>
      <trkpt lat="46.081128632649779" lon="7.292433707043529">
        <ele>2596.1799999999998</ele>
        <time>2012-07-23T12:35:31Z</time>
      </trkpt>
      <trkpt lat="46.081166602671146" lon="7.292455332353711">
        <ele>2595.6999999999998</ele>
        <time>2012-07-23T12:35:32Z</time>
      </trkpt>
      <trkpt lat="46.08120440505445" lon="7.292485926300287">
        <ele>2595.2199999999998</ele>
        <time>2012-07-23T12:35:33Z</time>
      </trkpt>
      <trkpt lat="46.081496765837073" lon="7.292775101959705">
        <ele>2591.8499999999999</ele>
        <time>2012-07-23T12:35:41Z</time>
      </trkpt>
      <trkpt lat="46.081541609019041" lon="7.292824890464544">
        <ele>2591.3699999999999</ele>
        <time>2012-07-23T12:35:42Z</time>
      </trkpt>
      <trkpt lat="46.081595672294497" lon="7.292861938476563">
        <ele>2590.8899999999999</ele>
        <time>2012-07-23T12:35:43Z</time>
      </trkpt>
      <trkpt lat="46.081655351445079" lon="7.29287845082581">
        <ele>2590.4099999999999</ele>
        <time>2012-07-23T12:35:44Z</time>
      </trkpt>
      <trkpt lat="46.081716204062104" lon="7.292888341471553">
        <ele>2589.9299999999998</ele>
        <time>2012-07-23T12:35:45Z</time>
      </trkpt>
      <trkpt lat="46.081922985613346" lon="7.292923545464873">
        <ele>2588.9699999999998</ele>
        <time>2012-07-23T12:35:49Z</time>
      </trkpt>
      <trkpt lat="46.081948801875114" lon="7.292890269309282">
        <ele>2588.4899999999998</ele>
        <time>2012-07-23T12:35:50Z</time>
      </trkpt>
      <trkpt lat="46.081957938149571" lon="7.292839977890253">
        <ele>2588.0100000000002</ele>
        <time>2012-07-23T12:35:51Z</time>
      </trkpt>
      <trkpt lat="46.081951316446066" lon="7.292785998433828">
        <ele>2587.5300000000002</ele>
        <time>2012-07-23T12:35:52Z</time>
      </trkpt>
      <trkpt lat="46.081928852945566" lon="7.292739143595099">
        <ele>2587.04</ele>
        <time>2012-07-23T12:35:53Z</time>
      </trkpt>
      <trkpt lat="46.081895912066102" lon="7.292703688144684">
        <ele>2587.04</ele>
        <time>2012-07-23T12:35:54Z</time>
      </trkpt>
      <trkpt lat="46.081854086369276" lon="7.292674770578742">
        <ele>2586.5599999999999</ele>
        <time>2012-07-23T12:35:55Z</time>
      </trkpt>
      <trkpt lat="46.081802621483803" lon="7.292652307078242">
        <ele>2585.5999999999999</ele>
        <time>2012-07-23T12:35:56Z</time>
      </trkpt>
      <trkpt lat="46.081747300922871" lon="7.292620204389095">
        <ele>2585.1199999999999</ele>
        <time>2012-07-23T12:35:57Z</time>
      </trkpt>
      <trkpt lat="46.081695584580302" lon="7.292569912970066">
        <ele>2584.6399999999999</ele>
        <time>2012-07-23T12:35:58Z</time>
      </trkpt>
      <trkpt lat="46.081647807732224" lon="7.292505791410804">
        <ele>2583.6799999999998</ele>
        <time>2012-07-23T12:35:59Z</time>
      </trkpt>
      <trkpt lat="46.081567760556936" lon="7.292372938245535">
        <ele>2581.7600000000002</ele>
        <time>2012-07-23T12:36:01Z</time>
      </trkpt>
      <trkpt lat="46.081538926810026" lon="7.292311917990446">
        <ele>2581.2800000000002</ele>
        <time>2012-07-23T12:36:02Z</time>
      </trkpt>
      <trkpt lat="46.081493413075805" lon="7.292200941592455">
        <ele>2580.3200000000002</ele>
        <time>2012-07-23T12:36:04Z</time>
      </trkpt>
      <trkpt lat="46.081476984545588" lon="7.292145369574428">
        <ele>2579.8400000000001</ele>
        <time>2012-07-23T12:36:05Z</time>
      </trkpt>
      <trkpt lat="46.081464914605021" lon="7.292090132832527">
        <ele>2579.3499999999999</ele>
        <time>2012-07-23T12:36:06Z</time>
      </trkpt>
      <trkpt lat="46.081452090293169" lon="7.292037410661578">
        <ele>2578.8699999999999</ele>
        <time>2012-07-23T12:36:07Z</time>
      </trkpt>
      <trkpt lat="46.081438260152936" lon="7.291988292708993">
        <ele>2578.3899999999999</ele>
        <time>2012-07-23T12:36:08Z</time>
      </trkpt>
      <trkpt lat="46.081426609307528" lon="7.291847728192806">
        <ele>2576.4699999999998</ele>
        <time>2012-07-23T12:36:11Z</time>
      </trkpt>
      <trkpt lat="46.081445971503854" lon="7.291817050427198">
        <ele>2575.5100000000002</ele>
        <time>2012-07-23T12:36:12Z</time>
      </trkpt>
      <trkpt lat="46.081469189375639" lon="7.291799364611507">
        <ele>2575.0300000000002</ele>
        <time>2012-07-23T12:36:13Z</time>
      </trkpt>
      <trkpt lat="46.081492323428392" lon="7.291797772049904">
        <ele>2575.0300000000002</ele>
        <time>2012-07-23T12:36:14Z</time>
      </trkpt>
      <trkpt lat="46.081511517986655" lon="7.291816463693976">
        <ele>2575.0300000000002</ele>
        <time>2012-07-23T12:36:15Z</time>
      </trkpt>
      <trkpt lat="46.081528197973967" lon="7.291845632717013">
        <ele>2575.0300000000002</ele>
        <time>2012-07-23T12:36:16Z</time>
      </trkpt>
      <trkpt lat="46.081661386415362" lon="7.292002039030194">
        <ele>2573.1100000000001</ele>
        <time>2012-07-23T12:36:21Z</time>
      </trkpt>
      <trkpt lat="46.081716539338231" lon="7.291993238031864">
        <ele>2572.6300000000001</ele>
        <time>2012-07-23T12:36:22Z</time>
      </trkpt>
      <trkpt lat="46.081777811050415" lon="7.29196323081851">
        <ele>2571.6599999999999</ele>
        <time>2012-07-23T12:36:23Z</time>
      </trkpt>
      <trkpt lat="46.081841932609677" lon="7.291917465627194">
        <ele>2570.6999999999998</ele>
        <time>2012-07-23T12:36:24Z</time>
      </trkpt>
      <trkpt lat="46.08190949074924" lon="7.291871616616845">
        <ele>2570.2199999999998</ele>
        <time>2012-07-23T12:36:25Z</time>
      </trkpt>
      <trkpt lat="46.081984676420689" lon="7.291833143681288">
        <ele>2568.7800000000002</ele>
        <time>2012-07-23T12:36:26Z</time>
      </trkpt>
      <trkpt lat="46.082060197368264" lon="7.291800370439887">
        <ele>2567.8200000000002</ele>
        <time>2012-07-23T12:36:27Z</time>
      </trkpt>
      <trkpt lat="46.082332860678434" lon="7.291707415133715">
        <ele>2563.4899999999998</ele>
        <time>2012-07-23T12:36:31Z</time>
      </trkpt>
      <trkpt lat="46.08239907771349" lon="7.291666762903333">
        <ele>2562.5300000000002</ele>
        <time>2012-07-23T12:36:32Z</time>
      </trkpt>
      <trkpt lat="46.082456912845373" lon="7.291610017418861">
        <ele>2561.5700000000002</ele>
        <time>2012-07-23T12:36:33Z</time>
      </trkpt>
      <trkpt lat="46.082789590582252" lon="7.29133827611804">
        <ele>2555.3200000000002</ele>
        <time>2012-07-23T12:36:39Z</time>
      </trkpt>
      <trkpt lat="46.082854215055704" lon="7.291318662464619">
        <ele>2554.3600000000001</ele>
        <time>2012-07-23T12:36:40Z</time>
      </trkpt>
      <trkpt lat="46.082918671891093" lon="7.291308604180813">
        <ele>2553.4000000000001</ele>
        <time>2012-07-23T12:36:41Z</time>
      </trkpt>
      <trkpt lat="46.083039455115795" lon="7.291283207014203">
        <ele>2551.48</ele>
        <time>2012-07-23T12:36:43Z</time>
      </trkpt>
      <trkpt lat="46.0830910038203" lon="7.291250266134739">
        <ele>2550.5100000000002</ele>
        <time>2012-07-23T12:36:44Z</time>
      </trkpt>
      <trkpt lat="46.083136601373553" lon="7.29120341129601">
        <ele>2550.0300000000002</ele>
        <time>2012-07-23T12:36:45Z</time>
      </trkpt>
      <trkpt lat="46.083179349079728" lon="7.291140547022224">
        <ele>2549.0700000000002</ele>
        <time>2012-07-23T12:36:46Z</time>
      </trkpt>
      <trkpt lat="46.083220085129142" lon="7.291062595322728">
        <ele>2548.1100000000001</ele>
        <time>2012-07-23T12:36:47Z</time>
      </trkpt>
      <trkpt lat="46.083264425396919" lon="7.290973914787173">
        <ele>2547.1500000000001</ele>
        <time>2012-07-23T12:36:48Z</time>
      </trkpt>
      <trkpt lat="46.083539268001914" lon="7.290298752486706">
        <ele>2539.46</ele>
        <time>2012-07-23T12:36:55Z</time>
      </trkpt>
      <trkpt lat="46.083970936015248" lon="7.289449917152524">
        <ele>2528.8899999999999</ele>
        <time>2012-07-23T12:37:06Z</time>
      </trkpt>
      <trkpt lat="46.084075877442956" lon="7.289206758141518">
        <ele>2526.48</ele>
        <time>2012-07-23T12:37:09Z</time>
      </trkpt>
      <trkpt lat="46.084099011495709" lon="7.289119670167565">
        <ele>2525.52</ele>
        <time>2012-07-23T12:37:10Z</time>
      </trkpt>
      <trkpt lat="46.084117535501719" lon="7.289030570536852">
        <ele>2525.04</ele>
        <time>2012-07-23T12:37:11Z</time>
      </trkpt>
      <trkpt lat="46.084127593785524" lon="7.288941470906138">
        <ele>2524.0799999999999</ele>
        <time>2012-07-23T12:37:12Z</time>
      </trkpt>
      <trkpt lat="46.084132455289364" lon="7.288842732086778">
        <ele>2523.5999999999999</ele>
        <time>2012-07-23T12:37:13Z</time>
      </trkpt>
      <trkpt lat="46.084130275994539" lon="7.288746675476432">
        <ele>2522.6399999999999</ele>
        <time>2012-07-23T12:37:14Z</time>
      </trkpt>
      <trkpt lat="46.084187440574169" lon="7.287748139351606">
        <ele>2514.9499999999998</ele>
        <time>2012-07-23T12:37:25Z</time>
      </trkpt>
      <trkpt lat="46.084204372018576" lon="7.287621991708875">
        <ele>2513.5</ele>
        <time>2012-07-23T12:37:27Z</time>
      </trkpt>
      <trkpt lat="46.084219375625253" lon="7.287558959797025">
        <ele>2512.54</ele>
        <time>2012-07-23T12:37:28Z</time>
      </trkpt>
      <trkpt lat="46.084410650655627" lon="7.28662152774632">
        <ele>2503.4099999999999</ele>
        <time>2012-07-23T12:37:40Z</time>
      </trkpt>
      <trkpt lat="46.08447334729135" lon="7.286350959911943">
        <ele>2500.5300000000002</ele>
        <time>2012-07-23T12:37:43Z</time>
      </trkpt>
      <trkpt lat="46.084485584869981" lon="7.286257417872548">
        <ele>2499.5700000000002</ele>
        <time>2012-07-23T12:37:44Z</time>
      </trkpt>
      <trkpt lat="46.084728324785829" lon="7.285303892567754">
        <ele>2490.9099999999999</ele>
        <time>2012-07-23T12:37:55Z</time>
      </trkpt>
      <trkpt lat="46.084771491587162" lon="7.285175062716007">
        <ele>2488.9899999999998</ele>
        <time>2012-07-23T12:37:57Z</time>
      </trkpt>
      <trkpt lat="46.085024960339069" lon="7.284613726660609">
        <ele>2482.7399999999998</ele>
        <time>2012-07-23T12:38:09Z</time>
      </trkpt>
      <trkpt lat="46.085036778822541" lon="7.284573409706354">
        <ele>2481.7800000000002</ele>
        <time>2012-07-23T12:38:10Z</time>
      </trkpt>
      <trkpt lat="46.085032001137733" lon="7.284529572352767">
        <ele>2481.3000000000002</ele>
        <time>2012-07-23T12:38:11Z</time>
      </trkpt>
      <trkpt lat="46.085011465474963" lon="7.284497637301683">
        <ele>2480.8200000000002</ele>
        <time>2012-07-23T12:38:12Z</time>
      </trkpt>
      <trkpt lat="46.084984643384814" lon="7.284488501027226">
        <ele>2480.3400000000001</ele>
        <time>2012-07-23T12:38:13Z</time>
      </trkpt>
      <trkpt lat="46.084954217076302" lon="7.28450627066195">
        <ele>2479.8600000000001</ele>
        <time>2012-07-23T12:38:14Z</time>
      </trkpt>
      <trkpt lat="46.084921527653933" lon="7.284547844901681">
        <ele>2479.3800000000001</ele>
        <time>2012-07-23T12:38:15Z</time>
      </trkpt>
      <trkpt lat="46.084885150194168" lon="7.284600818529725">
        <ele>2478.9000000000001</ele>
        <time>2012-07-23T12:38:16Z</time>
      </trkpt>
      <trkpt lat="46.084843156859279" lon="7.284657396376133">
        <ele>2478.4200000000001</ele>
        <time>2012-07-23T12:38:17Z</time>
      </trkpt>
      <trkpt lat="46.084754141047597" lon="7.284751189872623">
        <ele>2476.9699999999998</ele>
        <time>2012-07-23T12:38:19Z</time>
      </trkpt>
      <trkpt lat="46.08470787294209" lon="7.28478329256177">
        <ele>2476.4899999999998</ele>
        <time>2012-07-23T12:38:20Z</time>
      </trkpt>
      <trkpt lat="46.084664203226566" lon="7.284818664193153">
        <ele>2475.5300000000002</ele>
        <time>2012-07-23T12:38:21Z</time>
      </trkpt>
      <trkpt lat="46.084622126072645" lon="7.284854538738728">
        <ele>2474.5700000000002</ele>
        <time>2012-07-23T12:38:22Z</time>
      </trkpt>
      <trkpt lat="46.08457837253809" lon="7.284886725246906">
        <ele>2473.6100000000001</ele>
        <time>2012-07-23T12:38:23Z</time>
      </trkpt>
      <trkpt lat="46.084539480507374" lon="7.2849250305444">
        <ele>2472.6500000000001</ele>
        <time>2012-07-23T12:38:24Z</time>
      </trkpt>
      <trkpt lat="46.084510562941432" lon="7.284966688603163">
        <ele>2472.1700000000001</ele>
        <time>2012-07-23T12:38:25Z</time>
      </trkpt>
      <trkpt lat="46.084487847983837" lon="7.284994432702661">
        <ele>2471.21</ele>
        <time>2012-07-23T12:38:26Z</time>
      </trkpt>
      <trkpt lat="46.084465468302369" lon="7.284999629482627">
        <ele>2470.73</ele>
        <time>2012-07-23T12:38:27Z</time>
      </trkpt>
      <trkpt lat="46.084448955953121" lon="7.284984039142728">
        <ele>2470.2399999999998</ele>
        <time>2012-07-23T12:38:28Z</time>
      </trkpt>
      <trkpt lat="46.084452224895358" lon="7.284913714975119">
        <ele>2469.2800000000002</ele>
        <time>2012-07-23T12:38:30Z</time>
      </trkpt>
      <trkpt lat="46.084469072520733" lon="7.284872392192483">
        <ele>2468.8000000000002</ele>
        <time>2012-07-23T12:38:31Z</time>
      </trkpt>
      <trkpt lat="46.084490865468979" lon="7.284829476848245">
        <ele>2468.3200000000002</ele>
        <time>2012-07-23T12:38:32Z</time>
      </trkpt>
      <trkpt lat="46.084786243736744" lon="7.2843362018466">
        <ele>2464</ele>
        <time>2012-07-23T12:38:42Z</time>
      </trkpt>
      <trkpt lat="46.084939297288656" lon="7.283999165520072">
        <ele>2462.5500000000002</ele>
        <time>2012-07-23T12:38:51Z</time>
      </trkpt>
      <trkpt lat="46.084976177662611" lon="7.283664979040623">
        <ele>2461.5900000000001</ele>
        <time>2012-07-23T12:38:56Z</time>
      </trkpt>
      <trkpt lat="46.084989923983812" lon="7.282703155651689">
        <ele>2456.3099999999999</ele>
        <time>2012-07-23T12:39:07Z</time>
      </trkpt>
      <trkpt lat="46.084857070818543" lon="7.282308116555214">
        <ele>2452.9400000000001</ele>
        <time>2012-07-23T12:39:13Z</time>
      </trkpt>
      <trkpt lat="46.084729917347431" lon="7.282135700806975">
        <ele>2452.9400000000001</ele>
        <time>2012-07-23T12:39:16Z</time>
      </trkpt>
      <trkpt lat="46.084648109972477" lon="7.281932858750224">
        <ele>2452.46</ele>
        <time>2012-07-23T12:39:19Z</time>
      </trkpt>
      <trkpt lat="46.084697227925062" lon="7.281639827415347">
        <ele>2451.02</ele>
        <time>2012-07-23T12:39:23Z</time>
      </trkpt>
      <trkpt lat="46.084776856005192" lon="7.281504040583968">
        <ele>2449.5799999999999</ele>
        <time>2012-07-23T12:39:25Z</time>
      </trkpt>
      <trkpt lat="46.08491213992238" lon="7.281330954283476">
        <ele>2448.1300000000001</ele>
        <time>2012-07-23T12:39:28Z</time>
      </trkpt>
      <trkpt lat="46.08508019708097" lon="7.281192652881146">
        <ele>2445.73</ele>
        <time>2012-07-23T12:39:31Z</time>
      </trkpt>
      <trkpt lat="46.085217660292983" lon="7.280669873580337">
        <ele>2439.96</ele>
        <time>2012-07-23T12:39:38Z</time>
      </trkpt>
      <trkpt lat="46.085360068827868" lon="7.279894798994064">
        <ele>2434.6799999999998</ele>
        <time>2012-07-23T12:39:46Z</time>
      </trkpt>
      <trkpt lat="46.085284883156419" lon="7.279283339157701">
        <ele>2428.9099999999999</ele>
        <time>2012-07-23T12:39:53Z</time>
      </trkpt>
      <trkpt lat="46.085264347493649" lon="7.279155179858208">
        <ele>2427.4699999999998</ele>
        <time>2012-07-23T12:39:55Z</time>
      </trkpt>
      <trkpt lat="46.085205757990479" lon="7.278909841552377">
        <ele>2423.6199999999999</ele>
        <time>2012-07-23T12:39:59Z</time>
      </trkpt>
      <trkpt lat="46.085145073011518" lon="7.278568698093295">
        <ele>2417.3699999999999</ele>
        <time>2012-07-23T12:40:04Z</time>
      </trkpt>
      <trkpt lat="46.085080113261938" lon="7.27813258767128">
        <ele>2408.7199999999998</ele>
        <time>2012-07-23T12:40:10Z</time>
      </trkpt>
      <trkpt lat="46.084994617849588" lon="7.277442254126072">
        <ele>2393.8200000000002</ele>
        <time>2012-07-23T12:40:20Z</time>
      </trkpt>
      <trkpt lat="46.085009118542075" lon="7.276663994416595">
        <ele>2379.8800000000001</ele>
        <time>2012-07-23T12:40:29Z</time>
      </trkpt>
      <trkpt lat="46.08497709967196" lon="7.276327544823289">
        <ele>2375.5500000000002</ele>
        <time>2012-07-23T12:40:34Z</time>
      </trkpt>
      <trkpt lat="46.084913900122046" lon="7.276114309206605">
        <ele>2372.1900000000001</ele>
        <time>2012-07-23T12:40:38Z</time>
      </trkpt>
      <trkpt lat="46.084805773571134" lon="7.275849441066384">
        <ele>2365.9400000000001</ele>
        <time>2012-07-23T12:40:43Z</time>
      </trkpt>
      <trkpt lat="46.084764953702688" lon="7.275471836328507">
        <ele>2358.25</ele>
        <time>2012-07-23T12:40:49Z</time>
      </trkpt>
      <trkpt lat="46.08477434143424" lon="7.275323392823339">
        <ele>2356.8099999999999</ele>
        <time>2012-07-23T12:40:51Z</time>
      </trkpt>
      <trkpt lat="46.084746848791838" lon="7.275101942941546">
        <ele>2355.3699999999999</ele>
        <time>2012-07-23T12:40:54Z</time>
      </trkpt>
      <trkpt lat="46.084641152992845" lon="7.274830872192979">
        <ele>2353.9299999999998</ele>
        <time>2012-07-23T12:40:58Z</time>
      </trkpt>
      <trkpt lat="46.084291292354465" lon="7.274323683232069">
        <ele>2352</ele>
        <time>2012-07-23T12:41:06Z</time>
      </trkpt>
      <trkpt lat="46.08413421548903" lon="7.274166019633412">
        <ele>2350.5599999999999</ele>
        <time>2012-07-23T12:41:10Z</time>
      </trkpt>
      <trkpt lat="46.084003793075681" lon="7.273581298068166">
        <ele>2348.1599999999999</ele>
        <time>2012-07-23T12:41:19Z</time>
      </trkpt>
      <trkpt lat="46.08401644974947" lon="7.273469064384699">
        <ele>2347.6799999999998</ele>
        <time>2012-07-23T12:41:21Z</time>
      </trkpt>
      <trkpt lat="46.084032878279686" lon="7.273269407451153">
        <ele>2346.23</ele>
        <time>2012-07-23T12:41:24Z</time>
      </trkpt>
      <trkpt lat="46.084119714796543" lon="7.273003784939647">
        <ele>2344.3099999999999</ele>
        <time>2012-07-23T12:41:28Z</time>
      </trkpt>
      <trkpt lat="46.084172520786524" lon="7.272890545427799">
        <ele>2342.8699999999999</ele>
        <time>2012-07-23T12:41:30Z</time>
      </trkpt>
      <trkpt lat="46.084129689261317" lon="7.272215550765395">
        <ele>2334.2199999999998</ele>
        <time>2012-07-23T12:41:39Z</time>
      </trkpt>
      <trkpt lat="46.084074368700385" lon="7.272047242149711">
        <ele>2332.7800000000002</ele>
        <time>2012-07-23T12:41:42Z</time>
      </trkpt>
      <trkpt lat="46.084057185798883" lon="7.271926794201136">
        <ele>2332.3000000000002</ele>
        <time>2012-07-23T12:41:44Z</time>
      </trkpt>
      <trkpt lat="46.083977809175849" lon="7.271609120070934">
        <ele>2329.8899999999999</ele>
        <time>2012-07-23T12:41:48Z</time>
      </trkpt>
      <trkpt lat="46.083717048168182" lon="7.271197652444243">
        <ele>2324.6100000000001</ele>
        <time>2012-07-23T12:41:58Z</time>
      </trkpt>
      <trkpt lat="46.083518145605922" lon="7.271055495366454">
        <ele>2321.7199999999998</ele>
        <time>2012-07-23T12:42:03Z</time>
      </trkpt>
      <trkpt lat="46.083486629649997" lon="7.271017273887992">
        <ele>2321.2399999999998</ele>
        <time>2012-07-23T12:42:04Z</time>
      </trkpt>
      <trkpt lat="46.083463663235307" lon="7.270970419049263">
        <ele>2320.7600000000002</ele>
        <time>2012-07-23T12:42:05Z</time>
      </trkpt>
      <trkpt lat="46.083442289382219" lon="7.27091358974576">
        <ele>2320.2800000000002</ele>
        <time>2012-07-23T12:42:06Z</time>
      </trkpt>
      <trkpt lat="46.083414880558848" lon="7.270846199244261">
        <ele>2319.3200000000002</ele>
        <time>2012-07-23T12:42:07Z</time>
      </trkpt>
      <trkpt lat="46.08338319696486" lon="7.270773276686668">
        <ele>2318.8400000000001</ele>
        <time>2012-07-23T12:42:08Z</time>
      </trkpt>
      <trkpt lat="46.08329719863832" lon="7.270557442680001">
        <ele>2317.4000000000001</ele>
        <time>2012-07-23T12:42:11Z</time>
      </trkpt>
      <trkpt lat="46.083255540579557" lon="7.270486950874329">
        <ele>2316.9099999999999</ele>
        <time>2012-07-23T12:42:12Z</time>
      </trkpt>
      <trkpt lat="46.083105253055692" lon="7.270293664187193">
        <ele>2315.9499999999998</ele>
        <time>2012-07-23T12:42:15Z</time>
      </trkpt>
      <trkpt lat="46.083055548369884" lon="7.2702397685498">
        <ele>2315.4699999999998</ele>
        <time>2012-07-23T12:42:16Z</time>
      </trkpt>
      <trkpt lat="46.083008274435997" lon="7.27019090205431">
        <ele>2315.4699999999998</ele>
        <time>2012-07-23T12:42:17Z</time>
      </trkpt>
      <trkpt lat="46.082967622205615" lon="7.270141867920756">
        <ele>2314.9899999999998</ele>
        <time>2012-07-23T12:42:18Z</time>
      </trkpt>
      <trkpt lat="46.082894951105118" lon="7.270052684471011">
        <ele>2314.5100000000002</ele>
        <time>2012-07-23T12:42:20Z</time>
      </trkpt>
      <trkpt lat="46.082857064902782" lon="7.270015887916088">
        <ele>2314.0300000000002</ele>
        <time>2012-07-23T12:42:21Z</time>
      </trkpt>
      <trkpt lat="46.082815155386925" lon="7.269980600103736">
        <ele>2313.0700000000002</ele>
        <time>2012-07-23T12:42:22Z</time>
      </trkpt>
      <trkpt lat="46.082434616982937" lon="7.269758563488722">
        <ele>2306.8200000000002</ele>
        <time>2012-07-23T12:42:28Z</time>
      </trkpt>
      <trkpt lat="46.08236194588244" lon="7.269732914865017">
        <ele>2306.3400000000001</ele>
        <time>2012-07-23T12:42:29Z</time>
      </trkpt>
      <trkpt lat="46.082022646442056" lon="7.269614059478045">
        <ele>2303.9400000000001</ele>
        <time>2012-07-23T12:42:34Z</time>
      </trkpt>
      <trkpt lat="46.081962464377284" lon="7.269596792757511">
        <ele>2303.46</ele>
        <time>2012-07-23T12:42:35Z</time>
      </trkpt>
      <trkpt lat="46.081857355311513" lon="7.269574999809265">
        <ele>2302.0100000000002</ele>
        <time>2012-07-23T12:42:37Z</time>
      </trkpt>
      <trkpt lat="46.081396518275142" lon="7.269447091966867">
        <ele>2294.8000000000002</ele>
        <time>2012-07-23T12:42:48Z</time>
      </trkpt>
      <trkpt lat="46.081371456384659" lon="7.269397219642997">
        <ele>2294.8000000000002</ele>
        <time>2012-07-23T12:42:49Z</time>
      </trkpt>
      <trkpt lat="46.08130264095962" lon="7.269202591851354">
        <ele>2291.9200000000001</ele>
        <time>2012-07-23T12:42:52Z</time>
      </trkpt>
      <trkpt lat="46.08128503896296" lon="7.26912179030478">
        <ele>2290.96</ele>
        <time>2012-07-23T12:42:53Z</time>
      </trkpt>
      <trkpt lat="46.081277159973979" lon="7.269034786149859">
        <ele>2289.52</ele>
        <time>2012-07-23T12:42:54Z</time>
      </trkpt>
      <trkpt lat="46.081277159973979" lon="7.268940405920148">
        <ele>2288.0799999999999</ele>
        <time>2012-07-23T12:42:55Z</time>
      </trkpt>
      <trkpt lat="46.08127573505044" lon="7.268841750919819">
        <ele>2286.6300000000001</ele>
        <time>2012-07-23T12:42:56Z</time>
      </trkpt>
      <trkpt lat="46.081268610432744" lon="7.268743263557553">
        <ele>2285.1900000000001</ele>
        <time>2012-07-23T12:42:57Z</time>
      </trkpt>
      <trkpt lat="46.081251930445433" lon="7.26865072734654">
        <ele>2284.23</ele>
        <time>2012-07-23T12:42:58Z</time>
      </trkpt>
      <trkpt lat="46.081218402832747" lon="7.268573697656393">
        <ele>2283.75</ele>
        <time>2012-07-23T12:42:59Z</time>
      </trkpt>
      <trkpt lat="46.081170793622732" lon="7.268512928858399">
        <ele>2283.27</ele>
        <time>2012-07-23T12:43:00Z</time>
      </trkpt>
      <trkpt lat="46.081116814166307" lon="7.268467582762241">
        <ele>2282.79</ele>
        <time>2012-07-23T12:43:01Z</time>
      </trkpt>
      <trkpt lat="46.08106316998601" lon="7.268436066806316">
        <ele>2282.3099999999999</ele>
        <time>2012-07-23T12:43:02Z</time>
      </trkpt>
      <trkpt lat="46.081012794747949" lon="7.268421817570925">
        <ele>2281.3499999999999</ele>
        <time>2012-07-23T12:43:03Z</time>
      </trkpt>
      <trkpt lat="46.080961916595697" lon="7.268430618569255">
        <ele>2280.8699999999999</ele>
        <time>2012-07-23T12:43:04Z</time>
      </trkpt>
      <trkpt lat="46.080907601863146" lon="7.268453165888786">
        <ele>2279.9000000000001</ele>
        <time>2012-07-23T12:43:05Z</time>
      </trkpt>
      <trkpt lat="46.080852029845119" lon="7.268488705158234">
        <ele>2278.9400000000001</ele>
        <time>2012-07-23T12:43:06Z</time>
      </trkpt>
      <trkpt lat="46.080807270482183" lon="7.268538745120168">
        <ele>2278.46</ele>
        <time>2012-07-23T12:43:07Z</time>
      </trkpt>
      <trkpt lat="46.080777766183019" lon="7.26859213784337">
        <ele>2277.5</ele>
        <time>2012-07-23T12:43:08Z</time>
      </trkpt>
      <trkpt lat="46.08053645119071" lon="7.268940741196275">
        <ele>2271.25</ele>
        <time>2012-07-23T12:43:18Z</time>
      </trkpt>
      <trkpt lat="46.080505270510912" lon="7.268933448940516">
        <ele>2270.77</ele>
        <time>2012-07-23T12:43:19Z</time>
      </trkpt>
      <trkpt lat="46.080467635765672" lon="7.268904866650701">
        <ele>2269.8099999999999</ele>
        <time>2012-07-23T12:43:20Z</time>
      </trkpt>
      <trkpt lat="46.080430839210749" lon="7.268861029297113">
        <ele>2269.8099999999999</ele>
        <time>2012-07-23T12:43:21Z</time>
      </trkpt>
      <trkpt lat="46.080395886674523" lon="7.268810989335179">
        <ele>2269.3299999999999</ele>
        <time>2012-07-23T12:43:22Z</time>
      </trkpt>
      <trkpt lat="46.080361269414425" lon="7.268760446459055">
        <ele>2268.8499999999999</ele>
        <time>2012-07-23T12:43:23Z</time>
      </trkpt>
      <trkpt lat="46.08012842014432" lon="7.268368257209659">
        <ele>2267.8899999999999</ele>
        <time>2012-07-23T12:43:30Z</time>
      </trkpt>
      <trkpt lat="46.080110231414437" lon="7.268291478976607">
        <ele>2267.4099999999999</ele>
        <time>2012-07-23T12:43:31Z</time>
      </trkpt>
      <trkpt lat="46.080108303576708" lon="7.268209839239717">
        <ele>2267.4099999999999</ele>
        <time>2012-07-23T12:43:32Z</time>
      </trkpt>
      <trkpt lat="46.080125821754336" lon="7.268134905025363">
        <ele>2266.9299999999998</ele>
        <time>2012-07-23T12:43:33Z</time>
      </trkpt>
      <trkpt lat="46.08016069047153" lon="7.26806927472353">
        <ele>2266.9299999999998</ele>
        <time>2012-07-23T12:43:34Z</time>
      </trkpt>
      <trkpt lat="46.080206790938973" lon="7.26801454089582">
        <ele>2266.4499999999998</ele>
        <time>2012-07-23T12:43:35Z</time>
      </trkpt>
      <trkpt lat="46.080255657434464" lon="7.267957711592317">
        <ele>2265.96</ele>
        <time>2012-07-23T12:43:36Z</time>
      </trkpt>
      <trkpt lat="46.080302847549319" lon="7.267886968329549">
        <ele>2265.48</ele>
        <time>2012-07-23T12:43:37Z</time>
      </trkpt>
      <trkpt lat="46.080343080684543" lon="7.26780055090785">
        <ele>2264.52</ele>
        <time>2012-07-23T12:43:38Z</time>
      </trkpt>
      <trkpt lat="46.080371495336294" lon="7.267700135707855">
        <ele>2264.04</ele>
        <time>2012-07-23T12:43:39Z</time>
      </trkpt>
      <trkpt lat="46.080383649095893" lon="7.267588069662452">
        <ele>2263.0799999999999</ele>
        <time>2012-07-23T12:43:40Z</time>
      </trkpt>
      <trkpt lat="46.080381972715259" lon="7.26746829226613">
        <ele>2262.5999999999999</ele>
        <time>2012-07-23T12:43:41Z</time>
      </trkpt>
      <trkpt lat="46.080376273021102" lon="7.267346922308207">
        <ele>2262.1199999999999</ele>
        <time>2012-07-23T12:43:42Z</time>
      </trkpt>
      <trkpt lat="46.080383062362671" lon="7.266881810501218">
        <ele>2259.2399999999998</ele>
        <time>2012-07-23T12:43:46Z</time>
      </trkpt>
      <trkpt lat="46.080362610518932" lon="7.266774019226432">
        <ele>2258.75</ele>
        <time>2012-07-23T12:43:47Z</time>
      </trkpt>
      <trkpt lat="46.080330172553658" lon="7.266669915989041">
        <ele>2258.27</ele>
        <time>2012-07-23T12:43:48Z</time>
      </trkpt>
      <trkpt lat="46.080248951911926" lon="7.266465732827783">
        <ele>2256.8299999999999</ele>
        <time>2012-07-23T12:43:50Z</time>
      </trkpt>
      <trkpt lat="46.080035297200084" lon="7.266096090897918">
        <ele>2253.9499999999998</ele>
        <time>2012-07-23T12:43:54Z</time>
      </trkpt>
      <trkpt lat="46.079995986074209" lon="7.265998693183065">
        <ele>2252.9899999999998</ele>
        <time>2012-07-23T12:43:55Z</time>
      </trkpt>
      <trkpt lat="46.079965811222792" lon="7.265894422307611">
        <ele>2252.5100000000002</ele>
        <time>2012-07-23T12:43:56Z</time>
      </trkpt>
      <trkpt lat="46.079886350780725" lon="7.2654511872679">
        <ele>2251.0599999999999</ele>
        <time>2012-07-23T12:44:00Z</time>
      </trkpt>
      <trkpt lat="46.079883668571711" lon="7.265341132879257">
        <ele>2251.0599999999999</ele>
        <time>2012-07-23T12:44:01Z</time>
      </trkpt>
      <trkpt lat="46.079889284446836" lon="7.265237867832184">
        <ele>2250.5799999999999</ele>
        <time>2012-07-23T12:44:02Z</time>
      </trkpt>
      <trkpt lat="46.079903952777386" lon="7.265141727402806">
        <ele>2250.5799999999999</ele>
        <time>2012-07-23T12:44:03Z</time>
      </trkpt>
      <trkpt lat="46.079927589744329" lon="7.265055561438203">
        <ele>2250.5799999999999</ele>
        <time>2012-07-23T12:44:04Z</time>
      </trkpt>
      <trkpt lat="46.079954663291574" lon="7.26497333496809">
        <ele>2250.0999999999999</ele>
        <time>2012-07-23T12:44:05Z</time>
      </trkpt>
      <trkpt lat="46.0799774620682" lon="7.264893371611834">
        <ele>2250.0999999999999</ele>
        <time>2012-07-23T12:44:06Z</time>
      </trkpt>
      <trkpt lat="46.079991376027465" lon="7.264813994988799">
        <ele>2249.6199999999999</ele>
        <time>2012-07-23T12:44:07Z</time>
      </trkpt>
      <trkpt lat="46.079997159540653" lon="7.264734618365765">
        <ele>2250.0999999999999</ele>
        <time>2012-07-23T12:44:08Z</time>
      </trkpt>
      <trkpt lat="46.079996237531304" lon="7.264658678323031">
        <ele>2250.0999999999999</ele>
        <time>2012-07-23T12:44:09Z</time>
      </trkpt>
      <trkpt lat="46.079990789294243" lon="7.264585504308343">
        <ele>2250.0999999999999</ele>
        <time>2012-07-23T12:44:10Z</time>
      </trkpt>
      <trkpt lat="46.079984921962023" lon="7.264513503760099">
        <ele>2250.0999999999999</ele>
        <time>2012-07-23T12:44:11Z</time>
      </trkpt>
      <trkpt lat="46.079982239753008" lon="7.264442844316363">
        <ele>2250.5799999999999</ele>
        <time>2012-07-23T12:44:12Z</time>
      </trkpt>
      <trkpt lat="46.079984167590737" lon="7.264298507943749">
        <ele>2250.0999999999999</ele>
        <time>2012-07-23T12:44:14Z</time>
      </trkpt>
      <trkpt lat="46.079993136227131" lon="7.264224328100681">
        <ele>2250.0999999999999</ele>
        <time>2012-07-23T12:44:15Z</time>
      </trkpt>
      <trkpt lat="46.080064130946994" lon="7.263862984254956">
        <ele>2249.1399999999999</ele>
        <time>2012-07-23T12:44:20Z</time>
      </trkpt>
      <trkpt lat="46.080266637727618" lon="7.263141721487045">
        <ele>2247.6999999999998</ele>
        <time>2012-07-23T12:44:30Z</time>
      </trkpt>
      <trkpt lat="46.080454979091883" lon="7.262623887509108">
        <ele>2245.7800000000002</ele>
        <time>2012-07-23T12:44:38Z</time>
      </trkpt>
      <trkpt lat="46.080493116751313" lon="7.262478461489081">
        <ele>2245.3000000000002</ele>
        <time>2012-07-23T12:44:40Z</time>
      </trkpt>
      <trkpt lat="46.080505354329944" lon="7.262401347979903">
        <ele>2245.3000000000002</ele>
        <time>2012-07-23T12:44:41Z</time>
      </trkpt>
      <trkpt lat="46.080510383471847" lon="7.262322222813964">
        <ele>2245.3000000000002</ele>
        <time>2012-07-23T12:44:42Z</time>
      </trkpt>
      <trkpt lat="46.0805110540241" lon="7.262244606390595">
        <ele>2245.3000000000002</ele>
        <time>2012-07-23T12:44:43Z</time>
      </trkpt>
      <trkpt lat="46.080511640757322" lon="7.262167492881417">
        <ele>2244.8200000000002</ele>
        <time>2012-07-23T12:44:44Z</time>
      </trkpt>
      <trkpt lat="46.080517256632447" lon="7.262089625000954">
        <ele>2244.8200000000002</ele>
        <time>2012-07-23T12:44:45Z</time>
      </trkpt>
      <trkpt lat="46.080525470897555" lon="7.262013936415315">
        <ele>2245.3000000000002</ele>
        <time>2012-07-23T12:44:46Z</time>
      </trkpt>
      <trkpt lat="46.080537959933281" lon="7.261939253658056">
        <ele>2244.8200000000002</ele>
        <time>2012-07-23T12:44:47Z</time>
      </trkpt>
      <trkpt lat="46.080554891377687" lon="7.26186566054821">
        <ele>2244.8200000000002</ele>
        <time>2012-07-23T12:44:48Z</time>
      </trkpt>
      <trkpt lat="46.080577857792377" lon="7.261792486533523">
        <ele>2244.3299999999999</ele>
        <time>2012-07-23T12:44:49Z</time>
      </trkpt>
      <trkpt lat="46.08063418418169" lon="7.261656867340207">
        <ele>2243.8499999999999</ele>
        <time>2012-07-23T12:44:51Z</time>
      </trkpt>
      <trkpt lat="46.080669891089201" lon="7.261597607284784">
        <ele>2243.8499999999999</ele>
        <time>2012-07-23T12:44:52Z</time>
      </trkpt>
      <trkpt lat="46.080706520006061" lon="7.261539353057742">
        <ele>2243.8499999999999</ele>
        <time>2012-07-23T12:44:53Z</time>
      </trkpt>
      <trkpt lat="46.080811377614737" lon="7.261351766064763">
        <ele>2243.3699999999999</ele>
        <time>2012-07-23T12:44:56Z</time>
      </trkpt>
      <trkpt lat="46.081018913537264" lon="7.26075497455895">
        <ele>2243.3699999999999</ele>
        <time>2012-07-23T12:45:04Z</time>
      </trkpt>
      <trkpt lat="46.081030061468482" lon="7.2606694791466">
        <ele>2243.3699999999999</ele>
        <time>2012-07-23T12:45:05Z</time>
      </trkpt>
      <trkpt lat="46.081096362322569" lon="7.260094983503223">
        <ele>2244.3299999999999</ele>
        <time>2012-07-23T12:45:12Z</time>
      </trkpt>
      <trkpt lat="46.081097535789013" lon="7.260013008490205">
        <ele>2244.3299999999999</ele>
        <time>2012-07-23T12:45:13Z</time>
      </trkpt>
      <trkpt lat="46.081094266846776" lon="7.259933715686202">
        <ele>2244.3299999999999</ele>
        <time>2012-07-23T12:45:14Z</time>
      </trkpt>
      <trkpt lat="46.081085214391351" lon="7.259859535843134">
        <ele>2244.3299999999999</ele>
        <time>2012-07-23T12:45:15Z</time>
      </trkpt>
      <trkpt lat="46.08107247389853" lon="7.25978946313262">
        <ele>2244.8200000000002</ele>
        <time>2012-07-23T12:45:16Z</time>
      </trkpt>
      <trkpt lat="46.081080185249448" lon="7.258738791570067">
        <ele>2246.2600000000002</ele>
        <time>2012-07-23T12:45:30Z</time>
      </trkpt>
      <trkpt lat="46.081273639574647" lon="7.257959023118019">
        <ele>2244.8200000000002</ele>
        <time>2012-07-23T12:45:41Z</time>
      </trkpt>
      <trkpt lat="46.081303982064128" lon="7.257895823568106">
        <ele>2244.3299999999999</ele>
        <time>2012-07-23T12:45:42Z</time>
      </trkpt>
      <trkpt lat="46.081342538818717" lon="7.257839497178793">
        <ele>2243.8499999999999</ele>
        <time>2012-07-23T12:45:43Z</time>
      </trkpt>
      <trkpt lat="46.081388304010034" lon="7.25779339671135">
        <ele>2243.3699999999999</ele>
        <time>2012-07-23T12:45:44Z</time>
      </trkpt>
      <trkpt lat="46.081437841057777" lon="7.257752576842904">
        <ele>2243.3699999999999</ele>
        <time>2012-07-23T12:45:45Z</time>
      </trkpt>
      <trkpt lat="46.081488216295838" lon="7.257715025916696">
        <ele>2242.8899999999999</ele>
        <time>2012-07-23T12:45:46Z</time>
      </trkpt>
      <trkpt lat="46.081644371151924" lon="7.257637577131391">
        <ele>2243.3699999999999</ele>
        <time>2012-07-23T12:45:49Z</time>
      </trkpt>
      <trkpt lat="46.081805219873786" lon="7.257597092539072">
        <ele>2242.8899999999999</ele>
        <time>2012-07-23T12:45:52Z</time>
      </trkpt>
      <trkpt lat="46.081855678930879" lon="7.257573958486319">
        <ele>2242.8899999999999</ele>
        <time>2012-07-23T12:45:53Z</time>
      </trkpt>
      <trkpt lat="46.082080230116844" lon="7.257436579093337">
        <ele>2242.8899999999999</ele>
        <time>2012-07-23T12:45:58Z</time>
      </trkpt>
      <trkpt lat="46.082124905660748" lon="7.257413528859615">
        <ele>2242.8899999999999</ele>
        <time>2012-07-23T12:45:59Z</time>
      </trkpt>
      <trkpt lat="46.082308301702142" lon="7.257370026782155">
        <ele>2242.8899999999999</ele>
        <time>2012-07-23T12:46:03Z</time>
      </trkpt>
      <trkpt lat="46.082352222874761" lon="7.257372876629233">
        <ele>2242.8899999999999</ele>
        <time>2012-07-23T12:46:04Z</time>
      </trkpt>
      <trkpt lat="46.082396144047379" lon="7.257380168884993">
        <ele>2242.8899999999999</ele>
        <time>2012-07-23T12:46:05Z</time>
      </trkpt>
      <trkpt lat="46.082617593929172" lon="7.257389724254608">
        <ele>2242.4099999999999</ele>
        <time>2012-07-23T12:46:10Z</time>
      </trkpt>
      <trkpt lat="46.082663023844361" lon="7.257379414513707">
        <ele>2242.4099999999999</ele>
        <time>2012-07-23T12:46:11Z</time>
      </trkpt>
      <trkpt lat="46.082753967493773" lon="7.257350664585829">
        <ele>2242.4099999999999</ele>
        <time>2012-07-23T12:46:13Z</time>
      </trkpt>
      <trkpt lat="46.082797972485423" lon="7.257323758676648">
        <ele>2242.8899999999999</ele>
        <time>2012-07-23T12:46:14Z</time>
      </trkpt>
      <trkpt lat="46.082885144278407" lon="7.257258798927069">
        <ele>2243.3699999999999</ele>
        <time>2012-07-23T12:46:16Z</time>
      </trkpt>
      <trkpt lat="46.083376323804259" lon="7.256792932748795">
        <ele>2243.3699999999999</ele>
        <time>2012-07-23T12:46:28Z</time>
      </trkpt>
      <trkpt lat="46.083426112309098" lon="7.256767870858312">
        <ele>2242.8899999999999</ele>
        <time>2012-07-23T12:46:29Z</time>
      </trkpt>
      <trkpt lat="46.083477325737476" lon="7.256747670471668">
        <ele>2242.8899999999999</ele>
        <time>2012-07-23T12:46:30Z</time>
      </trkpt>
      <trkpt lat="46.083581931889057" lon="7.256722608581185">
        <ele>2242.8899999999999</ele>
        <time>2012-07-23T12:46:32Z</time>
      </trkpt>
      <trkpt lat="46.083636498078704" lon="7.256718836724758">
        <ele>2242.4099999999999</ele>
        <time>2012-07-23T12:46:33Z</time>
      </trkpt>
      <trkpt lat="46.083749150857329" lon="7.256728308275342">
        <ele>2242.4099999999999</ele>
        <time>2012-07-23T12:46:35Z</time>
      </trkpt>
      <trkpt lat="46.083864653483033" lon="7.256755298003554">
        <ele>2242.4099999999999</ele>
        <time>2012-07-23T12:46:37Z</time>
      </trkpt>
      <trkpt lat="46.083921734243631" lon="7.25678195245564">
        <ele>2242.4099999999999</ele>
        <time>2012-07-23T12:46:38Z</time>
      </trkpt>
      <trkpt lat="46.083976300433278" lon="7.256821179762483">
        <ele>2242.4099999999999</ele>
        <time>2012-07-23T12:46:39Z</time>
      </trkpt>
      <trkpt lat="46.084029860794544" lon="7.256864011287689">
        <ele>2242.4099999999999</ele>
        <time>2012-07-23T12:46:40Z</time>
      </trkpt>
      <trkpt lat="46.084085181355476" lon="7.256901813670993">
        <ele>2242.4099999999999</ele>
        <time>2012-07-23T12:46:41Z</time>
      </trkpt>
      <trkpt lat="46.084193894639611" lon="7.256984794512391">
        <ele>2242.4099999999999</ele>
        <time>2012-07-23T12:46:43Z</time>
      </trkpt>
      <trkpt lat="46.084244856610894" lon="7.257034247741103">
        <ele>2241.9299999999998</ele>
        <time>2012-07-23T12:46:44Z</time>
      </trkpt>
      <trkpt lat="46.084354408085346" lon="7.257123263552785">
        <ele>2241.9299999999998</ele>
        <time>2012-07-23T12:46:46Z</time>
      </trkpt>
      <trkpt lat="46.084416015073657" lon="7.257156791165471">
        <ele>2241.4499999999998</ele>
        <time>2012-07-23T12:46:47Z</time>
      </trkpt>
      <trkpt lat="46.084957486018538" lon="7.257377151399851">
        <ele>2239.5300000000002</ele>
        <time>2012-07-23T12:46:55Z</time>
      </trkpt>
      <trkpt lat="46.085032671689987" lon="7.257386120036244">
        <ele>2239.0500000000002</ele>
        <time>2012-07-23T12:46:56Z</time>
      </trkpt>
      <trkpt lat="46.085109198465943" lon="7.257382767274976">
        <ele>2238.5700000000002</ele>
        <time>2012-07-23T12:46:57Z</time>
      </trkpt>
      <trkpt lat="46.085594678297639" lon="7.257398860529065">
        <ele>2235.1999999999998</ele>
        <time>2012-07-23T12:47:03Z</time>
      </trkpt>
      <trkpt lat="46.085683275014162" lon="7.257387125864625">
        <ele>2234.7199999999998</ele>
        <time>2012-07-23T12:47:04Z</time>
      </trkpt>
      <trkpt lat="46.085771201178432" lon="7.257354855537415">
        <ele>2233.7600000000002</ele>
        <time>2012-07-23T12:47:05Z</time>
      </trkpt>
      <trkpt lat="46.08585418201983" lon="7.25730188190937">
        <ele>2232.8000000000002</ele>
        <time>2012-07-23T12:47:06Z</time>
      </trkpt>
      <trkpt lat="46.085936659947038" lon="7.257239688187838">
        <ele>2232.3200000000002</ele>
        <time>2012-07-23T12:47:07Z</time>
      </trkpt>
      <trkpt lat="46.086020143702626" lon="7.257169531658292">
        <ele>2231.3600000000001</ele>
        <time>2012-07-23T12:47:08Z</time>
      </trkpt>
      <trkpt lat="46.086100861430168" lon="7.257088227197528">
        <ele>2229.9200000000001</ele>
        <time>2012-07-23T12:47:09Z</time>
      </trkpt>
      <trkpt lat="46.086178394034505" lon="7.256999965757132">
        <ele>2229.4299999999998</ele>
        <time>2012-07-23T12:47:10Z</time>
      </trkpt>
      <trkpt lat="46.086252490058541" lon="7.256904412060976">
        <ele>2228.4699999999998</ele>
        <time>2012-07-23T12:47:11Z</time>
      </trkpt>
      <trkpt lat="46.086323820054531" lon="7.256799889728427">
        <ele>2227.5100000000002</ele>
        <time>2012-07-23T12:47:12Z</time>
      </trkpt>
      <trkpt lat="46.086396491155028" lon="7.25669008679688">
        <ele>2226.5500000000002</ele>
        <time>2012-07-23T12:47:13Z</time>
      </trkpt>
      <trkpt lat="46.087057404220104" lon="7.255576970055699">
        <ele>2217.9000000000001</ele>
        <time>2012-07-23T12:47:22Z</time>
      </trkpt>
      <trkpt lat="46.08711339533329" lon="7.255426766350865">
        <ele>2216.9400000000001</ele>
        <time>2012-07-23T12:47:23Z</time>
      </trkpt>
      <trkpt lat="46.08715639449656" lon="7.255266588181257">
        <ele>2215.98</ele>
        <time>2012-07-23T12:47:24Z</time>
      </trkpt>
      <trkpt lat="46.087590996176004" lon="7.253859853371978">
        <ele>2211.6500000000001</ele>
        <time>2012-07-23T12:47:34Z</time>
      </trkpt>
      <trkpt lat="46.088010594248772" lon="7.252849163487554">
        <ele>2207.8099999999999</ele>
        <time>2012-07-23T12:47:43Z</time>
      </trkpt>
      <trkpt lat="46.088042110204697" lon="7.252773055806756">
        <ele>2207.3200000000002</ele>
        <time>2012-07-23T12:47:44Z</time>
      </trkpt>
      <trkpt lat="46.088364478200674" lon="7.251974260434508">
        <ele>2203</ele>
        <time>2012-07-23T12:47:52Z</time>
      </trkpt>
      <trkpt lat="46.088424744084477" lon="7.251902930438519">
        <ele>2202.52</ele>
        <time>2012-07-23T12:47:53Z</time>
      </trkpt>
      <trkpt lat="46.088489536195993" lon="7.251858841627836">
        <ele>2202.04</ele>
        <time>2012-07-23T12:47:54Z</time>
      </trkpt>
      <trkpt lat="46.08855583705008" lon="7.251844089478254">
        <ele>2202.04</ele>
        <time>2012-07-23T12:47:55Z</time>
      </trkpt>
      <trkpt lat="46.088621215894818" lon="7.251859931275249">
        <ele>2201.5599999999999</ele>
        <time>2012-07-23T12:47:56Z</time>
      </trkpt>
      <trkpt lat="46.088685002177954" lon="7.251898236572743">
        <ele>2201.5599999999999</ele>
        <time>2012-07-23T12:47:57Z</time>
      </trkpt>
      <trkpt lat="46.088747195899487" lon="7.251952383667231">
        <ele>2201.5599999999999</ele>
        <time>2012-07-23T12:47:58Z</time>
      </trkpt>
      <trkpt lat="46.08880796469748" lon="7.252011895179749">
        <ele>2201.5599999999999</ele>
        <time>2012-07-23T12:47:59Z</time>
      </trkpt>
      <trkpt lat="46.089666020125151" lon="7.252839021384716">
        <ele>2200.1100000000001</ele>
        <time>2012-07-23T12:48:13Z</time>
      </trkpt>
      <trkpt lat="46.090289549902081" lon="7.252980759367347">
        <ele>2197.71</ele>
        <time>2012-07-23T12:48:22Z</time>
      </trkpt>
      <trkpt lat="46.090362975373864" lon="7.252964498475194">
        <ele>2197.23</ele>
        <time>2012-07-23T12:48:23Z</time>
      </trkpt>
      <trkpt lat="46.090437574312091" lon="7.252938933670521">
        <ele>2196.75</ele>
        <time>2012-07-23T12:48:24Z</time>
      </trkpt>
      <trkpt lat="46.090509993955493" lon="7.252897946164012">
        <ele>2196.27</ele>
        <time>2012-07-23T12:48:25Z</time>
      </trkpt>
      <trkpt lat="46.090572942048311" lon="7.252837847918272">
        <ele>2195.3099999999999</ele>
        <time>2012-07-23T12:48:26Z</time>
      </trkpt>
      <trkpt lat="46.090628849342465" lon="7.252761740237474">
        <ele>2194.3499999999999</ele>
        <time>2012-07-23T12:48:27Z</time>
      </trkpt>
      <trkpt lat="46.090671513229609" lon="7.252675406634808">
        <ele>2193.8699999999999</ele>
        <time>2012-07-23T12:48:28Z</time>
      </trkpt>
      <trkpt lat="46.090701771900058" lon="7.252586977556348">
        <ele>2192.9000000000001</ele>
        <time>2012-07-23T12:48:29Z</time>
      </trkpt>
      <trkpt lat="46.090720212087035" lon="7.252501146867871">
        <ele>2191.9400000000001</ele>
        <time>2012-07-23T12:48:30Z</time>
      </trkpt>
      <trkpt lat="46.09072289429605" lon="7.252417160198093">
        <ele>2190.98</ele>
        <time>2012-07-23T12:48:31Z</time>
      </trkpt>
      <trkpt lat="46.090704118832946" lon="7.252342896535993">
        <ele>2189.54</ele>
        <time>2012-07-23T12:48:32Z</time>
      </trkpt>
      <trkpt lat="46.090660030022264" lon="7.252293443307281">
        <ele>2189.0599999999999</ele>
        <time>2012-07-23T12:48:33Z</time>
      </trkpt>
      <trkpt lat="46.090596159920096" lon="7.252269051969051">
        <ele>2188.0999999999999</ele>
        <time>2012-07-23T12:48:34Z</time>
      </trkpt>
      <trkpt lat="46.090521058067679" lon="7.252252623438835">
        <ele>2186.6599999999999</ele>
        <time>2012-07-23T12:48:35Z</time>
      </trkpt>
      <trkpt lat="46.090191146358848" lon="7.252133516594768">
        <ele>2182.3299999999999</ele>
        <time>2012-07-23T12:48:39Z</time>
      </trkpt>
      <trkpt lat="46.090102968737483" lon="7.25207987241447">
        <ele>2180.8899999999999</ele>
        <time>2012-07-23T12:48:40Z</time>
      </trkpt>
      <trkpt lat="46.089459657669067" lon="7.251534964889288">
        <ele>2169.3499999999999</ele>
        <time>2012-07-23T12:48:48Z</time>
      </trkpt>
      <trkpt lat="46.089392015710473" lon="7.251443099230528">
        <ele>2168.3899999999999</ele>
        <time>2012-07-23T12:48:49Z</time>
      </trkpt>
      <trkpt lat="46.089331582188606" lon="7.251336816698313">
        <ele>2167.4299999999998</ele>
        <time>2012-07-23T12:48:50Z</time>
      </trkpt>
      <trkpt lat="46.089277351275086" lon="7.251219721511006">
        <ele>2166.4699999999998</ele>
        <time>2012-07-23T12:48:51Z</time>
      </trkpt>
      <trkpt lat="46.089227311313152" lon="7.251102207228541">
        <ele>2165.5100000000002</ele>
        <time>2012-07-23T12:48:52Z</time>
      </trkpt>
      <trkpt lat="46.089058499783278" lon="7.250772714614868">
        <ele>2162.6199999999999</ele>
        <time>2012-07-23T12:48:55Z</time>
      </trkpt>
      <trkpt lat="46.088983397930861" lon="7.250671209767461">
        <ele>2161.1799999999998</ele>
        <time>2012-07-23T12:48:56Z</time>
      </trkpt>
      <trkpt lat="46.088684750720859" lon="7.250327048823237">
        <ele>2156.3699999999999</ele>
        <time>2012-07-23T12:49:00Z</time>
      </trkpt>
      <trkpt lat="46.088619539514184" lon="7.250284133478999">
        <ele>2155.4099999999999</ele>
        <time>2012-07-23T12:49:01Z</time>
      </trkpt>
      <trkpt lat="46.08851577155292" lon="7.250233255326748">
        <ele>2153.4899999999998</ele>
        <time>2012-07-23T12:49:03Z</time>
      </trkpt>
      <trkpt lat="46.088485093787313" lon="7.250198721885681">
        <ele>2152.5300000000002</ele>
        <time>2012-07-23T12:49:04Z</time>
      </trkpt>
      <trkpt lat="46.088475454598665" lon="7.250149184837937">
        <ele>2152.0500000000002</ele>
        <time>2012-07-23T12:49:05Z</time>
      </trkpt>
      <trkpt lat="46.088487608358264" lon="7.250096881762147">
        <ele>2151.5700000000002</ele>
        <time>2012-07-23T12:49:06Z</time>
      </trkpt>
      <trkpt lat="46.088515436276793" lon="7.250053128227592">
        <ele>2151.0900000000001</ele>
        <time>2012-07-23T12:49:07Z</time>
      </trkpt>
      <trkpt lat="46.088554915040731" lon="7.250026725232601">
        <ele>2150.6100000000001</ele>
        <time>2012-07-23T12:49:08Z</time>
      </trkpt>
      <trkpt lat="46.088601518422365" lon="7.250019852072001">
        <ele>2150.6100000000001</ele>
        <time>2012-07-23T12:49:09Z</time>
      </trkpt>
      <trkpt lat="46.08864912763238" lon="7.250032005831599">
        <ele>2150.1300000000001</ele>
        <time>2012-07-23T12:49:10Z</time>
      </trkpt>
      <trkpt lat="46.088692462071776" lon="7.250057486817241">
        <ele>2150.1300000000001</ele>
        <time>2012-07-23T12:49:11Z</time>
      </trkpt>
      <trkpt lat="46.088734539225698" lon="7.250089254230261">
        <ele>2149.6500000000001</ele>
        <time>2012-07-23T12:49:12Z</time>
      </trkpt>
      <trkpt lat="46.088836044073105" lon="7.250164607539773">
        <ele>2148.6799999999998</ele>
        <time>2012-07-23T12:49:14Z</time>
      </trkpt>
      <trkpt lat="46.08935278840363" lon="7.250515809282661">
        <ele>2143.4000000000001</ele>
        <time>2012-07-23T12:49:21Z</time>
      </trkpt>
      <trkpt lat="46.089447839185596" lon="7.250559730455279">
        <ele>2141.9499999999998</ele>
        <time>2012-07-23T12:49:22Z</time>
      </trkpt>
      <trkpt lat="46.08955018222332" lon="7.25058663636446">
        <ele>2140.9899999999998</ele>
        <time>2012-07-23T12:49:23Z</time>
      </trkpt>
      <trkpt lat="46.089652525261045" lon="7.250596359372139">
        <ele>2139.5500000000002</ele>
        <time>2012-07-23T12:49:24Z</time>
      </trkpt>
      <trkpt lat="46.089746234938502" lon="7.250601891428232">
        <ele>2138.5900000000001</ele>
        <time>2012-07-23T12:49:25Z</time>
      </trkpt>
      <trkpt lat="46.089967098087072" lon="7.250619828701019">
        <ele>2135.71</ele>
        <time>2012-07-23T12:49:28Z</time>
      </trkpt>
      <trkpt lat="46.090035159140825" lon="7.250607004389167">
        <ele>2135.23</ele>
        <time>2012-07-23T12:49:29Z</time>
      </trkpt>
      <trkpt lat="46.090184943750501" lon="7.250579511746764">
        <ele>2133.3000000000002</ele>
        <time>2012-07-23T12:49:31Z</time>
      </trkpt>
      <trkpt lat="46.090356521308422" lon="7.250559478998184">
        <ele>2131.8600000000001</ele>
        <time>2012-07-23T12:49:33Z</time>
      </trkpt>
      <trkpt lat="46.09137617982924" lon="7.250187573954463">
        <ele>2119.8400000000001</ele>
        <time>2012-07-23T12:49:43Z</time>
      </trkpt>
      <trkpt lat="46.091561084613204" lon="7.250136695802212">
        <ele>2117.9200000000001</ele>
        <time>2012-07-23T12:49:45Z</time>
      </trkpt>
      <trkpt lat="46.091881943866611" lon="7.250111382454634">
        <ele>2114.0799999999999</ele>
        <time>2012-07-23T12:49:49Z</time>
      </trkpt>
      <trkpt lat="46.091947490349412" lon="7.250128062441945">
        <ele>2113.5999999999999</ele>
        <time>2012-07-23T12:49:50Z</time>
      </trkpt>
      <trkpt lat="46.092005996033549" lon="7.250157734379172">
        <ele>2112.6300000000001</ele>
        <time>2012-07-23T12:49:51Z</time>
      </trkpt>
      <trkpt lat="46.092052767053246" lon="7.250202242285013">
        <ele>2112.1500000000001</ele>
        <time>2012-07-23T12:49:52Z</time>
      </trkpt>
      <trkpt lat="46.092089479789138" lon="7.250259993597865">
        <ele>2111.6700000000001</ele>
        <time>2012-07-23T12:49:53Z</time>
      </trkpt>
      <trkpt lat="46.092114290222526" lon="7.250333754345775">
        <ele>2111.1900000000001</ele>
        <time>2012-07-23T12:49:54Z</time>
      </trkpt>
      <trkpt lat="46.092123426496983" lon="7.250419333577156">
        <ele>2110.71</ele>
        <time>2012-07-23T12:49:55Z</time>
      </trkpt>
      <trkpt lat="46.092120744287968" lon="7.25051530636847">
        <ele>2109.75</ele>
        <time>2012-07-23T12:49:56Z</time>
      </trkpt>
      <trkpt lat="46.092120409011841" lon="7.250619912520051">
        <ele>2109.27</ele>
        <time>2012-07-23T12:49:57Z</time>
      </trkpt>
      <trkpt lat="46.092127114534378" lon="7.250731894746423">
        <ele>2108.3099999999999</ele>
        <time>2012-07-23T12:49:58Z</time>
      </trkpt>
      <trkpt lat="46.0922796651721" lon="7.251560697332025">
        <ele>2102.0599999999999</ele>
        <time>2012-07-23T12:50:05Z</time>
      </trkpt>
      <trkpt lat="46.09235979616642" lon="7.251856327056885">
        <ele>2099.6599999999999</ele>
        <time>2012-07-23T12:50:08Z</time>
      </trkpt>
      <trkpt lat="46.092408411204815" lon="7.251950036734343">
        <ele>2098.6999999999998</ele>
        <time>2012-07-23T12:50:09Z</time>
      </trkpt>
      <trkpt lat="46.093031270429492" lon="7.253042031079531">
        <ele>2089.5599999999999</ele>
        <time>2012-07-23T12:50:21Z</time>
      </trkpt>
      <trkpt lat="46.093074521049857" lon="7.253102464601398">
        <ele>2088.5999999999999</ele>
        <time>2012-07-23T12:50:22Z</time>
      </trkpt>
      <trkpt lat="46.093148197978735" lon="7.253188127651811">
        <ele>2087.6399999999999</ele>
        <time>2012-07-23T12:50:24Z</time>
      </trkpt>
      <trkpt lat="46.093180384486914" lon="7.253211764618754">
        <ele>2087.1599999999999</ele>
        <time>2012-07-23T12:50:25Z</time>
      </trkpt>
      <trkpt lat="46.093205027282238" lon="7.253217464312911">
        <ele>2087.1599999999999</ele>
        <time>2012-07-23T12:50:26Z</time>
      </trkpt>
      <trkpt lat="46.093221120536327" lon="7.253221571445465">
        <ele>2086.6799999999998</ele>
        <time>2012-07-23T12:50:27Z</time>
      </trkpt>
      <trkpt lat="46.093234783038497" lon="7.25323255173862">
        <ele>2086.6799999999998</ele>
        <time>2012-07-23T12:50:28Z</time>
      </trkpt>
      <trkpt lat="46.093249702826142" lon="7.2532491479069">
        <ele>2086.6799999999998</ele>
        <time>2012-07-23T12:50:29Z</time>
      </trkpt>
      <trkpt lat="46.093625128269196" lon="7.253489624708891">
        <ele>2083.3099999999999</ele>
        <time>2012-07-23T12:50:38Z</time>
      </trkpt>
      <trkpt lat="46.093843728303909" lon="7.253555003553629">
        <ele>2080.9099999999999</ele>
        <time>2012-07-23T12:50:41Z</time>
      </trkpt>
      <trkpt lat="46.093917405232787" lon="7.253552405163646">
        <ele>2079.9499999999998</ele>
        <time>2012-07-23T12:50:42Z</time>
      </trkpt>
      <trkpt lat="46.094046402722597" lon="7.253547878935933">
        <ele>2078.5100000000002</ele>
        <time>2012-07-23T12:50:44Z</time>
      </trkpt>
      <trkpt lat="46.094102812930942" lon="7.253582663834095">
        <ele>2077.5500000000002</ele>
        <time>2012-07-23T12:50:45Z</time>
      </trkpt>
      <trkpt lat="46.094155199825764" lon="7.253637900575995">
        <ele>2077.0700000000002</ele>
        <time>2012-07-23T12:50:46Z</time>
      </trkpt>
      <trkpt lat="46.094210771843791" lon="7.253703279420734">
        <ele>2076.0999999999999</ele>
        <time>2012-07-23T12:50:47Z</time>
      </trkpt>
      <trkpt lat="46.094280509278178" lon="7.253755247220397">
        <ele>2075.6199999999999</ele>
        <time>2012-07-23T12:50:48Z</time>
      </trkpt>
      <trkpt lat="46.094359550625086" lon="7.25379548035562">
        <ele>2074.6599999999999</ele>
        <time>2012-07-23T12:50:49Z</time>
      </trkpt>
      <trkpt lat="46.094443118199706" lon="7.253834959119558">
        <ele>2073.6999999999998</ele>
        <time>2012-07-23T12:50:50Z</time>
      </trkpt>
      <trkpt lat="46.09452785924077" lon="7.25388390943408">
        <ele>2072.7399999999998</ele>
        <time>2012-07-23T12:50:51Z</time>
      </trkpt>
      <trkpt lat="46.094612265005708" lon="7.253944175317884">
        <ele>2072.2600000000002</ele>
        <time>2012-07-23T12:50:52Z</time>
      </trkpt>
      <trkpt lat="46.094692060723901" lon="7.254002932459116">
        <ele>2070.8200000000002</ele>
        <time>2012-07-23T12:50:53Z</time>
      </trkpt>
      <trkpt lat="46.094769760966301" lon="7.254038974642754">
        <ele>2069.8600000000001</ele>
        <time>2012-07-23T12:50:54Z</time>
      </trkpt>
      <trkpt lat="46.094845114275813" lon="7.254049284383655">
        <ele>2068.4099999999999</ele>
        <time>2012-07-23T12:50:55Z</time>
      </trkpt>
      <trkpt lat="46.094916444271803" lon="7.254049787297845">
        <ele>2067.9299999999998</ele>
        <time>2012-07-23T12:50:56Z</time>
      </trkpt>
      <trkpt lat="46.094981990754604" lon="7.254060348495841">
        <ele>2066.9699999999998</ele>
        <time>2012-07-23T12:50:57Z</time>
      </trkpt>
      <trkpt lat="46.095038736239076" lon="7.254091696813703">
        <ele>2066.4899999999998</ele>
        <time>2012-07-23T12:50:58Z</time>
      </trkpt>
      <trkpt lat="46.095084585249424" lon="7.25414676591754">
        <ele>2065.5300000000002</ele>
        <time>2012-07-23T12:50:59Z</time>
      </trkpt>
      <trkpt lat="46.09512004069984" lon="7.254220610484481">
        <ele>2065.0500000000002</ele>
        <time>2012-07-23T12:51:00Z</time>
      </trkpt>
      <trkpt lat="46.095141414552927" lon="7.254307363182306">
        <ele>2064.5700000000002</ele>
        <time>2012-07-23T12:51:01Z</time>
      </trkpt>
      <trkpt lat="46.095143426209688" lon="7.254405096173286">
        <ele>2064.0900000000001</ele>
        <time>2012-07-23T12:51:02Z</time>
      </trkpt>
      <trkpt lat="46.095143593847752" lon="7.254501907154918">
        <ele>2063.6100000000001</ele>
        <time>2012-07-23T12:51:03Z</time>
      </trkpt>
      <trkpt lat="46.095160357654095" lon="7.254587905481458">
        <ele>2063.1300000000001</ele>
        <time>2012-07-23T12:51:04Z</time>
      </trkpt>
      <trkpt lat="46.095195896923542" lon="7.254653954878449">
        <ele>2062.6500000000001</ele>
        <time>2012-07-23T12:51:05Z</time>
      </trkpt>
      <trkpt lat="46.095245936885476" lon="7.254696199670434">
        <ele>2062.1700000000001</ele>
        <time>2012-07-23T12:51:06Z</time>
      </trkpt>
      <trkpt lat="46.095309723168612" lon="7.254713298752904">
        <ele>2061.1999999999998</ele>
        <time>2012-07-23T12:51:07Z</time>
      </trkpt>
      <trkpt lat="46.095384741201997" lon="7.254720591008663">
        <ele>2060.2399999999998</ele>
        <time>2012-07-23T12:51:08Z</time>
      </trkpt>
      <trkpt lat="46.095467805862427" lon="7.254732828587294">
        <ele>2058.8000000000002</ele>
        <time>2012-07-23T12:51:09Z</time>
      </trkpt>
      <trkpt lat="46.095560006797314" lon="7.254748335108161">
        <ele>2057.3600000000001</ele>
        <time>2012-07-23T12:51:10Z</time>
      </trkpt>
      <trkpt lat="46.095654387027025" lon="7.254751436412334">
        <ele>2055.9200000000001</ele>
        <time>2012-07-23T12:51:11Z</time>
      </trkpt>
      <trkpt lat="46.096035512164235" lon="7.254672646522522">
        <ele>2051.5900000000001</ele>
        <time>2012-07-23T12:51:15Z</time>
      </trkpt>
      <trkpt lat="46.096117990091443" lon="7.254626797512174">
        <ele>2050.1500000000001</ele>
        <time>2012-07-23T12:51:16Z</time>
      </trkpt>
      <trkpt lat="46.096192840486765" lon="7.254568878561258">
        <ele>2048.71</ele>
        <time>2012-07-23T12:51:17Z</time>
      </trkpt>
      <trkpt lat="46.096258889883757" lon="7.25449712947011">
        <ele>2047.75</ele>
        <time>2012-07-23T12:51:18Z</time>
      </trkpt>
      <trkpt lat="46.096312953159213" lon="7.254407946020365">
        <ele>2046.3</ele>
        <time>2012-07-23T12:51:19Z</time>
      </trkpt>
      <trkpt lat="46.096355197951198" lon="7.254299065098167">
        <ele>2045.3399999999999</ele>
        <time>2012-07-23T12:51:20Z</time>
      </trkpt>
      <trkpt lat="46.096391826868057" lon="7.254180042073131">
        <ele>2044.3800000000001</ele>
        <time>2012-07-23T12:51:21Z</time>
      </trkpt>
      <trkpt lat="46.096476567909122" lon="7.25395230576396">
        <ele>2042.46</ele>
        <time>2012-07-23T12:51:23Z</time>
      </trkpt>
      <trkpt lat="46.096528619527817" lon="7.253848873078823">
        <ele>2041.5</ele>
        <time>2012-07-23T12:51:24Z</time>
      </trkpt>
      <trkpt lat="46.097154831513762" lon="7.252903310582042">
        <ele>2032.8399999999999</ele>
        <time>2012-07-23T12:51:33Z</time>
      </trkpt>
      <trkpt lat="46.097591193392873" lon="7.251915922388434">
        <ele>2025.1500000000001</ele>
        <time>2012-07-23T12:51:41Z</time>
      </trkpt>
      <trkpt lat="46.097754389047623" lon="7.251590620726347">
        <ele>2022.27</ele>
        <time>2012-07-23T12:51:45Z</time>
      </trkpt>
      <trkpt lat="46.097801411524415" lon="7.2515550814569">
        <ele>2021.79</ele>
        <time>2012-07-23T12:51:46Z</time>
      </trkpt>
      <trkpt lat="46.097858743742108" lon="7.251545609906316">
        <ele>2021.79</ele>
        <time>2012-07-23T12:51:47Z</time>
      </trkpt>
      <trkpt lat="46.09792236238718" lon="7.251562708988786">
        <ele>2020.8299999999999</ele>
        <time>2012-07-23T12:51:48Z</time>
      </trkpt>
      <trkpt lat="46.09798782505095" lon="7.251597242429853">
        <ele>2020.3499999999999</ele>
        <time>2012-07-23T12:51:49Z</time>
      </trkpt>
      <trkpt lat="46.098060915246606" lon="7.251625992357731">
        <ele>2019.8699999999999</ele>
        <time>2012-07-23T12:51:50Z</time>
      </trkpt>
      <trkpt lat="46.098141381517053" lon="7.251631775870919">
        <ele>2018.9100000000001</ele>
        <time>2012-07-23T12:51:51Z</time>
      </trkpt>
      <trkpt lat="46.098226876929402" lon="7.251618783921003">
        <ele>2017.9400000000001</ele>
        <time>2012-07-23T12:51:52Z</time>
      </trkpt>
      <trkpt lat="46.098316060379148" lon="7.25158978253603">
        <ele>2016.98</ele>
        <time>2012-07-23T12:51:53Z</time>
      </trkpt>
      <trkpt lat="46.098406920209527" lon="7.251556254923344">
        <ele>2016.02</ele>
        <time>2012-07-23T12:51:54Z</time>
      </trkpt>
      <trkpt lat="46.098688635975122" lon="7.251465143635869">
        <ele>2012.1800000000001</ele>
        <time>2012-07-23T12:51:57Z</time>
      </trkpt>
      <trkpt lat="46.098770443350077" lon="7.251412589102984">
        <ele>2011.22</ele>
        <time>2012-07-23T12:51:58Z</time>
      </trkpt>
      <trkpt lat="46.098917294293642" lon="7.251312844455242">
        <ele>2009.29</ele>
        <time>2012-07-23T12:52:00Z</time>
      </trkpt>
      <trkpt lat="46.098989797756076" lon="7.251286609098315">
        <ele>2008.3299999999999</ele>
        <time>2012-07-23T12:52:01Z</time>
      </trkpt>
      <trkpt lat="46.099068587645888" lon="7.251279065385461">
        <ele>2007.3699999999999</ele>
        <time>2012-07-23T12:52:02Z</time>
      </trkpt>
      <trkpt lat="46.099151819944382" lon="7.251291554421186">
        <ele>2006.4100000000001</ele>
        <time>2012-07-23T12:52:03Z</time>
      </trkpt>
      <trkpt lat="46.099237315356731" lon="7.251319298520684">
        <ele>2005.45</ele>
        <time>2012-07-23T12:52:04Z</time>
      </trkpt>
      <trkpt lat="46.099328007549047" lon="7.25134109146893">
        <ele>2004.97</ele>
        <time>2012-07-23T12:52:05Z</time>
      </trkpt>
      <trkpt lat="46.099422639235854" lon="7.251346539705992">
        <ele>2004.01</ele>
        <time>2012-07-23T12:52:06Z</time>
      </trkpt>
      <trkpt lat="46.099521210417151" lon="7.251343270763755">
        <ele>2002.5599999999999</ele>
        <time>2012-07-23T12:52:07Z</time>
      </trkpt>
      <trkpt lat="46.099805356934667" lon="7.251339247450233">
        <ele>1999.6800000000001</ele>
        <time>2012-07-23T12:52:10Z</time>
      </trkpt>
      <trkpt lat="46.099891774356365" lon="7.251302618533373">
        <ele>1998.24</ele>
        <time>2012-07-23T12:52:11Z</time>
      </trkpt>
      <trkpt lat="46.0999745875597" lon="7.251239335164428">
        <ele>1997.76</ele>
        <time>2012-07-23T12:52:12Z</time>
      </trkpt>
      <trkpt lat="46.100401729345322" lon="7.250920906662941">
        <ele>1992.47</ele>
        <time>2012-07-23T12:52:17Z</time>
      </trkpt>
      <trkpt lat="46.101407054811716" lon="7.2504723072052">
        <ele>1981.9000000000001</ele>
        <time>2012-07-23T12:52:27Z</time>
      </trkpt>
      <trkpt lat="46.101741911843419" lon="7.250314559787512">
        <ele>1978.53</ele>
        <time>2012-07-23T12:52:30Z</time>
      </trkpt>
      <trkpt lat="46.101973000913858" lon="7.250251779332757">
        <ele>1975.6500000000001</ele>
        <time>2012-07-23T12:52:32Z</time>
      </trkpt>
      <trkpt lat="46.102193696424365" lon="7.250176342204213">
        <ele>1973.24</ele>
        <time>2012-07-23T12:52:34Z</time>
      </trkpt>
      <trkpt lat="46.102394945919514" lon="7.250121859833598">
        <ele>1971.3199999999999</ele>
        <time>2012-07-23T12:52:36Z</time>
      </trkpt>
      <trkpt lat="46.102485721930861" lon="7.250069305300713">
        <ele>1969.8800000000001</ele>
        <time>2012-07-23T12:52:37Z</time>
      </trkpt>
      <trkpt lat="46.102568199858069" lon="7.24999101832509">
        <ele>1968.9200000000001</ele>
        <time>2012-07-23T12:52:38Z</time>
      </trkpt>
      <trkpt lat="46.10264053568244" lon="7.249899907037616">
        <ele>1967.96</ele>
        <time>2012-07-23T12:52:39Z</time>
      </trkpt>
      <trkpt lat="46.102709183469415" lon="7.249811477959156">
        <ele>1966.99</ele>
        <time>2012-07-23T12:52:40Z</time>
      </trkpt>
      <trkpt lat="46.102847149595618" lon="7.249632105231285">
        <ele>1965.0699999999999</ele>
        <time>2012-07-23T12:52:42Z</time>
      </trkpt>
      <trkpt lat="46.102897860109806" lon="7.249513082206249">
        <ele>1963.6300000000001</ele>
        <time>2012-07-23T12:52:43Z</time>
      </trkpt>
      <trkpt lat="46.102933483198285" lon="7.249386431649327">
        <ele>1962.6700000000001</ele>
        <time>2012-07-23T12:52:44Z</time>
      </trkpt>
      <trkpt lat="46.103016380220652" lon="7.249049143865705">
        <ele>1960.75</ele>
        <time>2012-07-23T12:52:47Z</time>
      </trkpt>
      <trkpt lat="46.103053344413638" lon="7.248970186337829">
        <ele>1960.27</ele>
        <time>2012-07-23T12:52:48Z</time>
      </trkpt>
      <trkpt lat="46.10310573130846" lon="7.248913105577231">
        <ele>1959.3</ele>
        <time>2012-07-23T12:52:49Z</time>
      </trkpt>
      <trkpt lat="46.103170607239008" lon="7.248869268223643">
        <ele>1958.8199999999999</ele>
        <time>2012-07-23T12:52:50Z</time>
      </trkpt>
      <trkpt lat="46.103241685777903" lon="7.248826269060373">
        <ele>1958.3399999999999</ele>
        <time>2012-07-23T12:52:51Z</time>
      </trkpt>
      <trkpt lat="46.103393314406276" lon="7.248749909922481">
        <ele>1956.9000000000001</ele>
        <time>2012-07-23T12:52:53Z</time>
      </trkpt>
      <trkpt lat="46.103474283590913" lon="7.248736582696438">
        <ele>1955.9400000000001</ele>
        <time>2012-07-23T12:52:54Z</time>
      </trkpt>
      <trkpt lat="46.103629348799586" lon="7.248719232156873">
        <ele>1954.5</ele>
        <time>2012-07-23T12:52:56Z</time>
      </trkpt>
      <trkpt lat="46.103698583319783" lon="7.248690314590931">
        <ele>1953.54</ele>
        <time>2012-07-23T12:52:57Z</time>
      </trkpt>
      <trkpt lat="46.103760777041316" lon="7.248650249093771">
        <ele>1953.0599999999999</ele>
        <time>2012-07-23T12:52:58Z</time>
      </trkpt>
      <trkpt lat="46.103804614394903" lon="7.24859937094152">
        <ele>1952.5699999999999</ele>
        <time>2012-07-23T12:52:59Z</time>
      </trkpt>
      <trkpt lat="46.10382447950542" lon="7.248539105057716">
        <ele>1952.0899999999999</ele>
        <time>2012-07-23T12:53:00Z</time>
      </trkpt>
      <trkpt lat="46.103817857801914" lon="7.248479258269072">
        <ele>1951.1300000000001</ele>
        <time>2012-07-23T12:53:01Z</time>
      </trkpt>
      <trkpt lat="46.103785336017609" lon="7.248439947143197">
        <ele>1951.1300000000001</ele>
        <time>2012-07-23T12:53:02Z</time>
      </trkpt>
      <trkpt lat="46.103741833940148" lon="7.248438270762563">
        <ele>1950.6500000000001</ele>
        <time>2012-07-23T12:53:03Z</time>
      </trkpt>
      <trkpt lat="46.103702606633306" lon="7.248472385108471">
        <ele>1950.1700000000001</ele>
        <time>2012-07-23T12:53:04Z</time>
      </trkpt>
      <trkpt lat="46.103667905554175" lon="7.248522592708468">
        <ele>1950.1700000000001</ele>
        <time>2012-07-23T12:53:05Z</time>
      </trkpt>
      <trkpt lat="46.103621972724795" lon="7.248562825843692">
        <ele>1949.6900000000001</ele>
        <time>2012-07-23T12:53:06Z</time>
      </trkpt>
      <trkpt lat="46.103565981611609" lon="7.248572967946529">
        <ele>1949.21</ele>
        <time>2012-07-23T12:53:07Z</time>
      </trkpt>
      <trkpt lat="46.10350688919425" lon="7.248549917712808">
        <ele>1948.73</ele>
        <time>2012-07-23T12:53:08Z</time>
      </trkpt>
      <trkpt lat="46.10337495803833" lon="7.248470960184932">
        <ele>1947.29</ele>
        <time>2012-07-23T12:53:10Z</time>
      </trkpt>
      <trkpt lat="46.1032953299582" lon="7.24845327436924">
        <ele>1946.3299999999999</ele>
        <time>2012-07-23T12:53:11Z</time>
      </trkpt>
      <trkpt lat="46.103126602247357" lon="7.248420333489776">
        <ele>1944.4000000000001</ele>
        <time>2012-07-23T12:53:13Z</time>
      </trkpt>
      <trkpt lat="46.103047141805291" lon="7.248377501964569">
        <ele>1943.4400000000001</ele>
        <time>2012-07-23T12:53:14Z</time>
      </trkpt>
      <trkpt lat="46.102975979447365" lon="7.248322768136859">
        <ele>1942.48</ele>
        <time>2012-07-23T12:53:15Z</time>
      </trkpt>
      <trkpt lat="46.102908588945866" lon="7.248273817822337">
        <ele>1942</ele>
        <time>2012-07-23T12:53:16Z</time>
      </trkpt>
      <trkpt lat="46.102835666388273" lon="7.248250935226679">
        <ele>1941.52</ele>
        <time>2012-07-23T12:53:17Z</time>
      </trkpt>
      <trkpt lat="46.102758888155222" lon="7.248254455626011">
        <ele>1940.5599999999999</ele>
        <time>2012-07-23T12:53:18Z</time>
      </trkpt>
      <trkpt lat="46.102678589522839" lon="7.248278679326177">
        <ele>1940.0799999999999</ele>
        <time>2012-07-23T12:53:19Z</time>
      </trkpt>
      <trkpt lat="46.102598458528519" lon="7.248326120898128">
        <ele>1939.1199999999999</ele>
        <time>2012-07-23T12:53:20Z</time>
      </trkpt>
      <trkpt lat="46.102519417181611" lon="7.24838244728744">
        <ele>1938.1600000000001</ele>
        <time>2012-07-23T12:53:21Z</time>
      </trkpt>
      <trkpt lat="46.102440124377608" lon="7.248423099517822">
        <ele>1937.1900000000001</ele>
        <time>2012-07-23T12:53:22Z</time>
      </trkpt>
      <trkpt lat="46.102363932877779" lon="7.248443383723497">
        <ele>1936.23</ele>
        <time>2012-07-23T12:53:23Z</time>
      </trkpt>
      <trkpt lat="46.102295201271772" lon="7.248451011255384">
        <ele>1935.27</ele>
        <time>2012-07-23T12:53:24Z</time>
      </trkpt>
      <trkpt lat="46.102234348654747" lon="7.248446820303798">
        <ele>1934.79</ele>
        <time>2012-07-23T12:53:25Z</time>
      </trkpt>
      <trkpt lat="46.1021763458848" lon="7.248432822525501">
        <ele>1934.3099999999999</ele>
        <time>2012-07-23T12:53:26Z</time>
      </trkpt>
      <trkpt lat="46.102112391963601" lon="7.248423183336854">
        <ele>1933.3499999999999</ele>
        <time>2012-07-23T12:53:27Z</time>
      </trkpt>
      <trkpt lat="46.102044666185975" lon="7.248433912172914">
        <ele>1932.8699999999999</ele>
        <time>2012-07-23T12:53:28Z</time>
      </trkpt>
      <trkpt lat="46.101973503828049" lon="7.248465931043029">
        <ele>1932.3900000000001</ele>
        <time>2012-07-23T12:53:29Z</time>
      </trkpt>
      <trkpt lat="46.101897647604346" lon="7.248506918549538">
        <ele>1931.4300000000001</ele>
        <time>2012-07-23T12:53:30Z</time>
      </trkpt>
      <trkpt lat="46.101813158020377" lon="7.24853734485805">
        <ele>1930.46</ele>
        <time>2012-07-23T12:53:31Z</time>
      </trkpt>
      <trkpt lat="46.101630767807364" lon="7.248587133362889">
        <ele>1928.54</ele>
        <time>2012-07-23T12:53:33Z</time>
      </trkpt>
      <trkpt lat="46.101435134187341" lon="7.24864773452282">
        <ele>1926.1400000000001</ele>
        <time>2012-07-23T12:53:35Z</time>
      </trkpt>
      <trkpt lat="46.101332120597363" lon="7.248653518036008">
        <ele>1925.1800000000001</ele>
        <time>2012-07-23T12:53:36Z</time>
      </trkpt>
      <trkpt lat="46.100917970761657" lon="7.248629126697779">
        <ele>1920.8499999999999</ele>
        <time>2012-07-23T12:53:40Z</time>
      </trkpt>
      <trkpt lat="46.100468449294567" lon="7.248488813638687">
        <ele>1916.53</ele>
        <time>2012-07-23T12:53:45Z</time>
      </trkpt>
      <trkpt lat="46.100386558100581" lon="7.248484790325165">
        <ele>1915.5599999999999</ele>
        <time>2012-07-23T12:53:46Z</time>
      </trkpt>
      <trkpt lat="46.100308522582054" lon="7.248490490019321">
        <ele>1914.5999999999999</ele>
        <time>2012-07-23T12:53:47Z</time>
      </trkpt>
      <trkpt lat="46.100237108767033" lon="7.248496524989605">
        <ele>1913.6400000000001</ele>
        <time>2012-07-23T12:53:48Z</time>
      </trkpt>
      <trkpt lat="46.100172232836485" lon="7.248490154743195">
        <ele>1912.6800000000001</ele>
        <time>2012-07-23T12:53:49Z</time>
      </trkpt>
      <trkpt lat="46.10011481679976" lon="7.248464673757553">
        <ele>1912.2</ele>
        <time>2012-07-23T12:53:50Z</time>
      </trkpt>
      <trkpt lat="46.100065698847175" lon="7.248417316004634">
        <ele>1911.24</ele>
        <time>2012-07-23T12:53:51Z</time>
      </trkpt>
      <trkpt lat="46.100021358579397" lon="7.248352356255055">
        <ele>1910.28</ele>
        <time>2012-07-23T12:53:52Z</time>
      </trkpt>
      <trkpt lat="46.099971402436495" lon="7.24828370846808">
        <ele>1909.3199999999999</ele>
        <time>2012-07-23T12:53:53Z</time>
      </trkpt>
      <trkpt lat="46.099908202886581" lon="7.248231405392289">
        <ele>1908.3499999999999</ele>
        <time>2012-07-23T12:53:54Z</time>
      </trkpt>
      <trkpt lat="46.099833184853196" lon="7.248197123408318">
        <ele>1907.3900000000001</ele>
        <time>2012-07-23T12:53:55Z</time>
      </trkpt>
      <trkpt lat="46.099751209840178" lon="7.248172899708152">
        <ele>1906.4300000000001</ele>
        <time>2012-07-23T12:53:56Z</time>
      </trkpt>
      <trkpt lat="46.099667474627495" lon="7.248151609674096">
        <ele>1905.95</ele>
        <time>2012-07-23T12:53:57Z</time>
      </trkpt>
      <trkpt lat="46.099495477974415" lon="7.24808044731617">
        <ele>1904.03</ele>
        <time>2012-07-23T12:53:59Z</time>
      </trkpt>
      <trkpt lat="46.099417107179761" lon="7.248022109270096">
        <ele>1903.55</ele>
        <time>2012-07-23T12:54:00Z</time>
      </trkpt>
      <trkpt lat="46.09935206361115" lon="7.247959831729531">
        <ele>1903.0699999999999</ele>
        <time>2012-07-23T12:54:01Z</time>
      </trkpt>
      <trkpt lat="46.099293306469917" lon="7.247915156185627">
        <ele>1902.5899999999999</ele>
        <time>2012-07-23T12:54:02Z</time>
      </trkpt>
      <trkpt lat="46.099231112748384" lon="7.247900487855077">
        <ele>1902.5899999999999</ele>
        <time>2012-07-23T12:54:03Z</time>
      </trkpt>
      <trkpt lat="46.099166991189122" lon="7.247905768454075">
        <ele>1902.1099999999999</ele>
        <time>2012-07-23T12:54:04Z</time>
      </trkpt>
      <trkpt lat="46.099102115258574" lon="7.247917167842388">
        <ele>1902.1099999999999</ele>
        <time>2012-07-23T12:54:05Z</time>
      </trkpt>
      <trkpt lat="46.09855561517179" lon="7.247884813696146">
        <ele>1900.6600000000001</ele>
        <time>2012-07-23T12:54:14Z</time>
      </trkpt>
      <trkpt lat="46.098499456420541" lon="7.247857823967934">
        <ele>1900.1800000000001</ele>
        <time>2012-07-23T12:54:15Z</time>
      </trkpt>
      <trkpt lat="46.098448829725385" lon="7.247820356860757">
        <ele>1900.1800000000001</ele>
        <time>2012-07-23T12:54:16Z</time>
      </trkpt>
      <trkpt lat="46.098398789763451" lon="7.247784901410341">
        <ele>1900.1800000000001</ele>
        <time>2012-07-23T12:54:17Z</time>
      </trkpt>
      <trkpt lat="46.098344391211867" lon="7.247759504243732">
        <ele>1899.7</ele>
        <time>2012-07-23T12:54:18Z</time>
      </trkpt>
      <trkpt lat="46.098284041509032" lon="7.247742656618357">
        <ele>1899.22</ele>
        <time>2012-07-23T12:54:19Z</time>
      </trkpt>
      <trkpt lat="46.098217908293009" lon="7.247732346877456">
        <ele>1898.74</ele>
        <time>2012-07-23T12:54:20Z</time>
      </trkpt>
      <trkpt lat="46.098145572468638" lon="7.247727569192648">
        <ele>1898.26</ele>
        <time>2012-07-23T12:54:21Z</time>
      </trkpt>
      <trkpt lat="46.097384328022599" lon="7.247706027701497">
        <ele>1892.49</ele>
        <time>2012-07-23T12:54:31Z</time>
      </trkpt>
      <trkpt lat="46.097330851480365" lon="7.247718265280128">
        <ele>1892.01</ele>
        <time>2012-07-23T12:54:32Z</time>
      </trkpt>
      <trkpt lat="46.097274944186211" lon="7.247722037136555">
        <ele>1891.53</ele>
        <time>2012-07-23T12:54:33Z</time>
      </trkpt>
      <trkpt lat="46.097220377996564" lon="7.247718935832381">
        <ele>1891.53</ele>
        <time>2012-07-23T12:54:34Z</time>
      </trkpt>
      <trkpt lat="46.097113173455" lon="7.247707368806005">
        <ele>1891.05</ele>
        <time>2012-07-23T12:54:36Z</time>
      </trkpt>
      <trkpt lat="46.09706430695951" lon="7.247687168419361">
        <ele>1891.05</ele>
        <time>2012-07-23T12:54:37Z</time>
      </trkpt>
      <trkpt lat="46.097017535939813" lon="7.247648611664772">
        <ele>1890.5699999999999</ele>
        <time>2012-07-23T12:54:38Z</time>
      </trkpt>
      <trkpt lat="46.096975207328796" lon="7.247592201456428">
        <ele>1890.0899999999999</ele>
        <time>2012-07-23T12:54:39Z</time>
      </trkpt>
      <trkpt lat="46.096942853182554" lon="7.24752196110785">
        <ele>1889.6099999999999</ele>
        <time>2012-07-23T12:54:40Z</time>
      </trkpt>
      <trkpt lat="46.096925418823957" lon="7.24743839353323">
        <ele>1888.6500000000001</ele>
        <time>2012-07-23T12:54:41Z</time>
      </trkpt>
      <trkpt lat="46.096920892596245" lon="7.247347701340914">
        <ele>1888.1700000000001</ele>
        <time>2012-07-23T12:54:42Z</time>
      </trkpt>
      <trkpt lat="46.096923826262355" lon="7.247252650558949">
        <ele>1887.21</ele>
        <time>2012-07-23T12:54:43Z</time>
      </trkpt>
      <trkpt lat="46.096925418823957" lon="7.247148798778653">
        <ele>1886.72</ele>
        <time>2012-07-23T12:54:44Z</time>
      </trkpt>
      <trkpt lat="46.096921898424625" lon="7.247043941169977">
        <ele>1885.76</ele>
        <time>2012-07-23T12:54:45Z</time>
      </trkpt>
      <trkpt lat="46.096898764371872" lon="7.246727691963315">
        <ele>1883.3599999999999</ele>
        <time>2012-07-23T12:54:48Z</time>
      </trkpt>
      <trkpt lat="46.096876217052341" lon="7.246625600382686">
        <ele>1882.8800000000001</ele>
        <time>2012-07-23T12:54:49Z</time>
      </trkpt>
      <trkpt lat="46.096839420497417" lon="7.246525269001722">
        <ele>1881.9200000000001</ele>
        <time>2012-07-23T12:54:50Z</time>
      </trkpt>
      <trkpt lat="46.096791224554181" lon="7.246427619829774">
        <ele>1880.96</ele>
        <time>2012-07-23T12:54:51Z</time>
      </trkpt>
      <trkpt lat="46.096731377765536" lon="7.246336257085204">
        <ele>1880</ele>
        <time>2012-07-23T12:54:52Z</time>
      </trkpt>
      <trkpt lat="46.096660550683737" lon="7.246254868805409">
        <ele>1879.03</ele>
        <time>2012-07-23T12:54:53Z</time>
      </trkpt>
      <trkpt lat="46.096579078584909" lon="7.246188567951322">
        <ele>1878.0699999999999</ele>
        <time>2012-07-23T12:54:54Z</time>
      </trkpt>
      <trkpt lat="46.096492074429989" lon="7.246129307895899">
        <ele>1877.1099999999999</ele>
        <time>2012-07-23T12:54:55Z</time>
      </trkpt>
      <trkpt lat="46.096248831599951" lon="7.2459168266505">
        <ele>1874.23</ele>
        <time>2012-07-23T12:54:58Z</time>
      </trkpt>
      <trkpt lat="46.096179932355881" lon="7.245820434764028">
        <ele>1873.27</ele>
        <time>2012-07-23T12:54:59Z</time>
      </trkpt>
      <trkpt lat="46.096117570996284" lon="7.245708703994751">
        <ele>1872.3</ele>
        <time>2012-07-23T12:55:00Z</time>
      </trkpt>
      <trkpt lat="46.096061579883099" lon="7.245588088408113">
        <ele>1871.3399999999999</ele>
        <time>2012-07-23T12:55:01Z</time>
      </trkpt>
      <trkpt lat="46.096007181331515" lon="7.245464958250523">
        <ele>1870.3800000000001</ele>
        <time>2012-07-23T12:55:02Z</time>
      </trkpt>
      <trkpt lat="46.095543075352907" lon="7.244650153443217">
        <ele>1862.21</ele>
        <time>2012-07-23T12:55:09Z</time>
      </trkpt>
      <trkpt lat="46.095463698729873" lon="7.244586367160082">
        <ele>1860.77</ele>
        <time>2012-07-23T12:55:10Z</time>
      </trkpt>
      <trkpt lat="46.095375437289476" lon="7.244546301662922">
        <ele>1859.8099999999999</ele>
        <time>2012-07-23T12:55:11Z</time>
      </trkpt>
      <trkpt lat="46.095279715955257" lon="7.244529286399484">
        <ele>1858.8499999999999</ele>
        <time>2012-07-23T12:55:12Z</time>
      </trkpt>
      <trkpt lat="46.095185000449419" lon="7.244521072134376">
        <ele>1857.8900000000001</ele>
        <time>2012-07-23T12:55:13Z</time>
      </trkpt>
      <trkpt lat="46.095014680176973" lon="7.244489388540387">
        <ele>1855.48</ele>
        <time>2012-07-23T12:55:15Z</time>
      </trkpt>
      <trkpt lat="46.094942931085825" lon="7.244447730481625">
        <ele>1854.52</ele>
        <time>2012-07-23T12:55:16Z</time>
      </trkpt>
      <trkpt lat="46.094885347411036" lon="7.244383189827204">
        <ele>1853.5599999999999</ele>
        <time>2012-07-23T12:55:17Z</time>
      </trkpt>
      <trkpt lat="46.094838995486498" lon="7.244306243956089">
        <ele>1852.5999999999999</ele>
        <time>2012-07-23T12:55:18Z</time>
      </trkpt>
      <trkpt lat="46.094790464267135" lon="7.244235333055258">
        <ele>1852.1199999999999</ele>
        <time>2012-07-23T12:55:19Z</time>
      </trkpt>
      <trkpt lat="46.094729779288173" lon="7.244182862341404">
        <ele>1850.6800000000001</ele>
        <time>2012-07-23T12:55:20Z</time>
      </trkpt>
      <trkpt lat="46.094658197835088" lon="7.244151849299669">
        <ele>1849.71</ele>
        <time>2012-07-23T12:55:21Z</time>
      </trkpt>
      <trkpt lat="46.094580162316561" lon="7.244136678054929">
        <ele>1848.75</ele>
        <time>2012-07-23T12:55:22Z</time>
      </trkpt>
      <trkpt lat="46.094495337456465" lon="7.244131984189153">
        <ele>1847.79</ele>
        <time>2012-07-23T12:55:23Z</time>
      </trkpt>
      <trkpt lat="46.09440422616899" lon="7.244123769924045">
        <ele>1846.8299999999999</ele>
        <time>2012-07-23T12:55:24Z</time>
      </trkpt>
      <trkpt lat="46.094308337196708" lon="7.244102479889989">
        <ele>1845.8699999999999</ele>
        <time>2012-07-23T12:55:25Z</time>
      </trkpt>
      <trkpt lat="46.094013545662165" lon="7.244026958942413">
        <ele>1842.5</ele>
        <time>2012-07-23T12:55:28Z</time>
      </trkpt>
      <trkpt lat="46.093909693881869" lon="7.243980187922716">
        <ele>1841.0599999999999</ele>
        <time>2012-07-23T12:55:29Z</time>
      </trkpt>
      <trkpt lat="46.093805674463511" lon="7.24391782656312">
        <ele>1839.6199999999999</ele>
        <time>2012-07-23T12:55:30Z</time>
      </trkpt>
      <trkpt lat="46.09336637891829" lon="7.243611719459295">
        <ele>1833.3699999999999</ele>
        <time>2012-07-23T12:55:35Z</time>
      </trkpt>
      <trkpt lat="46.093284571543336" lon="7.243577437475324">
        <ele>1832.4100000000001</ele>
        <time>2012-07-23T12:55:36Z</time>
      </trkpt>
      <trkpt lat="46.093205697834492" lon="7.243552627041936">
        <ele>1831.45</ele>
        <time>2012-07-23T12:55:37Z</time>
      </trkpt>
      <trkpt lat="46.093128668144345" lon="7.243542149662972">
        <ele>1830.01</ele>
        <time>2012-07-23T12:55:38Z</time>
      </trkpt>
      <trkpt lat="46.093047950416803" lon="7.24354600533843">
        <ele>1829.05</ele>
        <time>2012-07-23T12:55:39Z</time>
      </trkpt>
      <trkpt lat="46.0929617844522" lon="7.243553968146443">
        <ele>1827.5999999999999</ele>
        <time>2012-07-23T12:55:40Z</time>
      </trkpt>
      <trkpt lat="46.092881988734007" lon="7.243556566536427">
        <ele>1826.6400000000001</ele>
        <time>2012-07-23T12:55:41Z</time>
      </trkpt>
      <trkpt lat="46.092814849689603" lon="7.24354743026197">
        <ele>1826.1600000000001</ele>
        <time>2012-07-23T12:55:42Z</time>
      </trkpt>
      <trkpt lat="46.092760702595115" lon="7.243528738617897">
        <ele>1825.2</ele>
        <time>2012-07-23T12:55:43Z</time>
      </trkpt>
      <trkpt lat="46.092720972374082" lon="7.243505101650953">
        <ele>1825.2</ele>
        <time>2012-07-23T12:55:44Z</time>
      </trkpt>
      <trkpt lat="46.092694317921996" lon="7.243477944284678">
        <ele>1824.72</ele>
        <time>2012-07-23T12:55:45Z</time>
      </trkpt>
      <trkpt lat="46.092683924362063" lon="7.243445590138435">
        <ele>1824.24</ele>
        <time>2012-07-23T12:55:46Z</time>
      </trkpt>
      <trkpt lat="46.092692306265235" lon="7.243408374488354">
        <ele>1823.76</ele>
        <time>2012-07-23T12:55:47Z</time>
      </trkpt>
      <trkpt lat="46.092721140012145" lon="7.243375098332763">
        <ele>1823.76</ele>
        <time>2012-07-23T12:55:48Z</time>
      </trkpt>
      <trkpt lat="46.092765815556049" lon="7.243358166888356">
        <ele>1823.28</ele>
        <time>2012-07-23T12:55:49Z</time>
      </trkpt>
      <trkpt lat="46.092818286269903" lon="7.243358585983515">
        <ele>1823.28</ele>
        <time>2012-07-23T12:55:50Z</time>
      </trkpt>
      <trkpt lat="46.092874612659216" lon="7.243370236828923">
        <ele>1823.76</ele>
        <time>2012-07-23T12:55:51Z</time>
      </trkpt>
      <trkpt lat="46.092934627085924" lon="7.243383564054966">
        <ele>1823.76</ele>
        <time>2012-07-23T12:55:52Z</time>
      </trkpt>
      <trkpt lat="46.092999335378408" lon="7.24338423460722">
        <ele>1823.76</ele>
        <time>2012-07-23T12:55:53Z</time>
      </trkpt>
      <trkpt lat="46.093066642060876" lon="7.24337643943727">
        <ele>1824.24</ele>
        <time>2012-07-23T12:55:54Z</time>
      </trkpt>
      <trkpt lat="46.093213744461536" lon="7.243342660367489">
        <ele>1824.72</ele>
        <time>2012-07-23T12:55:56Z</time>
      </trkpt>
      <trkpt lat="46.093659494072199" lon="7.243198826909065">
        <ele>1823.28</ele>
        <time>2012-07-23T12:56:01Z</time>
      </trkpt>
      <trkpt lat="46.093758065253496" lon="7.24314333871007">
        <ele>1821.8399999999999</ele>
        <time>2012-07-23T12:56:02Z</time>
      </trkpt>
      <trkpt lat="46.093852864578366" lon="7.243079133331776">
        <ele>1820.8699999999999</ele>
        <time>2012-07-23T12:56:03Z</time>
      </trkpt>
      <trkpt lat="46.094184536486864" lon="7.242870759218931">
        <ele>1817.51</ele>
        <time>2012-07-23T12:56:07Z</time>
      </trkpt>
      <trkpt lat="46.09426693059504" lon="7.242853073403239">
        <ele>1816.55</ele>
        <time>2012-07-23T12:56:08Z</time>
      </trkpt>
      <trkpt lat="46.09435292892158" lon="7.242848798632622">
        <ele>1816.0699999999999</ele>
        <time>2012-07-23T12:56:09Z</time>
      </trkpt>
      <trkpt lat="46.094852071255445" lon="7.242820719256997">
        <ele>1811.74</ele>
        <time>2012-07-23T12:56:14Z</time>
      </trkpt>
      <trkpt lat="46.094961035996675" lon="7.242837985977531">
        <ele>1810.78</ele>
        <time>2012-07-23T12:56:15Z</time>
      </trkpt>
      <trkpt lat="46.095407120883465" lon="7.242939407005906">
        <ele>1807.4200000000001</ele>
        <time>2012-07-23T12:56:19Z</time>
      </trkpt>
      <trkpt lat="46.095527149736881" lon="7.242946196347475">
        <ele>1806.45</ele>
        <time>2012-07-23T12:56:20Z</time>
      </trkpt>
      <trkpt lat="46.095639551058412" lon="7.242939826101065">
        <ele>1805.49</ele>
        <time>2012-07-23T12:56:21Z</time>
      </trkpt>
      <trkpt lat="46.095945741981268" lon="7.242910405620933">
        <ele>1802.6099999999999</ele>
        <time>2012-07-23T12:56:24Z</time>
      </trkpt>
      <trkpt lat="46.096049509942532" lon="7.242927253246307">
        <ele>1801.6500000000001</ele>
        <time>2012-07-23T12:56:25Z</time>
      </trkpt>
      <trkpt lat="46.096264254301786" lon="7.242961954325438">
        <ele>1800.21</ele>
        <time>2012-07-23T12:56:27Z</time>
      </trkpt>
      <trkpt lat="46.097104120999575" lon="7.243068488314748">
        <ele>1791.55</ele>
        <time>2012-07-23T12:56:36Z</time>
      </trkpt>
      <trkpt lat="46.097226748242974" lon="7.243095813319087">
        <ele>1790.1099999999999</ele>
        <time>2012-07-23T12:56:38Z</time>
      </trkpt>
      <trkpt lat="46.097274776548147" lon="7.243118528276682">
        <ele>1789.6300000000001</ele>
        <time>2012-07-23T12:56:39Z</time>
      </trkpt>
      <trkpt lat="46.097503267228603" lon="7.243246100842953">
        <ele>1787.23</ele>
        <time>2012-07-23T12:56:45Z</time>
      </trkpt>
      <trkpt lat="46.097999894991517" lon="7.243426982313395">
        <ele>1782.9000000000001</ele>
        <time>2012-07-23T12:56:53Z</time>
      </trkpt>
      <trkpt lat="46.098081450909376" lon="7.243434609845281">
        <ele>1782.4200000000001</ele>
        <time>2012-07-23T12:56:54Z</time>
      </trkpt>
      <trkpt lat="46.098166359588504" lon="7.243432011455298">
        <ele>1781.46</ele>
        <time>2012-07-23T12:56:55Z</time>
      </trkpt>
      <trkpt lat="46.098627196624875" lon="7.243423713371158">
        <ele>1778.0999999999999</ele>
        <time>2012-07-23T12:57:00Z</time>
      </trkpt>
      <trkpt lat="46.0989074036479" lon="7.243472998961806">
        <ele>1776.6500000000001</ele>
        <time>2012-07-23T12:57:03Z</time>
      </trkpt>
      <trkpt lat="46.099001448601484" lon="7.243467383086681">
        <ele>1776.1700000000001</ele>
        <time>2012-07-23T12:57:04Z</time>
      </trkpt>
      <trkpt lat="46.100063687190413" lon="7.243291782215238">
        <ele>1771.8499999999999</ele>
        <time>2012-07-23T12:57:16Z</time>
      </trkpt>
      <trkpt lat="46.100147338584065" lon="7.243262529373169">
        <ele>1771.3699999999999</ele>
        <time>2012-07-23T12:57:17Z</time>
      </trkpt>
      <trkpt lat="46.100223110988736" lon="7.243211986497045">
        <ele>1770.4100000000001</ele>
        <time>2012-07-23T12:57:18Z</time>
      </trkpt>
      <trkpt lat="46.100286645814776" lon="7.243134202435613">
        <ele>1769.9200000000001</ele>
        <time>2012-07-23T12:57:19Z</time>
      </trkpt>
      <trkpt lat="46.100337021052837" lon="7.243033368140459">
        <ele>1768.96</ele>
        <time>2012-07-23T12:57:20Z</time>
      </trkpt>
      <trkpt lat="46.100378008559346" lon="7.242930606007576">
        <ele>1768.48</ele>
        <time>2012-07-23T12:57:21Z</time>
      </trkpt>
      <trkpt lat="46.100420085713267" lon="7.242845864966512">
        <ele>1768.48</ele>
        <time>2012-07-23T12:57:22Z</time>
      </trkpt>
      <trkpt lat="46.100470880046487" lon="7.242782665416598">
        <ele>1768</ele>
        <time>2012-07-23T12:57:23Z</time>
      </trkpt>
      <trkpt lat="46.100531481206417" lon="7.242739163339138">
        <ele>1767.52</ele>
        <time>2012-07-23T12:57:24Z</time>
      </trkpt>
      <trkpt lat="46.100597698241472" lon="7.242710078135133">
        <ele>1767.52</ele>
        <time>2012-07-23T12:57:25Z</time>
      </trkpt>
      <trkpt lat="46.100668273866177" lon="7.242695242166519">
        <ele>1767.04</ele>
        <time>2012-07-23T12:57:26Z</time>
      </trkpt>
      <trkpt lat="46.100741028785706" lon="7.242693733423948">
        <ele>1766.5599999999999</ele>
        <time>2012-07-23T12:57:27Z</time>
      </trkpt>
      <trkpt lat="46.100815627723932" lon="7.242699349299073">
        <ele>1766.0799999999999</ele>
        <time>2012-07-23T12:57:28Z</time>
      </trkpt>
      <trkpt lat="46.100970273837447" lon="7.242699014022946">
        <ele>1765.1199999999999</ele>
        <time>2012-07-23T12:57:30Z</time>
      </trkpt>
      <trkpt lat="46.101048476994038" lon="7.242680490016937">
        <ele>1764.6400000000001</ele>
        <time>2012-07-23T12:57:31Z</time>
      </trkpt>
      <trkpt lat="46.101125674322248" lon="7.242650398984551">
        <ele>1764.6400000000001</ele>
        <time>2012-07-23T12:57:32Z</time>
      </trkpt>
      <trkpt lat="46.101199518889189" lon="7.242608908563852">
        <ele>1764.1600000000001</ele>
        <time>2012-07-23T12:57:33Z</time>
      </trkpt>
      <trkpt lat="46.10126699320972" lon="7.242548894137144">
        <ele>1763.6800000000001</ele>
        <time>2012-07-23T12:57:34Z</time>
      </trkpt>
      <trkpt lat="46.10133052803576" lon="7.242476474493742">
        <ele>1763.2</ele>
        <time>2012-07-23T12:57:35Z</time>
      </trkpt>
      <trkpt lat="46.101390793919563" lon="7.242395170032978">
        <ele>1762.71</ele>
        <time>2012-07-23T12:57:36Z</time>
      </trkpt>
      <trkpt lat="46.101450473070145" lon="7.242310345172882">
        <ele>1762.23</ele>
        <time>2012-07-23T12:57:37Z</time>
      </trkpt>
      <trkpt lat="46.101511912420392" lon="7.242228537797928">
        <ele>1762.23</ele>
        <time>2012-07-23T12:57:38Z</time>
      </trkpt>
      <trkpt lat="46.101578380912542" lon="7.242156956344843">
        <ele>1761.75</ele>
        <time>2012-07-23T12:57:39Z</time>
      </trkpt>
      <trkpt lat="46.102522434666753" lon="7.241325052455068">
        <ele>1752.1400000000001</ele>
        <time>2012-07-23T12:57:50Z</time>
      </trkpt>
      <trkpt lat="46.103265574201941" lon="7.240562047809362">
        <ele>1742.05</ele>
        <time>2012-07-23T12:57:59Z</time>
      </trkpt>
      <trkpt lat="46.103360960260034" lon="7.240497507154942">
        <ele>1741.0799999999999</ele>
        <time>2012-07-23T12:58:00Z</time>
      </trkpt>
      <trkpt lat="46.103463973850012" lon="7.240446964278817">
        <ele>1740.1199999999999</ele>
        <time>2012-07-23T12:58:01Z</time>
      </trkpt>
      <trkpt lat="46.104380702599883" lon="7.239883365109563">
        <ele>1730.51</ele>
        <time>2012-07-23T12:58:10Z</time>
      </trkpt>
      <trkpt lat="46.104873642325401" lon="7.239562924951315">
        <ele>1725.22</ele>
        <time>2012-07-23T12:58:15Z</time>
      </trkpt>
      <trkpt lat="46.104956706985831" lon="7.239481117576361">
        <ele>1724.26</ele>
        <time>2012-07-23T12:58:16Z</time>
      </trkpt>
      <trkpt lat="46.105027617886662" lon="7.239397214725614">
        <ele>1723.3</ele>
        <time>2012-07-23T12:58:17Z</time>
      </trkpt>
      <trkpt lat="46.105495328083634" lon="7.238788101822138">
        <ele>1717.53</ele>
        <time>2012-07-23T12:58:26Z</time>
      </trkpt>
      <trkpt lat="46.106219943612814" lon="7.237918060272932">
        <ele>1708.4000000000001</ele>
        <time>2012-07-23T12:58:36Z</time>
      </trkpt>
      <trkpt lat="46.106922011822462" lon="7.236906867474318">
        <ele>1698.3099999999999</ele>
        <time>2012-07-23T12:58:45Z</time>
      </trkpt>
      <trkpt lat="46.107368431985378" lon="7.236048812046647">
        <ele>1690.6199999999999</ele>
        <time>2012-07-23T12:58:53Z</time>
      </trkpt>
      <trkpt lat="46.107395840808749" lon="7.235947558656335">
        <ele>1690.1400000000001</ele>
        <time>2012-07-23T12:58:54Z</time>
      </trkpt>
      <trkpt lat="46.107409419491887" lon="7.235839767381549">
        <ele>1689.1700000000001</ele>
        <time>2012-07-23T12:58:55Z</time>
      </trkpt>
      <trkpt lat="46.107404390349984" lon="7.235725354403257">
        <ele>1688.6900000000001</ele>
        <time>2012-07-23T12:58:56Z</time>
      </trkpt>
      <trkpt lat="46.107381004840136" lon="7.235610689967871">
        <ele>1687.73</ele>
        <time>2012-07-23T12:58:57Z</time>
      </trkpt>
      <trkpt lat="46.10734898597002" lon="7.235493259504437">
        <ele>1686.77</ele>
        <time>2012-07-23T12:58:58Z</time>
      </trkpt>
      <trkpt lat="46.107152095064521" lon="7.234832681715488">
        <ele>1681.96</ele>
        <time>2012-07-23T12:59:03Z</time>
      </trkpt>
      <trkpt lat="46.107129966840148" lon="7.234690859913826">
        <ele>1680.52</ele>
        <time>2012-07-23T12:59:04Z</time>
      </trkpt>
      <trkpt lat="46.107129128649831" lon="7.234545685350895">
        <ele>1679.5599999999999</ele>
        <time>2012-07-23T12:59:05Z</time>
      </trkpt>
      <trkpt lat="46.107147987931967" lon="7.234403109177947">
        <ele>1678.5999999999999</ele>
        <time>2012-07-23T12:59:06Z</time>
      </trkpt>
      <trkpt lat="46.107191406190395" lon="7.234270172193646">
        <ele>1677.6400000000001</ele>
        <time>2012-07-23T12:59:07Z</time>
      </trkpt>
      <trkpt lat="46.107256868854165" lon="7.234151149168611">
        <ele>1676.6800000000001</ele>
        <time>2012-07-23T12:59:08Z</time>
      </trkpt>
      <trkpt lat="46.107328031212091" lon="7.234033215790987">
        <ele>1675.72</ele>
        <time>2012-07-23T12:59:09Z</time>
      </trkpt>
      <trkpt lat="46.107392236590385" lon="7.233905978500843">
        <ele>1674.75</ele>
        <time>2012-07-23T12:59:10Z</time>
      </trkpt>
      <trkpt lat="46.107448227703571" lon="7.23376801237464">
        <ele>1673.79</ele>
        <time>2012-07-23T12:59:11Z</time>
      </trkpt>
      <trkpt lat="46.107496926560998" lon="7.233627950772643">
        <ele>1672.8299999999999</ele>
        <time>2012-07-23T12:59:12Z</time>
      </trkpt>
      <trkpt lat="46.107808900997043" lon="7.232826137915254">
        <ele>1666.5799999999999</ele>
        <time>2012-07-23T12:59:19Z</time>
      </trkpt>
      <trkpt lat="46.107833795249462" lon="7.232699152082205">
        <ele>1665.6199999999999</ele>
        <time>2012-07-23T12:59:20Z</time>
      </trkpt>
      <trkpt lat="46.107846284285188" lon="7.232566550374031">
        <ele>1664.6600000000001</ele>
        <time>2012-07-23T12:59:21Z</time>
      </trkpt>
      <trkpt lat="46.107847457751632" lon="7.232433948665857">
        <ele>1663.7</ele>
        <time>2012-07-23T12:59:22Z</time>
      </trkpt>
      <trkpt lat="46.107837567105889" lon="7.232304448261857">
        <ele>1662.74</ele>
        <time>2012-07-23T12:59:23Z</time>
      </trkpt>
      <trkpt lat="46.107813008129597" lon="7.232178300619125">
        <ele>1661.78</ele>
        <time>2012-07-23T12:59:24Z</time>
      </trkpt>
      <trkpt lat="46.107771266251802" lon="7.232051901519299">
        <ele>1660.3299999999999</ele>
        <time>2012-07-23T12:59:25Z</time>
      </trkpt>
      <trkpt lat="46.107715023681521" lon="7.231925083324313">
        <ele>1659.3699999999999</ele>
        <time>2012-07-23T12:59:26Z</time>
      </trkpt>
      <trkpt lat="46.107646124437451" lon="7.231793738901615">
        <ele>1658.4100000000001</ele>
        <time>2012-07-23T12:59:27Z</time>
      </trkpt>
      <trkpt lat="46.107565825805068" lon="7.231663819402456">
        <ele>1656.97</ele>
        <time>2012-07-23T12:59:28Z</time>
      </trkpt>
      <trkpt lat="46.107476642355323" lon="7.231537504121661">
        <ele>1655.53</ele>
        <time>2012-07-23T12:59:29Z</time>
      </trkpt>
      <trkpt lat="46.106726881116629" lon="7.230481887236238">
        <ele>1645.4300000000001</ele>
        <time>2012-07-23T12:59:37Z</time>
      </trkpt>
      <trkpt lat="46.106646750122309" lon="7.230326067656279">
        <ele>1644.47</ele>
        <time>2012-07-23T12:59:38Z</time>
      </trkpt>
      <trkpt lat="46.106578605249524" lon="7.23015951924026">
        <ele>1643.03</ele>
        <time>2012-07-23T12:59:39Z</time>
      </trkpt>
      <trkpt lat="46.106303427368402" lon="7.229120163246989">
        <ele>1636.3</ele>
        <time>2012-07-23T12:59:45Z</time>
      </trkpt>
      <trkpt lat="46.106248525902629" lon="7.228952692821622">
        <ele>1634.8599999999999</ele>
        <time>2012-07-23T12:59:46Z</time>
      </trkpt>
      <trkpt lat="46.106176441535354" lon="7.228800477460027">
        <ele>1633.4200000000001</ele>
        <time>2012-07-23T12:59:47Z</time>
      </trkpt>
      <trkpt lat="46.106085916981101" lon="7.228670725598931">
        <ele>1631.98</ele>
        <time>2012-07-23T12:59:48Z</time>
      </trkpt>
      <trkpt lat="46.105978209525347" lon="7.228569891303778">
        <ele>1630.53</ele>
        <time>2012-07-23T12:59:49Z</time>
      </trkpt>
      <trkpt lat="46.105862455442548" lon="7.228487245738506">
        <ele>1629.5699999999999</ele>
        <time>2012-07-23T12:59:50Z</time>
      </trkpt>
      <trkpt lat="46.104428730905056" lon="7.227329118177295">
        <ele>1612.75</ele>
        <time>2012-07-23T13:00:02Z</time>
      </trkpt>
      <trkpt lat="46.1038738489151" lon="7.22686517983675">
        <ele>1606.98</ele>
        <time>2012-07-23T13:00:07Z</time>
      </trkpt>
      <trkpt lat="46.103784330189228" lon="7.226745067164302">
        <ele>1606.02</ele>
        <time>2012-07-23T13:00:08Z</time>
      </trkpt>
      <trkpt lat="46.103704618290067" lon="7.226609699428082">
        <ele>1604.5799999999999</ele>
        <time>2012-07-23T13:00:09Z</time>
      </trkpt>
      <trkpt lat="46.103636641055346" lon="7.226459495723248">
        <ele>1603.6199999999999</ele>
        <time>2012-07-23T13:00:10Z</time>
      </trkpt>
      <trkpt lat="46.103582577779889" lon="7.226296802982688">
        <ele>1602.1700000000001</ele>
        <time>2012-07-23T13:00:11Z</time>
      </trkpt>
      <trkpt lat="46.103543937206268" lon="7.226126147434115">
        <ele>1600.73</ele>
        <time>2012-07-23T13:00:12Z</time>
      </trkpt>
      <trkpt lat="46.103519126772881" lon="7.225950127467513">
        <ele>1599.77</ele>
        <time>2012-07-23T13:00:13Z</time>
      </trkpt>
      <trkpt lat="46.103508146479726" lon="7.225771090015769">
        <ele>1598.8099999999999</ele>
        <time>2012-07-23T13:00:14Z</time>
      </trkpt>
      <trkpt lat="46.103513175621629" lon="7.225593226030469">
        <ele>1597.8499999999999</ele>
        <time>2012-07-23T13:00:15Z</time>
      </trkpt>
      <trkpt lat="46.103531448170543" lon="7.225420391187072">
        <ele>1596.8900000000001</ele>
        <time>2012-07-23T13:00:16Z</time>
      </trkpt>
      <trkpt lat="46.103559779003263" lon="7.225264236330986">
        <ele>1596.4100000000001</ele>
        <time>2012-07-23T13:00:17Z</time>
      </trkpt>
      <trkpt lat="46.103593138977885" lon="7.225133646279573">
        <ele>1595.9300000000001</ele>
        <time>2012-07-23T13:00:18Z</time>
      </trkpt>
      <trkpt lat="46.103620631620288" lon="7.225023172795773">
        <ele>1595.45</ele>
        <time>2012-07-23T13:00:19Z</time>
      </trkpt>
      <trkpt lat="46.103641837835312" lon="7.22492091357708">
        <ele>1595.45</ele>
        <time>2012-07-23T13:00:20Z</time>
      </trkpt>
      <trkpt lat="46.103656506165862" lon="7.224823096767068">
        <ele>1595.45</ele>
        <time>2012-07-23T13:00:21Z</time>
      </trkpt>
      <trkpt lat="46.10367301851511" lon="7.224742798134685">
        <ele>1595.45</ele>
        <time>2012-07-23T13:00:22Z</time>
      </trkpt>
      <trkpt lat="46.103699672967196" lon="7.224687980487943">
        <ele>1595.9300000000001</ele>
        <time>2012-07-23T13:00:23Z</time>
      </trkpt>
      <trkpt lat="46.103735379874706" lon="7.224660823121667">
        <ele>1596.4100000000001</ele>
        <time>2012-07-23T13:00:24Z</time>
      </trkpt>
      <trkpt lat="46.103776451200247" lon="7.224652441218495">
        <ele>1596.8900000000001</ele>
        <time>2012-07-23T13:00:25Z</time>
      </trkpt>
      <trkpt lat="46.103818109259009" lon="7.224648334085941">
        <ele>1596.8900000000001</ele>
        <time>2012-07-23T13:00:26Z</time>
      </trkpt>
      <trkpt lat="46.103967893868685" lon="7.2244933526963">
        <ele>1598.8099999999999</ele>
        <time>2012-07-23T13:00:33Z</time>
      </trkpt>
      <trkpt lat="46.103974767029285" lon="7.224463261663914">
        <ele>1598.8099999999999</ele>
        <time>2012-07-23T13:00:37Z</time>
      </trkpt>
    </trkseg>
  </trk>

</gpx>